ECMWFFLT2_sfc_thetae_000.txt.gz
Theta_e
307 307 309 310 308 297 300 299 296 300 303 301 295 298 300 296 292 289 301 302 307 312 312 315 316 316 316 318 318 317 316 319 320 319 319 319 320 321 322 323 323 324 324 325 326 326 328 330 329 329 330 331 330 329 329 328 328 331 333 336 338 338 337
308 309 309 309 309 305 299 297 297 303 306 303 295 291 289 287 288 289 302 300 301 300 298 312 313 313 314 315 316 317 315 319 318 318 318 318 319 320 321 321 321 322 323 326 325 327 328 328 329 328 330 330 328 328 328 328 328 328 329 330 335 337 337
308 310 306 305 306 308 301 300 305 298 293 292 293 292 287 286 285 286 292 303 302 300 302 308 309 311 312 313 314 314 316 317 317 318 318 318 319 320 321 321 321 321 320 325 324 325 327 328 331 329 329 328 327 327 330 328 326 327 328 330 333 336 336
308 305 302 298 299 304 308 305 301 303 297 294 294 294 292 289 284 286 289 298 296 306 307 310 309 312 312 312 310 313 316 317 317 317 318 318 318 318 319 319 319 320 321 324 324 325 326 327 328 328 329 329 328 328 327 327 328 326 326 327 332 332 333
303 300 303 300 299 300 300 298 297 298 299 301 297 299 293 289 285 282 285 291 292 299 309 312 312 312 313 311 310 312 315 317 318 318 318 318 318 318 319 320 320 320 320 323 325 326 328 329 333 331 330 328 328 328 327 327 325 325 324 327 329 330 332
300 299 303 304 304 301 299 296 297 298 300 294 293 289 296 298 289 286 286 286 291 303 319 315 313 314 313 311 311 312 315 317 317 318 319 319 319 319 320 320 319 321 322 324 326 328 328 329 330 330 330 329 329 328 327 326 325 324 324 328 329 331 331
296 301 307 311 308 307 305 302 302 301 298 294 290 288 288 294 295 299 290 291 294 307 314 315 315 314 313 312 312 313 314 316 317 319 320 320 320 320 319 319 320 322 323 324 325 327 328 328 327 328 328 328 328 328 327 326 325 323 325 328 330 330 329
304 305 308 310 310 307 306 307 305 303 299 298 295 290 291 291 294 289 288 289 288 303 315 313 314 313 312 311 313 313 313 315 318 319 319 318 318 319 320 319 321 322 325 324 326 326 326 325 326 327 327 327 327 327 328 326 325 324 327 328 330 329 328
290 295 299 301 307 305 303 304 302 302 301 301 301 301 296 292 292 292 287 285 289 305 316 313 312 313 312 311 313 314 313 314 317 318 318 319 319 319 319 321 322 322 324 323 323 323 324 325 326 326 326 326 327 327 327 326 325 325 327 329 329 328 326
288 288 288 288 294 299 304 309 308 307 302 300 299 297 295 289 292 295 288 287 291 302 312 312 311 311 310 312 313 315 316 315 316 318 318 319 319 319 320 320 321 322 323 322 322 324 324 325 325 325 325 326 326 326 326 328 325 324 326 328 329 327 326
292 293 292 301 307 304 301 302 304 304 305 302 300 295 290 291 288 293 288 295 296 305 309 310 311 310 310 311 312 313 314 315 316 317 318 319 319 319 319 320 320 321 321 322 323 324 324 325 325 325 326 326 326 326 325 327 325 325 326 327 325 325 325
299 299 302 307 310 303 303 303 302 304 302 303 301 297 294 295 293 289 290 294 300 303 308 310 311 309 310 311 312 312 314 315 316 316 316 326 318 319 319 320 320 320 320 321 321 322 324 325 326 326 326 326 326 326 325 325 325 327 330 326 323 324 324
305 305 305 305 304 304 305 304 302 303 304 304 302 299 300 299 296 294 296 297 300 302 308 311 312 311 311 312 312 314 316 316 315 315 317 315 317 318 319 318 319 320 320 320 321 322 325 324 324 324 324 324 324 323 324 323 323 322 327 324 323 323 324
301 304 306 304 306 304 303 303 303 304 303 301 300 301 303 302 299 300 301 299 301 305 306 311 312 312 313 313 314 315 314 315 315 314 313 315 316 317 317 318 318 319 320 321 321 323 322 322 322 323 322 322 322 322 321 322 321 322 325 323 322 323 323
299 303 305 306 305 305 300 301 302 303 302 302 302 303 303 305 302 303 302 300 301 306 309 311 313 313 313 313 314 314 314 314 315 314 313 314 316 317 317 317 318 318 319 321 322 321 321 321 321 321 320 320 321 322 322 322 321 322 322 321 321 322 323
297 302 305 303 303 302 301 301 300 301 301 301 303 303 304 302 300 301 301 299 300 306 312 312 312 312 312 311 312 312 313 314 314 313 313 312 314 316 317 317 317 317 320 320 320 320 321 321 321 320 320 320 320 320 320 320 321 323 322 322 322 322 323
294 300 305 302 301 299 297 297 299 303 302 302 303 304 308 308 305 299 298 295 302 308 312 310 309 311 311 311 311 311 312 312 313 313 313 313 315 316 315 316 318 319 320 319 320 321 321 321 321 321 321 320 320 320 319 320 322 322 323 323 322 323 323
294 300 303 302 296 289 292 298 306 307 303 303 301 301 306 307 307 301 300 303 309 310 310 310 309 310 310 312 312 315 314 312 311 313 314 314 315 316 316 317 318 318 319 320 322 322 322 323 323 324 325 321 320 321 323 323 321 321 320 320 320 322 322
294 297 299 295 289 291 300 305 307 307 306 306 303 303 306 308 310 309 309 310 310 311 311 311 311 311 312 313 314 313 314 314 313 313 314 314 316 316 316 317 318 319 319 320 320 322 323 325 325 324 322 325 325 323 322 322 322 320 319 319 319 320 321
296 295 292 288 286 296 305 307 309 310 309 306 307 304 306 308 309 310 310 310 310 311 311 311 311 311 312 314 314 314 314 315 315 313 313 315 318 318 318 318 319 319 319 320 321 322 326 329 326 323 323 324 322 321 320 320 320 320 319 318 318 318 321
292 290 291 294 297 299 300 303 304 306 303 304 302 294 302 310 310 312 311 311 311 311 311 311 311 313 314 312 313 317 315 316 315 315 315 318 317 319 318 319 319 321 321 321 322 327 325 324 324 324 324 324 322 321 319 320 320 318 318 317 318 319 323
295 292 289 290 290 289 292 301 307 311 311 311 309 303 300 309 309 311 311 309 310 310 311 311 311 312 308 306 309 315 319 319 318 318 318 318 319 320 320 320 321 322 322 323 325 326 323 323 324 324 325 324 323 321 321 320 319 319 318 318 319 321 321
296 293 288 287 287 291 297 301 305 309 310 311 308 301 295 305 310 312 312 310 310 310 310 310 310 307 302 301 306 315 318 320 320 320 318 319 320 320 320 320 320 322 322 323 326 327 322 322 323 324 324 323 321 321 322 321 321 319 319 319 320 320 319
294 292 290 288 293 295 301 306 308 308 309 309 303 293 291 302 310 313 312 311 311 311 311 311 308 306 300 301 306 314 319 320 322 320 317 317 318 319 319 319 321 322 325 328 323 321 322 322 323 325 325 323 325 323 323 322 320 319 320 321 321 321 320
296 297 290 290 294 302 305 309 308 309 311 306 295 289 297 307 311 312 311 311 312 312 312 309 306 307 308 308 312 317 317 317 317 320 317 319 319 318 319 321 331 322 321 320 319 320 320 322 324 324 322 321 323 328 327 322 323 323 323 322 322 321 321
294 293 292 291 293 297 305 309 312 312 307 295 290 297 305 310 311 312 312 312 314 312 312 309 308 309 314 317 314 314 316 317 317 318 317 318 318 319 327 331 326 318 320 319 320 322 322 323 324 322 321 321 323 322 321 321 322 323 324 324 323 320 319
295 293 292 290 287 298 310 310 308 310 301 298 302 310 315 313 311 312 313 311 313 313 311 313 313 314 313 312 312 314 315 315 315 315 315 314 317 320 322 322 328 320 318 319 320 321 322 323 324 322 321 321 322 324 321 323 324 324 326 325 323 321 320
291 291 290 289 295 301 309 308 301 305 308 309 311 311 309 312 311 310 311 312 313 312 313 312 313 314 313 314 313 313 313 315 315 315 314 314 317 318 319 319 322 326 318 318 317 317 319 321 320 321 322 322 323 324 321 323 322 323 324 324 322 321 323
297 294 294 300 304 307 309 310 307 309 312 313 314 310 309 308 310 310 308 312 315 315 314 314 313 313 313 312 312 313 312 313 314 314 314 314 315 314 314 317 324 322 317 317 318 318 318 320 320 321 322 321 325 324 322 324 324 324 325 324 323 321 320
309 308 307 308 309 311 312 311 312 312 312 315 313 311 310 310 309 311 309 312 313 313 312 311 313 312 311 312 313 314 313 313 314 316 314 314 314 314 314 317 324 319 319 319 318 318 319 320 321 324 322 321 320 322 321 322 323 322 324 324 322 320 318
300 294 307 308 308 310 309 308 309 310 310 315 314 311 312 312 314 315 314 313 313 313 314 312 311 311 313 314 313 315 313 312 312 312 313 313 314 314 315 318 325 317 317 317 318 319 319 319 323 324 322 321 322 322 323 324 323 322 323 323 324 321 316
295 298 304 307 308 308 310 308 308 309 311 312 313 313 313 313 314 315 316 313 312 313 311 311 310 309 310 310 309 310 313 312 312 312 312 314 317 315 316 319 322 316 316 316 317 318 319 319 322 323 323 322 322 321 322 322 320 320 324 323 320 316 315
302 304 304 306 305 307 309 311 310 311 311 311 311 312 312 312 311 311 312 313 312 312 311 311 312 311 312 315 313 314 313 315 315 316 316 317 318 319 319 320 321 317 317 318 317 319 319 319 319 319 320 322 322 320 318 319 318 320 321 326 320 314 316
292 295 300 304 298 300 306 309 311 312 312 311 311 311 311 311 311 311 311 313 315 315 314 311 312 313 314 313 313 313 314 314 313 316 318 319 319 319 320 321 319 318 321 318 318 319 319 318 318 318 319 319 319 322 319 320 320 317 322 320 319 316 315
293 299 304 305 302 303 306 309 311 313 312 310 310 310 310 311 312 313 311 311 311 313 313 314 313 312 311 313 313 314 314 313 314 317 318 319 318 318 319 318 318 318 318 321 320 319 319 319 319 321 321 321 320 321 320 320 320 319 320 319 318 315 316
303 305 309 309 306 305 307 310 312 312 312 310 310 310 310 310 313 314 313 312 311 311 312 313 313 311 311 312 312 313 313 313 313 314 315 318 319 319 319 318 317 317 318 319 319 319 319 319 319 318 321 321 319 321 321 319 319 317 317 318 317 316 315
304 307 309 309 308 308 310 310 310 312 317 311 310 310 312 314 316 317 315 314 313 313 313 313 315 314 312 313 312 312 313 315 316 314 317 320 317 316 317 317 315 316 317 318 318 318 318 318 318 319 319 320 320 322 320 320 319 316 316 318 317 315 315

ECMWFFLT2_sfc_thetae_003.txt.gz
Theta_e
304 305 306 307 304 296 299 298 295 299 299 298 292 297 296 295 287 287 296 300 303 307 308 313 313 315 316 317 318 318 318 319 319 319 319 320 321 322 322 321 321 322 322 322 323 325 325 326 325 325 327 327 327 328 326 325 325 325 326 327 326 329 331
306 305 306 306 304 303 298 295 295 301 304 299 293 289 286 284 286 286 297 298 297 297 296 309 312 311 313 315 316 317 317 318 318 319 319 320 321 321 322 321 321 321 322 323 323 325 326 326 326 325 328 328 325 325 326 325 326 324 325 324 326 328 330
306 306 304 303 306 305 300 298 302 298 291 292 291 289 285 285 283 283 285 298 298 298 299 306 307 310 311 313 314 314 315 317 318 318 318 318 319 320 320 320 319 319 319 322 323 325 326 325 329 326 327 326 325 324 326 324 325 325 325 326 326 328 328
304 302 301 297 299 304 304 302 300 301 295 291 292 292 290 287 284 284 284 296 293 304 303 307 309 311 312 312 311 313 316 317 318 318 317 317 317 318 319 318 318 319 319 323 324 325 325 324 326 327 327 326 326 325 329 325 327 323 324 323 325 326 326
302 299 300 298 298 298 301 298 297 300 298 298 296 297 293 290 283 281 283 287 293 298 306 310 311 312 313 313 312 314 316 318 319 318 317 317 317 317 318 318 318 318 319 323 324 323 324 325 328 328 327 326 326 325 324 326 322 323 322 323 324 326 328
296 295 299 302 300 301 298 295 295 296 295 295 291 288 293 293 290 284 284 287 290 296 310 314 313 314 314 315 314 314 316 318 318 318 317 317 317 317 318 318 318 318 320 321 322 324 325 325 328 328 327 326 326 325 325 324 323 322 323 323 325 327 327
297 299 303 306 304 302 300 300 299 297 296 293 287 287 288 291 293 295 288 287 287 299 310 314 315 315 315 315 314 314 316 317 318 317 318 317 318 318 318 319 319 318 319 321 322 324 324 325 326 326 325 325 325 325 325 324 323 321 322 324 325 327 326
299 303 303 306 307 304 304 305 300 299 297 296 295 291 290 290 291 289 288 288 287 297 309 313 314 315 315 313 314 314 316 317 317 317 316 317 317 317 319 318 318 318 320 320 320 323 323 323 323 325 325 323 324 324 325 324 323 322 323 325 326 326 325
290 292 299 300 301 304 300 301 301 299 299 300 297 296 294 293 290 291 287 283 285 298 311 312 312 312 312 311 311 315 315 315 317 316 316 317 318 318 318 317 317 319 320 320 322 322 322 323 322 322 323 324 323 324 323 324 324 322 323 324 325 325 324
286 287 287 287 291 298 301 305 305 303 300 296 297 295 294 288 289 292 287 287 289 296 305 309 310 310 309 309 311 314 316 315 316 316 317 317 317 317 318 316 317 320 321 321 318 318 320 322 323 323 323 323 323 322 322 323 323 321 322 324 325 325 323
290 291 290 296 304 300 299 302 302 302 300 301 298 293 288 290 285 291 285 292 295 303 307 306 308 309 309 308 309 312 313 314 316 317 317 318 317 318 317 318 318 317 318 319 319 320 322 322 322 323 324 323 323 322 322 322 322 321 322 322 323 321 322
297 295 297 303 309 300 300 302 300 300 299 298 298 295 293 292 292 287 287 288 296 299 306 307 308 308 308 308 309 310 312 314 316 316 317 324 317 316 316 316 317 319 319 320 320 321 321 322 323 323 323 323 323 322 322 321 321 322 325 323 323 321 321
301 299 300 305 303 303 302 300 300 300 301 298 298 296 298 296 294 293 293 292 296 297 303 310 310 310 310 310 311 313 314 315 316 316 316 317 316 316 316 317 318 318 319 320 320 320 322 322 323 323 323 322 322 322 322 321 320 320 320 321 322 321 320
299 301 302 301 303 302 302 303 300 299 299 299 299 299 300 299 297 298 300 296 298 302 301 305 310 311 311 310 312 314 314 315 316 315 314 316 315 316 317 317 318 318 319 319 319 320 321 322 322 322 321 320 321 320 319 319 318 320 319 320 320 320 319
299 300 304 303 302 301 299 298 298 298 297 298 299 301 300 302 299 300 299 298 298 301 305 307 309 311 311 312 313 313 314 314 315 314 314 315 315 316 317 317 318 318 318 318 318 319 321 321 321 322 320 320 319 318 319 319 318 319 318 319 318 318 320
293 298 302 301 302 299 299 299 298 300 300 299 299 301 301 299 298 298 299 297 296 300 307 311 309 311 311 311 312 312 313 314 315 313 313 314 314 315 316 317 317 316 317 317 318 320 321 321 321 320 318 319 318 318 318 318 319 319 318 318 319 320 321
291 296 301 299 297 296 296 296 298 300 300 300 301 301 304 304 300 296 295 296 299 301 310 307 307 310 311 311 312 312 312 313 314 313 313 313 315 315 315 316 317 316 317 318 319 320 320 321 320 319 320 319 318 319 318 319 318 318 319 319 319 319 320
290 296 299 298 294 288 289 295 302 304 303 303 300 300 302 302 303 299 298 299 302 307 308 308 307 308 310 312 314 316 315 313 313 313 313 313 315 315 316 317 317 316 317 318 320 321 320 321 321 321 322 319 319 320 320 319 317 318 318 319 318 319 320
293 296 299 294 288 291 299 303 304 304 303 302 302 302 302 303 306 306 307 307 307 309 310 310 310 312 313 313 314 313 315 315 314 313 313 312 314 315 315 315 316 317 318 319 320 320 320 321 321 321 321 321 321 319 319 319 319 318 318 318 318 317 318
293 294 292 286 285 293 301 303 305 307 307 305 303 300 302 304 306 306 306 307 308 308 309 310 310 310 310 311 313 314 314 315 314 313 313 313 314 314 315 315 316 317 318 319 320 320 323 324 324 322 321 321 321 321 319 319 318 317 317 316 317 316 316
292 289 291 294 294 297 300 303 304 304 300 302 301 295 294 305 306 307 306 307 308 309 309 309 309 311 311 309 310 313 313 314 314 315 315 315 315 316 316 317 317 319 320 320 320 323 322 323 323 323 322 321 321 321 319 319 317 317 316 316 316 317 320
292 290 288 288 289 289 290 297 303 306 307 307 305 301 297 304 306 308 309 308 308 308 308 308 310 311 308 305 308 311 315 315 315 314 315 315 316 317 317 317 318 319 320 320 321 323 321 322 323 323 322 321 321 320 320 319 316 317 316 317 318 319 319
293 291 287 285 286 290 295 300 303 303 305 309 305 301 294 299 306 309 311 309 309 308 308 309 309 308 303 303 307 311 314 316 316 315 314 315 316 317 318 318 318 319 320 320 322 324 321 321 322 322 321 321 320 321 322 320 317 317 317 317 318 318 319
292 290 288 287 290 293 298 300 302 304 305 306 302 291 288 299 305 309 310 310 309 308 308 310 308 306 301 302 306 309 314 317 317 315 315 315 316 317 318 319 319 320 322 322 323 322 321 320 321 321 321 321 323 322 321 318 317 318 319 320 320 320 319
294 296 289 288 291 299 302 303 305 306 307 305 294 290 293 302 306 309 310 309 309 309 310 309 306 307 306 306 308 313 316 318 318 318 317 317 318 318 318 319 329 321 321 322 322 322 322 322 320 321 321 320 321 324 323 319 320 322 322 321 320 320 320
291 291 290 291 292 296 300 304 307 308 304 293 291 298 301 307 307 310 311 310 310 310 311 309 307 307 309 315 314 315 317 318 318 319 318 317 317 318 324 327 328 319 320 320 320 320 320 319 321 321 321 321 322 320 319 320 322 323 322 322 322 321 320
291 290 291 288 287 297 306 307 305 308 299 296 299 305 311 310 309 310 310 312 312 312 310 310 309 311 313 313 313 315 316 316 316 318 317 315 316 316 317 322 330 321 318 319 318 318 318 319 321 320 319 320 320 320 318 319 321 321 321 321 321 321 320
288 289 288 289 296 299 306 307 300 303 304 305 308 310 308 312 309 309 309 310 312 312 312 310 310 310 310 310 310 311 313 314 315 316 316 315 316 316 318 322 324 325 318 318 318 318 318 320 320 319 319 320 320 320 318 321 320 320 320 321 321 321 323
295 291 294 298 300 303 306 307 303 307 310 311 311 310 310 309 308 309 310 310 311 311 311 311 311 310 310 309 310 310 311 312 313 313 314 315 315 317 318 320 323 323 316 316 316 317 316 317 317 317 318 318 320 320 320 320 320 321 321 321 320 321 321
302 303 303 304 306 306 307 307 309 309 311 311 310 309 307 308 308 309 309 310 311 311 311 311 310 309 310 309 310 310 310 310 312 314 313 312 313 316 317 316 321 322 316 315 315 314 316 316 316 319 317 318 318 319 319 321 320 320 320 320 321 322 321
298 293 301 303 304 305 306 307 308 310 312 312 311 309 310 309 311 310 311 312 311 310 310 309 308 309 310 310 310 311 310 310 310 312 313 312 313 314 314 315 323 320 314 314 315 316 316 316 317 319 319 319 320 320 320 321 322 320 317 320 322 322 319
294 298 303 305 306 307 308 307 307 308 309 311 311 311 311 312 312 312 311 310 310 308 308 309 308 309 309 310 309 308 310 310 311 311 312 312 312 312 313 313 320 315 314 314 315 316 316 317 316 319 321 321 321 320 322 323 320 316 320 321 321 320 316
298 300 302 303 305 307 307 308 307 308 309 309 309 310 310 310 311 310 311 312 309 308 308 307 308 309 311 311 310 309 309 309 310 311 311 311 312 312 312 313 321 315 314 315 315 316 317 317 316 317 318 320 320 319 319 319 316 316 319 324 323 316 313
294 295 299 301 298 299 304 307 308 309 309 310 309 309 310 310 310 310 311 311 312 312 311 309 311 310 311 310 310 313 312 311 311 310 310 311 311 312 313 315 317 316 316 315 315 316 317 316 315 316 317 318 318 319 318 317 316 314 318 320 318 314 313
292 297 301 302 300 303 304 306 308 309 309 309 309 309 309 309 310 310 311 310 310 310 310 312 311 310 310 311 311 311 312 311 311 312 313 313 313 314 315 315 314 314 313 318 316 316 317 316 316 318 318 319 318 318 318 318 317 316 317 318 318 315 315
300 302 304 304 303 304 305 307 309 309 309 308 308 309 310 311 311 310 310 310 310 309 310 311 311 309 310 310 310 310 311 311 311 312 312 312 313 315 315 314 314 315 315 316 316 318 316 316 315 315 317 318 318 319 317 317 317 317 318 318 316 315 314
302 305 305 306 305 307 309 309 309 309 311 310 309 309 310 311 312 311 310 310 311 311 310 310 312 311 309 310 309 309 310 311 313 312 318 320 318 316 315 316 314 314 314 315 314 314 313 313 314 316 315 316 317 318 318 318 318 317 317 317 315 314 314

ECMWFFLT2_sfc_thetae_009.txt.gz
Theta_e
308 309 309 308 310 301 305 303 302 305 310 309 303 303 300 300 299 298 308 305 310 315 315 317 321 322 323 324 324 326 331 334 335 335 335 336 337 338 339 338 337 337 338 339 338 340 340 340 340 341 344 345 344 342 341 341 341 341 341 341 341 343 345
308 310 310 309 307 310 305 302 306 307 309 312 309 298 300 299 295 299 302 300 305 305 300 320 320 320 322 322 323 325 331 334 333 334 335 336 336 338 339 339 339 338 337 338 337 338 340 340 340 343 346 347 346 344 342 340 340 340 340 340 341 342 343
308 308 310 309 309 308 308 307 311 305 301 301 306 307 294 294 294 297 299 300 303 307 306 315 318 320 322 323 325 326 329 331 332 333 335 337 337 337 336 336 336 336 336 337 337 336 338 341 344 345 345 345 344 342 343 341 339 340 340 341 342 343 344
307 309 310 304 305 308 308 309 306 308 308 311 305 303 305 302 296 295 297 300 299 314 311 315 316 324 326 324 324 325 328 331 332 333 335 335 336 335 335 335 335 335 335 335 335 335 336 340 341 341 339 340 339 340 341 341 341 342 341 341 343 342 345
306 304 308 307 307 304 304 306 305 306 305 305 306 303 302 300 299 297 297 295 302 312 319 319 321 326 326 326 325 327 329 331 333 334 335 336 336 335 334 335 335 335 335 334 334 335 338 340 341 338 337 338 338 338 338 339 340 340 338 339 340 340 343
304 306 308 307 308 309 307 306 305 306 302 302 299 299 301 301 300 294 296 296 305 313 322 325 325 325 325 328 329 328 330 331 333 334 335 336 335 335 335 334 334 334 335 334 334 335 338 338 335 335 337 338 337 336 336 337 336 336 335 338 339 340 341
305 306 309 309 308 307 307 308 307 308 310 310 304 295 300 301 301 302 302 298 303 317 317 319 321 323 324 328 329 329 330 331 332 333 334 336 336 334 333 334 334 334 335 334 335 337 337 337 339 340 340 337 337 337 337 337 336 336 335 335 339 341 339
307 308 308 309 306 308 307 307 306 306 305 306 306 306 311 303 301 300 299 298 303 315 318 319 321 323 323 327 328 330 330 330 331 332 333 334 333 333 333 334 334 335 334 335 336 337 338 338 339 340 340 340 339 338 337 337 336 337 337 336 336 338 339
303 305 309 308 309 309 308 308 306 307 307 306 306 307 309 303 304 305 300 295 303 314 317 322 322 322 321 323 325 328 328 329 329 331 332 333 333 332 332 333 334 333 331 332 334 337 338 339 339 341 341 341 339 340 339 337 337 336 337 338 336 337 338
294 294 295 298 303 305 307 308 305 307 307 305 307 303 305 298 304 303 300 301 307 316 320 319 322 322 324 325 325 326 328 329 328 329 330 331 331 331 332 333 332 331 332 335 336 337 338 339 340 341 341 341 341 341 340 339 337 338 337 337 335 335 334
302 304 309 310 311 308 305 305 305 304 306 308 312 312 305 300 300 301 301 309 309 310 312 318 321 323 324 325 325 324 325 326 328 330 330 329 330 331 331 332 332 333 333 334 336 337 337 339 340 340 340 340 340 341 341 340 339 338 339 339 339 336 335
312 311 308 305 314 307 308 306 304 305 305 306 307 305 304 311 302 298 302 305 305 308 313 317 320 322 325 326 326 325 325 326 326 328 329 328 329 330 332 331 331 331 332 334 335 337 337 339 340 339 340 340 341 341 340 340 339 337 338 339 338 336 335
305 303 306 308 308 309 309 309 306 304 307 306 306 310 309 309 304 302 310 305 307 310 312 315 318 323 324 326 327 327 327 327 328 328 327 326 327 328 329 330 331 332 332 333 335 336 337 339 338 338 338 339 340 341 340 341 339 338 340 339 338 336 336
304 304 307 306 308 306 307 307 308 307 305 306 307 309 308 307 309 311 311 310 309 311 313 315 319 321 319 323 326 325 324 323 326 326 326 326 326 327 328 329 330 332 333 335 336 337 338 338 338 337 338 339 339 339 338 338 339 339 340 338 336 335 335
305 305 307 307 307 308 305 304 305 304 305 305 305 306 306 308 307 308 308 309 309 315 317 317 319 322 320 320 320 321 323 324 324 325 325 327 327 327 328 330 331 332 333 335 336 336 337 338 338 338 339 339 340 338 337 337 339 340 339 336 336 335 334
303 304 305 305 307 306 306 307 307 306 304 305 306 307 311 308 308 313 309 306 308 316 319 316 318 317 319 319 322 322 322 323 325 324 326 327 327 328 328 330 331 332 332 334 335 336 337 339 339 339 338 339 340 338 338 338 337 338 337 335 333 334 334
304 302 306 305 305 305 303 304 307 309 308 310 308 309 311 312 313 308 305 306 314 318 322 318 321 320 321 321 321 322 323 324 325 325 326 327 328 329 330 331 331 331 332 334 336 337 339 339 338 339 340 339 338 340 340 340 340 337 335 334 335 334 335
304 303 304 305 303 297 299 313 312 312 308 307 306 307 309 313 312 310 312 313 318 318 317 316 319 321 322 322 324 325 325 324 325 326 328 329 329 330 330 331 331 332 334 335 336 338 340 340 338 340 341 340 340 341 341 340 337 337 336 336 335 333 334
302 304 305 301 296 298 313 313 311 310 310 312 311 314 315 315 315 314 311 313 316 319 319 319 321 321 321 322 322 322 323 326 327 327 327 329 329 329 330 331 332 334 335 336 337 337 337 337 338 338 339 339 340 339 338 336 336 335 335 335 334 334 334
304 303 302 294 298 308 311 313 312 314 311 310 310 309 312 314 313 316 314 316 319 321 319 319 320 320 321 322 324 325 325 325 326 326 327 328 329 330 331 332 333 335 335 336 336 337 338 337 336 336 337 338 336 337 338 336 336 335 335 334 333 334 334
302 304 302 301 308 306 310 308 310 310 312 310 309 304 310 320 318 315 315 318 320 319 319 319 320 321 320 320 324 325 324 325 327 328 328 328 329 331 333 334 335 338 338 338 338 339 338 336 336 336 336 336 336 337 336 335 335 334 333 333 333 334 334
306 303 300 301 300 298 305 317 320 315 314 317 320 313 308 321 319 317 318 318 322 321 319 319 320 322 320 317 321 324 323 325 326 328 329 329 331 333 333 335 335 337 337 337 337 336 335 335 336 337 337 336 336 336 336 335 334 333 333 332 334 335 335
302 302 299 299 298 302 313 314 316 313 314 314 316 308 303 318 323 319 318 318 321 321 320 321 321 319 313 314 320 326 324 324 325 325 326 326 327 330 331 331 332 334 335 336 334 335 335 334 336 337 337 336 335 335 336 334 333 333 334 335 335 335 336
305 304 300 298 304 303 312 315 313 309 313 315 311 298 300 318 320 319 319 320 322 321 322 321 321 319 312 314 321 324 325 325 326 328 328 328 328 329 331 332 334 336 336 335 334 333 333 335 337 337 336 335 334 335 334 334 333 334 335 336 339 338 337
303 301 302 302 304 311 312 311 311 310 313 312 302 294 305 322 323 321 322 323 324 324 322 321 319 324 327 326 324 322 325 325 326 328 330 330 330 330 328 329 332 332 333 333 334 335 336 337 337 335 334 334 334 336 337 336 335 335 337 339 338 336 336
302 303 300 301 305 311 313 311 310 313 309 301 299 311 325 326 323 321 322 323 324 324 324 323 326 324 322 323 323 323 324 326 329 327 327 327 327 328 331 333 334 332 331 333 334 334 337 336 334 334 335 334 335 337 336 335 337 338 340 338 337 336 336
300 302 299 296 291 307 309 311 311 312 306 308 321 325 318 318 325 322 321 323 323 324 324 324 326 323 319 320 323 324 326 327 328 328 327 327 328 327 329 330 332 332 332 331 331 333 333 332 333 333 333 334 336 336 335 337 339 340 338 336 336 336 336
299 299 296 295 306 313 311 313 309 312 315 320 317 319 318 322 321 323 324 324 325 324 326 322 322 324 324 324 326 327 327 328 329 330 331 331 331 330 329 328 331 332 333 334 333 333 330 332 333 333 334 334 335 335 335 339 339 337 335 335 335 335 336
303 302 306 314 317 313 314 315 316 319 320 319 320 319 319 323 322 324 324 325 324 325 327 325 325 322 325 327 327 329 329 328 327 329 331 330 330 330 329 327 330 330 331 334 334 332 332 333 334 335 334 334 335 334 337 339 336 335 334 335 336 335 336
312 313 312 313 314 315 315 315 316 315 316 317 318 317 319 321 324 324 323 325 324 324 327 324 324 326 326 326 324 325 326 328 329 329 329 329 330 328 328 329 329 329 330 330 331 331 333 333 333 334 334 334 334 336 338 336 336 335 335 335 334 334 335
303 300 315 313 314 314 315 315 317 317 317 318 320 321 320 323 322 321 323 325 325 324 324 326 325 326 324 326 328 329 329 329 330 329 331 331 329 329 330 330 329 329 329 328 329 330 330 332 331 330 332 332 334 336 335 334 334 335 334 333 332 334 335
305 306 314 312 313 316 317 315 315 317 318 319 320 323 325 324 322 323 323 324 323 323 323 327 327 325 325 326 328 329 330 331 331 331 333 331 330 329 327 327 328 329 329 330 329 330 330 332 330 329 329 331 331 332 330 330 330 332 331 332 332 333 332
308 313 314 310 311 317 318 317 318 318 319 320 319 320 321 321 321 320 321 323 323 322 324 326 327 325 327 329 330 323 327 328 328 330 332 331 330 328 327 327 328 328 330 329 331 331 330 329 328 328 328 327 328 330 330 330 332 332 333 333 332 332 330
304 303 306 308 303 304 309 311 315 319 319 318 320 319 320 321 322 321 320 319 321 322 324 325 326 327 327 326 327 319 325 328 330 331 331 330 327 327 326 325 327 329 329 329 329 329 329 327 328 328 328 329 329 328 330 332 333 333 333 331 329 326 326
302 307 308 311 309 310 312 315 319 320 318 318 320 323 322 322 324 322 321 318 319 319 320 325 327 328 328 328 331 326 322 329 331 331 329 327 326 325 326 325 326 326 327 327 328 326 327 327 327 328 328 328 330 329 332 332 331 333 331 329 327 325 326
306 308 308 311 311 309 312 314 316 318 321 318 316 317 319 322 322 322 323 323 321 322 324 322 327 330 331 330 328 327 327 326 325 326 326 327 327 326 327 326 326 326 326 327 327 327 328 328 328 329 327 328 330 328 330 330 332 332 331 328 327 326 325
306 309 310 313 315 315 316 317 317 319 322 319 317 318 319 319 319 322 323 324 326 324 324 324 323 324 327 325 324 326 326 325 325 324 327 327 326 326 325 325 326 326 327 327 328 328 328 328 328 327 327 328 329 327 331 330 331 330 330 328 324 324 326

ECMWFFLT2_sfc_thetae_012.txt.gz
Theta_e
314 314 316 315 316 304 310 311 306 309 315 311 308 307 307 305 303 301 312 308 311 316 316 319 324 326 328 329 329 330 334 336 340 342 342 341 342 343 345 346 347 348 344 343 343 344 343 344 346 347 351 350 348 347 346 347 347 347 345 345 345 345 345
313 316 316 316 315 316 312 306 310 315 316 314 309 301 305 302 298 302 307 304 306 307 303 323 325 321 320 326 330 328 331 336 337 340 342 342 342 344 347 349 350 349 344 342 341 342 343 344 346 348 351 350 348 348 348 346 346 345 345 345 345 345 344
313 315 315 312 314 316 312 311 318 307 303 302 309 306 299 299 299 301 304 306 305 307 309 313 316 314 317 323 331 330 329 333 337 339 342 345 344 344 345 346 348 348 343 340 340 340 342 345 348 350 349 347 348 348 347 345 345 345 346 346 347 347 345
312 313 312 306 309 313 315 315 313 315 312 310 306 307 308 306 300 300 301 304 301 311 311 313 313 316 318 321 332 330 329 332 336 340 341 343 343 343 344 346 348 347 342 340 339 339 340 345 347 346 344 344 343 345 347 345 345 347 347 347 347 345 347
312 307 310 308 310 308 308 309 309 310 310 314 312 312 307 304 302 301 301 299 306 313 316 314 316 317 320 322 329 332 331 333 337 341 341 343 344 343 344 345 347 347 343 338 338 340 341 346 347 342 340 340 338 340 343 343 344 345 345 346 346 346 346
307 308 314 313 314 313 311 310 309 310 308 306 302 302 309 307 303 298 299 299 308 316 324 319 317 321 321 326 328 331 334 334 338 340 342 344 344 345 345 345 345 345 343 339 339 340 342 343 340 336 337 337 336 338 339 340 340 341 341 345 346 346 346
308 310 314 317 317 315 314 313 311 313 312 311 306 298 304 307 307 309 307 302 306 322 327 326 326 327 325 330 331 331 333 336 338 341 342 345 346 345 344 344 344 344 344 341 340 342 343 344 341 339 339 337 337 338 338 338 338 338 336 338 345 347 345
313 314 316 315 314 315 312 313 314 312 310 310 309 309 311 306 307 303 304 302 306 321 331 330 330 333 331 333 335 336 333 336 338 341 342 345 346 348 346 344 343 344 344 343 343 344 345 344 343 342 342 340 338 337 336 336 336 336 337 336 338 344 345
306 309 312 311 314 313 311 311 312 313 313 313 313 314 314 306 307 307 303 299 306 322 329 328 329 328 324 326 330 335 336 337 338 342 344 345 348 347 345 344 344 345 343 343 345 346 346 346 345 345 344 341 339 340 338 335 334 334 337 340 339 340 341
296 297 297 301 305 308 311 313 312 313 312 312 311 306 309 301 307 310 304 304 310 319 325 323 325 329 327 330 332 332 336 339 339 341 343 346 347 346 346 345 345 344 345 347 347 347 346 345 345 346 345 344 341 340 340 338 335 336 337 339 337 338 336
304 305 309 312 313 312 307 309 312 312 312 313 313 311 307 303 307 308 306 309 310 313 316 316 320 320 318 319 329 332 334 337 340 343 344 345 346 346 344 345 345 346 347 346 347 346 345 344 345 346 344 342 340 341 342 339 338 338 341 341 342 339 336
311 311 316 314 314 310 310 310 310 312 311 312 311 309 306 315 310 301 305 315 311 311 315 317 319 320 323 325 326 328 335 338 338 340 343 342 344 345 344 345 345 345 346 346 345 345 344 343 345 344 343 341 341 341 342 340 339 339 339 342 342 340 338
313 314 314 314 313 312 312 311 311 310 311 312 310 312 314 318 307 304 315 317 313 315 316 318 319 320 321 322 324 327 330 334 340 340 341 340 340 342 342 344 345 345 344 345 344 344 343 344 344 343 342 342 342 345 343 343 339 339 342 343 342 339 338
312 312 313 313 311 311 311 311 312 312 311 311 311 312 315 316 314 315 318 318 316 317 318 319 320 322 323 327 328 330 329 328 336 338 339 339 339 339 341 343 344 345 345 345 344 345 345 343 343 342 343 344 343 343 343 340 341 341 343 344 343 340 337
310 312 313 313 312 312 309 311 312 312 311 311 312 312 314 315 314 314 314 314 313 319 324 322 321 324 330 330 326 324 327 329 331 335 336 338 337 338 340 343 343 344 344 345 344 343 343 342 343 342 344 344 344 340 338 335 340 342 343 344 343 340 338
308 310 311 311 313 311 310 311 312 312 311 310 312 312 315 313 313 315 314 312 311 316 324 322 321 321 324 323 327 329 331 330 332 333 335 336 337 338 339 341 343 343 343 343 343 343 342 342 343 344 344 344 344 343 337 337 338 342 343 342 341 340 338
306 310 312 310 310 309 307 308 311 312 313 313 314 315 318 316 314 311 308 309 316 319 321 317 318 318 321 324 328 329 332 334 333 333 334 336 338 338 339 341 342 342 341 343 343 341 340 340 343 345 347 345 344 344 341 341 343 342 342 340 340 339 338
307 309 310 311 307 300 302 319 317 315 312 312 311 312 314 316 316 312 314 315 318 318 317 318 319 320 322 327 334 333 330 333 335 333 335 336 338 339 339 341 341 342 342 342 342 341 342 343 342 345 346 346 346 345 341 343 344 344 341 340 339 338 338
307 311 310 305 299 301 319 318 320 318 316 315 314 314 314 314 317 316 315 317 318 319 319 319 321 327 330 332 331 331 331 332 333 334 334 336 337 338 339 340 341 343 343 343 343 342 342 341 342 343 345 348 347 343 342 341 345 344 342 340 339 339 338
312 308 305 296 300 315 315 317 317 319 318 317 315 313 315 316 316 319 317 317 318 319 319 321 330 330 328 330 333 335 334 333 333 332 333 335 336 338 339 341 342 344 343 344 343 344 344 344 343 343 346 346 341 339 342 342 344 343 341 339 338 339 338
304 305 304 304 313 311 313 312 315 314 314 314 312 308 312 318 319 318 318 318 318 318 319 327 328 329 327 327 331 335 334 335 334 333 334 334 337 339 341 342 344 347 347 346 345 348 347 347 346 344 343 344 342 338 339 340 342 341 338 337 337 338 338
310 304 303 304 304 301 308 315 319 319 319 319 319 314 310 319 319 320 319 318 319 319 323 327 327 330 326 317 322 330 331 333 334 335 336 335 338 340 341 345 346 349 348 348 349 347 347 348 347 345 344 344 344 341 339 340 339 338 336 335 337 338 339
308 305 301 300 299 303 312 315 318 319 320 317 318 311 306 316 319 320 319 317 318 319 324 330 329 322 313 313 321 329 333 332 333 333 335 334 337 341 343 343 345 347 348 349 349 350 349 347 348 349 348 345 344 343 340 337 337 335 335 337 337 338 340
307 306 302 301 306 306 315 317 316 317 320 318 314 302 303 317 318 318 319 317 317 320 327 330 327 319 312 314 325 329 332 333 333 337 337 337 339 342 345 345 347 349 351 350 348 346 346 347 350 350 348 345 343 340 336 335 335 335 337 339 340 341 340
306 305 304 306 308 317 317 315 316 317 318 315 305 298 309 319 320 320 320 319 319 324 331 328 321 325 328 334 332 333 332 332 334 337 338 338 339 340 339 341 345 347 349 348 345 345 346 349 350 348 346 344 342 342 340 337 336 336 339 342 341 343 344
304 306 303 303 308 317 316 317 316 318 313 304 303 321 324 322 319 322 321 320 321 326 331 329 325 330 330 331 331 332 332 334 336 336 336 337 337 340 340 343 342 343 342 345 346 345 349 351 348 346 345 344 343 343 340 337 339 340 342 343 345 346 345
308 309 306 301 296 316 316 316 316 316 309 311 322 324 325 323 323 321 323 322 323 329 331 331 333 330 326 328 331 332 335 336 336 337 336 338 336 336 339 341 342 339 341 340 341 342 341 343 345 344 344 343 342 342 340 341 341 342 344 345 346 346 344
304 304 301 300 311 314 317 316 312 318 317 328 329 324 318 323 324 325 323 326 331 335 333 331 331 329 330 333 335 337 337 336 337 339 340 340 339 338 335 335 339 337 341 342 341 342 339 342 343 343 342 341 341 340 341 344 345 344 346 346 346 344 343
309 307 310 316 320 320 319 320 319 320 322 323 323 323 323 321 322 326 327 327 330 337 335 333 331 330 331 335 335 335 335 335 335 338 339 339 339 338 337 333 338 338 337 339 342 343 343 343 343 342 341 339 339 339 342 345 346 345 345 344 343 342 340
317 317 319 317 319 319 320 320 322 321 321 322 322 322 321 323 324 325 324 327 330 335 335 331 331 331 332 333 333 333 334 336 341 342 341 341 341 339 339 339 340 337 336 337 337 339 342 344 343 342 342 340 339 341 344 345 348 345 343 343 341 340 339
307 304 317 316 314 317 318 319 321 322 323 324 325 325 326 327 328 327 330 330 332 333 334 333 331 330 332 331 334 337 338 337 338 337 338 339 338 338 338 342 341 338 337 334 335 336 337 343 342 340 341 340 341 343 345 347 346 345 343 341 339 338 337
309 312 316 315 315 319 320 319 319 320 323 324 326 328 328 329 330 331 332 333 333 334 332 334 333 332 330 331 333 332 333 334 336 337 338 339 339 341 340 340 338 337 337 337 336 337 337 340 341 339 337 339 341 342 341 340 338 341 340 339 337 336 335
313 314 316 315 317 318 317 318 318 317 319 322 323 326 328 327 327 330 331 331 333 332 332 334 334 331 331 332 331 328 330 332 331 331 334 338 340 340 342 341 340 339 339 337 337 336 336 339 338 337 336 335 335 338 337 336 337 338 337 336 335 334 335
307 310 312 313 310 310 315 317 315 315 317 321 323 324 327 327 328 330 330 331 332 331 334 334 332 331 332 332 331 325 327 328 331 335 336 337 337 338 337 336 337 337 336 336 334 335 337 337 335 335 334 335 334 332 334 335 337 337 337 335 334 331 331
307 310 315 315 315 314 316 315 315 316 320 324 322 323 324 327 330 330 327 328 331 332 332 333 332 333 333 332 330 326 325 333 337 338 336 334 333 333 333 334 335 335 336 335 335 335 335 335 334 333 333 333 334 332 335 336 336 336 337 333 330 328 329
311 313 313 313 313 310 313 314 316 317 324 323 321 322 324 325 327 328 330 328 328 330 331 331 333 332 331 330 328 326 329 332 334 334 334 336 335 333 333 334 334 334 333 334 333 334 335 334 334 334 332 333 335 333 336 336 336 337 336 333 330 328 328
309 313 313 314 314 314 315 317 318 321 324 319 317 317 320 322 326 327 328 329 329 328 328 327 333 334 328 329 329 331 333 333 334 336 335 334 334 331 330 331 332 334 334 333 333 333 334 334 333 333 333 334 335 332 335 334 334 333 334 332 329 329 331

ECMWFFLT2_sfc_thetae_015.txt.gz
Theta_e
316 315 317 317 317 305 311 311 307 310 316 313 308 309 310 309 305 303 312 310 312 317 316 320 321 320 322 323 323 324 328 330 332 334 339 339 337 341 342 336 333 345 351 353 352 352 351 349 347 346 350 351 352 351 349 349 352 353 351 350 348 348 348
317 319 318 317 317 316 314 307 311 316 319 316 311 303 307 304 300 303 307 305 307 308 305 319 319 318 319 321 322 322 327 333 332 332 337 338 337 341 345 348 343 344 347 351 349 350 350 349 348 349 352 353 353 351 349 348 350 351 350 349 348 348 348
316 318 317 314 317 318 313 312 319 310 305 304 310 307 299 300 300 302 305 307 307 309 311 315 315 316 318 320 323 322 322 328 333 333 336 341 342 341 343 346 346 342 350 350 347 347 348 349 350 351 354 354 351 349 350 348 349 351 350 348 348 349 349
315 315 314 307 310 316 317 318 314 317 313 310 307 307 308 307 300 301 302 306 303 313 312 316 316 318 319 319 321 321 322 324 331 335 335 339 342 342 342 345 341 340 347 348 345 344 343 346 348 350 352 349 345 346 349 349 349 350 349 348 349 348 350
315 308 311 309 311 309 310 311 311 312 311 315 313 311 307 305 303 302 302 301 306 313 316 316 318 318 320 319 320 322 323 324 327 335 337 340 343 343 344 346 346 347 348 346 344 342 341 345 348 349 347 344 341 342 345 345 346 346 346 348 348 349 349
309 310 315 314 313 313 311 310 309 311 309 307 303 303 311 309 305 298 300 300 309 315 319 320 318 320 319 321 321 323 324 325 328 334 339 341 343 346 346 347 344 345 346 344 343 341 341 344 345 345 343 340 338 341 342 341 340 341 341 346 347 349 348
310 313 316 317 316 317 316 314 311 314 313 312 307 298 305 309 308 309 308 304 307 317 320 321 321 321 320 322 322 322 324 326 329 335 338 343 347 347 347 347 342 340 346 344 342 342 343 346 347 344 341 337 337 339 340 340 339 340 340 342 347 350 348
315 316 317 317 317 316 314 315 316 313 310 311 310 308 312 308 309 305 305 303 308 322 325 322 322 325 323 325 324 324 324 326 329 335 339 345 348 349 346 344 340 343 346 345 344 342 345 347 347 342 339 339 337 337 336 338 338 339 339 337 341 348 348
308 310 314 313 315 315 312 312 314 315 314 313 312 313 315 308 308 308 304 300 305 321 331 327 323 323 320 322 324 325 324 326 329 337 343 346 350 350 348 346 346 348 346 343 345 345 346 347 346 343 340 338 337 338 337 335 336 336 337 338 336 342 346
297 299 299 302 306 309 312 313 313 315 313 313 311 306 310 302 309 312 306 306 311 319 322 322 321 322 323 322 323 324 327 328 330 335 343 348 350 350 350 350 348 347 347 345 345 345 346 347 344 343 343 339 339 338 337 336 334 335 335 337 337 338 338
305 307 312 314 314 312 308 310 311 312 314 314 314 312 308 304 305 307 308 311 311 316 317 319 320 321 320 321 324 323 325 327 334 341 345 348 350 351 350 350 348 350 349 344 345 346 346 346 345 344 343 339 338 340 338 334 335 335 338 338 340 339 337
312 312 313 314 314 310 311 310 310 311 312 313 311 308 306 314 308 302 310 313 311 312 316 318 320 320 322 323 324 324 325 327 330 339 347 349 350 353 353 351 349 348 349 347 347 348 349 347 347 345 344 340 340 340 338 336 335 335 336 341 341 339 338
312 313 313 314 313 313 312 312 311 311 312 312 311 311 312 315 308 305 313 315 314 314 315 317 319 321 323 321 323 325 326 326 330 337 343 345 347 351 351 351 350 349 348 348 350 350 349 348 346 345 342 341 342 343 339 340 336 337 341 343 342 340 340
312 312 312 313 312 312 312 312 312 312 312 311 312 312 313 313 314 314 314 319 316 317 319 319 322 324 324 324 326 326 327 324 328 331 341 343 345 348 349 350 350 350 350 351 351 351 348 347 345 343 341 342 341 340 337 337 340 339 343 344 344 342 339
310 311 312 313 312 312 310 312 312 313 313 312 312 313 313 315 313 313 314 315 314 320 323 321 323 328 326 325 322 322 324 324 324 328 334 342 343 345 349 350 350 351 352 353 352 349 347 346 345 342 342 343 344 336 335 336 340 341 342 345 344 343 341
307 311 312 311 312 312 310 310 311 312 311 310 311 311 314 313 312 314 314 313 312 320 322 321 324 325 324 323 323 323 323 323 327 329 330 336 342 343 347 349 351 351 352 353 351 349 346 347 345 343 344 340 339 338 335 336 338 340 342 344 344 344 342
306 310 312 310 310 309 306 308 310 312 313 314 314 314 316 315 315 313 310 311 317 319 322 321 323 322 321 321 321 323 326 330 335 335 334 334 339 343 346 348 349 350 351 352 352 349 347 345 344 345 344 339 341 340 339 341 341 341 341 342 345 344 342
306 309 310 311 306 299 301 314 316 315 312 313 311 311 313 317 318 316 317 317 320 320 319 319 319 319 321 324 328 333 335 332 332 334 335 336 339 343 344 347 348 351 352 351 351 350 347 347 345 345 345 343 345 343 340 342 340 342 344 344 344 343 342
305 309 309 304 300 301 315 317 317 317 316 315 313 314 315 317 320 319 317 318 318 320 320 321 322 324 325 326 329 330 331 335 331 332 337 339 340 343 345 346 347 350 351 352 352 349 347 345 345 343 343 345 345 343 342 341 341 342 343 344 343 343 341
310 307 307 298 301 315 317 319 319 320 319 317 315 313 315 317 317 320 317 318 319 321 321 321 323 324 325 327 329 333 334 333 333 331 336 339 340 343 345 347 349 350 350 351 350 349 348 345 342 342 343 344 342 342 343 341 341 344 344 343 342 341 339
304 306 306 307 317 312 316 315 316 317 314 315 313 308 313 318 319 319 318 320 320 321 321 322 322 325 325 322 322 330 333 336 335 334 336 337 340 343 346 347 348 351 352 352 351 350 347 344 343 341 342 342 342 341 341 338 341 342 343 343 342 340 339
310 306 305 306 306 301 310 318 319 320 319 319 319 316 312 320 320 321 321 321 321 321 320 321 323 328 320 314 316 325 331 335 336 337 337 338 342 346 346 349 349 352 352 352 352 348 346 345 344 343 342 343 344 342 341 339 338 340 342 341 341 340 338
309 307 302 302 301 304 314 317 318 320 321 319 320 314 309 318 319 320 321 320 321 320 319 321 324 320 313 313 320 330 333 332 333 336 335 337 342 345 346 347 349 350 352 352 351 350 348 345 345 346 345 343 342 342 340 337 337 339 341 341 340 339 339
309 308 305 303 307 306 316 317 319 321 322 321 317 303 305 317 319 321 321 320 319 320 322 321 322 319 314 314 325 328 331 330 333 339 338 341 343 346 347 350 353 354 354 353 350 348 346 348 350 349 346 343 341 340 340 338 336 337 340 341 341 341 341
307 305 306 308 310 317 317 318 321 321 321 318 307 300 309 318 321 321 322 320 320 322 322 323 318 323 323 325 331 329 329 330 335 339 341 343 344 345 344 347 351 353 352 350 348 347 349 351 350 349 346 346 344 344 345 344 340 338 340 343 343 342 342
305 306 304 305 309 316 319 321 320 321 316 305 305 318 325 322 321 323 322 321 322 322 323 323 324 324 325 327 327 329 328 332 338 338 341 342 343 342 345 349 350 351 347 350 349 347 351 352 351 349 350 349 348 347 345 344 345 343 343 343 343 343 343
308 308 304 301 296 319 321 318 318 319 310 315 323 326 324 322 323 322 323 322 324 324 323 324 326 326 323 326 327 329 331 334 336 336 337 339 337 339 346 346 347 342 343 343 340 340 341 343 347 350 350 349 349 347 345 347 347 346 344 343 343 343 343
304 304 300 300 314 319 320 319 314 316 320 325 328 324 321 324 323 323 323 323 324 325 327 328 326 326 326 328 328 331 332 335 335 336 338 339 339 342 337 336 339 336 341 340 337 337 334 339 343 348 349 348 348 347 346 349 348 348 346 344 344 344 344
313 309 314 319 322 321 321 323 322 325 325 325 324 325 322 322 322 326 323 324 325 327 327 330 329 326 327 328 329 331 334 334 334 336 337 336 337 335 332 333 337 337 338 341 340 341 345 348 350 351 350 346 346 345 347 348 347 346 346 344 343 344 344
320 321 321 322 322 322 321 321 323 322 322 325 325 326 325 328 329 329 326 327 327 327 329 330 329 327 328 327 329 333 333 334 338 340 339 338 337 333 334 339 340 338 336 338 340 342 347 349 348 347 346 345 343 344 346 346 346 345 345 344 343 344 345
312 307 318 319 318 318 320 321 323 324 324 325 327 330 331 330 330 330 332 333 333 332 332 331 331 328 329 330 331 333 335 336 340 340 340 340 338 337 339 343 341 338 337 334 335 336 338 343 345 343 346 346 346 346 345 344 344 346 346 345 344 344 342
312 316 318 319 318 321 322 321 320 318 321 324 327 328 330 331 331 331 332 332 330 331 330 331 331 330 329 331 334 334 336 340 341 341 341 340 341 343 344 342 341 340 338 337 337 339 340 342 343 341 338 337 337 340 339 337 337 343 344 344 343 343 342
316 319 319 318 320 320 319 319 319 320 322 325 326 327 328 329 329 331 332 333 332 331 331 334 334 331 332 332 337 333 331 333 336 339 339 342 343 342 341 341 342 343 340 339 339 336 340 340 339 338 337 336 332 331 331 336 339 337 340 341 342 341 340
312 312 318 318 311 311 318 316 317 320 324 324 325 326 326 327 328 330 328 329 331 331 332 334 333 333 333 333 336 329 329 332 336 339 342 342 341 341 341 341 341 339 338 337 336 336 339 338 337 338 337 336 337 332 331 331 335 336 339 340 339 337 333
309 314 317 319 320 319 318 318 319 322 325 323 321 322 323 324 326 327 328 326 328 328 330 333 335 334 335 335 334 331 331 333 337 339 338 337 335 334 335 336 336 337 336 336 337 335 338 337 336 335 335 334 336 335 335 337 336 337 338 336 333 331 330
315 316 316 318 317 315 317 318 319 321 326 321 319 319 321 322 323 325 329 330 328 329 329 329 332 336 336 335 333 335 332 335 336 336 335 334 333 333 333 335 335 336 336 336 337 336 338 335 335 335 333 334 336 333 334 336 337 337 337 335 333 331 329
312 315 316 317 317 317 318 319 319 320 325 322 319 319 320 320 321 323 325 329 332 328 328 329 330 333 330 330 331 332 336 335 335 335 334 334 332 329 328 332 335 336 337 336 337 336 337 336 335 335 332 334 336 333 336 334 335 335 335 335 333 331 332

ECMWFFLT2_sfc_thetae_018.txt.gz
Theta_e
315 315 317 317 317 304 310 311 306 309 315 312 308 309 309 308 305 302 312 309 311 316 317 319 320 319 320 321 321 321 325 325 333 334 337 337 336 336 340 341 342 347 348 351 352 356 355 352 351 347 350 352 352 354 352 353 354 352 352 354 354 352 353
316 318 318 317 317 316 313 306 310 315 317 314 311 301 306 302 299 302 306 304 307 307 304 320 317 317 318 319 319 319 326 326 325 330 337 337 337 340 343 345 346 348 348 348 352 357 354 352 350 349 352 353 354 354 353 352 352 352 353 353 353 352 351
315 318 316 313 317 318 313 311 317 308 304 302 309 308 299 299 298 301 305 307 306 308 310 313 314 315 317 319 323 320 321 323 325 326 330 339 340 342 342 342 343 345 347 346 350 353 353 353 352 350 352 352 353 353 353 350 351 353 353 351 352 352 353
315 315 313 305 309 315 317 317 313 316 311 308 306 307 307 306 298 301 302 305 302 315 312 314 314 318 322 319 320 318 320 324 327 330 328 334 341 338 336 339 338 340 344 344 346 349 351 352 350 348 347 349 349 350 352 351 351 355 354 353 352 351 351
314 307 310 307 309 307 309 309 308 311 310 314 311 310 306 303 301 301 300 299 306 315 319 318 318 321 322 321 322 327 325 325 325 329 330 338 341 339 339 340 339 340 345 346 346 347 349 350 349 346 347 347 348 349 348 346 350 350 349 350 350 351 352
308 310 314 313 312 312 310 309 307 309 308 306 303 302 309 308 304 298 300 300 308 315 322 321 319 321 319 321 322 325 324 321 332 333 330 339 339 342 342 343 339 337 340 346 346 345 346 344 343 346 347 347 347 346 345 344 345 346 346 348 350 352 352
309 312 315 316 316 315 314 313 310 312 312 311 306 297 304 307 307 308 308 303 305 319 322 322 322 321 319 321 320 323 323 327 326 330 326 340 347 344 339 344 343 344 345 347 346 346 344 343 345 344 343 342 344 343 343 343 343 343 342 344 349 353 351
313 315 317 316 316 315 312 313 313 311 308 309 308 307 312 306 308 304 304 303 306 320 333 324 323 327 321 329 322 324 324 324 329 326 330 348 343 348 345 344 345 344 343 347 346 343 341 342 343 341 339 340 341 341 340 339 339 340 340 343 345 349 350
307 309 312 312 315 313 310 309 312 312 312 312 311 312 321 306 306 306 303 298 307 321 328 328 325 319 319 321 322 325 324 329 326 333 340 342 352 351 348 349 347 345 343 344 344 343 341 343 343 344 342 338 339 340 340 338 337 339 339 343 344 347 347
297 297 298 301 305 308 310 311 311 312 310 311 309 305 311 301 311 315 305 306 315 321 326 320 321 320 323 323 323 323 329 328 326 328 337 351 353 355 353 353 349 346 346 345 345 344 342 346 347 346 347 344 341 340 341 340 338 339 338 337 346 345 345
304 306 313 313 313 310 306 308 310 310 313 313 312 314 310 303 307 307 309 313 312 315 315 318 319 322 319 320 324 326 325 330 336 335 345 347 353 356 351 353 348 349 348 346 345 345 346 346 349 348 346 342 339 344 340 337 342 341 346 341 345 344 341
311 310 313 312 312 309 310 309 309 310 311 312 310 307 306 320 312 300 312 317 313 313 316 318 323 323 324 324 326 325 331 329 332 339 343 345 346 350 354 355 350 347 347 348 346 345 348 349 350 348 344 341 344 342 337 339 335 333 336 345 346 344 342
310 311 311 312 311 311 311 311 311 310 311 310 309 312 311 320 309 304 319 322 317 317 316 318 321 327 331 320 323 326 326 327 339 340 333 337 339 343 341 347 353 349 347 348 348 346 348 350 349 346 342 343 347 342 338 341 334 338 345 342 343 343 345
310 311 311 312 310 311 312 311 311 311 311 310 310 310 311 311 319 318 316 322 316 314 316 319 323 324 323 325 329 331 326 324 339 336 341 332 337 341 346 349 351 353 351 350 348 347 348 349 347 343 342 344 342 339 337 335 340 342 344 342 345 344 342
308 311 312 311 311 310 310 311 311 311 311 311 311 311 311 313 312 312 312 321 319 319 329 326 327 334 329 329 323 323 333 327 323 325 325 330 333 340 345 349 350 351 351 350 348 348 349 348 346 344 342 344 341 335 337 338 342 338 347 345 346 345 344
306 309 310 310 311 310 309 309 310 311 310 308 310 310 312 311 314 314 313 314 311 319 325 323 326 325 326 325 326 327 328 324 327 327 326 332 340 339 343 346 348 350 348 349 348 348 348 349 347 346 344 343 342 340 339 337 336 339 343 345 345 346 345
304 309 310 309 309 308 305 306 309 311 312 313 313 313 316 315 316 315 309 309 318 322 325 322 323 321 324 325 324 327 331 340 332 332 331 333 335 342 345 344 345 345 343 349 350 349 350 349 348 347 346 343 338 338 338 339 338 338 343 343 347 347 345
305 308 309 310 307 299 301 314 315 314 311 312 310 310 312 318 319 315 316 319 324 320 320 319 322 321 325 329 331 330 332 332 338 334 337 335 336 336 337 345 344 348 349 350 352 352 353 352 349 346 348 342 339 339 337 338 338 342 344 345 347 346 346
305 308 308 304 298 300 315 316 316 316 315 314 312 313 313 315 321 319 316 317 320 324 322 324 324 328 328 326 331 325 325 336 333 335 331 335 337 338 338 346 346 354 355 355 356 356 353 350 349 345 344 340 338 338 336 336 341 347 345 345 347 347 345
309 305 304 298 298 312 318 317 316 317 316 315 315 314 314 316 316 320 317 319 320 326 323 321 327 331 324 325 333 334 331 328 327 325 326 328 329 335 340 350 353 356 355 356 353 355 353 351 348 344 340 336 335 336 336 338 342 347 346 346 346 346 345
302 304 303 303 317 312 314 312 313 315 315 315 313 308 314 319 320 320 319 321 321 321 321 322 323 325 322 323 326 326 324 331 330 328 327 328 334 339 348 347 352 360 358 358 354 358 354 351 348 346 340 335 338 338 337 339 344 343 344 346 345 346 344
308 303 302 303 304 302 307 317 318 320 320 319 319 318 311 325 319 320 320 321 324 321 320 322 324 326 319 316 318 323 322 324 333 333 331 330 338 343 345 355 352 359 358 357 360 354 352 350 348 347 341 341 345 345 341 341 339 339 341 342 345 345 344
308 305 301 301 300 304 314 317 318 320 321 319 320 313 308 321 321 321 320 319 321 321 320 323 325 319 313 314 319 328 330 329 331 331 330 330 339 345 347 348 350 352 356 357 353 354 352 349 348 349 346 345 344 345 343 338 338 339 341 344 344 344 344
307 305 302 300 306 305 314 316 318 319 321 321 319 302 305 321 319 320 321 319 319 322 327 323 322 318 313 314 323 326 328 329 331 338 344 345 343 346 351 350 353 356 357 358 352 351 349 350 350 350 348 346 343 344 341 339 338 341 343 345 348 348 346
305 305 304 306 310 319 318 317 321 321 320 316 307 299 310 324 325 323 324 320 320 325 324 322 316 323 325 328 328 326 325 325 330 332 335 344 344 346 346 348 350 354 354 354 350 349 349 352 350 348 346 346 346 347 348 345 344 345 347 348 350 349 348
305 306 303 304 309 318 320 320 319 321 315 305 304 321 328 327 321 326 321 321 323 324 327 325 325 325 325 324 325 327 326 326 336 332 337 339 342 341 349 352 351 351 349 352 351 348 354 353 350 350 351 352 351 353 351 349 351 351 354 356 352 350 349
308 308 305 302 295 316 318 318 317 320 313 320 323 329 325 322 323 322 325 322 324 323 325 324 328 326 323 323 324 326 328 329 335 338 336 340 336 338 350 350 352 349 349 348 345 346 344 346 350 351 351 352 353 351 352 351 353 357 356 355 355 352 349
306 303 301 299 313 320 321 319 313 318 324 327 330 327 330 323 323 324 323 327 326 324 326 324 324 325 325 329 330 332 332 331 337 338 340 341 343 350 348 350 350 347 349 347 344 346 341 344 347 348 354 353 352 351 350 351 353 354 357 355 355 352 350
313 309 311 318 324 322 323 324 323 324 325 327 326 325 322 322 324 327 326 329 326 327 328 328 328 326 328 329 327 325 333 330 332 334 338 336 340 344 344 344 343 344 343 343 340 344 348 344 344 349 353 353 351 348 349 348 350 351 352 352 351 350 348
322 321 320 320 321 321 320 321 323 322 322 326 328 327 327 327 327 327 326 326 327 328 331 326 328 327 330 329 327 326 334 335 336 339 341 342 342 341 342 342 344 341 338 338 342 346 349 351 352 352 351 348 343 346 345 345 349 350 349 349 349 347 347
311 304 320 318 318 320 321 320 322 323 324 324 327 327 328 325 326 326 327 330 329 328 330 330 331 328 328 329 330 333 347 339 341 339 339 341 342 339 337 340 343 339 337 336 341 343 343 345 345 343 345 345 349 348 347 345 346 348 346 347 345 346 347
313 316 318 320 319 320 320 320 319 320 323 324 326 327 328 331 329 328 328 328 328 329 327 329 331 328 327 328 334 331 339 339 345 344 342 340 339 342 344 342 349 341 339 337 338 338 342 344 345 339 336 336 337 340 330 329 331 336 343 341 341 344 344
315 318 320 321 319 318 318 319 321 322 323 324 325 326 327 326 327 327 328 326 326 327 329 333 333 330 331 336 339 332 338 337 337 337 338 338 337 341 338 339 346 345 342 340 342 341 340 340 340 339 334 331 330 332 331 333 343 340 336 334 339 339 340
311 313 316 319 311 314 314 316 319 322 323 322 322 324 323 324 324 326 326 327 327 328 329 331 334 336 337 337 338 330 332 334 333 335 332 331 335 337 340 337 338 337 339 341 341 340 340 340 338 337 335 334 333 328 330 332 338 341 340 337 335 334 336
308 314 319 320 321 318 317 317 319 323 322 321 320 320 321 322 323 323 325 326 329 330 330 332 334 338 337 336 336 333 335 335 335 333 333 333 334 336 338 336 336 336 337 339 340 340 339 339 336 335 336 332 336 332 335 336 333 337 336 337 334 332 332
314 316 316 318 317 315 317 318 319 321 324 321 319 319 320 321 321 321 323 324 327 330 329 328 331 336 335 335 335 336 336 336 335 334 333 333 333 335 337 337 336 337 337 338 338 338 338 338 336 336 330 334 337 328 333 335 335 337 335 337 334 331 330
310 315 315 316 317 317 318 320 320 320 324 321 319 319 320 319 319 320 321 324 326 327 328 326 328 332 332 332 335 335 336 336 335 336 336 336 334 332 333 333 336 338 339 340 340 338 336 338 337 335 334 335 336 331 334 330 332 332 333 334 328 326 329

ECMWFFLT2_sfc_thetae_021.txt.gz
Theta_e
310 311 313 312 311 298 303 305 299 301 307 306 302 307 306 306 303 297 309 309 312 311 312 315 318 318 319 320 321 323 323 324 325 325 327 327 328 331 333 334 336 340 342 345 346 348 349 350 350 346 342 342 343 343 343 343 344 343 344 346 345 346 346
310 313 312 312 312 311 306 300 302 309 311 309 307 297 301 297 292 296 301 298 299 302 298 311 315 315 316 316 317 323 323 324 324 325 326 326 327 332 334 335 338 341 342 345 346 349 350 351 350 344 342 343 344 345 344 345 343 342 343 346 345 345 345
312 313 312 309 312 314 305 305 312 304 296 297 305 302 293 295 293 295 297 300 302 302 304 308 308 310 310 312 318 321 321 323 325 327 327 327 331 332 334 334 339 340 342 344 346 349 351 351 350 345 344 345 345 346 345 347 344 344 344 346 346 346 345
311 310 308 300 304 310 312 311 307 310 304 301 298 300 300 298 294 296 295 301 298 313 306 309 309 311 312 311 315 318 321 324 328 328 328 329 333 333 334 336 340 341 343 345 347 349 350 350 349 345 345 346 347 347 346 346 346 344 346 345 347 343 344
309 301 305 303 303 301 302 304 302 304 305 309 305 305 300 296 293 291 293 294 301 307 317 312 312 313 313 313 313 317 318 321 326 328 329 330 333 334 335 337 340 340 342 346 349 350 351 351 349 346 346 346 347 348 346 347 345 345 345 345 345 343 344
302 302 309 309 309 307 304 301 300 301 301 301 296 294 305 303 295 291 293 296 301 314 323 320 317 318 319 319 317 316 316 319 322 324 328 333 333 334 336 337 340 341 342 347 351 351 350 349 347 345 345 346 346 347 347 346 347 347 345 345 344 343 344
303 307 310 313 312 311 309 306 303 306 303 304 302 290 296 304 303 305 301 296 299 314 318 316 315 314 315 318 317 316 315 322 324 323 328 334 334 334 336 337 338 341 341 344 349 349 348 348 346 344 343 344 345 346 347 345 346 347 347 345 344 344 344
308 310 311 312 313 311 308 307 308 306 303 303 302 302 304 299 302 297 299 298 299 313 324 320 318 317 317 317 315 319 319 321 323 323 326 333 332 333 334 335 336 339 341 341 343 345 346 346 344 342 342 343 345 345 345 344 344 346 346 345 344 344 343
299 304 306 306 310 309 304 304 305 307 308 308 306 308 312 301 301 301 296 293 299 316 320 315 315 314 315 314 317 321 320 320 322 322 330 332 334 333 333 333 333 338 340 340 341 343 343 344 343 342 342 343 343 344 343 342 343 345 344 344 343 344 342
291 292 292 293 298 302 304 308 306 307 306 305 302 298 304 294 303 305 299 302 305 312 319 315 314 314 316 315 315 321 320 321 325 323 331 337 336 336 335 334 333 335 339 341 340 340 341 341 341 341 342 342 342 341 342 341 341 343 340 342 343 343 342
295 298 304 309 310 305 301 304 306 306 308 306 305 303 300 294 297 301 299 306 307 309 313 312 313 314 315 317 318 320 320 321 324 329 334 340 339 339 336 337 336 336 338 340 340 339 340 340 340 339 339 340 339 336 338 339 339 340 337 340 342 342 342
305 309 311 308 309 305 305 305 305 306 306 306 305 301 299 304 301 292 303 308 307 306 311 311 312 314 316 319 320 321 318 322 321 325 337 348 342 343 341 338 338 337 337 339 339 338 338 338 339 338 338 338 337 335 335 335 335 337 337 340 341 341 340
309 309 307 307 308 308 308 307 307 306 306 305 303 307 308 310 301 296 306 309 309 308 312 313 314 316 315 317 319 319 324 326 324 324 335 341 342 344 344 338 339 338 337 338 338 338 337 337 338 337 337 336 336 336 335 333 334 335 338 340 341 341 340
306 306 306 307 306 308 306 306 307 306 306 305 305 305 309 313 310 311 312 311 312 312 313 316 317 318 317 320 321 319 318 326 327 325 327 336 340 342 342 341 340 340 339 338 338 338 337 336 339 338 337 336 336 335 331 330 333 335 339 339 340 340 337
309 306 307 307 306 305 303 305 306 307 306 306 306 306 307 309 308 316 314 312 311 314 315 316 321 319 323 319 318 317 322 323 327 327 330 329 334 339 339 341 342 341 341 340 339 338 337 337 340 340 338 337 335 332 328 332 333 334 335 335 335 335 335
304 306 305 306 306 305 304 304 305 306 307 305 306 305 310 306 305 308 313 310 310 315 319 320 322 321 319 319 320 320 320 320 321 316 318 319 329 335 336 338 343 343 342 342 340 338 337 340 341 340 337 335 331 328 329 331 334 335 333 332 333 335 335
300 306 306 304 304 303 301 302 305 306 306 310 308 309 310 310 313 309 303 305 312 316 321 318 317 318 318 318 320 325 328 328 331 330 330 332 332 335 339 341 343 343 343 342 343 340 339 341 342 339 337 333 329 330 329 329 334 336 335 334 334 335 335
301 305 304 305 304 295 295 312 314 313 309 309 307 307 310 315 318 313 313 314 316 316 317 317 317 317 316 316 319 322 322 323 324 326 330 333 332 336 340 342 343 342 342 341 343 343 342 343 342 339 338 333 332 331 331 331 332 333 336 334 335 335 335
299 305 307 300 293 295 311 318 314 313 311 310 309 311 313 316 316 317 315 316 318 319 316 316 318 319 319 322 323 325 329 328 327 326 327 329 332 332 332 340 341 341 341 341 342 342 343 343 341 339 337 334 331 331 330 329 329 330 332 336 337 337 337
304 300 299 290 293 309 320 315 313 316 313 313 312 310 315 315 317 317 313 314 317 317 315 316 317 317 321 326 328 326 327 328 326 326 326 327 326 327 330 329 339 342 342 342 343 343 346 343 342 339 334 332 331 330 330 328 329 329 330 335 339 339 337
298 300 298 298 308 307 314 312 313 311 310 312 309 303 308 319 318 322 316 316 314 318 319 319 317 317 319 316 317 324 327 326 325 323 323 323 324 326 331 335 341 343 344 344 347 347 346 344 342 338 333 331 331 330 329 330 330 330 332 336 338 339 338
307 298 296 298 297 294 301 314 318 315 316 315 318 309 307 320 315 319 318 314 316 319 319 320 321 321 311 310 313 321 325 325 327 326 331 330 329 335 342 351 353 351 350 349 350 349 346 344 341 336 332 330 329 328 329 329 329 330 334 335 338 339 339
305 303 296 295 295 300 310 317 318 319 317 316 320 309 300 315 319 319 320 317 319 319 320 319 320 314 308 310 317 321 324 325 327 326 326 326 338 342 346 349 350 351 351 351 351 349 346 342 339 335 331 329 329 327 328 328 330 331 335 336 338 339 339
303 303 299 297 303 303 314 316 316 316 317 319 311 297 298 314 320 321 319 320 316 316 318 319 316 312 309 310 318 319 320 320 327 326 328 340 341 343 345 348 350 350 351 351 350 347 343 341 338 334 331 330 330 329 330 331 331 332 334 337 339 340 340
301 302 300 303 305 318 318 317 316 315 318 314 301 292 305 317 321 320 317 317 319 318 316 316 312 316 316 319 322 323 323 321 325 336 340 341 342 342 344 347 351 349 349 348 347 347 344 342 338 335 332 331 331 333 334 333 332 334 335 337 339 340 340
302 302 300 300 306 319 317 316 318 316 314 300 299 313 324 322 317 320 320 317 320 321 320 322 319 320 322 323 323 323 324 326 333 337 339 341 342 343 346 347 348 348 348 345 345 345 345 342 339 337 335 333 334 337 335 333 334 336 337 337 339 340 340
308 306 303 295 291 307 320 317 319 321 312 312 320 324 322 321 319 320 321 322 321 321 319 320 321 322 323 324 325 324 324 325 332 335 336 336 336 342 343 344 347 347 345 345 344 344 344 342 341 340 338 337 338 339 336 337 342 347 344 341 341 342 341
303 302 297 294 307 316 321 317 312 320 323 321 329 323 319 322 321 320 320 323 324 324 323 323 324 324 324 326 326 325 328 328 335 333 331 330 333 343 346 346 345 343 338 333 332 339 344 342 343 342 343 341 342 341 342 345 345 345 346 346 345 344 341
312 308 309 316 321 319 320 322 322 324 327 328 330 323 320 318 319 323 321 323 323 326 325 326 326 324 325 326 327 324 327 332 333 333 335 339 340 340 339 336 336 335 334 331 331 332 337 342 343 345 345 344 344 341 341 343 342 343 342 342 341 342 341
319 318 320 321 317 317 318 321 323 323 323 324 324 322 319 322 324 324 323 323 324 325 326 324 325 326 325 324 325 326 332 335 337 337 337 335 334 333 334 334 333 332 333 333 333 332 333 339 345 346 346 344 342 340 341 341 340 340 341 339 338 339 340
306 298 314 317 315 316 318 319 321 321 322 321 323 322 322 323 324 325 323 321 327 329 329 328 327 327 328 326 329 332 338 337 335 334 333 334 334 334 333 334 334 331 332 332 333 333 334 337 337 340 341 341 339 340 339 341 341 341 340 340 340 340 340
308 307 316 319 321 317 319 318 317 318 320 322 324 326 325 324 325 325 325 324 327 328 328 331 331 331 333 333 331 333 333 332 332 333 332 331 330 331 332 332 332 331 330 331 333 333 332 333 339 340 340 340 342 339 338 330 334 340 338 340 340 339 339
317 319 321 320 323 316 316 318 318 319 319 319 320 321 320 321 321 322 324 327 327 327 327 333 333 332 331 331 331 332 331 329 330 331 330 330 331 332 332 332 332 329 330 331 331 331 330 331 331 328 328 326 327 328 332 335 334 334 337 338 336 336 337
308 310 315 317 313 309 313 319 323 321 320 319 319 319 319 320 319 319 320 321 326 329 328 332 336 333 330 330 329 330 330 329 329 329 330 329 330 331 332 333 333 332 332 330 329 328 328 330 331 330 330 327 325 327 332 335 337 334 335 333 332 330 330
305 315 318 320 317 313 315 316 321 322 321 320 317 316 316 317 318 317 318 318 320 324 328 332 334 332 331 330 331 332 332 329 330 331 330 329 328 330 331 330 330 330 330 333 332 330 330 330 328 328 329 331 330 333 334 333 334 332 333 333 330 331 328
312 313 314 317 317 313 318 321 321 320 321 318 316 316 316 316 317 317 317 322 320 321 323 330 334 334 333 333 332 331 331 330 330 331 331 330 329 329 330 330 330 330 331 331 331 330 329 328 328 329 331 332 332 331 333 333 332 330 331 330 328 327 327
307 317 316 318 321 319 321 318 320 319 319 321 318 317 318 316 319 319 319 320 321 320 319 321 327 335 334 333 333 331 330 330 331 333 333 332 330 328 330 329 327 331 332 333 332 331 331 330 330 329 326 329 331 330 332 333 332 330 330 329 325 324 324

ECMWFFLT2_sfc_thetae_024.txt.gz
Theta_e
306 308 308 307 307 296 299 301 296 298 303 303 298 301 300 300 295 292 298 301 301 307 306 309 316 318 318 320 320 320 320 322 322 323 324 326 330 332 333 333 333 333 337 340 341 343 346 348 349 349 348 346 344 341 339 338 338 339 339 340 339 339 339
306 309 309 308 309 304 301 297 298 304 306 305 297 291 293 292 289 291 298 296 295 299 295 308 314 315 317 318 319 320 320 320 320 322 323 326 329 332 333 333 333 334 338 340 342 344 346 348 349 348 347 345 344 342 340 338 339 338 339 339 340 340 340
307 308 307 305 307 309 304 301 305 302 295 297 297 295 290 290 290 289 291 297 296 297 299 307 310 314 315 317 319 319 318 319 320 322 323 325 328 331 331 331 331 333 338 341 341 344 346 348 350 349 347 345 343 342 341 339 340 340 341 340 340 343 342
306 306 304 297 302 306 308 306 304 305 301 297 295 295 293 293 289 292 289 295 292 304 299 307 312 314 316 317 317 318 319 320 321 322 323 324 326 329 330 331 332 334 338 341 342 344 345 347 348 347 345 344 342 341 341 340 341 341 341 341 342 341 342
305 299 301 300 300 299 300 302 299 302 306 302 301 302 298 294 288 288 288 289 292 301 309 309 313 312 314 317 317 317 319 320 322 322 323 324 326 328 330 331 333 335 338 341 343 345 346 347 349 347 344 343 342 341 341 341 340 340 340 342 342 342 342
297 298 303 306 304 305 301 300 298 299 298 297 294 291 299 298 292 286 288 288 294 304 316 313 310 310 315 317 318 318 319 320 321 323 324 325 326 328 330 331 334 336 338 341 343 345 346 347 347 345 343 342 342 341 341 342 341 341 340 342 342 342 342
299 303 307 308 308 307 304 304 300 302 298 297 294 289 292 298 297 299 295 293 294 305 312 312 312 313 316 318 319 318 320 322 323 324 325 325 327 329 330 332 335 337 339 341 342 344 345 346 346 344 342 342 342 342 342 343 342 341 342 342 343 342 341
303 306 308 308 308 307 303 303 301 301 299 299 297 295 295 295 296 295 293 292 295 304 315 312 314 314 314 316 318 318 321 323 324 324 325 327 328 329 332 333 336 337 339 341 342 344 345 346 345 343 342 342 342 343 342 343 342 342 342 342 343 341 340
295 298 301 302 305 305 301 298 301 303 301 301 301 304 301 297 296 296 293 289 295 307 315 314 312 312 314 315 316 319 319 321 322 324 326 329 330 330 331 333 335 336 338 340 342 344 345 346 345 343 342 342 342 343 343 343 343 343 343 343 343 341 340
288 288 287 289 293 298 300 303 302 304 303 301 300 297 298 291 297 299 293 294 296 304 311 311 309 310 312 315 316 319 320 320 321 324 327 328 329 330 331 332 334 335 338 341 343 344 345 345 345 343 342 342 342 343 343 344 344 344 343 344 343 341 340
292 295 294 299 303 299 300 300 302 302 303 302 300 297 294 294 293 298 294 302 301 306 308 307 308 309 310 312 314 316 317 318 321 325 328 329 329 329 330 331 334 336 336 340 343 344 345 345 345 343 342 342 342 343 343 344 344 344 344 343 342 341 340
301 301 301 307 306 302 302 301 301 302 302 301 300 297 296 298 297 291 295 302 304 305 308 307 308 308 310 313 314 315 317 317 320 325 327 336 329 329 330 330 331 334 336 338 341 344 344 345 344 343 342 342 342 342 343 343 343 344 344 342 341 340 339
302 304 305 305 305 304 304 303 303 302 302 300 300 299 299 302 299 295 301 303 304 306 308 309 309 310 312 313 315 317 318 318 319 325 328 329 328 329 329 329 330 333 335 336 338 341 343 344 343 341 341 341 341 342 342 342 342 343 343 341 340 339 339
303 303 304 305 303 304 304 304 304 303 302 300 300 302 304 304 301 302 305 305 305 308 310 310 311 313 314 314 316 316 316 317 319 329 330 329 329 330 330 330 330 332 335 337 337 339 340 341 341 340 340 340 340 340 340 340 340 342 341 340 340 339 338
302 305 306 304 303 303 302 302 302 304 303 302 300 301 306 306 305 305 306 305 305 309 311 311 312 312 315 315 314 315 316 317 322 326 331 331 331 333 332 331 331 331 333 335 337 337 338 340 340 340 339 339 339 338 339 338 338 340 339 339 339 338 337
299 303 303 302 302 302 301 301 303 302 301 303 304 305 305 306 305 307 306 304 304 310 312 314 313 313 314 314 314 315 316 318 321 323 327 332 333 336 335 333 333 333 333 334 336 337 337 338 339 339 338 338 338 336 336 335 336 337 338 338 338 338 338
296 301 302 302 301 300 300 302 301 304 305 304 306 309 312 311 307 306 303 305 311 312 315 314 313 312 312 312 313 315 316 317 319 321 325 329 333 336 337 336 335 335 335 335 336 337 337 337 338 339 339 337 336 336 332 332 334 336 337 338 338 338 338
294 300 301 302 296 292 294 304 309 310 306 307 306 308 310 310 312 308 310 311 313 314 314 314 312 311 312 315 318 321 320 319 319 320 321 323 326 329 334 337 338 337 337 337 337 338 338 338 339 340 339 337 337 335 332 332 333 335 336 337 337 337 335
296 300 299 296 291 292 304 313 313 310 310 311 309 310 310 310 310 310 310 312 313 313 314 315 314 316 318 320 319 319 321 321 321 322 324 326 328 330 332 335 338 340 339 339 338 337 338 338 338 339 337 336 332 330 332 331 332 334 335 335 335 334 332
299 296 293 289 292 302 311 313 311 315 312 311 310 307 309 312 310 311 310 312 314 314 313 314 314 314 318 320 321 318 319 318 318 320 322 326 329 332 336 336 338 340 340 340 340 339 340 339 339 338 336 333 330 329 331 331 331 332 333 333 332 331 330
295 295 293 294 302 303 304 309 306 306 306 307 304 299 305 313 313 311 310 310 311 313 314 315 316 316 315 313 316 317 321 322 323 323 322 323 323 326 332 339 340 342 342 342 342 342 340 339 339 337 333 330 329 329 329 329 330 329 330 330 332 331 330
297 293 290 291 290 291 297 305 311 312 311 310 308 304 303 310 312 315 312 310 312 313 314 314 313 314 312 309 313 318 321 323 323 322 323 323 323 323 324 330 338 341 341 341 341 342 340 339 338 335 331 329 328 327 326 327 328 328 328 328 333 333 332
297 293 287 290 289 295 300 307 311 311 312 311 309 304 299 309 311 315 313 312 312 312 312 312 312 310 305 305 311 315 319 321 322 321 322 325 324 325 329 334 335 338 340 341 342 341 340 338 335 333 330 328 326 325 326 326 327 326 325 326 329 332 334
298 294 292 292 297 301 308 312 311 311 312 310 305 296 296 308 313 314 315 313 312 313 313 312 309 307 305 305 309 314 317 322 322 321 329 335 338 340 343 344 345 343 342 343 341 340 338 337 335 332 330 328 327 326 326 327 327 326 326 327 329 332 336
299 299 295 296 300 310 314 312 314 314 313 306 295 290 302 311 314 315 315 315 314 313 312 311 310 312 310 311 314 319 322 326 330 332 335 337 340 343 345 346 349 345 343 344 342 339 337 335 333 332 331 330 328 328 328 326 326 327 328 328 330 334 337
298 298 295 294 301 311 314 317 317 317 309 296 296 306 311 316 316 317 317 316 316 316 314 314 313 316 319 321 322 325 328 330 333 335 337 339 340 344 346 346 346 344 343 339 336 334 334 334 333 332 332 330 326 328 329 327 326 327 329 330 333 335 336
302 299 296 292 289 304 316 317 315 316 307 304 310 314 319 319 316 317 318 318 318 319 318 319 319 319 321 320 321 324 328 332 333 335 336 336 338 340 342 343 344 341 337 336 335 334 335 335 334 333 331 330 329 329 327 327 328 329 331 333 335 336 336
296 296 292 293 303 310 317 316 307 313 318 317 323 316 314 319 319 317 317 319 320 320 318 318 319 320 320 321 322 324 326 330 330 330 333 337 337 335 335 337 336 335 332 333 333 334 335 335 335 333 330 329 329 328 327 329 333 335 334 334 336 336 337
303 300 303 310 314 314 315 316 315 316 319 320 319 319 317 317 317 321 318 319 322 321 322 323 323 322 323 325 329 330 330 330 332 334 335 335 333 333 333 333 334 334 333 332 332 332 332 334 335 333 332 330 331 330 331 338 339 339 337 336 335 336 336
311 312 312 314 315 315 315 316 317 316 317 319 319 319 318 319 319 318 319 322 325 325 325 324 325 326 327 331 332 332 332 332 332 332 331 330 330 330 331 330 332 332 332 331 331 330 331 334 335 336 336 335 333 333 334 334 335 334 333 335 337 337 337
298 298 309 313 314 315 314 314 316 318 318 317 317 316 316 316 319 321 323 323 325 330 329 327 327 329 331 331 330 329 329 330 329 330 330 328 328 328 329 331 333 331 331 330 330 331 331 333 335 334 333 333 331 331 331 328 330 332 329 331 335 336 335
300 303 311 318 317 316 317 315 314 315 316 317 317 318 319 319 318 317 319 325 327 329 328 329 327 328 330 329 328 328 328 328 328 326 326 325 327 327 328 329 330 330 330 330 331 330 329 330 332 333 332 331 330 331 332 330 329 333 336 336 335 335 335
312 315 320 319 314 313 315 317 318 317 317 317 317 317 316 317 316 315 316 318 322 328 329 328 326 326 327 329 328 328 326 326 326 325 325 325 325 325 325 327 328 328 329 329 328 328 327 328 330 331 332 333 335 334 332 333 336 334 334 337 335 336 336
304 306 310 314 306 306 311 316 318 319 321 319 318 317 317 318 318 318 318 317 316 318 324 330 327 325 324 326 327 328 326 326 325 324 324 324 325 325 326 327 328 329 328 327 326 326 325 326 327 329 328 328 330 330 330 329 329 331 334 335 334 335 334
304 312 315 317 311 311 314 317 320 320 320 317 313 312 313 315 317 315 315 315 314 314 316 323 329 326 325 325 326 326 327 326 326 327 326 326 326 327 327 327 327 326 326 326 325 324 323 324 324 324 323 324 325 328 330 330 331 330 331 329 327 326 326
310 314 317 316 311 308 313 317 318 317 317 313 312 313 315 317 316 316 317 315 313 313 314 314 318 327 326 327 327 326 325 325 325 326 325 326 328 329 329 328 327 326 325 325 323 323 322 323 324 325 324 324 323 328 330 332 331 329 328 327 324 322 321
306 311 311 313 312 312 314 313 312 313 319 316 313 313 314 314 317 321 315 312 312 312 311 312 312 319 327 328 327 326 326 326 328 328 328 327 328 328 328 328 327 327 326 326 324 323 323 323 324 324 323 324 324 329 331 331 330 328 326 325 323 322 323

ECMWFFLT2_sfc_thetae_030.txt.gz
Theta_e
299 299 302 302 302 293 295 297 293 295 299 299 294 298 296 293 290 290 294 296 296 301 308 312 310 311 312 313 314 315 316 317 318 320 322 325 328 329 331 333 334 336 338 339 341 342 342 343 345 346 347 349 350 350 350 350 350 350 348 348 347 346 343
300 300 303 302 303 300 295 292 296 299 300 298 296 289 287 287 287 288 292 295 294 297 296 304 308 308 311 311 312 314 315 316 317 319 321 324 327 329 331 333 335 336 338 339 340 342 343 343 344 346 348 350 351 351 350 350 350 349 347 347 346 344 341
299 301 301 300 301 302 302 296 300 299 293 293 291 291 287 286 286 286 289 294 294 297 299 300 305 307 309 311 312 312 313 315 317 318 320 323 326 328 330 332 333 335 337 339 340 341 343 344 345 346 348 350 350 351 351 351 350 350 348 347 346 344 341
298 299 298 295 297 301 300 301 299 301 298 292 292 294 291 293 285 286 287 291 291 298 300 303 305 308 310 311 310 311 313 315 317 318 320 322 324 326 329 331 333 335 337 338 340 341 342 343 344 345 347 349 350 350 351 351 351 351 347 345 345 341 339
298 293 295 297 299 293 295 296 294 298 300 297 296 296 292 291 287 286 285 287 289 295 302 304 307 307 310 311 311 312 314 315 317 319 320 321 323 325 328 330 332 334 335 338 339 341 342 344 345 345 346 348 349 350 350 350 349 349 346 344 343 341 339
292 292 296 299 298 299 296 297 295 295 293 295 292 290 293 291 291 283 284 289 289 299 306 307 307 309 310 312 312 313 314 315 317 318 320 322 323 325 327 329 331 333 334 336 338 340 341 342 343 344 346 347 349 349 350 350 350 349 346 343 342 341 338
296 297 300 300 300 301 300 301 298 299 297 295 292 287 289 292 292 293 290 289 293 299 305 308 309 308 310 312 313 313 314 315 316 318 320 322 324 325 327 329 331 332 334 335 337 338 339 340 342 343 345 346 348 349 350 350 349 348 347 344 342 341 338
297 300 300 301 300 299 298 297 298 297 296 298 296 294 292 293 291 292 291 290 288 297 308 309 310 310 310 312 314 315 315 316 317 317 319 321 322 324 326 329 330 331 333 334 336 336 337 338 340 342 344 346 348 349 349 349 348 348 347 344 342 340 338
292 295 297 297 298 299 295 295 296 297 297 298 295 295 294 295 292 294 291 287 290 299 309 308 309 309 311 311 314 316 315 315 316 318 319 320 322 323 324 326 328 330 331 332 334 336 337 338 339 341 343 344 346 348 349 348 348 348 346 344 341 339 338
285 285 287 290 293 293 292 296 296 297 298 296 296 294 294 290 292 294 290 288 293 298 302 305 308 309 309 311 314 316 316 316 317 318 319 320 321 322 323 324 326 328 330 332 333 335 336 337 338 340 342 344 346 347 348 349 348 347 345 343 341 339 338
291 292 291 294 298 293 295 294 297 296 297 299 299 294 292 292 288 293 290 295 297 300 304 305 306 308 309 310 312 315 316 316 317 318 320 320 321 321 321 324 326 328 329 331 332 334 336 337 338 340 341 343 345 346 347 348 347 346 344 342 340 339 339
298 298 297 297 299 296 295 296 295 297 297 296 297 295 295 294 293 288 292 293 299 300 303 305 306 306 308 310 313 315 316 317 317 318 319 329 320 321 322 323 325 327 329 330 332 333 335 336 338 340 341 343 344 345 346 346 346 344 343 341 340 339 339
299 300 299 299 298 297 296 296 296 296 296 295 296 297 297 297 297 295 297 295 299 301 304 307 308 309 310 311 313 316 318 319 318 318 319 320 320 320 321 322 324 326 327 329 331 332 334 336 337 339 341 342 344 345 345 345 345 343 343 341 340 339 338
298 298 298 298 298 298 298 297 296 296 295 295 297 298 298 299 299 300 300 298 301 304 305 307 309 311 312 313 315 316 317 317 319 318 318 319 320 320 321 322 324 326 328 329 330 332 334 335 337 338 340 341 343 343 344 344 343 343 342 340 339 339 337
295 297 298 297 296 297 297 298 298 297 295 295 296 297 298 301 299 299 301 299 301 305 307 309 310 310 311 312 314 315 317 317 318 318 318 319 320 320 322 323 324 326 327 329 330 332 333 335 337 338 340 341 343 343 343 343 343 343 341 340 340 335 334
291 295 296 296 296 295 295 296 297 296 294 294 295 296 299 298 298 298 299 297 299 305 306 311 308 309 311 312 312 314 315 317 319 319 319 320 320 321 322 324 325 326 328 329 330 331 333 335 337 339 340 341 342 342 342 342 343 343 341 340 335 334 335
290 294 295 295 294 295 292 293 295 296 296 296 296 299 303 302 301 299 297 298 304 307 309 308 308 308 310 311 311 313 315 317 319 319 320 320 321 322 323 325 326 327 328 330 331 332 334 335 337 339 341 341 341 342 342 343 343 342 340 337 334 335 336
288 293 294 294 291 287 287 295 297 299 297 297 297 297 300 302 303 301 302 303 306 307 307 308 308 307 309 312 314 316 317 317 317 319 321 322 323 324 325 326 327 328 329 330 332 333 334 337 339 341 343 342 343 344 343 343 342 341 340 335 335 335 336
290 292 294 291 287 287 295 303 307 302 300 301 300 303 305 307 306 306 306 306 305 307 309 310 311 311 312 314 315 314 316 318 320 320 321 322 323 324 325 326 327 328 328 329 330 332 334 337 340 342 342 343 343 342 342 341 342 341 338 335 335 335 334
292 292 290 286 285 293 303 307 308 312 305 304 305 304 305 307 306 306 305 306 307 307 308 309 312 311 312 314 317 315 316 320 321 321 321 323 324 324 326 327 328 328 329 329 330 332 337 338 340 342 342 343 342 341 342 341 340 339 337 335 335 334 333
291 288 287 289 296 301 304 305 305 306 303 303 301 297 302 307 309 307 305 306 307 309 310 311 313 313 313 312 315 315 317 318 321 322 323 324 325 327 328 329 330 332 333 333 333 334 335 337 338 340 342 342 342 340 339 339 339 337 336 335 334 334 333
291 290 289 292 292 291 296 303 311 311 310 310 307 304 303 308 311 310 307 307 307 309 309 311 312 313 310 308 310 314 316 319 320 320 322 325 328 328 328 330 331 333 335 336 337 335 334 336 337 339 340 341 340 337 336 335 336 335 335 334 334 334 333
292 292 288 285 287 292 298 304 308 312 312 314 308 303 299 307 310 311 308 308 309 311 311 311 312 309 305 305 310 316 314 317 319 319 318 321 323 325 327 330 331 333 335 337 337 336 335 335 335 337 339 338 337 334 333 333 334 334 334 335 335 335 335
294 288 287 290 292 298 304 306 309 312 313 312 304 295 296 303 311 311 310 309 309 309 310 310 309 307 305 306 312 313 316 317 318 319 320 321 321 322 324 331 332 336 339 338 335 334 334 334 334 335 336 336 335 333 332 333 333 333 334 335 336 337 336
295 297 290 291 297 304 307 308 311 311 312 303 296 292 298 309 310 312 311 313 310 310 311 311 309 312 311 311 317 325 321 327 332 335 337 336 336 336 337 336 339 336 335 335 335 334 333 331 331 333 334 333 333 332 331 331 332 333 335 335 335 336 335
296 293 292 292 294 300 308 311 310 312 306 295 291 302 310 309 312 313 315 315 316 317 317 318 317 318 321 327 329 330 331 330 330 333 336 339 340 340 341 340 337 335 333 331 330 328 328 329 330 331 332 332 332 331 330 330 332 333 333 334 335 334 333
297 292 291 292 292 301 310 309 308 310 299 297 305 312 314 316 315 315 315 315 317 320 318 320 321 323 325 326 328 329 331 332 332 332 333 334 334 335 336 336 337 334 331 329 328 328 329 329 330 330 331 332 331 331 329 330 331 332 333 333 333 333 333
296 292 290 290 299 306 312 309 304 309 308 310 311 314 313 316 317 318 318 318 319 320 320 321 323 324 325 326 327 328 329 330 331 331 331 331 332 333 334 334 333 333 330 329 329 329 329 329 329 329 331 331 330 329 327 328 330 332 331 331 332 332 332
298 296 297 303 309 311 312 311 310 311 312 314 314 316 316 317 318 319 320 319 321 321 321 320 320 321 324 325 327 327 327 328 328 328 328 328 329 329 330 332 334 332 331 329 329 329 329 329 328 329 330 330 331 327 326 330 330 330 330 330 330 330 330
309 309 309 312 311 312 314 316 313 312 312 313 314 316 316 316 318 320 320 321 320 320 322 321 321 320 321 323 324 326 327 327 326 328 328 328 329 330 331 331 333 331 331 330 329 329 329 329 329 331 329 330 330 327 329 331 329 329 329 329 329 329 329
301 297 309 309 309 312 313 312 316 314 313 312 313 313 313 314 317 319 321 321 321 322 322 322 322 322 323 323 324 325 326 326 326 327 327 326 326 327 329 332 333 331 331 329 329 330 329 329 329 330 329 330 329 329 330 329 329 329 329 329 330 329 329
302 304 310 313 314 314 315 314 310 311 312 313 313 313 313 314 314 313 314 316 318 322 322 322 322 321 322 322 323 324 325 326 326 326 326 326 326 326 327 331 331 330 330 330 330 330 329 329 330 331 330 329 329 330 330 330 330 330 330 330 329 328 329
308 311 313 313 315 315 316 317 316 316 313 312 312 313 313 313 311 312 313 315 315 318 319 320 320 321 322 322 323 324 324 324 324 325 325 324 325 326 327 329 331 328 329 330 330 330 330 329 330 330 329 328 328 328 329 330 330 330 330 332 331 329 329
303 304 307 312 306 305 310 315 319 316 314 313 311 311 311 311 310 310 310 310 312 313 315 317 319 318 319 322 324 325 324 324 324 324 323 324 324 324 325 328 327 329 331 329 329 330 329 329 329 328 327 327 327 327 326 327 329 330 332 332 331 331 331
299 307 312 310 310 311 311 313 316 316 314 312 310 309 308 308 309 310 310 310 310 310 313 318 322 322 322 322 324 324 324 324 324 324 323 324 324 324 326 327 326 327 327 330 329 329 328 329 328 327 326 325 325 326 327 329 330 331 332 331 331 331 331
305 306 305 306 307 304 305 308 309 311 313 311 309 309 308 308 309 310 309 309 309 308 310 312 318 323 324 325 325 324 323 324 325 325 324 324 325 326 326 326 326 326 327 328 328 328 327 328 327 327 326 326 325 326 327 329 330 329 327 325 323 325 328
306 308 307 306 306 306 308 309 309 310 311 313 311 309 309 308 309 311 310 310 310 310 309 309 311 314 315 316 320 322 323 325 327 330 328 328 330 327 326 326 325 325 326 326 325 326 326 325 325 326 324 324 325 327 328 326 323 321 321 322 322 321 322

ECMWFFLT2_sfc_thetae_033.txt.gz
Theta_e
305 307 308 308 309 299 303 304 301 304 312 308 305 303 302 304 302 300 309 307 310 315 316 318 320 321 322 325 324 323 325 327 330 329 330 332 333 335 337 337 338 342 344 346 346 347 348 349 349 350 352 354 354 354 355 357 358 360 360 361 361 362 362
305 308 310 309 309 310 304 300 304 308 310 311 307 298 302 300 296 301 304 303 305 306 303 324 317 318 319 322 324 323 325 328 326 327 331 332 333 335 338 340 342 343 343 345 345 347 348 349 350 351 354 355 355 356 356 356 358 358 360 360 360 361 361
307 306 307 306 309 309 307 305 311 304 299 299 310 306 295 295 294 297 302 305 305 308 307 313 315 318 320 325 326 323 324 324 325 328 331 333 335 335 337 338 340 340 342 344 346 346 347 350 353 354 355 355 356 357 357 356 357 358 359 360 361 361 361
305 305 304 298 302 306 306 308 307 308 307 307 302 302 308 302 297 296 298 301 301 310 311 314 313 319 326 324 326 325 323 325 326 328 329 331 333 335 336 337 339 340 341 343 344 346 346 349 352 353 353 353 352 354 356 357 358 360 360 360 360 359 360
303 299 302 300 303 301 302 303 303 304 306 307 308 307 304 300 299 298 297 296 303 312 317 316 319 322 325 325 323 327 328 326 327 329 329 332 333 335 336 337 339 340 341 342 344 346 347 349 351 351 350 351 352 353 354 356 357 358 359 359 359 359 359
299 302 305 305 305 305 304 303 302 304 303 301 298 298 303 303 301 296 298 296 307 314 319 320 321 323 323 326 326 327 327 328 329 329 330 333 333 336 337 338 339 339 341 343 344 346 348 349 349 349 350 351 352 353 354 355 355 356 355 358 359 359 358
302 304 306 308 308 308 306 306 304 306 306 307 302 295 300 302 304 305 305 301 304 322 322 320 322 323 322 324 325 324 325 328 329 329 328 333 335 335 335 337 338 339 342 343 345 348 349 349 350 350 350 351 352 353 354 355 355 355 356 358 360 359 357
306 307 306 306 305 306 304 305 306 306 303 304 303 303 310 302 304 301 301 299 303 318 325 323 321 328 326 327 324 326 324 326 328 327 328 333 334 336 337 338 339 341 343 346 349 349 350 350 351 351 351 352 352 353 354 354 355 356 357 358 358 358 356
300 302 304 304 305 304 303 303 305 306 306 306 307 310 311 303 305 302 300 295 302 316 327 323 321 319 319 320 322 326 325 329 328 328 331 333 335 336 336 338 340 342 342 345 348 349 350 351 351 352 352 352 352 353 354 354 355 356 358 359 357 356 355
291 291 292 295 299 301 304 305 304 305 305 306 304 300 305 297 309 308 301 300 311 321 323 320 321 322 322 322 322 323 326 330 329 328 330 334 335 336 337 339 341 340 344 346 348 349 350 350 350 353 353 352 352 353 355 356 355 356 357 358 356 355 353
297 300 305 309 307 304 300 302 303 303 304 306 306 310 303 298 305 303 307 308 308 313 315 320 320 323 321 322 326 326 327 328 330 333 333 333 335 336 335 339 340 344 345 345 346 349 349 349 351 351 351 351 352 354 355 355 356 357 358 358 356 354 349
306 305 306 307 306 303 303 302 302 304 304 305 304 303 301 316 303 298 310 316 309 312 317 321 324 324 326 327 329 329 330 331 330 330 333 332 333 335 338 338 339 340 343 345 346 347 348 348 350 350 351 351 352 354 354 355 356 356 357 357 354 351 345
305 306 306 306 305 305 305 304 304 303 304 305 303 306 307 313 302 300 312 315 312 313 314 320 324 328 327 325 327 327 330 329 330 330 329 329 330 332 333 337 340 341 341 344 345 346 347 348 348 349 349 351 353 355 354 356 356 356 358 356 353 349 346
304 305 305 306 304 304 304 304 304 305 304 304 305 306 308 309 310 310 313 316 313 313 315 319 323 328 327 330 330 328 326 325 330 329 330 329 329 330 332 335 337 341 342 344 345 346 347 347 348 348 349 351 351 351 352 355 356 356 357 355 352 349 346
302 304 305 304 303 303 302 304 305 305 305 305 305 306 307 310 309 312 311 314 314 318 325 325 329 330 324 323 321 322 328 330 328 329 328 330 329 331 334 337 338 341 343 344 345 345 346 347 348 348 350 350 351 349 351 352 355 356 356 354 351 348 345
301 303 303 303 303 303 302 303 304 303 302 302 303 304 309 306 307 310 309 310 310 317 321 319 322 322 324 323 327 329 329 327 330 329 329 330 332 332 333 336 338 340 341 343 343 344 345 347 349 349 350 350 351 349 351 352 354 355 354 353 350 347 344
301 305 303 302 302 301 298 300 303 305 304 305 305 306 311 309 310 308 306 307 315 316 321 319 320 319 322 324 325 328 330 331 330 331 331 331 332 333 336 336 337 338 339 341 344 345 346 346 347 349 351 350 350 352 353 355 355 353 352 350 348 346 344
302 304 301 301 298 292 295 307 308 307 305 305 304 303 305 309 312 310 313 315 317 320 321 317 320 321 324 324 328 333 334 333 332 331 333 333 334 334 334 336 336 339 342 343 344 346 348 348 347 349 351 351 353 354 354 355 353 352 351 349 347 345 343
301 303 301 298 293 296 310 316 314 309 308 308 306 307 308 309 312 314 313 316 320 322 320 322 324 326 328 329 327 324 325 331 332 333 333 335 334 333 335 337 337 341 343 344 345 346 344 344 348 349 350 352 352 352 353 352 353 351 349 347 346 344 343
304 301 300 292 295 307 311 312 314 312 309 309 308 306 311 314 311 314 313 316 319 324 322 321 323 322 322 326 328 328 330 328 329 329 330 332 333 334 336 339 341 342 341 342 343 345 347 346 346 347 349 350 349 351 352 351 351 350 348 347 346 344 342
299 301 299 299 309 306 309 309 312 311 310 306 305 302 307 316 317 316 315 317 319 320 322 322 322 323 320 321 326 324 324 329 331 330 332 332 335 339 340 340 342 345 345 345 346 348 347 348 349 348 350 350 351 351 350 350 351 348 347 346 345 344 343
304 300 298 300 299 296 305 312 315 317 315 316 315 313 312 317 319 319 319 319 321 322 321 320 321 324 319 316 320 325 324 326 329 331 333 334 336 338 339 344 341 344 346 348 350 348 349 350 351 352 351 351 352 350 349 350 349 347 346 345 346 345 344
303 301 297 297 296 301 313 313 314 316 317 316 316 310 305 318 319 319 319 319 320 321 321 322 323 318 313 315 324 323 326 327 329 331 333 334 337 339 341 342 345 346 348 348 347 350 351 350 351 353 353 352 350 350 350 348 348 347 346 347 346 345 345
304 302 299 297 303 303 311 313 315 316 318 315 312 300 302 319 317 319 319 319 320 320 323 322 321 318 314 319 322 323 325 328 331 335 336 338 340 343 346 347 350 352 351 349 349 349 351 351 350 352 352 351 350 350 349 349 348 347 347 348 348 348 347
303 302 302 304 307 314 312 313 315 316 317 313 304 298 311 320 320 320 320 320 320 323 322 321 319 323 327 328 327 330 336 335 337 339 339 340 342 342 344 346 349 351 353 354 352 351 352 350 349 351 351 351 350 350 350 349 348 349 351 351 349 348 347
302 304 300 300 306 310 312 316 316 317 310 302 303 315 317 320 319 319 320 319 320 322 325 327 328 329 331 332 335 339 340 341 342 342 342 343 345 346 347 348 348 347 346 346 345 344 347 348 349 351 352 351 349 348 348 348 350 352 352 351 349 348 346
304 304 301 297 293 311 316 314 317 318 310 313 315 320 322 321 323 324 325 323 325 331 331 333 334 335 337 338 339 340 340 341 342 344 345 345 344 344 345 344 345 345 344 343 342 342 343 345 347 349 351 349 347 346 346 348 349 349 349 349 348 347 346
303 302 298 297 309 314 317 314 308 314 315 318 321 323 321 324 326 326 327 330 332 334 334 333 335 336 336 337 339 339 339 340 342 343 344 344 343 341 341 342 343 344 343 342 340 341 341 342 344 347 349 347 346 345 346 346 345 345 346 347 347 345 344
308 306 313 316 318 317 319 317 316 317 319 323 325 325 324 323 323 328 326 326 329 332 333 333 333 332 335 335 336 335 336 338 339 339 340 343 344 345 345 345 346 347 346 344 341 340 340 341 342 344 347 347 344 344 343 342 343 343 343 344 344 343 343
313 315 316 316 318 319 318 319 319 316 317 319 321 323 324 324 326 328 327 326 325 327 330 328 329 329 331 331 333 335 336 337 339 340 341 343 345 345 345 345 345 345 344 344 343 339 338 338 338 339 342 345 344 343 341 342 342 342 342 342 341 340 341
306 301 313 314 315 316 316 316 319 318 317 316 317 319 320 321 323 325 327 329 329 330 330 329 329 328 329 329 330 332 335 337 339 340 340 340 341 343 342 343 344 345 346 344 343 342 338 338 339 339 340 341 342 341 340 340 341 342 342 341 340 339 340
309 311 314 316 318 319 318 318 318 316 316 316 317 318 319 320 321 322 323 325 325 328 328 331 330 330 332 331 332 331 333 335 336 337 338 340 340 340 342 343 345 346 347 347 345 344 341 339 339 339 339 339 338 337 337 338 339 340 340 340 340 338 338
311 313 316 316 319 318 317 318 318 317 316 315 317 318 317 318 319 320 322 324 326 328 329 331 331 331 332 333 332 330 333 334 334 335 336 338 338 340 342 343 345 347 347 346 345 343 341 339 338 337 335 334 335 337 336 337 339 338 337 338 338 337 337
307 308 310 316 310 310 316 316 315 314 317 315 314 315 315 316 317 318 318 318 320 322 326 332 332 332 332 334 335 332 334 335 336 337 337 337 338 339 339 340 341 342 342 344 342 340 339 338 338 336 334 334 335 335 336 337 338 337 336 336 336 335 336
306 309 314 311 312 312 313 314 316 316 315 315 314 312 313 313 315 316 317 316 316 316 317 321 326 330 332 334 334 332 332 333 334 335 337 337 337 337 339 339 339 340 340 341 341 340 339 338 337 336 336 336 335 335 336 337 336 338 338 337 336 335 335
307 309 310 311 310 307 310 314 315 315 318 318 315 314 315 317 316 316 316 316 315 316 317 317 319 320 321 325 328 329 331 334 336 336 336 336 336 336 337 338 338 339 339 339 340 339 339 338 337 337 335 335 335 335 337 337 338 339 338 337 335 336 335
307 312 312 313 312 312 313 315 315 315 317 317 315 315 314 315 316 317 317 317 319 317 317 317 318 320 320 320 321 323 323 324 328 332 334 335 335 336 335 336 337 338 339 338 339 339 339 338 337 337 337 336 336 334 337 338 338 338 339 336 332 330 329

ECMWFFLT2_sfc_thetae_036.txt.gz
Theta_e
310 310 311 310 312 301 307 308 304 308 315 312 308 309 310 310 307 303 313 311 313 318 319 321 323 322 322 322 324 326 328 332 336 335 337 339 340 341 342 343 345 348 349 351 351 353 353 354 355 356 358 361 361 362 363 365 366 367 369 369 369 369 369
310 313 312 311 312 313 310 304 307 314 317 315 310 302 307 304 301 303 308 307 309 308 306 319 318 317 318 320 321 322 328 332 333 333 336 338 339 341 344 346 348 349 350 351 351 351 353 354 355 357 359 362 362 362 363 364 365 365 367 369 368 369 369
309 311 311 309 312 314 310 309 315 308 303 303 309 308 300 299 299 301 305 307 309 310 310 314 315 316 318 320 322 321 323 330 333 334 336 338 340 341 342 344 346 348 349 350 352 351 352 354 358 359 359 360 361 362 364 363 364 365 367 367 369 369 370
309 309 307 301 305 311 312 314 311 313 310 307 305 306 308 307 300 300 301 305 305 313 313 315 316 319 320 319 320 321 322 327 334 336 336 337 339 341 341 343 345 347 348 349 350 350 350 353 356 357 357 357 357 359 363 363 364 367 368 368 369 368 369
308 301 305 303 305 304 305 306 306 309 309 312 311 310 307 304 302 301 301 299 306 314 317 316 318 320 321 320 320 322 322 324 329 337 336 338 340 341 342 343 344 346 348 348 349 351 351 353 356 356 355 355 355 357 359 360 362 364 364 367 368 368 369
303 304 308 307 307 308 307 305 304 307 306 304 301 301 311 308 304 300 301 300 309 316 319 320 319 320 320 321 321 322 323 323 327 337 339 340 342 343 344 343 344 345 348 348 349 350 352 352 353 354 354 355 355 355 356 358 358 360 360 365 368 369 369
305 307 310 311 310 310 309 309 306 308 308 308 305 298 303 308 307 309 307 304 306 318 321 321 321 321 320 322 321 321 322 324 325 337 338 340 343 343 342 343 343 344 348 349 349 352 353 352 354 355 355 354 355 355 355 357 356 358 359 362 367 370 369
310 311 312 312 312 309 307 308 310 308 305 307 306 306 309 306 307 304 305 302 307 318 324 323 321 324 321 323 322 322 322 323 334 338 339 342 343 345 344 343 342 345 347 351 352 352 353 354 355 356 355 356 355 355 355 356 356 357 358 360 365 368 368
304 306 309 308 311 309 306 305 307 309 309 309 309 310 312 305 306 307 304 298 305 317 325 333 330 322 319 320 322 329 332 334 333 338 340 340 344 346 344 343 343 345 347 350 352 353 355 355 355 357 356 356 355 356 356 355 356 357 359 361 364 366 366
295 295 296 298 301 304 306 307 307 308 307 307 306 303 305 300 308 310 305 305 311 317 322 323 324 325 325 322 322 322 326 336 337 338 341 343 344 345 344 344 344 346 350 353 354 356 357 357 357 358 358 356 356 357 357 357 357 358 359 360 362 364 362
302 304 308 310 310 307 303 305 306 306 307 308 308 307 304 302 307 305 309 310 311 313 315 317 318 320 319 319 321 320 324 333 336 343 343 343 344 345 343 345 346 350 351 354 356 358 358 357 358 359 358 357 356 359 359 358 359 360 362 361 363 363 361
308 309 309 310 310 307 307 305 305 306 307 307 306 303 302 311 305 300 309 313 309 311 315 317 318 319 320 321 322 322 326 336 340 342 348 344 342 344 345 346 348 349 352 356 357 359 359 357 359 359 358 357 358 359 359 359 359 359 360 363 364 363 361
308 309 309 310 310 309 308 308 306 306 307 307 305 306 306 309 304 302 310 313 311 313 314 316 319 320 321 320 321 321 322 322 342 348 344 341 340 343 343 347 348 350 352 354 357 357 357 358 358 359 358 359 360 361 361 362 360 360 364 365 365 363 362
309 309 309 310 308 308 308 308 308 308 307 306 307 306 307 306 308 309 309 313 312 313 315 316 318 321 321 321 323 322 322 322 340 343 344 339 339 339 342 346 348 350 352 355 356 356 357 357 358 357 358 359 359 359 359 359 361 361 364 366 365 363 360
307 309 310 310 309 308 307 308 308 308 308 307 308 307 308 309 308 308 308 310 311 317 319 319 320 322 320 320 319 320 324 326 328 338 338 340 338 339 344 348 348 350 352 353 355 355 356 356 358 358 359 360 360 358 359 360 361 362 364 365 363 361 360
304 308 308 308 309 308 307 307 308 308 307 306 307 306 308 307 307 308 308 307 308 314 318 318 319 319 319 321 323 322 325 324 330 338 337 339 342 341 344 346 348 349 350 353 354 354 354 357 359 359 360 360 360 358 360 359 360 361 364 364 361 360 360
303 307 308 308 308 306 303 304 307 309 309 309 310 310 310 310 310 307 305 306 313 315 316 317 319 317 317 320 321 327 331 338 338 339 340 340 343 343 346 347 347 348 349 352 354 354 355 356 358 359 361 360 360 360 361 362 363 362 363 362 362 361 361
304 306 307 308 304 297 299 311 312 311 309 309 307 307 309 311 311 309 311 313 317 317 316 317 318 318 320 326 334 334 336 337 344 340 340 341 343 344 345 347 347 350 350 351 353 353 356 358 358 360 362 360 361 361 360 362 362 363 364 363 361 360 360
304 306 307 301 296 298 311 316 316 314 313 312 310 311 311 312 313 313 313 314 316 318 319 319 320 324 325 325 328 330 337 343 341 344 342 343 344 345 346 348 348 350 351 353 354 353 354 354 356 358 359 360 361 359 360 361 362 363 364 363 361 359 358
309 305 304 295 297 310 312 314 317 318 315 314 312 309 311 313 313 314 313 314 315 318 320 320 322 325 327 334 338 341 339 337 336 333 335 341 343 343 346 350 349 351 349 351 352 355 355 354 355 357 358 358 357 358 361 361 362 363 363 362 360 357 356
302 307 303 302 309 308 309 310 318 319 315 313 310 305 309 314 315 314 314 315 316 316 318 320 321 331 328 326 327 329 331 334 333 331 332 335 342 344 347 347 348 352 354 355 356 358 356 355 355 356 357 357 358 358 359 359 361 361 361 360 359 357 356
308 305 303 303 302 299 305 315 320 322 321 321 320 317 312 320 317 317 316 316 318 318 318 319 325 329 322 317 318 324 328 332 335 333 334 335 340 342 345 349 351 355 355 355 358 354 355 355 355 356 356 356 358 358 358 358 358 358 358 359 359 358 357
306 305 300 301 299 303 316 317 318 321 322 321 320 312 307 318 319 319 317 316 319 320 319 319 330 323 314 314 320 325 332 333 333 334 335 337 339 343 347 350 352 351 355 356 353 354 354 352 354 358 357 357 357 357 357 356 357 358 358 359 359 358 357
305 304 302 301 306 303 315 318 319 320 324 318 316 303 303 327 324 329 323 318 318 321 322 327 327 321 314 314 321 335 334 333 334 338 341 343 345 348 351 349 351 353 354 352 350 353 354 357 360 359 358 358 358 357 357 358 357 358 359 359 361 361 358
304 303 303 305 307 318 317 319 321 320 321 319 308 300 311 324 328 327 327 327 328 325 327 330 323 325 325 335 335 333 334 335 338 341 341 343 344 343 342 344 350 356 355 355 355 356 361 362 360 360 359 359 358 359 359 358 358 359 361 362 361 360 358
302 304 301 303 306 318 318 323 320 322 314 306 307 319 325 328 328 331 328 326 328 330 332 330 327 330 333 334 335 335 337 341 342 343 345 346 348 351 354 354 351 351 351 356 359 360 362 361 360 361 362 360 360 360 359 358 360 361 362 362 360 358 355
305 304 302 299 294 315 320 320 322 323 314 317 321 325 328 331 330 331 332 329 328 329 330 331 334 334 334 337 340 342 344 345 347 349 350 351 350 350 352 354 354 355 355 355 354 357 360 362 362 363 363 360 359 359 357 360 361 363 361 359 358 356 353
300 302 299 299 309 318 322 319 314 321 321 323 325 326 327 331 330 332 335 337 334 334 337 336 337 341 344 346 346 347 348 348 349 349 350 349 349 349 350 351 352 352 352 352 353 356 358 359 360 361 360 357 356 357 359 362 362 361 361 358 355 353 352
307 304 307 321 322 322 323 325 323 323 324 325 326 327 326 327 330 335 336 337 339 339 341 343 342 341 342 342 342 342 342 344 345 346 348 349 349 350 350 351 353 353 352 352 352 353 355 358 359 358 359 357 356 358 360 360 359 359 357 356 353 351 351
320 320 323 322 324 323 322 324 324 322 322 323 324 325 325 327 330 333 332 334 336 339 342 340 342 342 342 342 344 346 348 349 351 350 350 350 351 351 352 353 353 353 353 352 350 349 351 354 355 357 357 358 358 358 356 355 355 356 355 354 350 348 350
309 303 319 321 321 322 322 321 322 323 323 323 324 325 326 328 329 330 332 333 335 335 335 336 337 337 341 342 343 344 345 344 346 347 349 350 351 353 355 355 353 353 352 349 348 346 344 347 349 352 355 356 355 352 351 352 353 354 353 349 348 347 348
310 317 319 322 323 322 320 320 320 320 322 322 323 325 327 328 328 330 331 331 332 333 333 335 330 331 334 336 338 340 342 345 347 348 349 350 352 355 356 355 354 353 350 347 345 344 343 346 348 349 349 349 349 350 349 349 350 350 349 347 346 345 345
317 319 321 321 322 319 317 317 319 320 320 321 322 324 325 326 326 328 329 331 331 334 335 337 338 336 334 335 337 336 338 340 342 345 348 351 352 352 354 357 358 355 355 353 351 349 348 349 348 347 346 345 346 346 346 347 350 348 346 346 346 345 343
310 312 315 320 313 312 316 317 317 318 320 321 322 323 322 323 325 326 326 327 328 328 330 334 338 338 338 338 339 337 340 342 344 345 346 348 349 349 351 352 353 353 354 353 352 350 350 350 348 347 345 345 346 345 346 347 349 348 345 344 343 341 342
310 314 320 321 319 318 318 318 320 321 320 320 319 319 321 322 324 324 325 324 325 325 326 328 330 334 336 338 339 337 339 342 343 345 346 345 345 344 347 348 350 351 352 352 353 351 351 350 348 347 346 345 346 345 347 348 347 347 345 342 340 339 340
314 317 319 320 319 314 314 316 318 320 321 320 318 319 320 321 322 323 323 323 322 322 323 324 327 328 330 332 334 336 339 341 343 344 344 344 343 342 344 346 348 349 350 351 351 350 351 350 348 348 345 345 346 344 345 346 346 346 344 342 340 339 338
313 317 319 319 318 318 319 318 318 319 320 318 317 319 321 320 319 321 321 320 320 320 320 321 324 327 328 328 330 331 333 335 339 340 341 341 341 341 341 343 345 347 347 348 349 350 350 350 348 347 346 345 345 343 345 345 345 344 344 345 343 341 342

ECMWFFLT2_sfc_thetae_039.txt.gz
Theta_e
312 311 312 311 312 301 309 309 305 309 316 313 309 310 311 310 306 304 313 311 314 319 319 322 324 323 324 325 325 324 326 326 329 328 333 334 334 336 341 344 346 347 347 349 349 349 349 351 353 354 358 359 360 361 363 368 370 372 372 373 372 372 372
313 315 313 312 312 313 310 305 308 316 317 315 311 303 306 304 301 304 309 307 309 309 307 320 321 320 321 323 324 323 325 326 326 327 330 335 336 341 344 346 349 349 348 348 349 350 351 352 355 359 361 362 361 362 365 368 369 371 373 372 371 371 372
313 315 313 309 312 314 309 309 315 307 303 303 309 308 300 300 300 303 306 308 309 311 311 318 318 318 319 322 324 323 322 324 326 328 333 338 343 342 343 344 347 348 348 348 350 349 351 354 360 362 362 362 362 363 366 368 369 370 372 371 373 372 372
312 312 310 302 305 311 312 313 311 314 310 307 304 307 308 308 301 302 303 307 305 314 314 317 318 320 321 321 322 322 323 323 325 328 331 335 341 343 342 344 345 347 349 350 350 349 349 354 358 360 360 361 361 362 366 367 368 371 372 372 373 372 372
311 304 307 305 306 304 305 305 306 310 309 312 311 310 307 305 303 302 303 301 307 315 319 318 320 321 322 322 322 324 323 323 324 327 329 332 336 341 344 345 345 347 350 350 351 350 350 353 358 358 358 359 359 360 362 363 366 367 368 370 371 372 372
305 306 311 310 309 309 307 305 304 307 307 305 301 300 311 309 305 301 302 301 311 316 320 322 320 322 322 324 324 322 323 323 329 327 329 331 336 344 345 345 345 346 349 351 351 352 350 350 353 356 355 356 355 356 360 361 361 364 363 368 371 372 372
306 309 312 313 313 312 310 309 306 308 309 310 305 298 304 309 308 310 308 305 309 320 323 323 322 322 323 325 324 323 323 327 327 327 327 332 342 344 344 345 345 346 349 351 352 355 353 350 354 356 355 353 353 354 356 359 358 361 360 365 369 372 371
311 312 313 313 313 311 308 309 310 308 305 309 308 307 310 307 308 305 306 303 308 319 326 325 323 328 324 325 325 325 324 324 325 326 329 344 347 348 345 346 344 347 349 354 357 358 358 357 359 357 355 354 352 352 354 355 355 359 358 362 367 371 371
305 307 309 308 311 310 307 306 309 309 309 310 310 312 313 306 307 308 305 300 306 317 324 324 324 322 322 322 323 326 324 325 325 327 330 336 348 351 347 347 347 348 348 354 359 360 362 361 356 360 357 355 352 353 353 353 355 357 358 360 364 369 370
295 296 297 299 302 304 307 308 308 310 309 308 306 303 307 301 309 310 305 306 313 318 323 321 322 323 324 324 324 324 325 327 325 326 330 347 349 353 350 350 349 348 356 361 363 364 365 359 357 363 363 357 355 354 355 354 355 357 357 357 363 367 367
303 305 310 311 311 308 304 305 306 307 309 309 309 307 304 302 307 306 310 310 311 314 316 318 319 321 321 321 324 323 324 325 326 334 341 347 351 352 349 350 349 354 358 359 360 362 360 357 359 360 358 357 356 360 358 354 355 356 359 359 365 367 368
310 311 310 311 311 308 308 307 306 307 307 308 307 305 302 311 306 299 310 315 311 311 316 318 320 320 322 323 324 324 325 327 327 329 352 351 349 351 350 350 349 350 354 357 359 360 360 358 360 360 360 359 359 361 358 356 354 356 358 361 362 367 368
310 311 311 311 311 310 310 309 308 307 307 307 306 307 308 310 304 302 311 315 312 313 315 318 320 322 323 321 323 324 326 324 329 335 333 347 348 350 348 350 351 351 351 357 360 359 360 360 360 361 361 361 363 364 361 361 356 357 362 363 364 366 369
310 310 310 311 310 310 310 310 310 310 308 307 307 307 308 308 310 310 311 314 312 314 315 317 319 322 323 324 326 326 325 324 331 328 331 341 343 348 349 351 351 354 355 358 361 362 362 360 361 361 361 362 361 361 360 359 359 359 364 367 367 367 368
307 310 311 311 310 309 308 310 310 311 310 309 308 307 308 309 308 309 309 311 311 316 321 321 322 323 323 324 323 323 326 325 323 324 323 325 327 331 342 355 354 355 357 359 363 363 361 361 362 362 363 363 362 360 359 358 360 361 363 368 366 367 369
306 310 310 310 309 308 308 308 309 310 309 308 309 307 309 308 308 309 308 307 308 313 319 321 322 322 322 320 322 325 325 324 326 325 324 325 330 331 335 349 355 356 357 359 362 362 362 362 363 363 364 363 362 360 361 360 359 360 364 366 365 369 370
304 309 311 310 310 307 303 304 307 309 310 311 311 311 312 310 310 307 305 306 313 315 318 317 318 319 320 321 321 322 324 331 327 326 325 325 326 329 339 345 356 355 355 358 363 362 364 363 363 364 365 363 363 364 364 365 365 363 364 365 368 370 371
305 308 309 310 305 298 299 310 313 312 310 311 309 309 311 313 313 311 312 313 317 316 315 315 316 317 319 322 328 328 327 326 331 325 326 326 327 327 326 333 352 358 358 357 361 363 365 365 364 365 368 366 365 365 364 365 364 366 367 369 370 370 370
306 309 309 303 298 299 311 315 315 314 314 313 312 312 313 314 315 314 314 314 315 317 317 318 319 321 321 322 324 323 324 327 325 328 326 329 330 332 334 345 344 359 360 360 362 363 362 362 364 364 365 366 365 364 365 365 365 366 367 369 370 369 367
311 307 305 296 298 311 313 314 315 316 315 315 313 312 313 315 314 315 314 316 317 318 317 318 321 322 320 321 326 326 323 324 325 323 323 325 326 327 331 350 357 360 358 359 360 362 362 360 362 364 364 365 363 363 365 365 365 366 368 369 369 369 367
304 304 304 303 312 310 311 311 314 316 316 316 314 309 313 318 317 316 315 316 317 318 318 319 319 322 321 321 321 323 323 326 326 323 323 325 325 324 347 351 357 364 362 362 362 364 361 360 362 362 364 364 363 363 363 364 365 365 367 368 367 366 365
309 306 302 302 302 300 308 319 320 322 322 321 322 318 313 318 317 319 317 317 318 318 318 319 320 321 318 315 317 323 324 326 328 329 330 331 334 333 336 355 360 365 362 362 364 360 358 359 361 363 363 363 363 362 362 363 364 365 366 367 367 366 365
308 305 302 302 299 305 317 318 318 321 322 320 320 314 307 321 327 330 329 325 327 328 319 319 320 316 311 312 318 324 326 328 327 327 329 330 329 331 339 353 359 358 360 362 360 359 360 358 360 364 363 362 360 360 362 362 364 366 366 367 367 365 363
307 306 301 300 307 309 316 319 319 320 322 321 316 303 304 327 330 331 331 330 329 330 331 333 320 316 312 312 319 324 325 326 327 327 331 333 332 333 348 354 359 360 361 361 360 357 356 360 363 364 361 361 362 363 363 363 363 364 365 368 368 366 364
305 303 304 307 309 317 319 318 320 321 320 317 307 300 315 327 330 331 333 330 332 333 331 332 323 320 321 321 325 325 325 324 325 328 338 341 337 338 346 349 356 358 359 360 358 358 360 364 363 362 362 362 361 362 362 362 361 364 368 368 367 366 364
304 305 303 303 308 317 319 320 321 321 314 305 305 321 329 329 327 331 331 331 334 333 333 330 332 332 326 324 323 324 331 334 339 340 341 342 344 349 351 357 357 360 359 360 360 359 363 362 361 361 363 362 361 362 362 362 366 367 366 366 365 364 362
307 307 304 301 296 318 321 320 319 323 311 315 322 325 328 327 329 330 332 333 336 337 333 332 331 333 333 325 326 331 332 336 342 343 342 348 349 350 355 356 359 356 355 354 353 359 359 360 361 363 365 363 363 363 363 364 366 366 365 363 362 361 359
301 302 300 300 311 319 322 319 312 325 324 324 329 326 326 330 330 331 332 334 336 339 337 333 331 331 331 332 333 336 340 345 346 345 347 347 348 350 352 353 353 351 353 357 360 360 359 363 366 367 367 363 363 362 361 365 366 365 363 361 360 359 357
307 305 308 321 322 322 324 324 323 326 327 328 329 330 328 329 329 334 332 333 335 336 337 338 338 336 335 337 341 344 342 346 350 352 353 354 353 351 350 351 356 359 359 361 361 362 364 366 366 366 366 363 362 362 364 365 363 362 361 359 358 355 355
323 324 323 322 322 323 321 322 323 321 323 325 327 329 329 330 332 333 332 333 334 335 338 340 337 338 340 341 342 338 343 348 351 354 353 352 352 353 356 358 359 360 360 359 359 359 361 364 363 364 365 365 362 363 364 363 362 360 358 355 353 352 353
311 306 323 322 322 322 322 321 324 325 324 325 327 329 330 331 332 333 334 336 336 337 341 340 342 340 342 343 346 348 350 349 350 351 351 353 353 353 354 356 356 357 357 355 356 357 357 361 363 364 364 363 362 361 359 359 358 357 356 354 352 352 352
311 313 320 324 324 324 325 325 323 322 324 326 328 329 331 332 332 332 334 335 336 337 337 341 342 342 343 344 343 342 340 341 350 352 352 353 354 355 356 356 355 355 354 353 353 354 353 356 357 357 356 355 356 357 356 356 356 355 353 353 352 351 349
317 322 323 322 322 322 322 323 325 326 325 325 325 327 328 328 329 330 331 333 335 335 336 338 337 337 338 340 341 339 340 342 345 347 353 354 352 352 352 354 354 353 353 352 352 352 351 352 352 352 351 350 350 352 353 355 356 353 351 350 352 350 348
311 313 318 319 312 313 319 322 323 324 326 325 325 325 325 325 325 326 327 328 331 332 335 337 338 338 338 340 341 340 341 343 346 349 351 354 356 356 356 356 357 357 356 355 353 352 352 352 351 351 350 350 351 351 353 354 354 352 351 350 350 347 346
308 318 321 325 321 319 321 323 324 326 325 325 322 321 321 322 324 325 326 324 325 326 328 331 332 334 336 336 339 339 339 342 344 345 347 348 350 351 354 355 355 355 355 355 354 353 352 352 350 349 349 349 351 352 354 355 353 352 352 348 346 345 344
318 320 321 324 323 317 320 322 324 324 326 325 322 322 322 322 322 323 324 323 322 323 325 327 329 330 331 333 335 336 338 339 342 342 343 343 345 347 349 352 352 352 353 353 352 351 352 351 350 350 348 350 352 351 353 353 353 353 352 347 344 342 342
317 320 322 323 322 321 321 322 323 324 324 324 322 323 323 322 322 323 322 322 322 322 322 323 325 327 328 329 331 332 333 336 339 339 339 341 341 343 344 348 351 352 352 353 354 353 352 351 350 349 348 349 351 350 352 351 351 351 350 347 345 346 346

ECMWFFLT2_sfc_thetae_042.txt.gz
Theta_e
313 311 313 312 312 300 306 307 303 305 312 309 305 307 309 308 305 302 311 309 312 318 318 320 322 323 323 324 324 325 327 327 331 330 331 333 334 334 335 338 341 344 343 348 349 348 350 351 351 351 353 357 359 360 363 366 368 369 368 367 367 368 368
313 315 314 313 312 311 308 303 306 312 314 312 307 300 304 302 299 302 307 305 307 308 305 319 319 320 321 322 323 324 326 328 328 330 331 332 333 335 339 341 343 344 345 349 348 347 346 349 350 353 355 357 360 361 363 365 367 368 369 368 367 368 368
313 314 313 310 312 313 307 306 313 305 300 300 306 305 298 298 298 301 306 307 307 309 310 314 316 317 319 322 324 323 323 325 326 331 332 336 338 336 339 340 343 344 346 350 349 346 345 348 353 355 357 357 359 361 363 364 365 368 369 367 368 369 369
312 311 310 302 305 311 312 311 308 312 308 305 302 304 306 305 299 299 301 305 303 312 312 315 316 319 322 321 322 322 322 324 325 334 334 337 336 336 337 338 341 344 344 345 347 346 344 346 352 354 354 354 354 357 362 363 366 369 370 370 369 369 369
312 304 307 304 306 303 304 305 303 306 307 311 309 308 305 303 301 300 301 300 305 312 317 317 319 322 323 322 323 326 325 325 326 328 330 334 336 337 336 337 337 341 344 345 347 347 346 347 352 353 353 352 352 354 357 361 365 366 368 369 369 368 368
306 307 311 310 309 309 306 304 303 304 304 303 299 299 308 306 303 298 300 299 309 314 318 322 323 324 321 324 325 325 325 324 327 334 327 333 334 339 341 341 337 338 344 347 347 349 349 346 347 350 353 353 352 351 355 358 362 365 366 368 369 368 369
307 310 313 314 314 312 310 308 305 307 306 307 303 296 302 306 306 307 306 302 305 320 327 330 325 323 323 325 324 324 324 326 325 327 333 334 336 338 338 338 338 341 345 348 350 350 351 349 350 350 351 351 351 351 353 357 361 364 367 368 369 369 369
311 313 315 315 314 312 309 309 309 306 304 305 305 305 306 303 305 302 302 301 306 318 344 336 323 333 323 326 326 327 324 325 326 327 328 335 339 339 336 337 335 340 342 346 352 353 352 352 353 353 354 354 353 353 354 356 360 364 366 367 368 370 369
304 307 309 309 312 311 307 306 308 308 308 307 307 308 311 303 304 305 302 297 304 315 339 339 329 322 321 322 323 326 325 328 326 330 342 337 343 342 338 340 342 345 343 345 353 355 353 353 354 356 357 357 356 356 355 356 359 363 365 365 368 368 367
295 295 296 298 302 305 307 308 308 308 307 306 304 300 305 299 310 309 303 303 311 317 325 324 323 324 333 325 323 323 326 343 336 337 340 345 346 345 347 349 347 345 346 352 357 358 357 354 355 358 359 359 358 357 356 356 359 361 361 361 365 366 367
302 304 309 310 310 307 303 305 306 307 308 308 307 305 302 299 306 305 309 310 313 313 316 318 319 322 321 321 327 329 328 327 334 352 352 344 349 347 349 351 351 352 356 359 357 359 359 356 355 358 358 357 356 357 356 355 357 358 361 360 363 368 368
308 310 309 311 310 306 307 306 305 307 307 307 305 302 300 310 305 299 311 319 310 311 315 321 320 320 325 325 328 325 337 341 339 344 360 353 352 353 354 354 355 354 357 364 361 360 361 359 357 357 358 356 356 356 354 353 354 355 357 358 362 367 367
308 309 311 311 310 309 309 308 307 306 306 306 305 306 306 309 302 300 313 321 315 314 314 317 323 328 337 323 324 326 328 328 334 353 350 348 348 352 351 355 355 355 357 366 366 362 362 362 359 359 358 357 357 357 354 353 352 353 356 358 360 365 367
308 309 309 310 309 309 309 308 307 307 307 306 306 306 307 306 309 311 310 318 313 313 314 316 319 326 324 325 328 326 327 323 330 337 346 346 347 348 349 354 356 358 357 362 368 365 365 363 361 359 359 359 358 357 355 354 353 353 358 359 360 364 367
307 309 310 309 309 309 308 308 309 309 308 307 307 306 307 308 307 308 307 310 311 315 322 320 321 323 324 328 323 322 326 326 324 326 325 333 329 340 347 356 356 357 357 359 365 365 364 364 362 360 360 361 360 357 356 353 354 355 359 360 361 364 367
305 309 309 309 309 309 308 308 308 308 308 306 307 306 308 306 308 310 307 308 308 313 319 318 323 323 323 321 323 326 333 327 327 327 325 326 338 336 340 350 353 355 355 356 361 363 363 363 364 362 363 363 362 357 357 354 353 355 360 361 361 364 369
304 308 309 309 309 307 303 305 307 309 310 310 310 311 311 310 309 305 305 306 313 317 320 317 318 317 321 322 321 323 325 335 333 329 328 327 331 339 351 353 354 354 353 355 360 362 362 363 364 364 365 363 362 360 359 359 358 355 361 362 363 366 371
303 307 308 309 304 297 299 310 313 312 309 310 308 308 310 311 311 309 311 311 319 319 316 316 318 319 320 327 330 331 338 341 340 336 335 329 329 329 333 355 355 357 357 356 360 363 364 364 362 363 365 364 364 363 364 364 361 358 363 365 365 368 372
301 306 307 301 296 298 312 315 315 314 313 312 311 311 312 313 314 314 312 313 314 319 318 319 320 321 323 325 327 323 323 328 327 329 331 338 342 343 341 346 356 360 362 362 364 367 364 362 363 363 364 366 365 364 365 364 363 362 366 367 367 370 372
306 304 303 295 296 309 312 314 316 317 315 313 311 309 311 313 314 316 320 317 316 318 317 316 321 325 320 319 324 337 327 324 326 323 323 325 328 330 334 339 345 364 363 363 364 367 365 365 361 361 363 362 360 361 364 364 363 366 369 368 368 371 371
301 302 302 302 311 308 310 311 313 313 311 311 309 304 309 315 317 316 322 319 319 322 319 317 318 320 318 319 320 320 320 323 324 323 323 323 327 327 331 333 341 370 366 366 365 369 367 364 362 362 363 362 362 360 359 360 363 367 369 368 368 371 370
307 302 301 302 302 299 306 319 318 320 320 319 319 316 312 319 326 324 321 320 325 325 324 327 327 328 325 313 315 321 320 321 322 323 323 323 325 328 330 333 334 357 368 367 368 368 366 364 363 364 364 364 364 362 360 361 361 364 367 368 371 371 370
305 303 300 300 299 305 318 317 318 320 321 319 319 313 307 324 329 328 327 325 326 323 326 328 327 323 317 317 318 322 322 322 322 322 323 323 324 326 327 329 331 357 367 366 368 367 366 363 364 368 366 364 362 362 362 360 359 362 367 370 371 370 369
307 305 301 301 305 309 315 318 318 319 321 319 315 302 303 328 329 328 330 325 325 330 331 330 328 325 317 316 324 324 322 322 324 327 332 334 328 328 334 336 365 367 368 368 366 364 364 365 366 369 366 365 361 361 362 362 362 365 368 370 371 369 368
304 304 303 306 308 319 320 318 320 320 320 317 305 298 310 326 327 327 329 328 328 332 332 332 327 330 332 332 331 326 325 324 323 327 339 341 339 336 331 333 361 370 368 367 363 362 364 366 366 366 365 364 362 363 365 363 364 367 370 371 370 368 367
303 304 302 305 308 318 321 321 320 321 315 304 304 320 327 327 325 328 327 328 330 331 332 333 334 334 335 333 331 328 325 323 327 333 334 340 341 340 335 352 362 364 361 365 365 361 367 367 366 367 366 364 364 365 365 365 367 370 371 370 368 366 365
305 305 302 299 294 317 321 319 317 320 311 314 323 325 327 328 328 329 330 330 332 334 334 335 335 334 334 336 336 333 330 330 336 340 345 353 347 352 362 361 362 358 359 360 358 359 365 367 367 367 367 364 364 364 365 367 369 370 368 367 366 364 363
300 300 298 298 308 316 320 317 312 320 323 326 329 325 324 326 325 327 327 329 329 328 328 329 334 336 336 335 335 336 336 334 336 346 351 351 354 356 354 356 357 355 359 359 359 363 363 366 367 368 367 363 363 363 365 368 368 366 366 366 364 362 359
305 304 307 317 322 321 321 322 324 326 328 328 326 326 323 323 325 329 330 329 329 328 330 330 329 334 337 337 335 335 341 331 338 347 352 352 349 351 355 357 362 361 360 362 362 363 366 368 368 368 367 363 362 363 365 366 364 364 363 362 361 359 358
320 320 321 322 322 321 321 323 324 323 324 325 326 326 325 325 326 329 332 333 335 336 337 336 338 337 337 338 339 341 343 343 344 344 344 341 343 348 354 360 360 360 364 363 362 363 365 368 367 366 367 365 361 363 365 363 364 363 362 360 359 358 357
311 305 322 320 320 322 321 320 322 324 324 324 327 328 328 328 330 332 335 335 334 333 334 336 334 332 335 333 334 339 340 338 340 343 344 344 343 338 333 335 348 359 360 357 360 361 361 364 365 365 364 364 364 364 364 363 363 363 360 358 356 357 356
312 314 320 321 322 322 323 321 322 322 325 327 328 330 331 331 331 330 329 329 327 330 332 333 333 333 333 333 332 333 333 334 336 340 342 342 340 339 340 341 341 343 345 349 352 356 353 357 359 362 362 362 362 362 361 360 360 360 357 357 354 353 352
316 319 320 322 322 321 321 322 323 324 326 326 326 327 327 327 326 326 326 326 324 325 325 329 332 332 333 335 334 332 331 332 333 336 339 338 338 339 339 340 341 343 345 345 345 346 353 355 356 356 356 356 356 356 356 357 358 354 352 351 352 351 350
311 312 315 318 313 313 319 321 322 324 326 326 324 324 323 323 323 324 323 323 324 324 324 324 326 328 333 335 335 333 332 331 331 336 338 339 338 337 339 340 342 343 344 344 347 348 351 352 354 354 354 354 355 356 356 355 354 352 351 349 349 347 347
308 315 320 323 321 319 321 322 324 325 325 324 322 321 321 321 322 321 320 319 321 321 322 323 324 325 327 331 334 333 333 333 335 337 334 334 335 336 337 339 341 341 345 348 349 348 349 350 350 350 351 351 354 354 355 355 353 353 353 349 347 346 345
317 321 322 324 320 317 318 321 323 324 326 324 321 321 321 321 320 320 318 318 318 318 319 320 321 323 324 325 327 329 334 335 334 335 337 336 338 345 344 346 347 348 348 347 348 348 350 350 351 352 350 352 355 354 356 355 355 356 354 351 347 345 344
317 322 322 324 320 319 320 321 321 322 323 322 322 323 323 321 320 321 319 318 317 317 316 316 319 319 320 322 323 323 325 328 332 335 335 336 339 340 341 345 348 348 348 349 349 349 350 350 350 350 351 352 354 352 354 354 354 354 354 354 347 345 345

ECMWFFLT2_sfc_thetae_045.txt.gz
Theta_e
309 308 311 310 310 296 300 302 297 300 305 304 301 303 303 303 299 295 307 305 308 312 314 316 317 317 317 319 320 322 324 327 328 327 328 329 330 332 334 335 336 339 340 340 341 342 344 346 346 347 348 350 352 353 355 356 357 358 358 359 359 359 360
309 311 311 311 311 309 301 298 301 306 307 307 301 293 297 294 291 296 301 298 299 302 298 313 314 314 316 317 319 322 324 326 326 326 328 330 331 332 333 335 336 339 341 341 342 344 345 346 347 347 348 350 353 355 356 356 357 357 358 359 359 359 359
309 312 310 307 309 310 304 301 308 301 294 295 299 301 290 290 290 292 297 300 301 301 304 309 310 313 314 316 319 320 322 326 326 326 328 330 331 331 331 333 335 337 340 342 342 343 345 347 348 348 349 350 353 356 358 358 358 359 359 359 359 360 360
309 309 307 298 301 306 308 308 304 306 301 298 295 298 298 296 291 294 293 298 295 309 305 310 311 313 315 316 317 318 322 326 327 327 329 329 329 329 330 331 335 337 338 342 342 342 344 346 347 348 349 350 351 355 358 358 360 361 361 360 360 359 360
308 301 304 301 301 299 301 301 300 301 301 304 302 302 298 294 293 292 293 291 299 305 311 312 313 314 316 317 317 318 320 323 326 327 328 329 329 329 330 331 334 337 338 340 343 343 344 346 348 349 349 349 351 353 356 358 358 360 360 360 359 359 360
302 303 307 307 306 304 302 301 300 300 297 294 292 292 302 300 295 290 292 292 303 308 315 316 315 317 317 318 319 319 319 321 322 327 328 328 329 329 330 331 332 337 338 339 342 343 344 345 347 347 348 349 350 351 355 358 359 360 361 361 360 359 360
300 306 309 311 310 308 306 304 301 303 300 298 294 286 293 299 299 302 300 296 297 310 314 315 318 318 319 319 320 319 320 321 322 326 328 329 329 330 330 331 333 335 338 338 340 342 342 344 346 347 347 348 349 350 353 356 358 359 361 362 362 360 360
306 308 310 310 310 308 305 305 305 303 300 300 298 296 299 296 299 295 296 295 299 313 315 320 328 319 320 321 321 320 321 321 321 326 327 328 328 330 331 332 333 335 337 338 340 341 341 342 344 345 347 348 348 350 352 354 356 359 361 362 363 361 360
295 301 304 304 308 307 303 301 303 304 304 303 302 301 304 297 298 298 294 291 295 311 312 326 321 319 319 319 321 321 319 319 321 322 327 328 329 330 330 331 332 335 337 337 339 342 341 341 343 345 346 347 347 348 350 352 355 358 360 362 362 362 360
289 290 291 292 296 300 303 305 304 304 303 302 299 295 297 290 298 301 295 296 301 307 311 312 313 322 319 319 320 322 321 320 320 319 328 329 329 330 330 331 331 333 337 338 340 342 342 341 342 344 346 347 348 348 348 351 353 356 359 361 362 362 361
295 297 300 310 307 302 300 302 304 304 304 304 302 298 295 290 296 299 298 301 305 305 308 310 311 319 315 318 322 320 319 324 323 329 329 329 330 331 331 331 332 334 337 339 341 342 343 342 342 344 346 347 348 348 348 349 352 354 358 360 362 362 361
302 307 306 308 307 302 303 303 303 304 303 303 301 297 295 299 296 287 300 305 302 303 306 313 311 312 318 317 316 323 331 332 330 330 327 336 330 331 331 331 331 333 336 338 341 343 343 343 343 344 346 348 348 348 348 349 350 353 357 360 361 362 362
304 305 305 307 307 305 304 304 303 303 304 303 300 300 301 302 296 294 299 308 305 306 308 310 316 318 319 319 314 316 325 330 334 331 326 329 329 330 329 330 332 334 335 336 338 344 346 345 344 345 346 347 348 349 349 349 350 352 357 360 361 362 362
304 304 305 305 304 305 305 304 304 304 304 303 303 302 302 302 301 301 302 307 311 310 309 310 314 320 321 321 323 320 319 324 333 332 331 331 329 330 330 331 332 335 336 337 338 343 347 345 345 346 347 347 348 349 350 350 350 352 356 358 359 361 361
302 305 306 305 305 304 303 304 305 305 304 304 303 303 303 304 302 303 303 302 304 311 311 311 316 320 325 319 319 322 321 324 336 333 334 336 333 338 341 339 337 336 337 338 342 344 347 347 346 347 349 350 350 351 351 352 351 352 355 357 358 358 360
300 304 304 305 305 304 303 303 304 304 303 301 302 301 303 301 301 304 301 300 300 306 313 312 312 317 318 319 320 319 323 324 323 336 337 340 340 341 343 343 343 340 340 347 349 347 349 349 348 347 349 351 351 351 352 352 353 353 354 355 356 356 359
300 305 305 304 304 302 299 300 304 305 306 306 304 304 306 305 304 300 299 298 303 307 313 309 308 310 315 317 318 319 322 327 322 322 334 338 340 340 342 342 343 344 345 350 355 352 351 352 351 349 350 351 351 352 352 353 353 352 352 353 354 354 357
300 304 304 307 300 293 295 307 308 308 306 306 303 303 304 305 306 301 303 305 313 315 312 308 307 308 309 311 320 319 317 319 323 324 324 326 329 334 341 344 344 345 345 346 354 355 353 354 354 353 352 351 352 353 353 352 351 350 349 350 352 353 355
298 304 304 298 293 296 309 311 312 310 309 309 307 307 307 307 306 308 308 309 308 312 315 313 312 312 316 320 320 321 326 326 327 326 326 328 328 329 329 336 343 344 344 344 346 352 355 355 355 355 353 353 353 353 352 351 350 348 348 348 350 352 354
301 299 298 291 293 308 310 310 313 316 311 309 310 306 309 312 315 314 311 313 316 319 320 320 317 317 319 317 318 317 321 325 321 320 320 322 327 331 332 333 340 343 344 344 344 348 355 356 356 356 354 355 354 353 353 352 350 348 347 348 350 352 354
294 296 295 296 307 307 310 308 312 310 309 309 305 299 313 322 318 317 316 315 318 322 323 323 322 322 321 316 315 316 320 321 321 319 318 318 320 321 326 338 340 347 348 347 347 348 352 355 355 355 356 356 355 354 353 353 352 350 348 349 351 353 355
300 296 293 294 294 293 301 313 320 318 316 315 317 316 313 324 323 323 320 320 321 323 325 324 323 322 313 313 313 321 326 321 321 317 317 316 316 318 324 328 342 348 350 350 349 349 351 354 355 356 356 356 355 354 353 353 352 351 351 352 354 355 358
298 297 292 292 291 298 313 317 318 316 316 316 317 310 307 319 323 323 322 323 325 325 324 323 325 318 311 313 317 326 327 327 326 323 317 316 316 316 317 317 321 349 353 352 352 351 353 353 355 356 356 356 355 354 353 353 353 352 352 356 357 359 362
302 299 295 294 300 303 312 317 314 315 316 319 311 297 301 317 324 324 325 325 326 326 328 328 325 322 317 319 324 330 331 331 328 328 329 329 331 331 328 321 319 323 352 354 352 353 354 355 356 356 356 356 354 353 353 353 353 352 354 359 362 364 365
300 302 300 299 302 318 320 316 316 315 317 314 299 292 309 324 323 325 326 324 325 325 324 326 323 325 327 329 333 336 335 337 339 341 337 333 333 337 341 338 341 326 322 349 355 356 358 357 357 357 357 355 353 353 353 352 352 353 359 364 365 365 364
299 299 298 298 306 314 318 317 317 317 314 299 299 315 325 325 322 325 325 324 324 324 323 322 324 326 332 339 340 339 339 338 339 343 344 344 346 353 355 353 352 343 328 336 353 358 359 359 358 357 357 354 353 352 352 351 352 359 365 366 365 364 362
302 302 298 295 291 310 321 317 316 317 307 310 319 321 322 325 325 326 328 329 330 329 327 330 331 333 335 336 337 339 339 338 339 341 342 341 341 346 346 346 347 350 352 352 353 356 359 359 358 358 357 354 353 353 353 352 359 365 366 365 363 361 359
298 298 295 294 305 314 319 316 311 318 320 322 325 321 319 325 328 328 329 331 333 334 332 330 330 331 331 332 333 335 336 337 339 342 343 343 341 343 346 345 345 345 343 344 346 348 352 355 360 360 358 354 353 353 354 360 365 364 363 362 360 358 355
307 303 305 311 313 318 323 323 321 321 322 323 322 323 324 325 327 330 328 329 331 332 331 330 330 329 331 331 332 331 332 334 335 338 341 341 340 341 341 340 342 343 343 343 344 343 343 344 348 352 357 355 352 354 360 363 362 362 361 358 356 354 353
315 317 317 318 320 320 321 323 322 322 324 326 327 327 324 324 325 326 325 327 328 329 330 328 328 329 330 330 330 330 331 332 335 337 338 338 339 341 341 340 340 342 343 344 344 343 342 343 343 344 348 356 356 359 362 361 362 360 357 355 353 351 350
305 299 312 315 318 319 320 321 324 327 328 326 325 323 322 322 322 322 323 323 324 325 327 327 326 327 330 330 330 330 330 331 332 334 335 336 338 339 339 340 338 338 339 340 340 342 341 344 347 349 349 350 358 360 360 361 359 357 354 352 350 349 349
309 310 316 316 319 320 322 322 322 323 324 324 324 324 323 322 322 322 321 322 322 323 322 323 323 325 328 329 329 330 330 331 331 330 330 330 332 335 338 338 340 338 337 337 337 339 340 342 346 349 349 349 349 354 358 360 357 355 352 350 349 348 348
312 313 315 315 318 320 321 322 321 320 321 321 322 322 321 321 319 319 319 319 319 319 320 321 320 320 321 325 328 328 329 330 330 329 329 329 330 331 333 335 335 335 335 336 338 339 340 343 345 348 349 348 349 352 353 356 351 352 349 346 348 348 347
306 307 310 314 310 310 316 319 319 319 320 319 318 318 318 318 317 317 315 315 317 317 318 319 319 317 318 320 322 323 327 329 328 328 328 329 330 333 334 335 335 336 338 338 339 337 337 339 340 340 343 346 347 349 352 353 351 347 346 347 346 346 346
304 314 316 317 317 317 316 318 319 319 319 318 316 315 314 315 315 315 314 312 312 314 316 318 317 316 316 316 318 319 321 326 331 330 329 329 330 332 334 335 334 335 336 338 335 334 334 335 337 339 341 342 344 347 348 348 348 346 346 344 344 344 344
316 318 318 320 318 314 316 318 319 320 321 318 316 316 316 315 315 315 314 313 311 311 313 316 317 316 315 315 315 315 317 320 325 329 331 332 332 333 333 335 335 334 333 336 335 333 335 335 336 340 346 347 347 347 348 348 347 346 345 344 342 342 340
314 320 321 322 320 320 321 320 320 319 321 320 318 318 317 316 317 317 315 313 313 312 312 314 316 317 316 316 315 314 315 317 321 324 324 325 332 333 334 335 334 335 337 337 336 337 339 339 341 342 346 347 349 350 349 348 347 345 344 342 341 340 339

ECMWFFLT2_sfc_thetae_048.txt.gz
Theta_e
306 304 307 305 304 293 296 299 295 297 300 299 296 298 300 299 295 291 296 301 300 304 309 314 316 316 317 319 321 322 322 323 325 325 326 327 328 328 329 329 330 331 333 334 335 337 339 340 341 343 344 345 347 349 349 349 350 352 353 353 352 352 352
307 310 307 307 307 302 296 296 296 302 303 301 296 288 292 291 287 289 297 295 295 300 296 308 311 314 315 316 319 321 322 323 323 325 326 327 328 329 330 331 331 332 333 334 335 337 339 340 341 343 344 346 348 349 350 349 350 350 353 354 353 353 352
306 309 308 305 307 307 301 296 301 299 291 292 293 293 288 287 287 288 292 295 296 297 297 305 308 310 313 314 317 319 320 322 323 324 326 327 328 329 330 330 331 332 333 334 335 336 340 341 342 344 345 346 347 349 351 351 350 351 353 355 355 355 354
305 306 304 297 300 305 307 303 299 300 296 295 292 293 291 292 287 290 289 293 291 301 299 306 309 311 313 314 315 317 319 321 323 324 326 326 327 328 330 331 331 333 333 335 336 336 339 340 341 344 345 346 347 348 350 351 352 352 353 354 355 354 354
303 298 300 299 301 299 300 300 299 299 299 298 297 297 294 291 287 285 287 289 293 298 306 309 310 312 313 314 314 316 319 322 323 324 326 326 327 328 329 331 332 333 334 335 337 337 339 342 343 344 345 346 347 348 349 351 351 351 352 353 354 355 355
296 298 303 303 303 304 302 301 299 300 295 293 290 288 297 295 292 286 288 288 291 301 310 311 311 313 314 315 315 316 319 321 323 324 326 327 327 328 329 331 332 333 335 336 337 338 339 341 342 343 345 346 347 348 349 351 352 352 352 353 354 355 355
297 300 304 307 307 306 305 303 301 301 296 294 290 286 287 295 294 299 293 290 294 303 308 311 312 313 315 316 316 316 319 322 324 325 327 327 328 329 330 331 332 334 335 336 337 338 339 341 342 343 344 345 347 348 349 351 351 352 353 354 355 355 355
301 303 304 305 307 306 303 303 304 301 297 296 293 290 291 292 292 293 291 292 290 302 309 312 311 313 315 316 316 317 319 323 324 325 326 327 328 329 330 331 333 334 335 337 337 337 339 340 342 342 344 345 347 348 350 351 351 352 354 355 356 355 355
293 298 299 299 303 304 302 300 302 303 301 299 297 297 297 294 292 293 290 289 290 302 311 311 316 316 316 315 314 316 317 322 324 325 326 327 328 329 329 330 331 332 333 335 337 338 339 341 342 343 344 345 346 347 350 351 352 354 355 356 356 356 355
287 287 289 292 295 298 299 301 301 302 302 299 295 294 293 287 293 295 291 291 293 300 306 309 309 307 313 315 315 317 319 321 324 324 325 327 327 328 328 329 328 329 333 335 337 338 339 341 342 343 344 345 346 347 349 352 353 354 355 357 357 356 356
293 294 295 299 301 299 298 298 300 301 302 302 300 295 291 291 290 294 291 296 297 300 303 304 306 307 308 313 315 315 316 317 322 324 326 326 326 327 327 328 328 329 332 334 336 338 339 340 342 344 344 344 345 346 347 351 353 355 356 356 357 357 356
299 299 299 302 303 299 300 299 298 301 301 301 298 295 294 295 293 291 295 299 299 300 302 303 306 308 306 312 314 315 316 317 319 322 324 332 325 326 327 327 327 328 332 334 335 337 339 340 342 343 344 345 345 345 346 349 352 354 356 356 357 357 356
301 301 302 302 302 300 301 301 299 299 300 300 298 297 296 297 294 293 296 298 299 300 302 304 305 307 310 311 315 318 318 318 318 320 322 324 324 325 325 326 327 329 331 333 334 336 338 339 340 341 343 344 345 345 346 348 350 352 355 356 356 357 356
300 301 302 303 302 301 300 301 301 300 300 300 300 299 298 298 297 297 298 300 302 303 304 305 307 309 312 313 314 317 318 319 322 323 322 323 324 324 325 326 327 330 332 333 334 336 337 338 339 340 342 343 344 344 345 347 348 351 354 354 355 356 356
298 300 302 303 302 301 299 299 301 301 300 300 301 300 299 299 298 299 297 298 300 303 306 307 307 312 317 312 314 316 317 323 324 323 323 323 323 324 326 327 327 329 332 333 334 335 336 338 338 339 341 343 344 345 345 346 347 349 352 353 354 355 356
296 300 300 301 302 301 299 299 299 299 300 298 300 299 300 298 297 297 297 296 296 300 303 307 309 313 312 311 312 314 316 324 324 321 322 324 324 325 326 326 327 329 331 333 334 335 336 338 339 339 340 342 344 344 345 345 346 348 350 352 353 354 355
294 299 301 300 300 298 295 297 300 300 299 300 301 303 304 304 302 298 296 295 298 303 306 306 306 311 309 310 313 314 317 324 325 323 324 324 325 326 327 327 328 330 331 333 335 337 338 340 340 341 341 342 343 344 345 346 347 347 348 350 352 353 355
293 299 299 300 296 290 292 301 304 303 301 301 300 298 300 302 302 299 301 302 301 302 303 305 305 305 307 310 312 315 319 323 326 326 326 326 327 328 328 330 330 331 333 334 336 338 340 342 342 343 343 342 344 345 346 347 346 346 346 348 350 352 354
295 298 300 295 290 291 302 303 305 306 304 304 302 312 314 316 311 308 306 308 306 305 304 306 306 311 312 320 320 322 321 318 324 329 330 329 327 328 330 330 331 332 333 334 335 336 339 343 344 344 343 344 344 345 346 346 346 346 346 347 349 351 353
296 296 295 290 288 299 308 307 308 308 306 306 314 312 315 318 317 310 310 313 313 313 310 309 311 313 319 324 325 325 326 324 320 319 327 332 331 330 332 332 332 332 333 334 335 337 341 344 346 345 344 345 345 345 346 346 347 347 346 346 348 350 352
293 293 293 293 301 303 302 305 308 306 302 303 308 306 310 317 318 315 313 315 318 319 318 318 315 315 320 322 324 328 329 330 329 322 322 317 321 325 326 331 336 338 337 335 336 339 342 343 345 346 346 346 346 346 346 346 347 347 347 346 347 349 351
298 293 292 293 293 292 295 304 313 316 312 309 317 314 308 317 320 320 321 319 320 320 320 319 317 314 316 316 320 327 332 335 337 338 336 332 318 314 317 324 328 336 340 342 342 341 342 346 346 347 347 347 346 346 347 347 347 347 347 346 347 348 350
296 295 290 289 290 293 298 310 313 314 319 321 318 311 304 314 319 321 322 320 321 322 322 321 318 314 312 312 319 330 333 335 339 338 339 340 339 330 317 320 325 329 333 339 343 343 342 345 349 350 350 348 347 346 347 347 347 347 347 347 348 348 350
295 293 292 290 295 302 309 311 311 311 312 312 310 299 300 313 320 320 320 319 319 320 322 324 322 318 314 316 323 334 336 336 338 339 338 338 339 343 345 335 322 327 336 340 340 341 341 342 347 351 351 350 348 347 347 347 347 346 347 348 349 349 350
297 297 292 295 300 314 317 313 311 311 312 308 297 291 304 318 321 322 322 321 321 323 323 323 321 322 326 329 332 336 336 336 337 340 341 340 340 340 342 342 347 331 328 339 342 343 343 343 344 349 352 351 349 348 348 347 346 348 349 349 349 349 349
295 294 291 290 298 308 314 313 316 314 309 298 292 306 319 322 326 328 328 326 327 328 326 326 326 327 331 333 333 332 333 334 334 337 338 338 339 341 342 342 342 344 345 334 334 343 345 345 346 347 348 349 349 349 348 348 348 350 350 349 348 348 349
301 298 293 292 291 304 313 313 312 314 302 301 313 321 325 329 328 328 328 328 327 327 325 327 327 328 328 328 329 330 332 333 334 335 336 336 337 337 339 339 340 343 342 341 342 342 345 349 351 351 350 347 347 347 348 349 351 351 351 351 351 351 352
298 296 292 291 302 311 316 312 304 311 315 320 324 326 323 326 327 325 325 326 327 327 326 326 327 327 327 327 328 329 331 333 333 334 334 336 337 338 340 340 339 340 341 342 340 340 342 344 347 351 351 349 348 347 347 348 352 353 355 356 356 355 355
304 301 303 310 314 315 318 318 318 321 323 326 327 327 325 324 324 326 325 324 326 328 328 328 328 327 328 328 329 329 330 331 331 330 331 333 334 336 336 336 338 338 338 340 342 342 342 343 344 347 351 351 348 348 350 355 357 358 358 358 358 356 357
313 313 313 315 315 315 317 322 324 323 323 324 325 323 320 321 323 324 324 324 325 326 328 328 327 328 328 328 329 329 330 329 329 329 329 331 333 334 334 334 335 336 338 339 339 340 341 343 344 345 346 348 348 348 355 358 360 360 359 357 356 356 356
301 296 312 311 314 316 316 318 320 321 321 320 321 320 320 320 321 321 321 321 322 323 323 323 323 325 327 327 327 328 328 328 328 328 328 329 330 331 331 332 334 335 336 336 336 338 338 341 344 344 343 344 346 349 352 357 360 359 358 356 353 354 354
304 304 311 312 316 317 318 317 315 316 317 318 318 318 318 318 318 318 319 319 318 319 318 319 319 319 322 325 326 327 327 328 328 328 328 329 329 330 331 332 334 335 336 335 334 334 334 336 340 340 340 341 342 342 343 344 347 350 350 351 352 351 352
307 310 313 313 316 315 316 318 317 315 316 315 315 316 316 316 316 316 317 318 317 317 316 317 317 316 317 320 321 321 322 322 324 327 329 330 330 331 332 332 334 334 334 333 332 332 332 334 335 338 339 339 341 341 342 342 342 340 339 339 343 343 342
300 301 307 313 307 306 312 316 318 315 315 315 314 314 314 314 313 314 313 314 315 315 315 316 316 315 315 316 317 317 319 319 320 321 325 329 332 332 333 334 333 333 333 331 330 331 332 333 333 335 337 339 340 341 340 340 340 339 338 338 339 338 338
301 310 315 316 316 314 314 316 317 318 317 313 311 310 310 311 312 313 313 312 312 312 313 315 314 314 315 315 316 316 317 318 320 321 323 325 329 333 334 333 333 333 332 331 331 330 330 331 331 333 337 338 339 340 340 339 339 338 337 336 335 335 334
315 317 316 318 314 312 315 318 318 318 319 315 313 313 312 311 310 311 311 312 311 311 312 313 314 314 314 315 316 314 314 316 318 320 323 325 328 332 335 334 333 334 334 333 331 331 332 333 333 334 337 338 338 340 340 340 339 337 336 334 332 333 331
311 317 319 318 318 318 320 319 319 321 322 321 318 316 314 312 312 312 311 312 312 312 311 312 313 314 314 314 314 313 313 315 318 320 323 324 326 328 330 332 332 333 334 335 334 333 334 335 335 337 338 338 342 341 341 341 340 339 340 338 335 334 333

ECMWFFLT2_sfc_thetae_051.txt.gz
Theta_e
302 303 305 303 303 294 295 296 293 295 296 297 291 294 296 295 291 290 294 296 296 299 305 308 311 314 316 318 319 320 320 321 321 320 321 322 324 324 326 328 329 330 332 332 333 333 334 336 336 337 339 342 342 342 343 343 344 346 347 349 350 350 351
304 305 304 305 304 300 293 293 294 297 300 300 294 286 290 289 285 287 291 293 293 298 294 305 308 309 313 315 317 319 319 320 320 321 322 322 323 324 326 327 329 331 332 333 333 334 334 336 336 337 339 341 343 344 343 343 344 344 346 348 349 350 350
302 305 304 301 303 305 303 295 300 298 288 290 289 287 287 284 284 285 287 291 293 296 297 303 305 308 310 313 315 317 318 318 320 321 323 323 323 324 324 326 328 329 331 332 333 333 334 336 338 338 339 341 343 344 344 344 344 345 346 348 349 351 351
303 303 300 295 300 303 303 299 297 298 294 293 289 292 288 289 283 286 285 290 291 298 298 304 307 308 310 312 313 315 318 319 320 321 323 324 323 323 324 325 327 329 330 332 333 333 333 335 336 338 339 340 342 344 345 345 346 346 347 347 349 349 350
300 295 298 298 299 298 298 296 295 295 297 295 297 295 292 289 283 282 284 286 289 294 300 305 308 310 311 312 313 315 318 319 321 322 323 324 325 325 325 325 326 328 329 331 333 334 334 336 337 339 339 339 341 343 344 345 345 345 346 347 348 348 350
294 296 300 302 302 302 300 299 296 296 293 291 288 288 291 292 289 284 283 287 290 295 306 308 307 310 312 313 314 315 317 319 321 322 323 324 325 326 326 326 327 328 329 330 332 334 334 335 336 337 339 340 340 342 344 345 346 346 346 348 348 349 349
295 298 301 303 305 304 303 301 299 297 293 291 290 285 287 290 291 294 290 288 292 300 306 308 309 309 311 313 314 315 316 318 321 322 323 324 326 326 327 327 328 328 329 330 331 332 333 334 336 337 338 339 340 341 343 345 346 346 347 348 350 350 350
298 300 300 301 302 304 301 301 301 299 296 296 295 290 288 291 289 291 290 290 288 296 306 308 309 309 310 311 313 315 317 318 320 321 322 323 324 326 328 329 329 329 329 330 330 331 332 333 335 336 338 340 341 342 343 345 345 346 347 348 350 351 351
290 295 297 296 300 300 298 298 301 301 301 299 294 294 292 293 291 291 288 288 292 300 308 308 310 312 311 310 311 314 315 317 319 320 321 323 324 325 326 327 329 329 329 329 330 331 332 333 335 337 338 339 340 342 343 344 345 347 348 349 349 350 351
285 285 286 289 292 296 297 298 300 301 300 298 294 294 292 289 291 292 288 288 289 296 300 303 308 309 310 311 311 312 314 314 315 317 319 321 323 325 326 327 328 328 329 330 331 331 333 334 335 336 338 339 341 342 343 344 345 347 348 349 350 350 351
291 293 293 294 299 296 296 297 298 299 301 301 299 293 290 291 288 292 290 293 296 298 300 302 302 304 303 305 305 311 312 313 316 317 320 322 323 324 325 327 328 328 329 330 331 332 333 334 335 337 338 339 340 342 343 344 346 347 348 349 350 350 350
297 298 298 299 300 298 298 297 297 298 298 299 298 295 294 293 290 291 293 294 296 295 296 299 301 303 303 305 303 305 311 313 315 317 320 329 323 324 325 326 326 327 328 330 331 332 333 334 336 337 339 340 340 341 342 344 346 347 349 349 349 350 350
298 299 299 300 299 299 299 299 298 297 298 298 297 297 295 296 295 294 294 296 296 296 298 300 301 303 304 304 304 307 311 314 314 316 319 321 323 324 324 324 325 326 327 330 331 333 334 335 336 337 339 339 340 342 343 344 346 347 349 349 349 350 350
297 298 298 300 300 298 297 298 299 299 299 298 298 299 297 297 297 297 296 297 297 299 300 301 304 304 304 304 308 311 312 313 314 317 319 321 322 323 323 325 325 326 328 330 332 333 334 335 336 337 338 339 340 341 342 344 346 347 349 349 349 349 350
294 297 299 299 299 299 297 296 298 299 300 299 299 299 297 298 298 296 295 297 298 300 301 303 304 302 309 309 309 311 311 313 314 316 319 321 322 323 324 325 326 326 327 329 331 333 334 335 336 338 339 340 341 341 342 344 345 348 349 349 349 350 350
291 296 297 298 299 298 297 297 296 297 297 297 298 297 297 296 296 296 294 293 295 299 301 303 304 306 311 308 308 309 310 313 314 315 317 320 321 321 322 324 325 326 327 328 330 332 334 336 337 338 339 340 341 341 342 343 345 348 350 350 349 350 351
288 294 296 296 297 295 293 295 299 299 298 298 299 299 301 301 300 297 294 295 297 301 304 301 302 302 305 309 309 309 310 312 316 316 318 319 321 322 323 323 325 326 326 328 330 333 335 336 337 339 340 340 341 342 342 344 346 347 349 350 350 350 351
290 294 295 296 293 287 290 301 302 301 298 298 296 296 297 300 301 298 300 302 300 300 301 300 301 302 306 311 316 317 316 314 318 321 321 318 320 322 324 324 325 326 328 329 331 333 335 337 339 340 341 341 342 343 344 344 344 346 347 349 350 350 351
288 293 294 289 286 289 299 300 303 303 302 300 300 299 301 310 312 307 303 302 301 300 301 302 302 311 317 320 324 327 328 323 317 321 324 324 324 322 321 322 324 326 327 328 330 331 334 336 338 339 340 341 342 343 343 343 344 345 346 347 348 350 351
292 291 289 283 286 294 301 303 301 303 302 301 307 309 312 314 314 308 302 301 303 302 302 306 314 320 322 324 325 327 330 331 330 328 326 322 322 325 325 323 324 325 326 328 330 332 336 337 338 339 339 340 341 341 343 343 343 344 345 345 346 348 349
286 288 288 289 295 297 301 303 302 301 299 305 304 300 306 315 316 311 307 311 314 311 306 314 319 320 320 319 321 328 332 331 334 334 334 335 334 326 322 326 328 329 331 331 331 334 336 336 337 338 339 340 340 340 341 342 342 343 343 343 345 346 348
292 288 287 289 290 289 295 300 305 304 308 310 308 308 306 312 317 317 314 314 314 310 310 316 318 315 314 313 316 324 332 333 335 337 337 338 338 338 339 337 328 330 333 333 334 333 333 334 336 338 338 339 339 339 340 341 342 342 342 342 344 345 347
292 290 286 286 287 289 296 302 306 308 310 310 312 306 301 310 316 317 318 317 316 311 313 314 312 309 307 311 314 324 331 333 336 335 336 337 337 338 338 338 339 339 331 333 335 335 334 334 336 339 341 340 339 338 339 340 341 341 341 342 343 344 345
291 289 287 286 292 297 307 310 313 314 310 313 307 295 296 309 317 318 317 317 318 318 318 317 314 310 311 314 318 328 332 334 335 334 334 335 336 338 338 339 338 337 336 333 336 336 335 336 339 341 342 341 340 339 339 340 340 340 342 343 344 345 345
292 295 288 290 295 308 310 313 314 316 315 307 298 292 302 314 317 321 319 322 321 321 320 319 320 319 318 322 326 332 333 333 333 335 336 336 337 337 338 338 340 338 338 336 333 334 336 338 339 342 343 342 341 341 340 340 340 342 343 345 345 345 345
296 293 290 289 294 305 313 315 316 316 306 297 293 299 310 321 322 323 325 324 325 325 324 324 324 324 328 331 332 332 332 331 332 332 333 335 336 337 338 339 337 338 339 339 340 340 340 342 339 342 343 342 341 341 341 341 342 344 345 345 345 345 345
300 297 291 290 290 302 314 315 315 313 302 298 309 323 326 327 325 324 323 325 325 327 325 327 327 327 328 329 330 330 330 330 330 330 331 332 332 333 334 334 336 338 337 338 339 339 341 342 343 340 344 343 342 342 341 342 345 346 346 346 345 345 345
296 296 293 293 305 309 316 314 306 312 316 316 325 325 323 323 325 324 324 324 325 327 326 325 326 327 327 327 329 329 329 329 329 330 331 332 332 333 334 335 336 338 338 339 339 340 341 342 341 341 340 343 344 343 344 346 346 346 346 346 346 346 345
302 298 304 311 314 314 316 316 316 319 323 324 325 326 325 323 322 326 325 325 327 327 327 326 326 326 327 327 328 328 328 328 328 328 329 330 331 332 333 334 336 337 337 337 338 339 340 341 342 341 339 339 340 342 346 347 345 346 346 346 345 345 345
313 314 314 317 315 315 315 317 316 316 318 322 322 323 321 321 323 323 325 326 327 327 328 326 325 326 326 326 326 327 328 328 329 330 330 331 332 333 334 334 336 336 337 336 336 336 337 338 340 340 340 339 339 343 344 347 348 349 349 347 346 345 345
298 290 309 312 313 314 314 314 315 316 316 316 319 319 320 320 322 322 323 324 324 325 325 325 324 325 326 324 324 324 325 326 328 329 330 331 332 332 332 333 335 334 334 333 333 333 333 335 338 340 339 340 340 340 341 346 350 351 350 349 347 347 346
299 299 308 313 316 318 316 314 311 311 313 315 316 316 317 318 318 319 319 320 320 322 321 321 320 319 320 319 320 322 322 324 326 328 330 331 332 332 333 333 334 333 333 332 332 332 332 333 336 338 339 340 340 339 340 342 346 349 350 350 349 349 349
307 312 313 314 316 316 314 315 313 311 311 312 313 314 314 315 315 315 316 317 317 318 317 317 317 317 317 319 321 322 323 323 325 327 329 331 332 333 332 332 332 331 331 331 332 330 327 330 332 335 337 339 339 338 339 341 342 346 348 346 349 349 350
301 303 307 312 305 304 310 314 315 313 311 310 310 311 311 312 312 313 313 314 315 316 316 316 316 315 316 319 322 322 322 324 325 327 329 330 332 332 334 334 333 331 331 331 331 331 331 330 330 333 335 336 337 339 338 339 339 340 340 343 344 345 346
301 310 313 314 312 311 312 315 318 318 315 311 309 308 308 309 311 312 312 312 312 313 314 316 315 315 315 317 320 321 322 323 325 327 327 328 329 331 333 333 333 333 333 334 333 333 333 334 333 333 334 336 337 338 338 338 338 338 338 339 339 337 337
313 315 314 316 313 310 314 317 318 318 318 314 312 312 312 312 311 311 311 311 311 311 313 313 314 314 314 314 317 318 320 323 325 325 326 328 329 331 332 332 332 333 333 334 333 333 333 333 334 336 337 338 337 339 340 339 338 336 334 333 333 334 333
310 316 317 317 317 316 318 319 318 318 318 316 314 314 314 313 314 314 312 312 312 312 311 311 312 313 313 313 314 315 317 319 322 323 324 325 327 328 330 331 331 331 331 333 334 335 335 334 334 336 337 338 338 338 338 339 338 335 334 333 331 330 330

ECMWFFLT2_sfc_thetae_054.txt.gz
Theta_e
302 304 304 302 303 293 293 295 293 295 295 294 291 293 290 290 287 285 290 293 294 298 301 305 306 307 310 315 316 317 317 318 320 319 321 323 325 327 328 329 330 332 332 333 333 334 334 335 336 337 339 341 342 343 343 344 345 345 346 348 348 349 350
301 303 305 303 304 298 293 293 294 295 298 297 293 286 287 287 282 284 288 290 290 295 291 302 306 305 307 310 314 316 317 318 317 318 319 321 323 325 328 329 331 332 332 333 333 334 334 335 336 337 339 341 342 343 343 343 344 344 345 346 348 349 349
300 301 302 299 302 300 299 294 298 298 287 289 288 287 285 282 283 282 284 289 291 293 294 300 303 305 306 308 311 313 315 317 317 318 319 320 322 324 325 327 329 330 331 332 333 333 334 335 337 337 339 340 341 342 343 343 343 344 345 346 348 349 350
299 300 299 293 297 300 301 297 297 297 293 292 287 290 285 287 282 284 282 288 289 295 296 301 305 306 308 308 309 312 315 317 318 319 320 320 320 322 324 326 327 329 331 332 332 333 333 334 335 336 337 339 340 341 342 343 344 345 345 346 347 347 349
298 294 296 297 297 295 295 293 292 295 297 294 296 292 292 287 283 282 283 283 285 291 298 303 306 308 309 309 310 312 314 317 318 320 321 321 321 321 323 325 326 328 330 331 332 333 334 334 336 337 337 338 339 341 341 342 342 343 344 345 346 347 348
292 294 299 301 300 300 297 297 294 294 292 290 288 286 290 290 289 282 282 286 288 291 302 306 307 309 310 311 311 312 314 316 318 320 321 322 322 322 323 324 326 327 328 330 332 333 334 334 334 335 336 337 338 339 341 342 342 342 343 344 346 347 348
293 296 300 303 304 303 301 299 297 296 292 290 289 284 287 290 289 292 287 285 291 297 302 306 307 308 309 311 312 312 314 315 317 319 320 322 323 323 323 324 325 326 327 329 331 332 333 333 334 334 336 336 337 339 340 342 342 342 343 344 346 347 348
295 297 297 298 299 301 299 299 298 296 294 295 295 292 288 291 288 291 289 288 288 295 303 305 307 308 308 310 310 312 314 314 316 317 319 321 322 323 325 325 325 326 327 328 330 331 332 333 333 334 335 336 337 338 340 341 342 342 343 344 345 347 347
290 293 295 295 297 298 296 297 299 298 299 297 293 291 291 291 290 292 288 287 290 300 307 307 306 306 306 308 308 311 312 313 314 316 318 320 322 324 324 324 325 325 325 326 328 330 332 333 333 334 335 336 336 337 339 340 342 343 344 345 345 346 346
283 283 285 286 290 292 294 296 298 300 298 296 293 293 290 288 290 292 289 288 288 294 300 304 304 305 306 307 308 311 310 312 313 314 317 320 321 322 323 325 325 324 325 327 328 330 331 332 333 334 335 336 336 337 339 340 341 343 344 345 345 345 346
286 288 290 293 297 293 294 295 297 298 299 299 297 294 290 290 288 290 292 292 292 297 301 301 303 304 306 307 306 308 311 311 312 314 316 319 320 322 323 325 326 326 326 326 327 329 330 332 333 334 334 335 336 337 338 340 341 343 344 345 346 346 346
293 295 294 297 298 294 295 295 296 297 297 298 297 294 293 293 289 290 294 293 295 295 297 298 300 302 302 302 302 303 308 311 312 316 318 325 320 322 323 324 325 325 326 327 327 328 330 331 333 334 335 335 336 337 338 339 341 342 344 345 345 346 346
296 296 296 297 296 296 296 296 297 296 296 297 296 296 296 295 295 293 295 294 295 296 297 299 300 302 304 304 304 304 307 308 310 311 313 315 318 320 321 323 325 326 326 327 327 328 329 331 332 333 334 335 337 338 339 340 341 342 344 345 345 345 346
294 295 296 297 295 295 295 296 296 298 297 296 297 298 297 297 297 298 296 296 296 298 299 299 300 301 302 303 307 310 310 308 310 311 312 313 316 319 320 322 324 326 327 328 328 329 329 330 331 332 333 335 336 337 338 339 341 342 344 345 345 345 345
292 294 296 295 295 294 293 295 296 297 298 298 298 298 298 298 297 298 294 297 297 299 300 302 303 303 306 308 305 306 307 308 309 310 311 313 315 317 320 322 324 326 327 328 329 329 330 330 331 332 333 335 336 337 338 339 341 343 344 345 345 345 345
288 293 294 295 295 295 293 293 296 296 296 295 297 296 298 296 295 296 294 293 295 300 301 301 301 302 304 304 304 303 304 307 311 311 312 313 315 317 319 321 323 325 326 327 328 329 330 331 332 332 334 335 336 336 338 339 341 343 344 344 345 345 346
285 292 294 294 294 292 292 293 296 298 297 297 298 299 300 301 300 296 294 296 299 301 304 302 303 301 301 302 305 307 309 310 311 312 313 313 314 317 320 321 324 324 325 327 329 330 331 332 332 333 335 335 336 337 338 340 342 343 343 344 345 346 347
286 291 292 293 290 285 289 299 301 299 298 297 295 296 297 299 301 300 301 301 301 301 302 301 302 302 301 304 314 317 319 319 318 316 316 315 315 317 319 322 323 325 326 328 329 330 332 333 334 335 337 336 337 339 339 341 342 343 343 344 345 346 347
285 290 291 288 283 288 297 299 301 301 301 299 298 298 296 297 299 302 300 300 300 301 302 303 302 310 315 321 325 326 328 326 326 325 324 323 324 322 320 320 323 325 327 328 329 330 331 333 335 336 336 337 339 339 340 341 342 343 344 344 345 346 346
289 287 286 281 284 293 297 299 300 302 301 300 299 297 301 311 302 302 301 299 301 301 301 301 312 321 323 324 325 327 329 330 332 331 331 332 333 332 330 324 322 324 325 327 328 329 334 336 336 337 337 339 339 339 341 341 342 343 344 344 345 346 346
284 285 285 287 293 293 295 298 299 300 297 297 297 294 296 309 313 306 303 302 300 300 300 307 319 322 319 317 320 327 331 331 334 335 334 334 334 335 335 335 329 325 326 328 328 332 333 334 336 337 338 340 340 341 341 341 342 343 344 344 345 346 347
290 285 283 284 284 284 289 298 310 314 314 313 310 299 296 308 316 311 305 303 304 305 305 317 320 317 315 312 316 322 331 333 334 336 336 337 336 337 337 338 338 337 333 331 333 331 332 333 336 337 338 340 340 340 340 341 341 341 342 343 345 346 347
289 287 283 282 283 286 297 305 311 314 315 314 313 300 295 306 316 316 309 304 307 305 310 318 315 311 308 307 312 318 330 333 334 333 335 336 337 337 337 337 337 338 336 333 334 335 333 333 335 338 339 339 339 339 340 340 341 341 341 343 344 346 347
288 287 285 284 288 289 302 309 312 313 315 314 302 291 292 303 315 316 314 309 309 306 314 318 313 309 305 308 315 325 331 332 332 332 332 333 334 335 337 338 339 340 339 336 335 334 335 338 338 338 338 338 338 339 339 340 340 340 342 343 345 346 348
290 291 288 289 291 300 309 311 313 314 315 306 294 290 295 309 316 317 318 315 311 309 316 316 312 315 320 320 328 331 330 330 330 332 333 333 334 334 336 337 339 340 340 340 340 340 340 340 339 338 339 338 337 338 338 339 339 341 343 345 345 346 347
290 292 290 290 290 298 311 314 314 315 306 294 292 298 315 316 317 318 320 318 316 315 317 319 324 326 329 330 330 329 329 328 329 330 331 332 334 335 337 338 338 339 339 340 341 341 341 343 342 341 340 338 338 338 338 338 340 343 344 345 345 345 346
299 295 290 287 284 298 313 313 313 316 305 302 312 317 320 324 322 322 322 321 322 324 324 326 327 327 327 328 327 327 328 328 328 329 330 331 331 333 335 336 338 338 337 338 338 339 340 341 341 341 342 340 340 339 338 339 343 345 345 345 345 345 345
293 294 291 290 302 309 314 312 305 310 312 315 316 318 319 321 322 323 323 324 326 327 326 325 325 326 326 326 327 327 328 329 330 331 332 332 333 334 336 337 337 338 336 337 337 337 338 340 340 340 341 341 341 340 340 345 345 345 347 345 345 345 344
299 296 301 309 313 314 314 313 313 314 315 317 318 321 322 322 323 326 325 325 327 327 326 326 326 325 326 326 327 327 328 329 330 330 331 332 332 333 333 334 336 337 336 335 335 336 336 338 340 339 340 339 340 339 340 343 346 347 346 346 344 343 344
311 312 313 315 313 312 312 315 315 312 314 316 318 320 321 323 325 327 325 326 326 327 327 325 325 325 325 326 327 328 329 329 330 332 332 332 333 333 334 334 334 333 334 334 334 333 333 335 337 339 340 340 338 338 341 342 345 348 348 346 344 344 344
301 295 309 310 311 312 313 313 315 314 312 313 316 317 317 319 322 324 328 327 326 326 327 325 324 324 325 325 325 327 328 329 330 330 331 331 331 331 331 332 333 332 332 331 330 330 330 331 334 337 338 339 339 339 339 341 344 347 349 348 346 345 345
300 299 307 311 315 312 314 314 313 312 310 311 314 316 318 319 320 322 324 325 324 325 323 324 323 323 325 324 325 326 327 328 329 330 331 331 331 331 331 332 332 332 332 331 331 331 331 331 332 335 337 338 339 339 339 341 343 345 345 344 346 347 348
305 311 312 313 314 312 312 315 316 317 313 311 311 312 314 316 316 317 319 321 320 321 321 323 324 323 324 325 325 326 326 328 329 329 330 331 332 333 332 332 333 333 333 333 333 333 333 333 333 335 336 337 338 339 339 339 340 341 340 341 342 342 343
300 300 305 311 305 304 309 313 314 315 317 314 312 313 312 313 314 316 317 317 320 321 322 323 324 323 324 325 326 326 327 327 328 329 330 331 332 332 334 334 334 334 334 334 333 333 334 335 335 336 337 338 338 339 339 339 338 337 337 337 336 335 336
299 308 312 312 310 309 312 313 315 316 317 316 313 312 312 313 313 315 316 315 316 317 317 319 322 322 323 324 326 325 325 326 328 329 330 330 330 331 332 332 332 333 334 335 334 334 334 335 336 337 337 337 337 338 339 338 337 335 336 335 334 333 333
312 314 313 313 311 309 310 313 314 315 316 316 314 314 315 314 314 315 314 315 315 314 315 314 315 317 318 321 323 322 323 325 326 327 329 330 330 331 331 331 331 331 332 332 332 333 334 335 335 336 336 337 337 338 338 337 337 335 335 335 332 332 331
309 315 315 314 313 312 313 314 315 316 316 315 315 316 315 315 316 317 315 314 314 314 313 313 314 316 317 318 319 319 321 322 323 325 326 326 327 327 328 329 328 329 330 331 332 333 333 334 334 335 335 336 338 337 337 336 335 334 333 333 332 331 331

ECMWFFLT2_sfc_thetae_057.txt.gz
Theta_e
306 306 308 306 307 295 301 302 297 300 306 302 298 298 299 297 295 294 302 299 302 309 308 311 314 313 314 319 321 323 326 328 331 331 332 334 335 336 338 338 339 342 343 345 344 344 344 345 346 347 350 352 352 353 353 355 356 357 357 358 358 358 359
307 310 308 308 307 308 302 297 301 305 308 306 300 292 298 294 291 295 297 296 298 300 298 312 314 312 312 315 318 320 324 326 327 328 331 333 334 336 338 340 341 343 343 343 343 344 344 344 345 347 351 352 354 354 353 354 355 355 357 357 357 358 359
306 307 308 305 308 308 304 302 308 300 295 294 303 298 290 290 290 292 296 298 298 301 301 309 312 311 312 314 319 320 321 324 325 326 329 333 334 335 336 338 340 340 341 342 343 343 343 344 347 349 350 350 352 353 353 353 354 355 356 356 358 359 359
305 305 305 298 301 305 305 307 303 308 303 300 297 297 299 298 292 291 292 295 294 303 303 309 313 314 316 315 316 319 321 323 325 327 327 329 332 334 335 336 337 339 340 341 342 342 342 343 345 345 346 348 348 349 352 352 353 356 357 356 357 357 358
304 299 303 301 302 299 300 301 301 301 302 304 304 301 298 295 294 293 293 291 298 306 311 308 311 319 319 319 318 320 322 324 326 327 328 329 331 333 333 335 336 338 339 340 341 342 343 343 345 345 344 345 347 348 350 351 352 353 353 355 356 357 358
298 301 305 306 306 305 303 302 300 301 299 296 294 294 300 299 296 292 292 291 301 305 313 315 311 321 320 322 321 322 322 323 326 327 329 332 330 333 334 335 335 337 339 340 341 342 343 342 342 343 343 344 345 347 348 349 350 351 351 353 355 356 358
300 302 305 309 309 309 307 305 302 304 303 302 298 292 296 298 298 300 300 295 298 311 315 317 318 319 320 323 322 321 322 324 325 327 328 333 335 332 331 333 334 335 338 340 340 343 343 342 343 342 343 343 344 346 347 348 349 350 350 352 355 357 357
303 304 305 305 305 305 305 305 306 304 301 302 300 300 304 297 298 296 297 294 299 309 322 319 318 326 322 324 322 324 323 323 325 326 328 333 335 336 333 333 333 336 338 341 344 345 344 344 346 343 343 344 344 345 346 347 348 349 350 351 353 356 356
297 299 303 303 304 304 302 302 304 305 305 304 305 305 305 298 299 298 296 292 299 308 318 319 319 317 316 318 319 322 322 326 325 326 329 332 337 338 335 334 335 336 335 339 341 343 344 344 344 344 344 343 343 344 345 345 347 349 350 352 352 353 354
288 288 290 293 296 299 302 304 304 304 303 302 302 298 301 294 302 302 297 297 305 311 314 315 316 316 319 321 321 319 320 324 325 326 326 333 335 339 339 339 338 335 337 339 341 343 344 345 344 344 345 344 343 344 345 346 346 348 349 350 351 352 352
295 297 298 299 301 301 298 300 302 302 303 304 304 303 300 295 303 299 302 303 303 306 308 313 314 316 315 317 322 321 321 323 326 329 329 330 335 338 336 340 339 340 342 340 340 342 343 343 345 344 343 343 343 346 346 346 347 348 350 350 352 352 352
298 298 298 300 300 297 300 299 300 303 302 303 302 299 298 311 300 294 303 310 302 304 310 316 320 319 320 320 322 322 323 326 327 326 330 331 330 334 338 339 340 340 338 339 340 342 344 343 345 344 344 344 345 346 345 345 346 347 349 351 352 352 351
297 298 299 301 300 300 300 301 301 301 302 302 300 301 304 306 300 297 309 311 305 306 307 312 319 324 324 318 322 323 323 321 327 328 325 325 327 333 333 338 342 341 340 341 340 342 343 343 344 344 343 344 346 347 347 348 346 348 351 352 352 352 352
297 298 299 301 299 299 299 300 301 302 302 302 302 302 304 304 306 305 312 312 306 307 308 310 314 320 322 323 323 321 320 316 324 324 326 321 323 326 332 336 337 342 342 342 343 342 342 343 344 343 344 345 345 345 345 346 347 347 352 354 353 352 352
295 298 299 300 300 299 298 300 301 301 302 302 303 303 304 305 304 304 306 308 307 311 316 313 317 324 316 315 315 315 321 322 317 320 322 326 327 326 332 337 338 341 343 343 344 344 343 342 344 343 343 346 345 343 344 344 347 348 350 351 353 352 353
293 297 297 297 299 299 298 299 300 300 300 300 302 301 303 303 303 305 304 305 304 312 316 317 320 317 315 316 320 322 324 322 324 324 323 325 329 330 329 332 335 338 339 341 342 342 340 342 344 345 344 346 345 343 344 345 345 347 349 351 351 354 354
292 296 297 296 297 298 295 296 299 302 303 303 304 305 306 305 305 303 302 302 310 313 318 314 315 314 317 319 318 321 322 331 326 328 330 329 329 330 331 331 334 333 335 338 342 341 341 342 342 343 345 344 346 346 347 347 349 347 348 348 352 354 356
291 294 296 296 294 288 291 304 304 305 302 302 301 302 304 306 306 305 308 309 313 315 316 314 314 314 316 318 325 327 328 334 340 336 335 334 336 336 335 332 330 333 337 337 339 341 344 342 340 342 345 345 347 348 347 351 349 349 349 349 351 353 356
290 294 295 292 287 290 302 304 307 307 307 306 304 304 305 306 307 307 307 309 312 317 314 315 317 318 325 329 329 327 335 339 339 340 340 343 343 344 344 343 340 337 339 341 342 343 341 340 342 343 344 344 347 347 349 349 350 350 351 351 351 354 355
293 291 292 285 288 299 301 303 312 318 310 313 306 303 306 307 307 309 307 310 312 317 315 314 318 330 333 335 338 339 338 339 340 338 339 341 341 342 344 344 345 347 342 339 339 341 343 342 341 342 342 343 343 344 347 347 349 352 353 353 353 355 355
288 291 291 291 299 296 299 301 312 314 310 312 311 301 305 309 310 309 310 311 312 313 314 315 324 327 330 329 333 337 339 338 339 338 339 339 341 340 341 342 344 347 349 345 340 344 345 343 342 342 343 343 343 344 344 345 350 348 350 352 353 355 354
293 289 288 290 291 288 296 312 315 318 318 318 316 310 306 313 313 312 311 312 313 314 313 314 324 328 319 316 323 334 338 339 338 338 339 340 340 340 340 342 344 348 350 349 343 341 342 343 343 345 345 344 347 348 345 346 345 346 349 351 354 355 354
291 290 287 288 287 292 308 310 313 316 318 318 318 308 302 315 316 316 312 310 313 315 315 322 327 320 311 313 320 337 338 338 339 339 339 339 339 341 341 341 342 344 348 348 342 342 344 343 347 351 348 345 345 347 348 344 345 347 350 353 353 353 354
289 290 288 287 293 293 301 312 314 316 320 315 311 297 300 313 320 323 325 314 313 315 320 327 324 316 310 312 324 337 339 338 337 338 338 338 338 340 342 343 344 346 350 353 351 347 347 353 350 352 348 347 346 349 348 347 347 350 352 351 355 358 357
289 289 289 292 294 301 305 310 315 317 320 314 301 294 310 317 319 323 327 325 324 322 323 326 321 324 329 331 337 337 337 335 335 337 338 338 338 339 341 342 345 346 347 346 345 346 349 352 351 349 348 350 351 352 353 351 351 352 356 357 357 357 359
288 289 288 289 295 304 314 315 316 318 308 299 300 313 316 319 320 323 327 328 329 326 324 326 325 333 330 335 336 336 336 335 335 336 336 338 339 341 342 342 343 344 344 344 344 344 346 349 351 351 352 353 352 354 353 352 354 355 356 358 358 358 357
291 291 289 288 285 307 313 315 313 316 304 309 315 316 320 321 322 324 327 329 330 328 322 331 333 332 333 334 335 334 334 333 333 334 336 337 337 339 341 341 341 342 341 340 340 342 345 347 351 353 350 352 352 352 355 355 357 356 355 356 358 358 358
287 288 286 288 298 313 316 314 308 316 317 318 318 317 316 321 322 325 326 328 330 329 327 330 332 333 332 332 331 332 333 333 334 335 336 337 338 339 340 341 341 341 340 339 339 341 343 346 349 353 356 353 353 351 348 351 356 361 360 354 357 357 357
294 291 296 313 315 317 318 318 318 318 318 318 317 318 318 319 323 329 327 328 330 331 332 332 331 330 331 331 332 331 331 332 333 333 334 336 337 338 339 339 341 340 338 338 338 339 342 343 345 348 351 349 347 346 346 352 356 360 361 359 355 354 354
304 307 309 315 317 316 317 318 318 316 316 317 317 317 318 320 322 327 327 328 329 330 333 330 329 329 330 330 331 331 332 332 333 334 335 335 336 337 338 339 339 339 340 339 338 338 339 342 343 344 345 346 343 343 349 352 355 357 360 360 358 355 355
297 294 314 313 314 316 316 316 317 318 318 317 317 317 316 319 322 325 329 331 330 330 331 330 328 328 330 329 330 331 331 332 332 332 332 333 335 336 336 338 339 339 339 338 337 337 337 340 342 342 343 343 344 345 347 350 354 357 358 359 358 358 358
296 298 307 314 315 317 318 318 317 316 317 317 317 317 318 321 324 324 325 328 329 330 328 329 329 328 329 328 329 330 331 331 332 332 333 333 334 336 337 338 338 339 339 338 337 337 337 339 341 342 342 342 343 344 345 347 350 351 351 352 353 355 356
296 299 302 312 314 315 315 317 318 318 318 318 317 317 318 320 322 323 325 326 327 327 327 328 328 328 329 330 330 330 331 331 332 333 333 334 335 336 336 337 338 338 338 337 337 337 337 339 341 341 341 342 343 343 344 347 348 347 346 348 349 350 352
292 295 303 313 306 307 311 315 316 318 319 318 317 317 317 318 319 321 321 321 323 325 328 330 329 328 328 330 331 330 330 331 332 333 334 334 334 336 337 338 337 337 337 337 337 337 337 339 339 339 340 340 341 342 343 344 345 345 346 346 346 345 345
293 303 309 314 315 314 313 314 316 318 320 319 317 315 316 317 318 319 319 319 320 321 322 326 330 328 328 329 330 330 330 332 333 334 334 333 333 334 336 335 335 335 337 338 337 337 337 339 339 340 340 341 341 342 342 343 343 343 343 342 341 340 339
304 307 310 313 315 312 312 315 316 317 319 319 317 317 317 318 318 318 317 318 319 319 321 323 327 327 327 328 329 328 329 330 330 330 331 332 333 333 334 334 334 334 335 335 335 335 337 338 338 339 339 340 341 341 343 343 343 342 342 341 339 339 339
301 308 311 314 315 315 315 317 317 318 320 319 317 317 317 317 318 319 317 317 318 320 320 320 321 322 323 325 326 326 326 327 328 329 329 329 330 330 332 333 333 333 334 335 335 336 336 337 338 338 338 339 340 340 341 341 341 340 340 339 338 338 338

ECMWFFLT2_sfc_thetae_063.txt.gz
Theta_e
313 313 314 312 314 302 308 308 303 306 312 309 305 307 308 307 304 301 308 306 308 313 313 315 318 318 317 319 321 322 324 325 332 333 332 332 333 337 340 342 349 353 355 357 356 357 358 360 359 358 361 362 363 364 366 368 369 369 369 368 367 367 366
313 316 315 314 313 314 310 303 306 312 314 311 307 300 304 302 299 302 306 303 305 304 302 314 315 315 316 317 318 320 324 326 326 331 331 330 333 335 334 341 352 353 355 357 357 357 359 360 360 360 362 363 364 365 367 368 368 368 369 369 368 369 369
312 315 314 311 313 315 310 308 314 306 301 300 306 304 297 298 297 300 304 306 306 307 307 311 312 313 314 316 319 319 321 323 324 325 328 333 333 334 337 341 350 351 353 356 358 357 358 361 363 362 362 362 363 365 367 367 367 368 368 368 368 368 369
311 312 310 302 306 312 313 315 310 312 309 304 302 304 305 305 299 299 300 304 302 310 311 313 313 315 316 316 317 318 319 321 322 324 325 328 333 333 334 341 347 351 352 355 356 357 357 359 362 362 361 362 361 364 366 366 367 369 369 368 369 368 368
311 304 308 305 306 304 305 307 307 308 307 311 309 308 304 302 301 301 301 299 304 310 314 314 316 317 317 317 318 320 320 322 324 325 326 328 334 336 338 341 346 349 352 353 356 357 357 359 362 362 361 361 361 362 364 364 365 366 366 367 368 368 368
305 306 311 310 310 309 307 306 305 307 304 303 300 299 308 305 302 298 300 301 310 313 317 316 316 319 319 319 320 319 321 321 325 326 328 331 334 339 340 340 344 348 352 353 355 357 358 358 359 360 360 360 360 360 362 362 363 363 364 365 368 369 368
306 309 312 314 314 313 310 309 307 310 308 307 303 296 302 305 305 306 306 303 307 316 319 319 318 319 319 321 321 320 320 322 323 325 326 330 334 336 337 340 340 343 351 353 354 356 357 357 358 359 360 359 359 359 360 361 360 362 362 363 366 369 367
311 313 314 314 314 312 309 309 310 309 306 307 306 306 308 305 305 302 302 301 307 315 321 319 318 321 319 323 321 322 321 322 323 324 326 331 333 337 338 340 339 341 345 354 357 357 358 358 359 359 359 360 359 358 359 359 358 360 360 362 364 368 368
305 307 310 309 312 311 308 307 309 310 310 310 310 310 311 305 306 305 302 298 304 315 319 319 318 317 317 318 319 321 321 323 323 325 327 332 338 338 337 341 342 343 345 353 359 359 362 361 356 359 359 359 358 358 359 358 358 359 360 360 363 366 366
296 296 297 299 302 305 308 310 309 310 309 308 307 303 306 300 309 310 305 304 313 315 319 317 317 317 318 318 319 319 322 324 323 324 343 348 349 350 347 347 346 346 355 360 362 363 364 358 355 361 362 358 358 358 358 359 358 359 359 357 361 364 364
303 307 313 311 311 308 304 307 309 308 309 310 310 308 305 302 307 307 310 311 311 313 314 316 316 317 317 317 319 319 320 323 330 339 342 340 342 348 343 346 346 353 358 358 360 362 357 356 356 357 357 357 357 359 359 358 359 359 360 359 362 363 364
309 311 312 310 311 308 307 307 307 309 309 309 308 305 303 312 307 300 311 315 310 312 314 315 317 317 319 318 320 321 322 323 326 334 333 340 330 336 345 347 348 348 351 354 358 360 357 355 357 356 356 356 358 359 358 358 358 358 359 360 361 363 365
309 311 310 310 309 309 309 308 308 308 309 308 306 307 309 311 306 304 312 315 312 314 314 315 317 319 320 318 320 321 324 327 331 334 333 327 325 340 345 350 351 351 350 354 356 357 356 354 355 356 355 356 360 361 359 361 357 357 361 362 363 363 365
308 309 310 310 308 308 309 309 309 309 309 308 308 308 309 310 312 312 314 315 312 314 316 316 319 321 320 320 322 324 325 322 328 327 325 323 327 333 336 345 351 356 355 356 357 358 360 357 358 355 356 359 357 356 357 358 359 359 362 365 365 364 364
305 307 309 309 308 307 306 308 309 309 309 309 310 309 309 311 310 311 311 314 313 316 320 320 321 322 321 322 319 319 324 324 322 322 321 325 326 327 333 344 344 351 353 357 359 359 361 360 358 357 358 358 356 355 356 355 358 359 359 367 365 364 366
301 305 305 306 307 307 307 306 308 308 308 307 309 308 311 309 309 311 310 310 311 318 321 320 321 322 321 320 321 321 321 321 322 322 322 324 327 327 329 333 343 347 350 353 359 359 358 359 359 358 361 357 356 354 355 355 356 357 358 361 362 367 369
299 304 305 305 306 305 302 304 306 309 310 310 311 312 312 312 312 309 307 309 315 319 321 319 319 319 320 320 320 321 322 326 323 324 323 323 324 326 332 337 341 339 338 342 357 357 358 357 357 357 358 356 357 357 358 358 358 356 356 357 363 368 368
299 303 304 305 302 295 297 310 312 311 309 309 308 308 310 313 313 312 314 315 318 318 318 317 319 319 320 321 324 324 325 326 326 324 324 324 325 327 329 330 335 344 348 345 341 353 360 359 356 356 358 356 358 357 355 358 358 360 361 359 364 365 368
298 303 303 299 293 295 309 312 313 313 312 312 310 311 312 313 314 313 314 315 317 319 319 319 321 323 323 323 323 323 323 325 324 324 323 325 326 328 329 331 331 342 356 358 353 349 349 352 356 356 355 355 358 358 357 356 357 363 361 362 366 366 366
300 299 299 291 294 306 309 310 312 314 313 312 311 309 311 313 313 314 313 315 316 318 319 319 322 323 322 323 326 326 324 324 323 322 322 324 325 326 332 354 367 364 355 358 355 357 354 350 351 353 355 356 355 356 356 354 356 358 362 364 364 366 367
294 297 298 298 306 304 306 306 309 311 310 310 308 303 308 313 314 314 314 315 316 316 317 319 319 321 320 320 321 322 322 324 323 324 325 327 330 329 350 352 356 368 366 362 361 367 364 357 350 350 351 355 356 355 354 352 355 355 357 360 360 366 366
299 296 295 297 297 295 302 309 316 319 320 320 320 313 309 314 315 316 315 315 316 317 317 318 319 319 317 314 317 322 323 324 325 328 327 328 329 329 342 360 355 361 361 362 366 364 362 363 357 353 352 354 357 357 355 353 353 354 354 357 362 366 367
297 295 293 294 294 299 307 310 315 317 318 318 319 311 307 317 317 316 316 314 316 316 316 317 319 315 311 312 319 322 323 325 326 325 327 329 329 344 357 355 353 357 365 366 365 365 366 363 361 358 355 353 354 355 356 353 353 355 357 359 361 362 367
296 295 293 293 299 300 307 313 315 316 318 318 313 300 301 326 322 326 326 325 323 328 336 335 327 316 311 313 319 322 323 324 326 327 333 341 352 354 356 354 358 363 365 361 364 360 355 363 363 359 353 352 355 355 355 353 352 354 359 362 365 366 368
293 293 295 297 300 306 309 314 315 316 315 312 304 296 312 323 326 328 327 325 329 333 334 334 323 324 324 326 326 325 333 345 350 354 356 357 357 355 353 358 356 359 362 362 361 365 368 364 359 357 353 354 359 360 361 359 357 357 362 365 367 368 368
292 293 292 294 299 306 309 312 315 316 309 300 302 319 326 323 323 327 328 328 330 331 330 333 334 335 338 338 334 336 338 338 352 351 350 350 351 352 356 353 355 360 357 361 358 356 363 365 365 358 358 359 359 360 359 358 361 360 364 366 367 369 369
295 295 292 290 287 302 308 308 310 312 305 310 321 324 322 321 320 325 327 327 332 330 330 332 334 335 335 337 340 344 343 348 350 351 352 352 352 354 354 357 356 355 358 357 357 360 360 360 360 362 360 358 358 359 358 360 361 363 364 364 367 369 369
291 291 290 291 300 307 308 307 303 310 313 317 320 318 318 322 320 325 325 331 332 332 331 333 334 336 336 337 339 345 348 348 349 350 353 355 355 355 353 355 355 356 358 357 358 361 364 362 361 362 361 358 358 358 360 364 363 363 366 367 370 368 368
297 295 298 304 311 312 314 314 313 313 317 319 318 320 319 319 320 327 327 328 330 331 333 334 335 335 338 338 338 342 345 345 345 347 349 352 354 354 353 353 355 356 356 356 357 359 363 366 364 364 363 360 360 362 367 369 366 366 367 368 368 367 366
305 306 306 308 310 311 313 313 315 315 317 319 321 321 321 324 325 328 328 330 330 332 333 333 334 336 338 340 341 343 344 344 347 350 351 353 354 353 352 353 353 354 354 354 354 354 357 360 362 364 366 367 364 363 366 367 367 367 367 366 364 364 364
297 292 306 307 308 310 310 311 313 315 316 317 320 321 324 325 325 328 330 331 332 331 334 334 335 334 335 338 340 343 344 343 345 346 349 351 351 351 352 352 352 353 352 351 351 351 351 355 358 360 363 364 364 364 365 366 368 367 365 364 362 363 363
297 298 304 307 308 309 310 310 311 311 313 314 316 320 324 326 328 328 330 333 331 332 330 334 335 336 337 337 340 341 340 340 342 345 347 348 349 351 350 350 353 353 352 351 351 351 350 353 355 356 357 358 361 363 365 366 368 368 366 363 361 363 363
300 304 305 305 307 307 308 309 311 312 311 315 321 324 326 326 326 328 330 333 333 333 332 335 335 335 337 338 340 340 340 342 342 343 345 347 347 348 349 351 351 351 350 349 350 350 350 353 354 354 355 358 360 362 364 367 369 366 364 363 366 365 365
295 296 300 304 298 299 304 308 309 311 316 321 321 323 324 326 327 328 328 330 332 333 334 335 335 335 336 339 341 339 340 341 342 344 344 345 346 347 349 350 350 350 349 349 348 348 348 350 351 351 352 353 356 359 362 363 364 363 364 364 363 362 363
295 301 304 306 305 306 307 310 313 316 318 320 320 320 321 323 326 328 328 328 330 332 334 336 336 336 337 337 340 340 340 341 343 343 344 344 345 345 346 347 347 347 346 346 346 347 347 348 348 349 350 351 352 354 357 358 358 358 357 354 354 355 354
303 305 306 307 306 304 308 311 312 312 315 316 318 319 320 320 321 326 328 329 329 330 332 334 338 339 338 339 339 339 340 341 341 342 344 345 345 345 346 345 344 344 345 345 345 345 346 346 346 346 346 348 351 352 353 353 355 354 352 351 349 348 348
301 306 307 308 307 308 309 310 311 314 317 318 317 318 319 319 320 326 328 329 331 331 330 332 336 339 339 338 339 339 339 339 340 341 341 341 343 343 344 343 343 343 344 345 345 346 346 346 347 348 348 349 350 349 351 351 353 352 351 350 349 349 349

ECMWFFLT2_sfc_thetae_066.txt.gz
Theta_e
313 312 314 314 315 302 307 307 302 304 311 307 304 305 306 305 302 299 306 304 306 310 311 313 315 314 315 316 318 319 329 330 333 332 332 333 335 338 336 339 340 343 344 346 347 348 352 355 355 355 357 359 359 360 360 361 361 361 362 363 362 363 363
313 316 315 314 315 314 309 302 305 311 313 311 305 298 303 300 296 299 303 301 303 303 300 312 312 313 314 315 316 317 321 333 329 328 327 331 331 334 339 341 343 344 344 344 345 350 353 355 356 356 359 361 362 362 361 360 362 362 362 362 362 363 363
312 316 314 312 314 315 310 307 314 304 300 299 305 303 296 296 296 299 302 304 304 305 305 309 309 310 312 316 317 317 317 323 328 332 330 328 329 333 336 339 342 344 345 346 347 347 349 353 359 358 360 359 361 362 363 363 362 362 362 362 363 363 364
312 312 311 303 307 313 314 315 310 312 308 304 301 302 304 304 298 299 300 304 301 309 309 311 311 313 315 314 316 315 318 328 331 332 330 330 332 335 334 336 340 341 341 343 346 349 351 354 358 357 358 358 358 361 364 364 364 365 364 364 364 363 363
311 304 308 305 307 305 306 306 307 308 307 311 308 307 303 301 300 301 300 298 304 310 315 313 314 315 316 316 317 321 318 334 329 332 333 333 333 336 336 336 338 340 343 346 347 351 354 357 359 358 357 357 357 360 363 364 364 364 363 363 363 364 364
305 306 311 311 310 310 307 306 305 307 304 302 299 298 307 304 301 297 300 299 310 312 316 316 316 318 316 318 319 319 320 320 334 335 332 334 331 336 339 339 338 338 341 350 351 354 357 357 358 357 357 358 358 360 362 364 364 365 364 363 364 364 365
307 310 312 314 314 313 311 309 306 309 308 306 302 295 300 304 304 306 305 302 308 317 318 319 318 318 318 319 318 318 319 320 324 329 332 334 333 334 334 334 337 343 347 348 352 357 357 357 358 358 357 357 357 359 362 363 363 365 365 364 364 366 365
312 312 313 313 314 313 309 309 310 309 306 306 305 304 306 303 304 301 301 301 306 314 327 324 318 326 319 321 319 323 319 319 323 327 328 334 333 334 334 337 335 341 343 346 347 354 358 359 360 360 358 359 358 359 360 362 363 364 365 365 364 365 365
305 306 308 309 312 311 308 307 308 309 310 310 309 309 310 303 304 303 300 296 304 314 328 325 321 318 318 318 319 321 321 323 322 326 329 336 335 336 336 340 341 342 340 343 343 348 358 360 361 361 360 359 358 358 359 361 362 364 364 365 365 365 364
295 295 295 298 301 304 308 310 308 309 308 308 306 302 306 299 309 309 302 302 310 315 323 318 318 318 326 320 320 320 323 324 322 326 338 340 337 337 339 341 342 342 343 344 345 350 359 360 360 363 362 360 359 358 359 361 362 362 363 364 364 365 365
302 307 309 309 310 307 303 306 307 307 308 309 309 308 304 300 307 306 310 310 310 311 312 315 314 318 316 316 321 320 323 331 335 347 349 343 340 338 338 339 341 345 347 349 353 360 360 359 359 362 362 360 359 361 361 361 361 361 364 363 364 365 365
306 308 311 311 311 307 307 306 306 308 307 308 307 304 302 316 306 301 313 323 310 310 313 314 317 316 321 318 324 320 327 334 331 335 345 345 339 343 342 340 341 342 349 352 358 362 361 358 359 360 361 360 361 363 361 361 361 361 362 363 364 365 365
308 309 309 311 311 310 309 307 307 306 307 307 305 307 308 311 305 304 316 319 314 313 314 315 318 320 320 316 318 319 325 330 334 337 330 330 336 341 343 355 348 347 354 364 361 362 361 359 358 359 359 361 363 365 362 362 360 360 362 363 363 364 365
306 308 309 310 309 310 309 308 308 308 308 307 307 307 309 309 314 313 314 320 313 315 315 316 317 320 318 320 324 322 324 327 335 331 333 325 331 335 339 347 353 357 355 367 364 364 363 360 360 357 359 362 362 363 362 361 361 361 363 363 362 363 364
303 306 309 309 310 309 307 309 309 308 308 308 308 308 308 310 309 310 310 316 314 317 322 320 321 337 320 322 318 320 328 325 325 327 324 324 326 338 343 352 351 357 360 365 366 365 365 363 362 359 359 362 363 359 359 358 361 362 364 364 362 362 364
300 305 306 307 309 308 308 308 309 309 308 306 307 306 309 308 308 311 310 312 310 317 321 319 321 320 321 321 324 325 327 322 324 323 323 325 332 331 334 341 348 357 358 361 363 364 363 363 365 362 362 362 361 357 358 358 358 360 361 365 362 363 366
299 304 306 305 307 307 303 304 307 308 310 310 310 310 311 310 311 308 306 309 317 321 323 319 317 317 318 320 319 322 324 333 326 324 323 324 330 335 344 348 353 344 342 351 361 358 358 359 359 361 365 362 360 360 360 360 360 358 358 362 364 365 367
298 303 304 306 303 296 298 310 313 312 309 309 308 308 310 311 312 310 313 315 322 321 318 317 319 318 321 325 331 326 333 330 335 323 327 324 327 331 340 347 346 349 354 355 354 354 359 359 354 356 360 360 362 362 361 363 361 361 360 361 367 365 368
297 301 302 298 294 296 309 313 314 314 313 313 311 312 312 312 313 313 313 315 318 321 321 320 323 331 323 323 324 322 323 330 327 329 325 331 333 339 335 341 335 348 360 356 363 366 358 355 359 357 359 361 362 362 361 361 362 363 362 362 369 367 367
300 299 298 291 294 307 310 312 314 315 314 313 312 309 313 314 313 314 313 316 317 321 319 320 323 328 322 323 328 328 325 325 324 322 323 324 324 326 331 367 361 362 354 358 349 358 347 351 356 356 357 356 355 357 359 359 360 362 364 363 368 369 367
294 297 297 297 305 304 306 308 311 312 310 311 309 305 310 314 316 316 316 317 318 318 319 320 321 322 321 322 325 324 324 326 324 323 324 323 325 326 349 359 363 366 364 357 353 364 361 356 351 355 356 356 356 356 356 354 359 359 361 362 364 370 367
299 295 294 296 297 295 302 309 313 315 315 315 315 311 308 315 316 317 316 316 317 318 318 319 320 319 318 315 318 323 323 323 322 323 323 324 326 329 356 362 362 364 360 360 361 351 359 360 358 363 356 357 358 359 357 355 354 355 357 360 364 370 368
296 295 292 293 294 299 308 308 312 315 317 315 317 311 305 315 316 316 316 315 316 316 316 318 319 315 311 312 319 323 322 322 322 323 323 324 330 350 352 352 355 366 368 366 364 365 362 357 361 364 364 360 356 358 359 354 353 354 356 360 363 368 369
293 294 293 292 300 300 307 309 311 314 318 317 314 301 302 321 325 326 322 315 318 333 334 328 319 316 311 314 326 321 322 347 349 351 348 349 350 353 355 358 361 363 365 358 354 350 352 366 368 367 357 358 358 358 357 358 355 355 358 361 366 370 372
293 293 293 297 301 308 310 312 314 315 316 314 303 297 312 321 326 327 328 326 327 330 330 330 321 325 327 333 335 333 338 348 347 348 348 349 353 354 354 354 361 356 361 361 358 362 372 367 366 364 358 360 366 367 362 360 358 358 364 367 369 370 373
291 294 292 294 300 307 311 314 315 315 310 301 302 318 325 322 323 328 329 327 327 327 328 329 328 331 334 336 336 338 345 348 350 352 351 352 353 354 359 354 352 354 355 363 358 353 364 369 366 365 370 369 367 374 365 361 364 368 372 370 370 370 372
294 295 292 291 288 304 312 313 312 314 305 311 318 319 322 321 323 325 327 327 326 327 326 326 329 330 331 333 332 335 342 346 347 349 348 347 345 349 358 357 351 353 359 358 359 361 362 360 364 368 369 368 371 375 368 368 369 373 376 371 371 369 371
290 291 290 291 300 307 310 308 305 310 311 314 318 318 317 321 322 323 325 327 328 326 325 326 328 328 332 334 337 335 338 344 347 348 350 350 350 354 354 353 355 355 357 359 360 362 363 365 364 365 370 369 368 369 370 378 372 374 378 374 373 370 369
295 294 298 305 311 311 310 312 309 312 315 316 318 320 319 320 322 326 326 326 328 327 326 327 329 330 330 332 336 337 334 340 345 347 348 348 349 353 353 351 355 357 356 356 357 359 364 363 363 366 367 367 365 364 369 375 375 374 377 374 372 370 369
304 304 303 307 310 312 311 312 312 312 313 316 315 317 318 321 323 325 324 325 328 328 329 327 329 331 332 332 333 337 338 341 345 349 349 352 352 351 352 353 353 354 356 356 356 356 359 364 367 365 366 368 364 369 372 370 376 375 375 374 372 371 370
297 293 306 306 308 311 311 309 311 313 314 314 314 316 320 322 323 325 325 328 330 330 330 329 328 329 331 328 331 337 342 342 344 345 346 348 351 351 350 351 353 353 354 353 352 353 354 359 362 365 367 370 370 369 371 370 371 375 373 373 371 372 370
297 298 305 308 309 308 309 309 309 310 312 314 316 320 322 322 322 323 325 328 329 329 329 331 331 331 332 332 333 336 338 342 344 346 345 346 348 352 351 350 354 352 352 352 351 351 352 356 359 360 362 363 365 367 365 370 369 371 372 368 366 368 365
300 304 304 306 307 307 308 310 311 311 312 314 315 317 318 319 320 321 322 324 326 328 329 332 332 330 333 335 336 336 337 342 343 343 344 345 347 349 350 351 353 352 351 351 351 351 351 355 357 359 359 360 363 366 367 369 372 368 368 366 367 368 368
295 297 300 305 299 299 305 309 311 312 313 313 312 313 315 317 318 320 319 320 325 327 330 331 332 331 332 335 338 338 340 341 343 343 344 345 346 347 350 351 351 350 350 350 350 350 351 353 355 357 358 361 364 364 367 369 372 369 367 367 367 367 367
295 302 305 309 307 307 307 309 311 312 313 312 311 312 314 316 318 318 318 318 321 326 329 331 332 333 334 334 338 338 340 342 344 345 345 345 345 347 348 348 348 348 348 348 348 348 349 350 350 353 355 358 361 361 363 366 369 370 370 368 364 357 357
303 305 306 308 305 304 307 309 310 311 313 313 312 313 315 315 316 317 319 320 320 322 327 330 332 333 335 336 336 337 340 343 343 343 344 346 346 346 347 348 347 346 346 346 346 345 348 349 350 352 350 352 357 356 359 360 361 360 360 360 355 355 356
301 306 307 307 307 307 308 309 310 311 312 313 311 312 313 314 317 320 319 319 321 322 324 328 330 333 335 337 338 339 340 341 342 342 345 346 346 345 346 346 345 346 346 346 347 349 349 351 351 351 351 352 354 353 357 355 358 357 355 353 353 352 352

ECMWFFLT2_sfc_thetae_069.txt.gz
Theta_e
308 309 311 310 311 297 302 303 298 300 306 303 298 304 302 304 297 292 303 300 300 303 305 307 309 310 311 313 321 329 329 330 331 331 332 333 335 336 337 338 338 339 339 340 341 343 345 346 346 347 348 348 348 349 349 349 350 352 352 352 352 354 354
309 311 311 311 311 310 303 299 301 307 309 306 299 292 296 292 289 293 298 296 295 297 293 306 305 307 309 311 312 326 328 330 330 331 332 334 335 335 336 337 338 339 341 341 341 342 345 346 346 347 348 349 350 351 350 349 350 351 352 353 353 354 354
308 311 310 308 311 313 305 303 309 301 294 294 297 299 290 289 289 291 295 298 297 298 298 303 304 304 306 308 311 311 326 328 329 330 332 333 334 335 335 336 337 339 341 342 342 342 344 346 347 348 350 350 351 352 352 351 350 352 353 354 354 355 356
308 308 306 299 303 309 311 310 306 308 302 297 294 296 298 296 291 292 292 295 292 302 301 304 304 306 306 307 308 310 326 327 328 329 331 332 332 334 335 337 338 339 341 342 343 343 344 345 347 348 351 351 352 352 353 352 352 353 353 354 355 354 355
307 300 303 302 303 302 303 303 300 303 302 304 301 302 297 294 293 292 292 291 298 305 308 307 306 307 308 309 310 310 326 327 328 329 330 331 332 333 335 337 338 339 341 342 342 343 344 346 348 349 351 352 352 353 353 354 352 352 353 354 355 356 356
301 302 307 307 307 306 304 303 300 301 299 296 294 292 301 299 295 288 294 293 302 307 314 311 308 309 310 310 311 311 325 328 328 329 330 331 331 333 334 336 338 339 340 342 342 343 343 345 348 349 351 352 353 353 354 355 354 353 353 354 355 356 356
301 305 308 311 310 309 308 306 303 304 302 300 294 287 293 298 298 301 299 295 298 312 312 315 311 311 311 311 312 315 323 328 329 329 330 330 332 333 334 336 337 338 339 341 342 342 343 346 349 350 351 352 353 354 354 355 355 354 355 355 356 356 357
306 308 310 310 311 310 306 307 307 305 301 302 299 297 300 295 297 295 294 295 297 308 314 316 313 312 313 312 312 315 326 327 328 328 329 329 330 332 334 336 337 338 339 340 340 342 343 346 349 351 352 353 353 354 355 356 355 356 356 356 356 356 356
297 301 304 306 309 308 305 304 306 306 305 305 304 304 305 297 297 297 293 289 296 309 320 312 312 313 312 312 313 316 324 326 327 327 327 327 330 332 332 333 335 337 338 337 338 340 342 343 347 351 352 352 353 353 355 356 357 357 357 357 356 356 356
289 290 292 294 298 302 305 306 306 306 305 304 302 297 299 290 299 300 294 295 302 310 313 313 314 314 311 312 313 314 318 327 327 326 326 326 328 330 331 331 332 334 336 338 339 340 342 344 346 349 352 353 353 354 354 358 359 359 359 359 358 356 356
293 297 301 306 307 304 301 303 305 305 306 305 303 300 298 292 300 299 299 301 302 307 309 313 314 314 311 311 311 317 321 326 328 327 327 327 329 330 330 331 333 335 337 339 341 342 344 346 348 351 353 353 354 354 354 357 360 361 361 360 359 357 356
302 303 304 306 307 303 304 303 303 305 304 304 302 299 297 303 301 292 304 309 303 305 308 313 314 310 313 314 318 326 328 332 330 328 328 336 330 331 331 332 333 334 337 341 343 345 349 350 352 354 354 355 354 354 354 357 360 362 362 361 360 359 357
301 303 304 306 306 306 305 304 304 304 304 303 301 302 305 305 298 294 307 306 306 305 309 312 317 317 312 313 321 324 326 328 331 328 328 328 328 330 331 332 334 335 337 340 343 345 350 352 352 354 355 355 355 355 356 357 359 361 362 362 361 360 358
300 302 304 306 305 305 306 306 305 305 304 303 303 303 305 305 304 308 314 311 307 308 309 311 317 318 314 315 321 323 322 325 328 327 327 327 327 330 332 333 334 336 338 339 340 342 346 351 352 354 355 355 355 355 355 356 357 360 362 361 360 360 359
297 302 305 305 305 305 304 306 307 306 305 304 304 304 304 309 305 306 310 311 308 313 311 315 316 315 317 321 322 321 321 323 328 328 327 327 327 331 333 334 334 335 337 338 339 340 344 349 352 354 356 356 356 356 356 356 356 358 360 360 360 360 359
294 301 303 304 304 305 304 303 305 307 304 301 303 302 304 303 304 304 307 305 307 310 313 317 319 317 318 318 317 318 318 320 321 323 330 332 335 335 334 334 336 339 339 340 342 344 346 349 352 353 355 357 356 356 357 357 357 358 358 359 359 359 360
291 297 302 303 303 301 298 300 304 308 309 306 305 306 307 306 309 303 301 304 310 313 314 311 311 314 317 316 317 314 315 321 320 320 329 335 337 339 340 344 346 351 353 349 349 351 352 352 352 354 355 356 356 357 357 358 358 357 357 358 358 358 359
290 295 297 300 297 290 294 306 309 311 307 306 305 303 305 306 306 305 307 312 314 316 311 310 310 312 316 317 319 319 319 319 318 319 324 330 335 339 341 345 346 348 351 354 356 356 356 356 356 355 356 356 357 358 358 358 357 357 356 356 357 357 358
289 293 296 295 289 292 307 308 311 311 310 309 307 305 307 307 307 309 309 314 312 317 316 313 316 315 317 317 316 316 319 319 319 319 323 327 332 336 339 337 337 339 342 350 352 353 355 356 356 356 356 356 357 357 357 356 357 356 356 355 356 357 357
293 293 296 288 291 302 306 308 309 312 312 310 309 307 315 314 308 309 309 313 315 316 315 318 320 316 319 319 320 321 322 321 318 316 317 319 324 331 343 346 337 337 340 345 349 350 351 352 352 352 353 356 357 356 356 356 355 355 355 354 357 356 356
288 291 291 293 302 301 305 304 307 308 309 309 305 299 311 320 322 319 308 314 315 315 315 318 318 318 319 315 315 319 319 319 320 319 322 318 323 342 345 347 348 351 346 346 350 355 350 350 349 349 351 353 354 355 354 354 354 354 354 353 357 357 356
292 288 289 293 294 293 298 306 310 311 313 312 310 310 311 320 323 324 322 317 313 313 314 315 314 316 313 310 311 316 318 319 318 321 319 319 326 350 354 353 351 349 350 353 356 349 344 345 348 350 351 351 350 351 352 352 353 354 353 353 357 359 357
289 289 289 291 292 297 303 307 310 312 313 313 312 310 305 315 322 323 322 321 322 323 321 313 315 311 306 307 319 330 340 343 345 343 346 349 352 354 355 357 359 358 357 355 357 358 352 348 351 355 358 350 350 349 351 351 351 351 352 353 355 361 360
290 290 288 288 298 298 306 309 312 313 315 315 309 298 301 313 322 322 321 319 320 321 324 325 322 315 315 320 330 343 345 345 345 344 342 342 343 346 352 357 357 356 358 348 346 350 354 353 358 357 355 355 350 349 350 350 349 349 350 352 354 362 362
290 290 288 292 295 304 309 311 313 314 316 311 301 295 311 316 321 323 322 319 320 321 321 323 320 323 325 327 336 345 346 344 343 344 345 347 346 345 346 351 363 355 354 354 354 358 362 362 361 359 357 352 353 351 350 349 348 349 350 353 356 363 363
287 289 288 290 296 307 309 312 311 314 313 301 300 316 318 317 322 323 322 320 320 321 321 323 324 326 330 333 334 337 342 344 343 343 344 346 351 351 355 360 360 352 355 353 354 357 360 357 359 362 358 355 352 355 351 349 350 350 353 355 357 362 363
291 292 289 287 285 302 311 311 310 311 306 305 313 315 319 321 320 320 321 322 322 322 321 326 327 327 328 328 331 334 339 344 344 344 345 347 348 347 347 347 354 355 354 354 355 356 358 360 360 359 357 355 355 358 354 351 353 356 356 357 358 362 363
287 287 286 288 302 304 308 308 303 310 311 318 320 317 316 319 319 319 320 322 325 325 324 324 325 326 325 326 330 333 337 343 344 345 347 348 348 348 350 351 353 356 352 351 351 354 356 360 359 357 355 354 357 358 360 359 357 361 359 359 359 362 362
292 293 296 302 302 306 307 308 309 311 312 317 319 319 316 315 316 319 318 318 323 326 326 326 326 325 326 327 330 331 334 340 343 343 345 347 347 347 346 347 353 353 351 351 352 354 356 356 358 358 356 354 357 355 359 363 358 363 361 360 358 360 361
301 301 301 305 307 305 306 309 311 310 314 315 316 316 314 315 317 317 316 317 320 324 327 326 325 325 327 329 331 332 334 337 342 343 344 346 347 347 346 347 350 350 349 349 349 350 351 353 356 359 361 357 356 357 361 364 364 365 362 360 358 358 361
294 289 303 305 305 304 305 307 311 312 313 313 313 313 313 315 317 317 317 317 320 323 326 326 326 326 328 328 330 332 333 336 340 340 341 342 345 344 343 347 350 348 346 348 348 350 350 351 354 357 359 359 358 359 359 363 366 365 363 360 360 359 360
293 294 299 302 305 305 307 307 307 307 309 310 311 312 313 315 317 317 316 317 318 323 324 325 325 327 328 328 329 331 332 335 338 339 340 340 342 344 346 348 351 348 348 346 347 347 347 349 353 356 357 357 359 360 361 363 364 364 362 362 361 361 361
296 299 300 303 307 308 308 307 307 308 309 309 310 311 312 314 314 314 314 317 318 320 323 325 325 326 328 329 330 330 332 333 338 339 340 340 341 343 345 346 349 346 346 346 345 345 346 348 350 352 355 358 359 360 362 363 361 360 360 361 362 360 360
291 292 296 304 297 298 304 305 306 308 309 310 309 310 310 311 311 312 313 316 318 318 321 323 325 324 326 328 330 330 331 333 339 339 339 341 341 343 346 347 346 345 347 345 344 343 344 345 347 347 353 355 355 358 360 363 362 358 358 359 359 358 359
291 299 302 308 303 304 306 305 308 308 309 308 307 308 309 310 311 315 316 315 315 316 318 322 326 325 326 327 330 330 332 334 338 339 339 339 340 342 344 343 343 343 343 346 345 344 344 347 347 347 348 351 350 350 353 357 361 357 358 352 350 351 355
299 301 301 303 303 302 305 307 307 308 310 309 308 309 310 310 312 315 315 315 314 314 317 321 325 326 327 328 330 330 334 337 339 338 339 341 342 343 343 343 342 343 342 341 342 344 346 347 347 347 347 349 350 350 352 352 353 352 351 349 347 347 348
298 302 303 304 304 304 306 308 308 309 311 312 309 309 309 310 311 313 312 315 317 316 317 320 323 325 326 328 330 331 334 336 339 341 343 343 342 342 343 344 342 342 341 342 343 344 346 346 345 345 345 346 348 349 350 351 350 348 347 347 346 345 345

ECMWFFLT2_sfc_thetae_072.txt.gz
Theta_e
304 305 308 307 307 295 300 302 297 299 301 300 295 299 296 296 292 290 294 296 297 298 300 302 305 306 307 319 321 322 322 325 327 328 329 330 331 333 334 335 336 337 338 338 339 340 341 342 343 344 345 346 346 346 347 347 347 347 348 351 350 349 349
304 307 307 308 308 303 300 298 300 303 305 302 297 288 291 290 285 288 294 293 292 294 291 301 303 302 303 316 320 322 323 325 326 327 329 330 331 333 334 336 337 338 338 339 339 340 341 342 344 344 345 346 347 347 347 347 347 346 347 350 350 350 349
305 307 306 304 308 308 304 303 305 302 292 294 295 293 288 286 286 286 290 294 294 293 293 298 300 301 302 308 320 321 322 324 326 327 329 331 332 333 334 335 336 337 338 339 339 339 342 343 344 345 346 347 347 347 348 348 347 348 347 348 350 351 350
303 304 303 296 300 306 307 305 304 303 298 296 291 295 292 291 286 289 287 292 289 297 297 299 301 303 304 302 319 321 323 325 327 327 329 330 331 332 333 335 336 337 338 339 340 340 341 342 343 345 346 347 346 347 348 347 349 349 349 348 349 350 351
302 296 300 299 301 299 300 299 298 301 301 300 299 297 294 290 287 285 286 287 290 297 303 304 305 305 305 304 319 322 324 326 328 328 329 331 332 332 333 335 336 337 338 340 340 341 342 343 344 346 346 346 347 347 347 347 347 348 348 348 348 349 351
295 297 302 304 304 304 302 299 296 300 298 293 293 290 298 295 292 285 288 288 292 302 308 306 306 307 308 307 317 323 324 326 328 329 330 331 332 333 334 335 336 337 338 339 340 341 342 343 344 345 346 346 346 347 347 347 348 348 348 349 349 349 350
296 301 304 306 307 306 305 303 299 301 300 296 293 288 290 295 293 299 294 289 293 303 308 308 308 308 308 308 313 323 325 326 328 329 331 332 333 333 334 335 337 338 338 339 340 340 341 343 344 344 346 346 346 347 348 348 347 348 349 350 350 350 350
302 306 307 307 307 306 303 304 302 301 299 300 297 294 292 292 293 292 291 290 292 304 307 309 308 309 309 309 309 323 326 327 328 329 330 331 332 333 335 336 337 338 338 339 339 339 340 342 343 344 345 346 347 347 348 348 347 348 349 350 351 351 350
293 297 300 301 305 304 302 301 303 302 302 301 298 299 296 294 293 294 289 287 291 302 311 310 309 310 309 306 310 323 325 326 328 329 330 331 332 333 334 334 335 336 337 338 339 339 339 341 343 344 345 346 347 347 348 348 348 349 350 351 351 351 351
284 286 286 288 293 295 299 303 304 303 301 299 297 294 294 289 294 296 292 289 296 302 305 306 307 306 307 307 312 323 327 327 327 328 330 331 331 332 333 334 334 335 336 338 339 339 340 341 342 343 344 346 347 348 349 350 350 350 350 351 351 351 351
286 289 292 297 300 300 297 301 302 302 303 301 300 296 292 291 292 294 294 297 298 301 302 304 308 306 305 311 317 321 324 326 328 328 329 330 331 332 332 334 334 335 336 337 338 339 340 340 342 343 344 345 347 348 349 350 351 351 351 351 351 351 351
292 294 294 296 298 296 299 300 301 303 302 301 299 297 295 296 295 290 297 299 299 299 301 304 306 308 306 313 319 321 323 325 326 327 328 338 330 331 332 333 333 333 335 336 337 338 339 340 342 344 345 346 347 348 349 350 352 352 352 352 351 351 351
291 293 295 297 299 301 302 302 302 301 303 301 298 297 298 300 295 293 297 300 300 301 303 304 307 306 312 316 319 323 324 325 326 326 327 328 328 329 330 331 332 333 334 335 337 338 339 340 341 344 345 346 348 349 350 351 352 353 353 352 352 351 351
290 293 296 300 299 301 302 302 302 302 302 302 301 300 301 302 299 300 302 303 302 304 304 306 308 310 315 319 320 322 323 324 325 325 326 327 328 328 329 330 331 333 334 335 336 338 339 340 341 344 346 346 348 349 350 352 353 354 354 353 352 352 351
289 293 298 298 298 298 299 301 302 302 301 302 303 301 301 304 302 302 306 304 303 305 305 308 313 313 317 319 321 321 323 324 325 324 325 326 327 327 329 329 330 332 334 335 336 337 338 339 341 343 346 348 349 350 351 352 353 355 356 354 354 353 352
286 294 294 295 297 298 299 299 301 302 301 300 301 301 301 301 300 301 305 303 301 305 310 313 313 314 315 314 317 321 322 324 324 324 324 325 325 327 328 329 329 330 333 334 335 336 337 339 341 342 345 348 350 350 351 352 353 356 357 356 355 354 354
284 291 293 293 295 296 295 298 300 302 304 304 304 305 305 303 303 299 301 302 305 306 312 311 311 311 310 311 313 315 320 324 324 323 324 325 325 326 328 328 329 330 333 336 337 338 339 340 341 343 346 348 349 351 352 353 354 356 357 357 357 356 356
284 289 291 294 294 288 290 304 305 305 306 308 309 309 309 314 314 301 302 307 310 312 310 310 307 310 311 312 315 315 321 323 324 324 325 325 325 327 328 329 330 331 334 337 339 340 342 344 345 347 349 349 351 353 354 354 354 355 356 357 358 357 357
284 289 292 295 288 290 301 305 307 310 309 316 313 313 314 315 315 315 314 310 311 309 309 311 311 311 312 313 314 314 319 324 325 325 326 326 327 328 329 329 331 332 334 336 338 340 343 346 349 350 352 353 353 353 354 354 354 354 355 356 357 358 358
288 289 289 286 289 300 305 306 308 310 310 307 313 311 313 314 315 314 313 315 315 309 310 312 313 316 325 332 336 335 323 320 325 327 328 330 332 331 332 333 335 337 337 338 339 340 344 347 349 351 352 355 355 354 355 354 354 354 354 355 356 357 358
284 286 285 289 298 301 302 302 302 304 303 304 307 304 307 313 315 315 314 316 318 316 314 313 314 327 332 330 333 338 338 325 318 319 325 333 335 336 336 339 342 344 345 344 344 349 348 348 348 350 352 354 355 355 354 355 354 354 354 353 354 356 357
290 284 283 288 291 289 296 302 305 309 310 311 313 311 307 315 315 318 316 316 318 320 322 317 321 331 329 326 328 336 339 343 345 347 348 348 347 345 343 341 342 344 347 350 353 350 349 349 350 351 353 354 354 354 354 354 354 354 353 353 353 355 356
287 286 284 284 285 295 300 301 305 309 311 310 311 309 304 313 314 317 318 317 319 320 322 323 327 330 324 323 329 336 338 337 340 341 343 346 347 347 348 347 346 347 348 349 348 345 345 346 348 348 352 353 353 353 354 353 354 353 353 353 353 354 355
287 287 284 282 293 290 299 303 306 309 311 313 310 299 300 313 314 317 319 318 319 320 321 324 324 327 324 325 330 337 340 343 343 343 344 346 349 351 352 353 351 351 351 350 352 354 353 348 351 350 347 350 352 352 352 352 352 352 353 354 354 355 356
287 288 286 289 293 304 305 306 307 310 314 312 301 293 306 313 315 317 319 320 321 321 320 321 320 321 325 331 338 342 345 344 344 344 345 346 349 351 354 355 359 352 352 352 352 352 352 352 354 352 349 346 347 348 349 349 349 352 353 353 353 355 356
284 286 285 287 295 304 306 308 309 313 310 299 299 311 317 315 314 316 318 320 322 322 321 322 323 326 330 336 342 343 344 343 343 344 345 346 347 349 354 360 356 349 350 350 351 352 353 355 354 352 350 352 348 345 344 345 348 350 350 351 352 356 357
289 289 285 286 283 299 308 308 310 312 304 307 313 315 314 314 313 314 316 319 321 323 321 323 324 327 329 331 335 341 342 343 342 343 343 343 343 344 346 348 355 352 348 348 350 351 352 353 354 352 348 349 351 352 346 346 348 348 348 350 352 357 357
286 286 286 288 297 300 310 310 303 309 309 317 318 314 311 313 313 312 314 317 320 322 323 323 324 326 327 329 331 337 340 342 342 342 342 342 343 344 346 349 351 353 347 346 347 348 349 351 351 353 351 347 349 350 350 354 350 350 349 350 352 356 357
291 290 294 299 302 305 310 311 313 313 312 313 312 313 312 311 311 313 313 315 319 321 322 323 324 325 327 328 330 331 336 338 341 341 341 341 341 342 343 345 351 347 345 344 345 346 347 349 350 352 353 349 348 347 346 352 353 351 350 350 351 354 356
299 301 301 302 303 304 307 309 311 311 313 313 312 315 311 312 313 313 313 316 316 317 320 322 322 324 326 327 328 330 332 336 337 339 340 341 343 344 345 346 347 345 345 345 344 344 345 346 348 352 352 351 350 351 352 356 357 353 352 351 350 353 356
291 287 298 298 300 304 306 307 310 311 312 311 312 313 312 310 314 316 316 315 314 316 316 318 321 322 324 325 327 329 330 332 336 336 336 338 340 341 342 346 347 343 343 342 342 342 342 343 345 348 351 353 353 353 354 355 356 355 353 351 352 353 355
292 292 296 298 303 304 305 305 304 305 308 310 311 311 313 312 313 316 317 316 313 314 315 315 320 321 322 323 325 327 329 331 334 335 336 337 340 340 340 343 345 341 340 338 338 339 340 341 344 346 349 351 351 352 355 358 355 355 354 352 352 353 356
294 296 298 301 304 304 304 305 306 306 306 311 309 310 311 313 314 313 316 317 314 314 314 316 319 319 321 322 324 326 329 331 333 333 336 336 337 338 339 340 343 339 338 339 337 338 339 340 343 345 347 349 348 348 351 356 351 353 354 354 354 355 357
288 290 294 301 293 292 297 302 306 306 308 308 310 311 311 311 310 310 311 314 317 315 314 315 318 318 319 322 323 325 328 330 332 332 332 333 334 335 337 340 339 340 341 337 336 337 336 339 343 344 346 348 348 348 349 353 352 352 353 354 354 355 356
288 296 299 299 298 297 300 302 304 307 309 309 308 309 310 310 311 311 311 313 315 314 314 316 317 319 320 321 324 324 327 328 331 332 332 333 334 335 337 337 336 336 336 340 336 338 339 340 341 342 343 345 346 347 348 349 351 349 350 351 351 352 353
295 297 298 301 301 299 300 302 304 305 307 308 307 307 309 311 312 312 311 311 314 313 313 315 320 321 322 323 325 324 325 327 329 333 333 334 333 336 336 336 335 335 335 335 336 337 338 340 340 340 342 343 344 346 347 346 347 346 345 348 347 346 347
293 298 299 302 302 301 302 302 304 305 309 309 307 307 309 309 312 313 311 312 314 314 315 316 318 321 322 323 324 325 325 327 330 335 336 337 338 337 337 338 337 336 335 335 336 337 337 338 338 339 339 341 343 345 345 346 345 345 343 344 344 344 344

ECMWFFLT2_sfc_thetae_075.txt.gz
Theta_e
302 303 307 307 306 294 298 301 297 299 300 299 294 296 296 293 289 290 293 292 293 295 299 300 302 304 308 316 320 322 323 324 325 325 326 327 329 330 332 333 334 334 335 336 337 337 338 339 340 340 341 343 344 345 345 346 347 348 349 350 350 350 350
301 305 304 307 308 302 297 296 299 301 303 302 296 288 289 288 285 286 289 293 290 293 292 301 299 302 305 311 317 320 322 323 323 325 326 327 328 330 332 333 334 335 335 336 337 338 339 339 340 341 342 343 344 345 346 346 347 347 349 350 350 350 349
301 303 302 301 305 308 303 300 304 300 290 293 294 292 287 284 283 283 286 291 292 291 293 296 298 299 301 309 314 318 320 321 323 324 326 327 329 330 331 332 333 334 335 335 336 337 339 340 341 342 343 344 344 345 346 346 346 348 349 350 350 351 350
298 300 298 292 297 303 307 303 302 302 297 295 291 294 290 290 283 286 285 290 291 295 296 297 300 301 301 309 312 315 318 320 323 324 326 327 328 329 331 332 333 335 335 336 336 337 338 339 340 342 343 344 344 345 346 346 347 348 349 349 350 349 350
299 293 295 295 297 296 298 299 297 298 299 297 299 294 292 290 283 282 283 286 289 293 297 299 301 301 301 308 313 315 318 320 323 325 326 327 328 329 331 332 334 335 335 336 337 338 339 340 342 343 343 344 344 345 345 346 346 346 347 348 349 349 350
291 294 299 299 298 298 298 298 296 298 296 292 291 290 294 292 291 283 283 287 291 295 303 303 302 303 302 306 313 315 318 320 322 325 327 328 328 330 331 333 334 335 336 336 337 338 339 339 340 342 343 344 344 344 345 346 346 346 346 347 349 349 349
292 296 300 303 303 303 302 299 298 300 298 294 292 287 289 293 293 295 290 287 293 299 302 304 305 305 305 305 310 314 318 319 322 324 327 328 329 330 331 332 334 335 336 337 337 337 338 339 340 341 343 343 344 344 345 346 346 346 347 347 348 349 349
295 298 301 302 303 303 301 300 300 299 298 298 297 295 291 292 290 293 289 289 291 298 305 304 305 305 305 305 310 313 317 320 322 323 325 327 328 330 332 333 334 335 336 337 337 337 337 338 339 340 342 343 344 345 345 346 345 346 347 347 348 348 348
289 295 296 297 300 300 296 295 297 299 301 300 297 296 294 294 292 294 288 288 293 297 312 308 309 308 306 304 307 314 315 319 322 323 325 327 328 329 330 331 333 334 335 336 336 337 337 338 339 341 342 343 343 344 345 345 346 347 347 348 347 347 348
280 284 284 284 286 290 293 296 299 301 298 299 295 294 292 290 293 294 292 293 294 297 300 302 302 304 304 306 305 309 315 318 321 323 325 327 328 329 330 331 332 333 334 336 337 337 338 338 339 340 341 342 343 344 345 346 346 346 347 348 347 347 347
282 285 287 291 294 291 289 293 295 295 298 300 299 294 290 291 290 292 295 296 295 299 302 302 303 301 303 304 304 305 309 316 322 324 326 327 328 328 329 331 332 334 334 335 336 337 338 338 339 340 341 342 343 344 344 346 347 347 347 348 348 347 347
288 290 290 292 293 289 290 290 291 295 297 299 297 295 294 294 292 289 294 296 297 299 302 302 301 302 302 303 304 305 309 315 321 324 326 336 328 329 330 331 331 332 334 335 336 337 338 338 340 341 342 343 343 344 344 345 346 347 347 347 347 347 347
290 291 291 291 291 291 291 292 294 295 298 299 297 296 296 297 296 293 295 296 296 300 302 303 301 302 305 307 308 308 311 317 322 324 325 327 327 328 329 330 332 332 333 334 336 337 337 338 339 340 341 342 343 344 345 346 347 346 347 347 347 347 347
288 289 290 291 291 293 294 295 296 298 299 299 300 299 297 299 296 298 297 298 298 301 303 303 305 304 305 307 313 313 316 320 323 324 324 326 327 328 329 330 331 333 334 335 336 337 337 338 338 340 341 342 343 344 344 346 346 347 347 347 347 347 347
286 289 291 293 292 291 291 294 297 302 302 300 300 299 298 300 300 300 298 298 299 302 302 302 305 309 311 314 315 316 317 320 323 323 325 326 327 328 330 330 331 333 334 335 336 336 337 337 338 340 341 342 343 344 345 346 346 348 348 347 347 347 347
283 288 289 290 291 291 291 294 299 301 303 296 296 296 300 299 297 298 300 298 297 302 303 309 311 311 314 314 314 315 316 319 323 323 324 326 327 328 329 331 332 332 333 334 335 336 337 338 338 339 340 341 342 343 345 346 347 349 348 348 347 347 348
282 287 289 289 289 292 292 295 297 299 305 307 309 310 311 310 305 298 297 297 301 306 309 310 311 308 309 312 314 315 316 318 322 323 325 326 327 328 330 331 332 332 333 334 336 337 338 338 339 340 341 341 342 343 345 347 349 349 349 349 348 348 348
281 286 288 290 291 288 290 299 303 302 302 306 306 306 308 310 311 305 307 306 312 312 307 308 308 308 309 311 316 315 318 319 321 323 325 326 328 329 330 331 331 332 334 335 336 337 338 339 340 341 342 342 343 344 346 348 348 349 349 349 349 349 349
280 285 288 292 287 289 300 305 303 303 304 304 307 309 311 311 312 312 312 313 314 315 310 307 308 313 327 332 333 333 328 319 320 322 323 325 327 328 329 329 331 331 333 334 335 336 338 339 340 341 342 344 344 345 346 347 348 349 350 350 349 350 349
285 284 285 280 288 298 299 304 305 305 305 305 304 308 312 312 312 312 311 314 315 316 314 313 313 321 328 333 334 334 336 327 321 320 322 324 326 326 328 329 329 330 332 333 334 336 339 341 340 341 341 344 345 346 347 347 348 349 350 350 350 351 350
279 285 284 283 292 295 301 299 300 300 298 300 299 298 309 312 312 313 312 315 316 318 319 321 319 319 325 329 331 338 337 337 327 323 324 323 324 325 326 329 329 331 333 334 336 338 338 339 340 340 342 344 346 347 347 348 348 349 350 350 351 351 352
288 282 282 282 286 287 295 299 303 306 306 307 306 303 306 314 314 315 314 315 317 318 320 322 325 322 326 324 328 336 340 342 341 341 340 339 335 332 332 333 331 332 333 336 340 338 337 338 340 341 343 344 345 346 348 348 348 349 349 350 352 353 353
284 283 280 280 281 287 298 298 303 306 309 308 308 304 304 313 313 314 315 317 318 319 321 322 326 324 323 323 329 337 340 343 346 345 346 346 345 343 340 338 338 339 339 341 344 343 339 339 342 344 345 346 346 346 348 348 349 349 349 350 352 353 355
284 284 282 280 287 284 296 301 305 308 311 310 307 297 300 310 312 313 315 317 319 320 323 325 327 327 324 326 332 339 340 341 343 345 346 346 347 348 349 349 348 349 351 349 347 347 346 346 348 347 349 349 349 348 348 349 349 349 350 351 353 355 357
285 286 284 286 287 301 303 303 308 311 311 309 299 293 303 312 312 313 314 316 319 321 323 326 326 329 334 336 339 340 340 340 340 343 345 347 348 347 348 350 356 350 351 351 350 350 350 350 349 346 349 349 351 351 350 350 349 351 352 353 354 354 356
282 283 282 283 290 302 305 307 312 311 307 297 296 308 316 312 311 314 314 314 316 319 323 325 327 330 335 339 339 338 338 337 338 340 341 343 345 348 354 356 352 349 348 348 348 349 350 352 351 349 346 348 348 348 349 350 352 354 354 354 354 353 354
287 286 283 285 281 296 308 309 310 307 300 299 308 312 315 314 312 311 313 314 316 318 319 324 326 328 330 332 335 336 337 338 338 338 339 340 341 343 345 346 350 348 346 345 346 346 348 350 351 351 350 350 349 345 342 346 347 347 349 351 352 353 353
284 285 285 286 295 301 311 308 299 304 305 310 311 311 309 313 312 312 311 312 316 319 318 320 322 325 328 329 331 333 335 337 339 340 340 341 342 343 345 346 346 347 343 344 344 344 345 348 349 350 350 350 350 345 345 346 346 347 346 349 350 351 352
290 288 293 299 301 309 310 311 309 310 310 311 312 311 311 310 311 314 311 311 313 318 317 319 320 321 324 326 329 331 332 335 337 338 339 340 341 342 342 344 346 344 342 341 342 342 343 344 347 348 349 349 349 347 347 348 348 347 346 347 349 350 352
297 298 299 302 304 306 308 310 311 310 310 311 312 311 309 310 310 311 309 312 313 316 318 317 319 319 321 324 326 329 332 334 335 338 338 339 340 341 342 342 343 342 341 341 341 340 340 342 344 348 346 346 345 344 348 351 350 348 346 345 346 349 351
290 287 298 296 297 306 307 308 310 309 310 310 312 311 311 310 310 310 311 312 314 314 318 317 318 318 319 322 324 326 329 332 333 334 335 336 337 338 339 342 342 339 340 339 339 339 339 339 341 344 344 345 342 343 345 349 353 348 345 345 347 348 350
289 291 295 297 299 304 308 308 307 307 307 309 311 314 313 312 313 312 312 313 314 315 315 316 317 316 317 319 321 324 326 328 332 332 333 333 336 337 338 340 340 337 337 336 336 336 336 334 337 341 343 343 344 344 344 347 350 348 347 346 345 346 349
292 294 296 299 299 302 302 307 309 312 309 309 310 311 311 311 311 312 313 314 315 316 315 316 316 316 314 318 320 322 324 325 327 331 332 333 332 333 336 337 340 337 336 336 334 335 335 334 336 338 339 341 343 344 345 346 347 347 347 348 345 343 346
287 288 293 296 290 291 295 301 304 303 311 309 308 309 309 311 311 312 312 313 316 316 317 314 315 315 316 317 319 320 322 324 325 328 330 332 333 334 333 334 335 336 338 335 335 336 335 337 337 338 339 340 342 344 345 346 347 346 348 346 345 344 347
287 293 296 297 296 295 296 299 304 304 306 311 307 307 307 309 310 312 313 311 314 314 314 314 314 314 315 316 319 320 321 323 325 327 329 330 332 334 335 334 335 334 335 338 337 337 336 336 336 336 337 338 340 342 343 344 345 342 347 346 344 344 348
294 296 296 297 296 294 296 300 303 303 306 309 309 308 309 308 308 310 310 310 313 313 313 313 315 314 315 316 319 319 320 323 324 327 330 331 331 334 334 333 333 334 335 335 334 334 332 334 334 335 336 338 339 341 342 342 342 339 342 344 343 343 346
293 297 298 298 297 297 299 300 300 304 308 308 308 310 309 308 309 310 308 307 311 314 312 311 313 315 315 315 318 320 320 322 326 331 333 334 335 332 332 333 332 332 332 332 331 331 330 333 335 335 335 337 338 340 341 341 341 339 340 341 342 341 343

ECMWFFLT2_sfc_thetae_078.txt.gz
Theta_e
299 299 303 305 304 293 296 299 295 298 300 299 294 295 295 291 286 288 290 291 292 294 298 298 301 303 306 310 314 319 320 321 323 323 325 326 328 330 331 332 332 333 334 335 335 336 337 338 338 339 341 343 344 344 345 345 346 348 348 350 350 351 351
300 302 301 301 306 301 297 295 298 300 302 301 296 288 288 287 284 285 286 292 289 292 292 300 300 300 304 308 312 316 319 320 320 323 324 326 327 329 332 333 334 334 334 335 335 336 337 338 338 339 340 343 344 345 345 345 346 346 348 349 350 350 350
299 301 299 297 302 305 302 298 303 299 290 292 296 292 286 284 284 282 285 289 291 291 293 295 297 299 301 305 310 314 316 318 320 322 323 325 327 329 330 331 332 333 334 334 335 336 337 338 339 340 341 342 343 344 346 346 345 346 348 349 350 351 351
296 297 295 291 295 300 305 302 302 301 296 295 291 293 288 289 284 284 286 286 290 293 295 297 299 300 302 303 306 311 315 318 320 322 323 324 325 327 329 331 332 333 334 335 335 336 336 337 338 339 340 341 342 344 345 346 347 347 348 348 350 350 351
296 291 293 292 294 294 297 296 295 297 298 296 299 293 292 289 285 283 284 284 289 292 296 299 300 301 302 303 305 309 314 318 320 322 323 324 325 327 328 330 332 333 334 335 336 336 337 338 339 340 340 340 342 343 344 345 345 346 347 348 349 350 351
287 290 296 296 296 295 293 293 293 295 295 292 290 289 294 293 290 282 284 287 291 293 301 301 302 303 303 304 306 309 312 316 319 322 323 325 326 327 328 330 331 333 334 335 336 337 337 338 338 339 340 341 341 342 343 345 346 346 346 348 349 350 350
288 292 295 298 297 297 297 298 295 296 295 292 291 286 288 292 293 293 289 286 291 298 301 302 302 303 303 304 307 309 312 315 318 321 323 325 327 327 328 329 331 333 334 335 336 336 336 337 338 339 340 340 341 342 343 344 345 346 347 348 349 350 350
291 294 296 298 300 298 296 297 296 295 292 293 292 293 290 291 289 291 291 289 294 301 303 302 302 304 301 305 307 310 312 315 318 320 322 324 326 327 329 330 331 333 334 335 335 336 336 337 338 339 340 341 341 342 343 344 344 346 347 348 349 350 350
287 292 293 295 296 295 291 290 292 294 296 295 294 295 293 292 291 293 288 287 292 297 309 307 306 306 304 303 303 308 311 314 317 319 322 324 326 327 328 329 330 332 333 334 335 335 336 337 338 339 340 341 341 342 343 344 345 346 347 349 349 349 349
278 282 283 281 282 287 290 292 292 293 292 292 293 291 292 288 292 293 291 292 298 300 301 303 304 304 305 304 306 307 309 312 315 317 320 323 324 326 327 328 329 331 333 334 335 335 336 337 338 339 340 341 342 342 343 345 345 346 347 348 348 349 349
280 283 284 288 291 289 286 288 290 290 293 294 293 293 289 288 289 291 294 296 296 297 300 301 302 301 301 302 303 304 305 308 312 316 319 321 324 326 326 328 330 332 333 333 335 335 336 337 338 339 340 341 342 343 343 344 345 346 347 347 348 348 348
287 288 288 290 291 287 288 288 288 291 291 292 292 291 290 293 289 290 295 296 296 299 300 301 301 302 301 302 302 303 304 306 309 312 317 328 323 325 327 328 329 330 332 334 334 335 336 337 338 339 341 341 342 343 343 344 345 346 346 347 347 347 348
288 289 289 290 289 289 289 289 289 289 291 292 291 292 294 295 293 292 295 295 296 300 300 301 302 303 304 304 306 306 305 305 307 309 313 319 322 324 325 327 329 330 331 333 334 335 336 337 337 338 340 341 343 343 344 345 345 346 347 346 346 346 347
287 288 288 290 288 288 289 289 290 292 292 292 294 294 296 296 295 295 296 296 298 301 303 302 302 302 302 303 304 308 309 308 309 309 313 318 321 323 325 327 329 331 332 334 335 336 336 337 337 338 339 341 342 342 343 344 345 346 347 346 346 346 345
285 287 289 290 289 289 287 289 291 292 294 297 300 300 300 300 297 298 296 296 297 302 306 308 307 307 308 311 312 311 310 310 313 315 317 319 322 323 326 328 329 331 332 334 335 336 336 337 337 338 339 341 342 342 343 344 345 346 347 346 346 346 345
283 287 288 288 289 288 288 288 291 295 297 298 303 299 302 297 295 295 295 294 296 301 313 315 313 308 308 310 312 314 312 313 317 318 320 321 323 324 326 328 329 330 332 333 334 335 336 337 338 339 340 340 341 342 343 344 345 346 346 346 346 346 347
282 286 287 287 287 289 289 291 295 297 298 300 303 308 309 308 306 298 295 297 305 310 315 312 309 308 316 323 325 324 320 315 317 320 321 322 324 325 327 328 330 330 332 333 335 336 337 338 338 339 340 340 341 342 343 345 346 346 346 346 346 346 347
281 284 286 287 286 282 285 298 301 300 298 300 299 302 308 309 309 306 308 308 312 314 314 314 313 308 321 324 328 329 327 325 317 318 321 323 325 326 327 329 330 331 333 334 336 337 338 339 340 340 342 341 342 344 345 346 346 346 346 346 346 346 347
280 284 286 286 282 285 298 301 303 303 303 303 302 303 311 310 310 309 310 311 313 316 317 316 315 312 323 329 333 336 338 335 326 319 321 323 325 326 328 329 330 332 333 334 336 336 337 339 340 341 341 343 343 344 345 345 346 346 346 346 346 346 347
286 281 282 277 283 293 295 307 304 304 304 304 304 303 310 310 309 309 308 311 315 318 319 321 321 317 319 324 333 338 339 340 338 323 320 323 325 327 328 330 331 332 333 334 335 337 340 340 340 340 341 343 343 343 345 345 346 346 346 346 346 347 347
278 281 281 282 288 290 297 296 298 300 297 300 300 295 302 311 309 309 308 311 315 316 320 324 325 325 324 329 333 339 339 340 342 332 321 323 326 328 330 331 332 334 335 336 337 340 339 340 340 340 342 343 343 343 344 345 346 346 346 346 346 347 347
285 280 277 279 280 282 291 298 304 305 305 306 306 303 301 310 309 310 309 310 313 314 317 324 327 324 327 324 329 337 339 341 341 342 332 323 325 327 328 330 331 333 334 336 341 339 339 340 340 341 342 343 343 343 343 345 345 346 346 346 347 348 348
283 279 276 276 275 282 294 297 301 305 306 308 309 301 300 308 309 310 310 310 311 312 315 321 330 324 322 324 329 336 338 339 341 342 341 337 326 327 329 330 331 332 335 337 340 339 338 338 339 341 342 343 342 342 344 344 345 345 346 347 348 348 349
283 281 278 275 283 281 293 300 302 305 309 309 304 295 297 305 310 309 310 310 310 309 313 319 329 326 323 324 329 336 338 339 341 342 343 341 338 333 330 331 333 335 341 341 337 336 337 338 340 341 342 343 343 343 343 344 344 345 346 348 350 351 351
284 284 280 282 284 295 302 302 304 309 310 307 297 290 298 308 309 309 310 311 311 310 311 315 318 326 329 331 334 337 339 340 341 343 346 347 346 343 340 339 346 339 338 337 336 336 338 340 340 341 342 343 344 345 345 344 344 346 348 350 351 352 352
282 282 280 281 285 298 304 306 309 309 306 292 292 302 311 309 307 308 309 310 313 312 311 313 317 323 328 332 334 335 337 338 340 342 343 345 346 349 353 353 349 346 346 346 346 346 345 343 342 342 343 343 344 345 345 344 346 348 350 351 352 353 353
286 285 281 280 277 293 306 307 306 305 296 294 303 306 309 310 308 307 308 310 312 313 310 312 314 319 323 326 329 333 335 336 338 339 340 341 342 343 345 346 350 348 346 346 347 348 349 347 345 344 343 344 345 346 344 346 349 351 351 352 352 353 354
283 282 280 282 295 299 307 306 296 302 304 307 307 307 305 307 307 306 307 308 312 314 311 309 311 315 318 323 326 328 330 333 335 338 339 341 341 342 344 345 346 347 345 345 346 348 349 351 350 349 347 347 348 347 346 349 348 352 353 353 353 353 353
288 286 290 297 303 306 307 308 305 305 306 308 309 309 307 305 306 309 308 308 312 313 311 309 310 312 315 318 322 325 326 329 332 334 337 338 339 340 340 341 344 343 342 343 344 345 347 348 350 352 353 352 352 350 349 352 352 350 352 353 353 352 353
295 296 296 300 301 305 305 307 306 303 305 306 309 307 305 307 308 309 308 311 312 312 311 308 308 309 312 316 318 322 325 327 330 333 334 336 338 340 340 340 341 340 339 340 340 341 343 346 347 349 349 351 350 348 350 355 354 350 349 351 352 352 353
288 286 296 295 297 301 304 304 305 306 307 307 308 308 307 308 310 310 312 313 313 312 311 309 307 306 309 312 316 319 322 325 328 330 331 333 336 336 337 340 341 338 338 337 338 339 339 341 344 345 345 346 347 348 349 351 354 352 348 348 350 351 352
288 289 294 295 298 305 307 307 307 306 306 307 307 308 308 310 312 312 312 314 313 313 308 309 307 306 308 309 312 316 320 322 325 327 330 331 334 336 337 338 340 337 336 336 337 338 337 338 341 343 344 344 345 346 348 350 351 351 349 347 347 348 349
291 294 295 296 297 302 304 304 305 310 307 307 306 306 308 309 309 309 310 311 310 313 310 311 309 306 307 308 311 315 318 321 323 326 329 331 333 336 336 336 338 336 336 337 336 337 337 337 339 340 341 342 344 345 347 348 349 351 350 350 348 347 348
286 288 291 294 289 289 295 296 299 305 308 307 306 306 306 306 307 308 307 308 308 312 314 312 310 305 305 307 309 313 318 320 322 325 328 330 331 334 336 337 335 336 339 337 337 337 336 337 338 339 339 340 342 345 345 346 349 354 353 350 348 346 347
286 292 294 295 295 294 295 296 301 302 301 306 306 305 304 305 308 309 308 306 306 308 311 312 312 308 306 306 308 310 316 319 322 325 328 329 330 333 335 335 335 336 337 339 338 337 336 337 338 339 339 340 341 342 343 344 346 349 351 349 347 346 348
294 296 295 296 295 293 296 299 299 299 301 302 305 307 306 307 308 309 308 308 306 306 309 309 313 312 309 308 308 309 313 318 321 325 328 330 330 333 334 334 335 335 336 335 333 334 334 336 336 338 339 339 340 342 342 343 343 344 349 350 348 347 349
293 298 298 298 297 297 298 299 299 300 301 303 302 306 308 306 308 309 308 306 307 306 307 307 308 313 312 311 309 309 312 318 323 327 329 331 331 332 332 334 334 334 333 331 333 334 335 336 336 337 338 338 339 340 341 342 343 343 343 344 346 345 348

ECMWFFLT2_sfc_thetae_081.txt.gz
Theta_e
303 303 304 305 307 296 302 304 299 302 309 305 299 299 302 299 296 293 301 299 302 307 308 310 311 311 312 314 315 317 319 323 330 330 332 335 336 337 337 338 338 341 342 343 343 345 345 346 347 347 351 353 354 355 355 356 357 358 358 359 359 359 360
303 305 304 304 305 307 304 298 302 308 310 308 302 293 297 294 291 296 297 295 297 299 296 308 310 309 310 312 313 314 318 324 327 328 332 334 336 337 339 339 340 341 342 342 342 344 345 346 346 348 352 353 355 355 355 355 356 356 357 358 358 359 359
302 304 305 304 306 308 304 303 311 301 296 295 301 299 290 290 290 292 296 298 298 300 300 305 306 308 310 313 315 314 315 321 324 327 331 335 336 337 338 338 340 340 341 341 342 343 345 346 348 349 351 351 353 354 354 354 355 356 356 356 358 359 360
300 301 302 297 301 306 307 308 305 308 304 300 297 298 299 298 292 292 293 296 294 302 303 305 306 310 311 312 315 314 315 319 323 327 329 332 335 336 337 338 339 339 340 341 341 342 343 345 346 347 348 349 350 351 354 354 355 356 357 357 358 358 359
299 296 301 299 300 300 302 302 301 303 303 306 305 304 299 296 294 293 293 292 297 304 308 307 308 310 315 314 316 320 318 319 322 327 329 332 334 335 337 338 339 339 340 341 341 343 343 345 347 347 347 348 348 350 351 352 353 354 354 355 357 358 359
296 298 300 299 298 298 297 298 300 301 301 298 295 294 303 300 296 292 293 292 300 306 312 310 309 311 313 317 317 319 320 320 323 325 329 333 334 336 337 338 339 339 341 341 341 342 343 344 344 344 345 347 348 349 350 351 352 353 353 354 357 358 358
295 298 300 301 300 300 299 300 299 299 300 300 298 292 297 300 300 301 299 295 299 311 315 313 312 313 313 314 318 317 318 321 322 325 327 332 335 335 336 338 338 339 341 341 341 342 342 343 344 344 345 345 346 348 349 350 350 351 352 354 356 358 358
297 299 301 302 302 301 299 299 299 298 296 296 295 296 298 297 300 297 298 295 300 309 314 313 314 318 314 315 311 314 318 320 322 324 326 331 335 337 336 337 338 340 341 343 344 343 343 343 345 344 344 345 346 347 348 349 349 351 352 353 355 358 358
293 296 299 298 299 300 296 295 297 296 297 297 297 298 300 295 298 299 297 292 299 308 320 320 317 316 313 311 313 314 313 316 319 323 327 331 337 339 336 337 338 340 340 342 344 344 344 345 343 344 344 345 345 347 348 348 349 351 352 354 354 356 356
284 284 286 290 293 293 295 295 295 296 295 295 296 296 299 292 299 301 297 298 305 310 316 315 316 316 319 318 314 313 315 318 319 321 322 331 336 339 338 338 339 338 341 343 344 346 345 344 343 346 347 345 345 347 348 349 350 351 352 353 354 354 354
288 291 289 290 293 293 291 293 294 294 295 296 296 297 295 294 300 297 301 303 303 306 308 312 313 315 314 316 319 314 315 318 321 326 328 329 333 337 337 339 339 343 345 345 346 348 345 343 344 345 344 344 345 348 348 349 350 351 352 353 354 354 354
291 292 291 292 292 290 292 292 292 295 294 295 294 293 295 300 296 293 302 305 301 303 307 310 314 316 319 317 318 317 321 324 322 324 332 333 330 333 338 339 340 341 344 346 346 347 344 343 345 345 345 345 345 348 347 348 350 351 352 353 354 354 354
291 292 292 293 292 292 292 292 293 293 295 295 293 294 296 297 295 295 303 307 305 306 307 309 312 318 316 314 314 316 316 315 319 324 322 322 326 331 333 339 342 342 342 344 346 345 345 345 345 345 345 346 347 350 349 350 350 351 354 354 355 354 355
290 291 291 293 292 292 292 293 294 294 294 295 295 296 298 298 298 300 302 305 304 308 309 310 318 324 324 322 321 320 320 316 319 318 320 317 319 322 329 335 338 342 343 344 346 347 347 344 345 344 346 347 348 347 347 348 350 351 354 355 355 354 354
289 291 293 293 292 292 291 293 294 295 295 296 297 299 305 308 306 302 301 302 303 311 321 322 324 327 324 322 325 327 330 330 327 325 322 319 318 319 326 332 338 341 343 344 346 347 347 347 347 345 347 348 347 346 348 348 350 351 354 356 354 354 355
287 291 291 292 292 292 292 292 294 295 295 297 303 304 309 308 306 306 303 302 304 317 320 323 326 327 326 324 335 338 339 339 339 335 331 327 324 322 321 327 334 340 340 343 344 345 344 345 346 347 349 348 348 346 347 347 349 351 352 353 353 355 357
285 290 291 290 291 292 290 292 295 297 299 304 306 308 310 310 310 308 305 304 314 315 320 319 322 325 327 325 336 336 338 340 339 340 341 339 332 327 326 326 332 335 338 341 344 343 344 344 345 346 348 346 347 348 349 350 351 351 350 351 353 356 357
286 289 290 292 289 284 287 303 304 303 302 304 304 306 306 308 309 307 310 311 314 315 316 317 319 323 327 328 332 339 340 339 340 341 342 344 341 333 330 328 328 335 340 342 344 344 346 346 345 346 348 348 349 350 351 352 351 352 352 352 354 355 356
284 289 290 287 283 286 300 302 305 306 306 306 306 307 308 307 308 308 309 310 311 313 314 316 320 324 328 333 331 330 340 341 340 340 341 343 345 339 332 332 332 339 343 345 346 346 345 345 347 347 348 349 351 350 351 351 352 354 353 353 355 356 356
289 286 286 279 284 297 298 303 304 306 307 306 308 307 307 307 307 307 306 308 311 311 312 314 317 320 326 335 335 335 341 342 341 340 341 343 344 341 334 335 338 343 340 342 343 345 346 345 345 347 348 348 348 349 352 351 351 353 354 356 356 356 356
282 285 286 287 295 294 302 302 301 301 300 302 304 302 304 306 308 305 305 307 310 310 311 313 315 320 328 333 337 341 340 341 343 344 343 345 346 342 338 337 339 346 346 347 345 350 347 346 346 346 347 348 348 349 349 350 352 352 353 354 353 356 355
288 284 283 285 285 284 294 301 304 305 307 307 307 305 302 305 307 306 305 305 308 308 308 310 312 321 331 330 331 336 338 340 343 345 346 349 347 338 335 341 344 347 347 347 350 346 347 346 347 348 349 348 349 349 349 349 351 350 351 353 355 357 355
287 284 281 282 282 287 299 300 303 306 308 309 310 305 300 304 306 305 305 305 306 307 306 306 312 323 324 323 327 330 334 337 342 344 346 348 347 339 337 340 341 343 347 347 347 349 348 345 348 350 349 349 349 349 350 349 349 350 351 354 355 355 355
285 285 283 282 289 287 298 301 302 306 310 309 307 295 296 301 307 305 305 304 305 307 307 307 309 308 307 312 321 329 333 336 341 344 345 346 347 341 340 341 345 349 352 351 346 346 345 349 350 350 349 348 349 349 349 349 349 351 353 356 357 357 357
284 285 284 287 290 296 304 303 307 309 310 307 297 292 297 306 305 305 306 306 307 309 307 306 303 307 310 313 319 328 332 334 337 342 346 348 349 347 341 342 349 348 349 347 345 344 349 354 349 349 349 349 351 353 352 351 351 353 357 360 360 359 359
282 284 283 285 291 298 305 307 310 309 304 295 295 300 307 306 304 306 307 307 308 309 307 307 307 309 311 315 322 324 328 331 334 339 343 346 348 350 351 353 349 347 344 348 347 346 353 351 350 351 353 353 355 354 353 352 355 356 359 360 360 359 359
286 285 284 283 281 296 307 307 306 306 299 297 302 305 307 307 305 306 307 308 309 309 307 308 308 310 310 312 315 319 325 329 331 336 339 341 344 347 349 350 352 348 346 345 344 348 349 349 351 353 353 353 354 355 353 356 356 358 359 359 360 360 360
282 283 282 284 295 301 305 303 296 300 302 306 306 305 303 306 306 306 307 308 311 312 308 307 309 309 306 308 311 314 321 327 329 333 338 340 342 344 346 349 351 353 353 353 352 351 350 353 355 355 354 354 354 354 354 359 359 360 362 361 362 360 360
289 288 292 297 301 306 304 304 302 303 305 307 307 305 305 304 306 310 309 309 311 313 311 310 310 307 306 308 311 313 319 324 327 329 333 338 340 342 343 345 349 352 353 354 353 353 354 355 357 356 357 355 355 354 359 362 359 359 360 360 360 359 358
296 297 298 300 301 304 304 304 305 305 304 306 306 305 304 305 308 310 308 309 310 310 312 310 310 308 306 307 309 311 315 321 325 328 331 335 340 341 343 345 347 349 351 354 355 354 356 357 356 357 358 359 356 359 364 363 362 362 360 360 360 359 359
290 287 297 297 296 298 304 303 305 307 307 306 307 306 306 306 309 310 308 308 308 308 311 310 309 308 306 307 309 310 311 316 321 324 328 332 336 339 340 343 347 347 350 349 350 352 352 357 360 360 361 362 365 365 363 365 363 363 362 361 359 360 360
288 291 295 296 298 299 304 302 300 304 307 308 308 308 309 307 308 309 309 309 308 309 307 308 307 308 308 307 308 308 310 314 319 322 326 330 334 339 342 344 346 346 347 347 348 349 349 352 357 359 361 362 364 365 366 367 365 365 364 361 358 359 359
293 295 296 297 299 302 302 299 300 301 302 303 304 307 308 307 306 306 309 310 309 307 308 309 307 307 308 309 310 309 309 312 317 322 325 330 333 337 340 344 345 344 346 346 347 347 348 351 353 355 357 359 361 363 365 366 367 364 364 363 363 364 363
288 290 293 296 290 291 299 301 301 301 303 304 303 304 307 306 305 306 307 308 310 310 310 309 308 306 308 310 312 310 309 312 318 324 326 329 333 337 341 345 345 345 346 346 346 345 347 350 352 353 354 356 359 361 365 367 366 363 363 362 362 363 364
288 295 297 298 297 297 298 299 301 302 303 303 302 302 304 307 307 307 307 306 307 308 308 310 308 308 309 311 312 311 310 313 321 326 327 329 332 335 339 342 344 345 346 346 348 346 347 350 350 351 352 354 357 358 361 366 369 368 365 361 360 360 361
296 298 298 299 297 295 298 301 303 302 303 302 301 302 303 306 308 308 308 308 307 307 309 310 310 309 310 312 312 311 311 314 322 327 329 330 331 334 336 337 340 342 344 345 345 346 349 349 350 351 350 351 354 355 359 362 367 369 368 365 362 360 360
295 300 301 301 300 301 302 303 303 303 304 304 302 301 302 304 308 309 308 308 309 309 308 308 310 312 311 313 311 311 311 313 322 327 329 330 329 330 331 334 334 338 342 346 347 347 348 350 350 350 350 350 352 353 357 358 362 365 367 367 366 365 364

ECMWFFLT2_sfc_thetae_084.txt.gz
Theta_e
309 309 311 310 311 299 305 306 300 303 309 306 302 303 304 304 302 299 306 304 306 311 311 314 315 314 316 317 317 317 319 321 325 324 327 335 336 339 342 344 346 349 350 351 351 353 353 354 355 355 357 358 360 360 361 362 364 364 364 364 362 362 363
309 311 311 311 312 311 308 301 305 310 311 309 304 296 300 298 295 298 303 301 303 303 299 311 311 311 312 314 316 317 319 320 321 322 325 331 335 337 342 346 348 349 350 351 351 352 353 354 354 356 358 360 361 361 362 362 363 363 364 363 362 363 363
308 309 309 307 311 313 307 307 314 304 298 298 304 302 294 294 293 296 299 301 302 304 304 310 309 309 310 313 315 316 317 319 321 323 326 331 334 336 341 343 346 347 348 350 351 351 352 354 357 357 358 359 359 361 362 362 362 363 363 361 363 363 364
307 308 307 299 303 309 311 312 309 312 307 303 300 302 303 302 296 297 298 300 299 306 307 309 310 312 312 312 313 315 317 318 320 323 327 331 333 335 339 343 345 346 348 349 350 350 351 353 354 356 357 357 357 359 361 362 363 364 364 363 364 363 364
305 299 304 301 304 302 304 304 303 306 306 310 308 307 302 299 298 298 298 297 302 308 312 311 312 313 315 314 315 317 318 320 320 323 327 330 334 337 339 342 344 346 347 348 349 351 351 353 355 355 355 355 356 358 360 361 361 362 362 363 363 364 364
299 301 307 306 306 307 306 304 302 305 303 301 298 297 306 303 299 295 298 297 307 311 314 312 312 314 314 316 316 317 318 319 323 324 328 330 334 339 341 342 343 345 347 348 349 351 351 351 352 353 353 354 356 357 358 359 359 360 360 362 363 365 365
300 304 305 307 306 306 305 307 305 307 307 306 302 294 300 304 303 304 303 300 304 314 315 315 314 315 315 316 316 315 316 319 320 323 324 330 337 340 340 342 343 345 347 348 348 350 350 350 351 352 353 353 354 356 357 358 357 358 359 361 363 365 365
302 304 306 306 306 305 304 306 307 306 303 306 305 304 306 303 304 301 301 298 303 313 317 316 316 318 317 320 318 319 319 319 320 322 324 328 335 342 341 342 342 345 347 349 350 350 349 350 352 352 352 353 354 355 355 356 356 357 359 360 361 364 365
296 299 303 303 306 306 304 304 306 306 305 305 305 305 307 302 304 304 301 295 302 312 317 318 316 315 315 316 318 319 318 319 319 321 325 332 339 343 342 343 344 346 346 348 349 349 351 351 350 352 352 352 353 353 354 354 355 357 358 360 360 363 364
287 287 289 293 297 300 303 305 302 303 303 304 302 299 303 296 304 305 302 303 310 314 317 316 317 316 317 318 318 319 320 321 320 320 321 334 337 342 344 344 344 345 348 350 351 352 352 350 350 353 353 352 352 353 354 355 355 356 358 359 360 361 362
292 294 294 296 298 299 299 300 301 301 302 303 304 305 302 299 303 302 305 306 308 311 312 314 314 316 316 321 324 322 321 323 325 330 333 332 337 340 340 342 343 348 350 350 351 353 351 350 350 351 352 351 351 353 354 354 356 357 358 359 360 361 362
295 296 295 296 296 294 296 297 298 300 300 302 302 301 300 308 304 298 307 310 306 308 311 313 315 318 322 323 325 324 324 323 322 322 328 338 328 336 340 342 343 345 348 350 352 352 351 350 351 351 352 351 352 353 353 354 355 356 357 359 359 360 361
295 296 295 296 296 296 297 297 297 298 300 300 300 302 305 305 301 300 308 310 308 310 312 314 315 319 323 322 326 325 327 330 331 331 327 323 322 327 335 343 345 346 346 351 353 353 351 351 350 351 351 352 353 354 355 355 355 356 358 358 359 360 361
294 295 296 297 295 296 296 297 298 299 300 300 301 301 303 303 304 306 306 308 308 310 312 315 322 325 325 325 327 327 326 331 337 336 333 327 326 325 324 339 343 348 349 351 354 355 354 351 351 350 351 352 352 352 352 353 355 356 358 359 359 360 360
291 293 296 296 296 295 294 296 298 299 300 300 301 301 302 303 303 305 306 307 308 312 318 324 326 326 326 325 324 327 328 333 337 336 333 335 338 341 341 338 337 347 350 351 355 356 355 352 351 350 351 352 352 351 352 353 354 356 357 359 359 359 361
289 293 294 295 296 296 295 295 297 298 298 298 300 300 303 302 303 308 309 308 308 312 324 323 323 324 324 323 325 326 328 336 339 337 336 338 344 345 348 352 350 341 344 349 352 354 353 352 351 351 353 352 352 351 352 353 353 355 356 358 359 361 362
288 293 294 294 294 294 292 294 297 299 300 301 303 304 314 312 313 307 306 308 319 319 320 319 320 322 322 324 327 331 332 336 336 338 339 341 343 345 349 351 353 352 344 340 351 352 352 351 351 351 353 352 352 352 354 354 355 354 355 357 360 362 363
288 292 293 295 291 286 288 303 306 304 301 301 300 303 311 312 313 311 315 316 318 318 317 317 319 320 323 325 328 331 333 335 338 339 342 343 345 346 349 351 351 354 355 348 341 351 353 353 351 352 355 352 353 354 354 356 355 355 357 358 361 361 363
287 291 292 288 284 287 300 307 308 308 307 306 304 311 310 310 313 313 314 315 316 316 317 318 320 322 324 327 328 330 333 339 340 341 341 343 345 347 349 351 352 356 357 355 345 344 350 350 352 352 353 353 354 354 355 354 355 356 357 360 362 363 363
291 289 288 280 284 299 302 305 307 310 311 311 311 306 308 310 311 313 313 314 315 316 317 318 320 321 323 326 329 332 336 340 337 338 339 342 344 346 349 352 354 356 355 352 345 340 350 351 349 350 352 353 353 353 354 353 354 356 358 360 361 363 363
285 287 288 288 296 295 298 303 305 308 305 308 307 301 303 309 311 311 310 312 313 315 316 317 318 320 323 325 329 337 332 329 329 328 330 338 344 348 351 353 354 356 354 351 346 345 348 351 348 350 353 353 353 352 352 353 355 354 356 359 361 363 362
291 286 285 287 287 284 292 304 307 310 309 310 310 308 302 308 310 311 311 310 311 312 312 313 315 320 324 322 326 330 324 323 323 325 327 337 346 349 351 355 355 352 348 347 348 346 349 350 349 350 353 352 353 352 351 352 353 354 356 358 361 363 362
289 287 284 283 282 288 302 304 306 310 310 311 312 307 300 305 309 311 310 308 309 309 310 311 314 318 319 320 322 319 317 317 320 320 324 336 347 350 352 353 350 345 347 349 348 350 352 348 349 353 354 352 351 352 353 352 354 354 356 359 361 362 362
288 287 285 283 289 288 299 303 306 310 311 308 308 295 294 303 309 309 309 307 307 308 311 311 311 308 307 307 311 313 314 316 317 319 326 339 348 350 353 355 351 348 352 352 348 349 349 350 351 353 352 352 353 353 353 353 353 355 358 360 364 365 364
287 286 287 289 291 298 302 304 307 310 312 309 296 290 298 306 309 309 309 308 308 309 309 310 307 308 309 310 311 313 313 313 315 318 328 343 348 350 352 353 356 350 351 350 349 349 350 353 352 353 352 353 354 356 356 355 355 356 360 364 366 366 365
286 287 285 286 291 299 307 307 308 312 306 294 293 302 308 309 309 310 309 308 308 308 309 309 308 308 309 311 311 311 311 312 315 318 328 341 347 350 354 355 354 351 350 350 350 348 353 353 353 354 355 355 355 357 356 355 357 359 362 365 366 366 364
290 288 286 285 281 296 306 306 305 308 300 300 302 306 308 310 309 309 309 308 308 308 308 308 309 309 308 309 311 311 312 314 315 316 325 336 344 347 349 353 355 352 349 348 347 350 352 353 353 355 356 356 358 358 356 359 360 362 363 365 366 366 365
286 285 284 285 293 303 306 305 299 303 305 307 307 307 307 309 310 310 309 309 310 310 309 308 308 308 307 309 310 311 312 314 315 316 324 335 343 347 349 349 354 353 354 350 349 351 354 356 357 357 358 357 359 359 359 363 362 362 366 367 368 365 364
291 289 292 298 301 304 304 305 305 305 307 308 309 308 307 308 308 311 312 308 308 310 309 310 309 307 308 308 309 309 310 312 315 316 323 333 338 344 347 350 352 355 355 357 351 352 356 358 358 359 360 360 362 360 363 364 362 364 367 367 365 364 363
298 299 301 302 302 302 302 304 307 307 306 308 309 308 308 309 309 310 308 308 309 310 312 309 310 309 309 309 309 310 312 314 316 317 325 333 337 343 348 351 353 353 355 358 359 356 356 358 359 361 362 364 363 362 365 366 365 367 367 365 365 364 363
292 288 301 301 300 300 301 303 307 308 310 309 309 309 309 310 309 310 309 309 310 311 311 310 309 309 310 310 311 312 312 314 314 315 325 331 336 341 344 347 352 354 353 354 356 357 358 361 362 362 363 363 365 365 367 367 364 368 367 366 363 363 363
292 294 300 301 302 302 302 304 305 305 305 305 306 307 310 311 311 311 311 310 309 311 310 311 310 310 311 309 310 311 312 314 314 316 326 330 334 339 344 346 347 350 352 352 353 355 358 361 360 360 361 362 364 366 368 366 366 368 365 365 363 363 362
297 299 298 299 300 301 302 303 304 304 304 305 307 308 308 308 309 310 312 312 310 310 310 312 311 310 310 311 312 313 313 313 314 316 326 329 332 336 340 343 345 346 348 350 352 352 354 359 361 362 363 365 367 369 366 365 366 365 363 365 363 364 363
291 292 296 298 292 293 302 303 303 305 308 307 305 306 307 307 307 309 309 311 311 310 311 311 312 311 310 312 313 313 314 314 314 317 326 329 330 333 337 340 342 345 347 349 351 353 355 357 358 359 362 364 366 367 368 366 367 365 365 363 362 363 363
290 297 300 301 300 299 300 302 305 306 308 308 307 306 305 306 307 308 308 309 310 308 309 312 311 311 311 312 313 313 315 315 316 319 327 328 329 330 333 335 337 341 345 346 347 349 352 357 358 359 360 362 364 367 369 370 369 367 367 363 360 361 362
298 300 300 302 301 299 302 305 307 308 310 308 306 308 307 306 306 306 307 309 310 309 310 311 313 312 313 313 314 313 314 316 317 322 328 328 327 330 332 333 335 338 342 344 345 346 349 352 356 359 358 360 363 364 368 370 369 368 367 362 358 359 361
297 302 303 303 303 304 305 306 307 309 310 309 307 308 308 307 307 307 308 309 312 311 308 308 312 313 313 314 313 314 314 316 316 322 324 325 325 327 330 331 331 334 339 345 345 346 348 349 351 353 355 357 361 361 365 368 370 370 368 365 364 365 367

ECMWFFLT2_sfc_thetae_087.txt.gz
Theta_e
309 311 313 311 312 300 307 308 302 305 311 307 303 305 307 306 303 300 308 305 306 312 313 315 316 317 318 321 323 324 326 329 332 331 333 335 337 339 340 340 345 352 353 354 354 355 355 357 357 356 359 360 361 361 363 365 366 367 367 367 366 367 368
310 313 314 313 312 311 309 303 306 312 313 310 305 298 303 302 298 300 305 303 305 304 301 314 314 314 316 318 320 322 325 327 327 328 332 336 338 339 342 345 348 352 353 354 354 355 356 357 358 358 360 361 361 362 364 364 366 365 366 367 366 366 367
309 312 311 310 312 313 307 307 314 304 299 298 304 302 295 297 296 300 303 305 306 306 306 310 311 312 314 317 319 320 321 323 324 326 328 332 336 340 340 340 343 349 352 353 354 354 356 357 360 360 359 360 361 362 364 364 365 365 365 365 366 366 367
308 309 308 300 304 311 312 312 309 312 308 303 300 302 304 304 298 298 299 304 301 310 311 312 311 313 315 315 316 317 319 320 322 324 325 327 330 335 338 339 343 347 351 353 353 354 354 356 358 359 359 360 359 361 363 364 365 367 367 365 366 365 365
306 300 304 302 304 303 304 305 305 307 307 310 308 307 303 301 300 300 300 298 303 310 314 314 315 316 316 316 315 317 318 320 321 322 323 326 328 331 336 339 342 347 350 352 354 354 354 356 358 359 358 358 359 361 362 364 364 364 365 364 364 365 364
300 301 308 308 308 308 307 305 304 307 305 303 299 299 307 304 301 297 300 300 309 313 315 314 315 317 317 318 317 316 318 318 321 322 324 326 327 330 334 337 340 341 343 350 353 354 354 354 356 356 357 358 359 360 361 363 363 363 363 363 365 365 365
300 304 307 310 310 310 309 308 305 308 308 307 303 295 301 305 304 306 305 302 307 316 318 318 316 317 317 318 318 318 318 319 320 321 323 327 330 330 331 334 337 341 345 347 352 354 354 354 355 357 357 357 358 359 360 362 362 363 363 363 364 366 365
303 305 308 308 309 308 306 307 308 306 304 306 305 305 307 304 305 302 302 300 305 314 320 318 318 319 318 320 318 319 319 320 322 323 324 327 329 333 334 335 336 341 341 348 354 354 354 354 356 357 357 357 358 359 360 361 361 363 362 363 363 365 364
296 299 302 303 307 307 304 304 306 307 308 308 308 308 310 304 305 306 301 297 303 314 318 320 318 317 316 317 318 320 320 321 320 323 325 328 333 334 333 336 337 339 340 346 352 355 357 355 354 357 357 357 358 358 359 360 361 362 362 363 362 364 364
288 288 289 293 298 301 303 305 306 307 306 306 304 300 304 298 305 308 304 303 309 315 317 316 316 316 317 318 319 319 321 322 321 322 323 330 336 339 337 337 337 337 346 351 357 358 358 354 354 358 359 357 357 358 359 361 360 361 361 361 362 364 363
292 296 298 301 301 300 299 302 304 305 307 308 306 305 302 300 305 304 308 309 310 311 314 315 316 317 315 320 325 323 324 325 326 329 329 328 334 339 338 342 344 347 355 355 355 358 354 354 354 356 356 357 357 358 359 360 361 362 362 361 363 364 363
297 298 299 301 299 296 299 299 300 303 305 306 304 302 301 308 304 299 309 312 309 310 313 316 319 324 325 325 326 325 325 327 327 326 327 337 330 335 336 338 340 343 351 355 356 357 356 354 354 355 356 356 356 358 358 360 361 360 360 361 362 364 363
297 298 299 300 299 299 299 300 301 299 303 304 303 304 306 308 303 301 309 312 310 312 314 316 322 325 324 324 324 326 326 327 333 336 332 327 324 328 330 340 342 344 345 355 356 355 355 355 354 354 354 356 358 359 359 360 360 360 361 361 362 363 364
296 297 298 298 298 299 299 300 301 301 300 303 305 304 306 306 307 308 309 311 311 314 315 316 322 324 325 324 325 326 327 325 329 331 333 328 329 328 330 337 341 344 346 351 356 357 359 356 355 352 354 357 356 356 357 358 359 360 361 362 363 363 363
293 296 297 297 297 297 296 299 300 301 301 302 303 304 305 307 306 307 307 308 308 315 319 319 322 326 324 324 323 323 324 325 329 330 330 331 331 333 335 338 338 343 348 349 353 357 359 358 355 354 355 357 356 355 356 357 358 359 360 363 362 362 365
290 294 294 296 298 297 295 296 298 300 300 299 301 301 305 305 305 306 306 306 307 313 317 318 323 324 323 323 325 325 326 326 326 324 323 325 330 333 335 338 342 344 343 345 350 353 355 356 356 355 358 355 356 355 355 356 356 357 359 360 361 365 366
289 293 296 295 295 295 292 293 296 300 301 303 304 305 307 307 308 305 303 304 311 314 324 321 321 323 323 325 325 325 326 329 326 326 327 331 332 336 339 340 343 341 339 341 345 349 355 356 354 354 355 354 356 357 357 357 358 357 358 359 362 366 367
289 293 294 295 292 286 288 301 304 303 302 303 301 302 304 307 307 306 309 311 317 321 321 320 320 321 322 325 326 328 328 327 329 335 338 338 340 340 343 344 344 346 343 344 348 353 354 356 357 356 357 354 357 357 357 358 358 359 360 360 363 364 367
288 292 293 289 284 287 299 303 305 306 306 305 303 305 306 309 310 311 311 313 315 318 319 321 321 323 324 325 325 326 329 333 333 332 332 333 334 336 339 342 345 349 354 357 357 358 356 351 353 358 355 354 357 357 357 356 358 361 359 362 365 365 366
291 289 289 281 284 296 300 303 306 308 306 306 305 308 313 314 314 316 315 315 315 318 319 319 322 322 323 324 326 329 329 328 327 326 327 329 330 332 336 340 344 349 352 355 357 359 362 361 355 353 356 355 354 355 356 356 357 358 360 364 362 365 366
285 287 287 288 295 294 297 299 302 305 304 304 303 298 308 315 315 315 315 316 317 317 317 319 320 322 321 321 324 327 325 323 324 324 325 327 329 332 335 338 342 349 354 356 359 362 361 359 357 351 354 356 354 354 354 354 356 356 357 360 362 365 365
290 286 286 288 287 285 292 304 307 311 311 310 312 307 302 313 315 315 315 315 315 315 317 319 320 321 320 316 319 320 321 321 322 323 324 327 329 331 333 337 342 349 354 357 360 359 356 354 354 352 352 356 354 355 354 354 355 355 356 358 363 366 365
290 287 284 285 283 288 304 305 307 311 311 312 310 304 299 311 314 315 315 314 314 315 315 317 320 318 313 313 321 315 318 319 321 321 323 325 327 330 332 335 339 348 354 357 358 359 355 350 352 352 352 356 354 354 354 353 354 355 356 359 362 364 365
292 289 286 284 290 289 302 304 306 309 312 310 306 294 294 310 312 314 315 312 312 315 316 316 318 315 311 312 313 315 316 318 319 320 321 322 325 328 331 336 343 352 356 356 355 354 351 353 353 352 349 354 356 355 354 353 354 355 357 361 365 368 368
290 289 288 290 291 298 301 302 308 308 312 307 297 290 301 309 313 313 314 313 313 315 316 315 314 316 314 312 314 316 316 316 316 319 321 323 325 328 330 336 344 350 353 354 354 354 354 357 352 351 350 354 358 361 359 358 356 356 361 365 368 370 370
290 291 288 287 292 302 304 306 308 309 303 295 293 305 308 311 311 311 312 312 313 315 315 315 316 315 313 314 315 314 314 313 315 317 319 322 324 328 332 338 344 350 352 353 354 355 357 354 352 352 358 360 361 364 361 357 360 358 363 367 368 370 370
292 292 290 287 282 298 307 307 304 306 298 301 306 308 310 312 312 310 310 311 312 313 313 313 314 314 313 314 313 313 313 312 313 315 317 319 321 323 328 337 345 349 351 352 352 354 354 352 354 356 356 363 365 363 360 361 360 363 363 365 368 370 370
286 287 286 287 295 303 308 307 300 307 309 310 312 309 309 310 310 310 309 309 310 312 312 312 313 313 313 313 313 313 313 312 313 315 317 318 320 323 328 337 346 351 353 353 353 355 354 356 358 357 359 364 364 361 361 366 363 364 367 367 370 369 368
292 290 294 300 302 306 307 309 309 310 310 311 311 310 309 309 310 311 309 309 310 311 311 312 312 311 312 312 313 312 311 312 313 314 315 317 318 321 329 336 344 351 355 355 356 355 355 359 360 361 360 363 363 362 364 368 369 365 367 368 368 368 366
300 301 301 301 302 303 306 308 311 311 311 311 311 310 308 310 312 311 309 311 312 312 313 312 312 312 312 312 313 312 312 313 314 316 316 317 320 324 330 336 342 348 355 356 357 357 357 360 360 361 363 361 362 363 365 368 368 368 368 369 369 368 366
295 289 301 300 300 304 305 306 309 311 313 311 311 310 309 309 311 312 312 313 312 312 312 312 312 313 313 312 313 313 313 313 315 315 315 317 320 325 328 333 339 346 355 354 354 356 354 358 360 359 360 361 365 367 368 366 365 369 370 370 367 368 366
293 292 299 302 304 306 306 306 306 307 310 309 309 310 311 311 312 312 312 312 312 313 311 312 312 313 314 313 312 312 312 314 315 315 316 317 321 327 329 333 337 343 353 355 355 356 356 359 360 359 360 361 364 365 366 365 365 370 369 369 367 367 365
295 299 302 302 302 303 305 307 308 308 309 308 308 309 309 310 310 311 312 313 311 311 312 312 312 312 314 314 314 313 313 314 315 315 316 319 324 326 327 332 336 338 348 351 354 355 357 361 361 360 361 361 364 365 367 367 369 368 367 367 368 368 366
291 294 297 300 294 296 301 304 309 310 310 309 308 308 309 309 310 311 311 312 313 312 311 313 312 312 313 315 314 313 314 315 315 316 317 320 324 324 328 331 334 337 345 350 352 354 356 358 361 360 362 363 366 364 366 367 368 369 368 367 367 366 365
289 296 299 301 299 298 301 304 307 308 309 308 307 307 309 310 310 311 311 311 311 311 311 313 312 312 313 314 315 314 315 315 315 317 318 320 321 324 327 328 330 333 344 347 349 352 355 357 359 362 364 366 367 366 367 366 367 368 368 364 364 365 364
294 297 299 300 300 299 304 306 309 308 309 308 307 309 310 310 311 311 311 312 310 310 311 312 314 312 313 314 314 315 316 317 317 316 317 319 322 325 327 326 328 333 342 343 344 347 352 354 359 361 359 362 364 365 368 368 368 368 368 364 362 362 363
293 301 303 303 303 303 307 309 310 309 309 309 308 310 310 310 311 311 311 311 312 311 311 311 314 314 313 313 315 316 316 317 319 319 317 319 320 324 324 325 326 334 337 339 339 341 346 351 352 354 356 359 363 365 368 368 368 366 366 366 363 363 365

ECMWFFLT2_sfc_thetae_093.txt.gz
Theta_e
303 302 306 308 308 293 300 301 296 299 303 300 296 298 300 298 295 291 301 298 299 303 303 304 307 307 307 308 311 322 330 331 332 332 333 333 333 334 336 339 340 342 344 344 344 344 345 345 346 346 347 348 350 352 353 353 353 354 352 354 354 353 352
301 305 305 305 308 306 301 295 298 305 305 303 299 290 294 292 288 292 298 295 293 295 291 304 303 304 306 307 309 319 329 330 331 331 332 333 333 334 336 339 341 343 344 344 344 345 346 346 346 347 348 348 351 354 354 354 354 354 353 354 354 353 352
301 303 304 303 307 309 302 300 308 300 292 292 296 297 288 287 288 290 295 298 298 296 297 301 302 303 304 306 308 321 327 330 330 331 332 333 334 334 336 338 340 343 343 344 344 345 346 347 348 348 349 350 351 354 356 356 355 356 355 355 355 355 353
300 300 299 294 298 306 308 307 303 306 301 298 294 296 296 296 289 293 291 296 293 301 300 302 302 304 305 306 307 313 328 330 330 330 331 332 333 335 338 339 341 342 343 344 344 345 345 347 349 349 350 350 351 354 356 357 357 357 356 355 356 354 354
298 291 297 295 296 295 298 299 298 300 301 304 301 302 296 292 292 290 290 290 296 302 307 305 305 306 307 307 308 310 328 331 331 331 332 332 335 337 338 340 341 342 343 343 344 345 346 348 350 350 350 350 351 353 356 357 357 357 356 356 356 356 355
292 294 299 300 299 299 297 297 296 298 297 295 292 291 302 298 292 288 291 290 300 306 313 314 308 308 309 310 310 311 328 331 331 332 332 334 335 337 338 339 341 342 342 344 345 346 347 347 348 349 350 350 351 352 355 357 358 357 357 356 356 356 356
292 296 299 302 302 302 301 299 298 302 300 299 295 286 292 297 297 300 297 293 296 309 312 313 311 310 310 310 311 312 324 331 332 332 332 335 336 337 338 339 341 341 342 343 345 345 345 346 348 350 350 350 350 352 355 357 357 358 358 358 357 357 357
297 299 301 301 302 301 298 300 302 301 298 299 296 296 297 295 297 294 294 293 296 306 312 316 314 313 312 312 312 311 313 327 331 331 332 332 334 337 338 339 341 342 342 344 344 344 345 345 347 349 350 350 350 351 355 357 357 358 359 359 359 358 357
289 292 295 296 300 300 297 295 299 301 302 302 300 299 298 294 299 296 293 288 295 308 319 319 319 318 317 314 312 314 315 315 330 329 332 332 333 336 336 337 338 340 341 341 343 345 345 345 347 349 351 351 351 351 352 356 358 359 360 360 359 359 358
280 281 282 286 289 293 295 298 298 299 300 300 296 291 292 288 296 296 296 294 299 310 317 317 318 319 319 321 322 322 321 320 322 328 332 330 332 335 335 336 337 338 339 340 342 344 345 345 346 347 349 350 351 352 352 354 358 360 360 361 360 359 359
283 286 289 294 296 293 290 293 294 295 297 299 299 298 293 289 293 293 297 302 301 309 313 314 316 317 317 319 320 320 319 320 321 326 332 331 331 333 335 336 337 337 337 339 342 344 344 345 345 346 347 348 350 351 352 354 357 359 360 360 360 359 359
289 290 290 292 294 290 292 292 293 295 295 297 296 293 291 296 293 288 300 301 300 307 311 312 314 318 319 319 319 319 320 321 322 329 332 339 335 337 339 337 336 336 337 339 340 343 344 344 344 345 348 350 350 351 352 354 357 359 360 360 359 359 359
291 292 292 293 292 292 292 292 293 292 294 295 292 295 296 296 291 290 297 300 300 303 314 314 314 318 319 319 319 322 325 326 328 328 327 328 330 332 335 338 343 343 340 340 341 343 344 344 343 343 346 349 352 353 354 354 356 358 360 359 359 359 359
291 291 292 293 292 292 292 292 293 293 293 294 294 296 297 296 295 297 298 300 301 307 315 316 318 320 320 320 324 326 325 324 325 325 325 326 327 328 330 333 337 340 342 343 344 345 345 345 346 345 348 349 352 353 353 355 355 358 360 359 359 359 358
288 291 292 293 292 292 290 292 293 293 294 294 295 296 296 299 297 300 301 301 304 317 318 319 322 320 321 323 322 322 322 322 323 322 322 323 325 326 328 330 332 333 336 340 343 343 344 344 344 343 342 343 346 351 354 355 355 357 360 359 359 359 358
285 290 291 291 292 292 291 290 292 292 292 291 294 294 296 295 294 297 298 298 304 314 319 320 319 321 319 317 317 318 319 320 321 320 320 321 323 324 326 328 330 332 334 334 337 342 345 341 342 344 346 348 347 345 345 352 356 357 359 359 359 359 359
284 289 291 290 290 289 286 288 291 293 294 295 296 296 298 298 298 295 294 300 313 317 319 316 316 319 320 315 314 314 316 317 318 318 319 320 321 323 325 326 330 333 333 334 334 337 341 345 342 343 344 348 347 347 346 345 352 356 358 360 359 359 360
284 288 289 290 286 279 281 294 297 296 294 295 294 294 296 298 299 298 306 307 312 314 314 314 315 314 313 316 313 315 314 314 315 317 318 319 321 322 324 325 327 330 332 334 335 337 339 341 346 346 344 344 346 349 351 350 349 354 356 359 359 359 359
284 287 288 284 279 281 293 297 298 298 300 304 303 303 301 300 303 308 310 313 311 312 315 317 317 316 314 314 314 314 315 315 315 316 317 318 320 321 322 323 326 327 329 331 332 334 337 340 344 347 352 348 348 350 352 349 350 352 354 356 359 359 359
288 285 283 276 279 291 295 296 297 304 303 304 304 302 306 310 311 310 309 311 314 314 314 315 317 320 315 314 314 314 315 316 316 316 316 318 319 319 321 323 324 326 328 329 331 333 338 339 341 345 348 352 352 347 352 353 353 354 354 354 357 358 359
281 284 283 283 290 289 291 292 297 299 297 299 300 294 300 309 311 310 310 311 312 315 313 314 315 316 317 312 311 315 315 315 316 316 317 318 319 320 321 323 324 326 327 328 331 334 336 338 341 344 348 352 353 353 352 344 352 353 354 354 356 358 359
288 283 281 282 281 279 286 295 305 306 304 304 307 300 296 308 309 310 311 311 310 311 312 313 315 318 314 306 307 312 314 314 314 316 317 318 319 320 321 322 323 324 325 328 332 335 337 339 343 346 350 353 353 353 352 351 349 352 353 353 356 358 359
287 284 281 280 278 283 292 295 300 304 304 304 304 297 292 305 308 310 310 308 309 310 310 312 313 310 306 304 307 311 313 313 314 315 315 317 318 319 319 320 320 321 324 328 332 334 334 335 338 341 344 348 351 352 353 352 351 347 351 352 354 358 359
286 285 282 280 285 283 294 298 300 302 304 304 300 286 288 304 308 310 309 307 307 308 310 311 309 305 302 304 307 312 314 314 314 314 314 315 315 316 317 319 320 322 326 327 327 328 329 332 337 339 342 344 348 351 353 353 352 350 348 352 354 357 361
286 286 284 286 287 295 300 300 300 304 305 300 287 283 295 305 308 309 309 309 308 308 308 308 305 308 309 311 314 315 314 313 314 315 315 316 315 314 316 317 322 321 323 324 325 327 329 332 335 338 340 342 344 348 352 353 352 352 352 352 354 356 361
284 285 283 283 288 297 301 301 303 305 301 286 284 300 306 307 307 309 310 309 310 308 307 308 308 310 312 314 314 313 313 313 314 314 315 313 313 315 317 319 319 319 320 321 323 326 328 330 333 336 338 339 342 346 350 352 354 354 353 352 353 355 360
287 286 283 281 278 294 301 300 298 303 293 294 302 304 307 308 307 307 309 310 310 310 308 309 309 310 311 311 311 312 314 314 313 314 314 311 312 312 313 315 317 319 318 320 322 324 327 329 331 333 335 336 339 344 348 353 357 357 354 352 354 356 360
283 283 281 282 294 295 301 299 291 297 300 304 306 308 305 307 308 308 308 309 310 312 310 310 310 311 310 311 310 311 313 313 313 314 315 314 314 314 315 315 317 319 318 321 322 324 326 328 329 332 334 335 338 342 347 355 358 359 357 355 355 356 358
289 287 290 296 298 301 302 302 300 301 303 308 310 309 309 307 308 310 308 309 310 310 311 310 310 309 311 310 310 309 311 313 313 313 314 314 314 315 314 314 317 319 319 320 322 323 325 326 328 332 336 338 340 343 350 357 358 359 357 356 355 356 358
297 298 298 299 300 299 298 300 302 301 302 305 308 310 307 308 308 309 308 309 309 310 311 309 309 309 309 309 309 310 311 311 312 315 315 315 316 317 315 314 316 318 320 321 321 322 323 326 329 333 336 339 344 351 358 360 361 360 359 356 355 356 358
290 286 298 297 296 296 297 297 300 303 304 303 304 306 306 306 307 308 309 309 309 309 309 308 308 308 309 308 309 311 311 310 311 313 314 315 316 316 315 314 317 318 320 320 321 322 323 325 329 332 333 336 340 349 357 360 360 361 360 357 356 356 357
288 289 294 296 296 296 299 299 298 297 299 301 302 304 306 307 308 308 308 309 309 309 308 308 308 308 309 308 308 309 309 310 311 312 314 315 316 317 316 315 318 319 320 319 320 322 323 325 329 332 333 334 339 347 358 364 363 361 359 357 357 356 358
291 294 295 295 295 296 297 298 298 299 299 299 300 302 304 306 307 307 308 309 309 309 308 309 309 308 308 309 309 309 310 310 311 312 313 314 316 316 314 314 318 319 319 319 320 322 324 327 329 329 330 333 338 344 351 359 364 361 358 357 357 357 358
286 287 290 293 288 288 293 296 298 299 300 301 301 302 303 304 306 307 307 307 309 309 309 309 309 308 308 310 309 309 310 311 311 311 311 313 316 315 315 315 318 319 319 319 320 322 325 326 328 328 329 331 335 339 343 347 357 362 359 358 357 357 359
286 292 294 295 295 295 296 297 299 300 302 302 302 303 303 305 306 308 307 307 307 307 308 310 310 309 309 309 310 309 310 311 311 311 311 313 315 315 315 315 318 319 317 319 320 322 324 325 326 327 328 329 331 334 338 341 349 359 363 359 357 358 358
294 296 297 299 297 294 297 300 301 302 304 305 304 305 306 306 306 307 308 308 307 307 308 309 310 310 310 310 310 309 311 311 311 310 311 315 315 316 316 317 319 318 316 317 318 321 324 324 324 325 326 328 329 331 333 336 342 353 363 362 358 358 359
293 299 300 301 300 301 302 303 304 305 306 306 304 305 306 306 307 308 307 307 309 309 308 308 310 312 311 311 311 310 310 311 313 314 318 318 318 316 316 319 319 316 315 316 319 323 324 322 323 324 324 326 328 328 330 331 338 351 357 361 361 358 355

ECMWFFLT2_sfc_thetae_096.txt.gz
Theta_e
298 298 300 298 301 290 295 298 294 295 298 298 292 297 297 296 291 288 293 295 296 298 301 303 304 302 304 318 325 326 327 329 330 330 332 333 334 335 336 337 336 336 337 337 338 338 339 340 340 340 340 341 341 342 344 344 344 348 349 350 349 348 349
298 300 300 300 302 301 296 292 295 300 302 299 292 286 288 287 284 286 294 292 291 292 290 300 301 302 303 303 319 326 327 328 328 330 331 333 334 335 336 337 338 338 338 338 338 339 339 340 341 341 341 342 343 343 343 344 345 345 349 350 349 349 348
297 300 301 298 301 302 297 294 302 296 289 291 291 291 286 285 285 285 290 293 294 293 293 298 299 300 302 303 310 323 325 326 327 329 331 333 334 335 335 336 337 338 338 338 338 338 340 340 342 342 343 343 344 344 344 344 345 346 348 351 351 350 350
295 296 296 288 293 299 301 301 297 300 296 294 291 291 289 288 284 288 285 291 290 297 295 299 301 301 302 304 303 320 324 326 328 329 331 332 332 333 334 336 337 339 339 339 339 339 339 339 341 343 343 344 345 346 346 345 346 347 347 350 351 350 350
294 288 292 290 292 291 293 294 293 296 297 299 297 296 294 289 286 284 285 286 291 298 307 311 312 312 309 304 304 316 323 326 329 330 331 332 333 333 334 335 337 339 340 340 340 340 340 341 342 344 344 345 345 347 347 346 345 346 347 348 351 351 351
288 289 296 296 296 295 293 292 292 294 293 291 288 287 296 294 291 284 287 286 292 303 316 314 315 316 315 313 310 315 322 326 328 330 331 332 332 333 334 335 337 339 341 341 342 342 342 341 342 343 344 345 346 347 348 348 347 347 347 348 350 351 351
289 293 296 299 299 300 298 296 294 296 294 293 289 282 288 291 293 296 292 288 293 311 314 315 317 318 318 318 308 314 324 326 329 330 332 333 333 333 334 335 338 340 341 342 342 342 342 342 342 344 344 345 347 348 349 349 348 348 349 349 350 351 351
292 294 297 300 299 298 294 294 296 294 291 292 291 290 293 290 292 287 288 289 291 305 308 314 317 319 322 323 321 319 325 327 329 330 331 332 332 333 334 336 339 340 341 342 342 342 342 342 343 343 345 345 347 349 350 350 350 350 351 351 351 351 351
283 286 293 295 296 295 291 290 293 294 294 294 294 295 295 292 293 292 288 285 291 301 306 313 316 317 321 322 324 325 325 325 326 327 330 332 333 333 334 335 337 339 340 341 341 342 342 342 344 344 345 346 346 348 351 351 351 352 352 353 352 351 351
275 275 279 282 284 287 291 293 292 293 293 292 291 286 289 283 291 292 289 289 296 300 303 306 315 316 319 320 321 323 324 326 328 331 333 333 334 334 334 336 336 337 339 341 341 341 342 343 344 345 345 346 347 348 350 353 353 353 354 354 353 352 352
280 281 285 291 293 290 287 289 290 291 293 294 293 293 288 285 289 288 291 295 294 296 299 302 314 316 317 317 318 318 319 320 324 327 329 329 331 332 333 335 336 337 338 339 341 341 342 343 344 345 346 346 347 348 349 352 354 355 355 355 354 353 353
286 288 288 289 292 289 290 290 290 291 291 292 291 288 285 291 289 283 293 295 293 295 299 304 312 315 315 316 317 317 318 319 320 323 326 331 327 328 329 330 332 334 337 339 339 340 341 343 344 345 347 347 347 348 349 352 354 355 356 355 355 354 353
288 289 290 291 290 290 291 291 291 290 291 291 289 290 291 293 288 286 293 295 294 298 310 315 315 314 313 315 317 317 318 319 319 320 321 323 324 325 326 328 329 330 331 334 338 340 342 344 343 344 346 347 348 348 349 352 354 355 356 356 355 355 354
288 289 290 291 289 289 290 290 292 292 292 291 292 292 292 292 291 293 295 296 295 307 312 316 318 317 313 314 319 318 317 317 317 317 318 320 321 323 325 326 327 329 330 331 332 334 337 340 343 345 345 345 347 348 348 351 354 355 356 356 355 355 354
286 289 291 290 290 289 288 290 292 292 293 293 293 293 293 295 294 297 295 294 299 311 314 318 321 317 316 313 314 316 316 317 317 316 316 317 319 321 323 324 325 327 329 331 332 332 333 335 339 341 345 346 347 348 349 350 353 356 357 356 356 356 355
283 288 289 289 290 289 288 288 290 291 292 292 296 294 296 297 295 294 295 294 300 309 313 315 316 314 314 310 312 314 315 316 317 316 315 316 317 318 319 321 324 325 327 328 330 332 334 335 335 340 342 345 348 349 350 351 351 355 357 357 356 356 357
282 287 289 288 288 286 283 285 289 292 293 297 298 299 304 305 303 295 298 297 306 309 314 310 310 311 312 311 312 314 313 314 316 316 314 315 316 317 318 319 322 323 325 327 328 330 332 335 335 338 340 344 344 347 347 348 352 352 352 355 356 356 357
281 286 288 288 283 277 279 290 294 294 293 296 297 297 305 307 307 303 308 308 311 311 311 309 307 310 311 313 315 315 313 313 314 316 315 315 316 316 317 319 320 321 322 325 328 330 332 336 338 339 341 343 346 346 348 348 348 349 350 351 354 356 357
280 285 286 282 275 278 291 293 295 295 295 299 301 304 304 305 306 306 307 308 309 311 311 312 309 310 312 315 313 314 315 315 313 315 315 315 316 316 316 318 320 321 322 324 327 329 331 336 339 341 342 343 346 347 345 344 346 347 347 348 349 354 357
283 281 280 272 276 287 292 293 295 300 301 302 300 301 302 305 307 306 305 307 307 308 309 311 313 311 312 314 315 313 315 316 314 313 312 312 314 315 316 316 317 320 322 324 326 328 332 332 335 337 338 340 342 344 349 347 347 347 347 347 347 351 356
279 280 279 281 287 287 289 291 295 296 293 295 295 292 298 303 307 308 307 306 307 307 308 309 310 312 313 309 311 316 314 315 315 313 313 315 313 315 317 317 317 319 322 324 326 327 328 329 331 332 336 340 340 340 342 349 349 349 349 347 347 348 353
284 281 278 279 277 277 283 293 299 300 301 301 300 298 297 305 306 309 308 307 306 306 307 307 308 312 308 303 305 313 315 315 315 315 313 313 313 314 315 318 317 318 320 322 324 326 326 327 328 331 333 337 337 339 341 344 348 350 349 349 349 349 351
283 281 278 276 273 279 291 294 298 299 301 302 301 295 293 303 303 307 308 307 308 306 305 306 307 304 300 301 305 309 314 317 315 314 314 312 313 314 314 314 316 317 319 321 323 325 325 325 327 329 332 334 335 336 338 341 343 345 349 351 351 351 351
284 282 278 277 282 281 291 296 297 299 301 303 296 283 286 300 302 307 308 307 307 307 307 307 305 301 298 301 305 310 313 315 318 316 314 313 313 314 315 315 317 318 320 320 321 322 323 324 327 328 329 331 331 333 335 337 339 342 345 350 353 353 354
286 286 280 282 284 294 297 296 298 299 302 299 285 280 292 299 301 306 308 309 310 310 307 307 303 304 305 307 310 312 313 313 314 318 319 315 314 314 315 315 318 316 318 319 320 321 323 324 326 327 328 328 329 332 334 334 336 340 344 348 352 354 353
281 282 280 281 284 293 296 299 299 301 295 282 281 295 300 301 303 307 307 306 311 312 310 308 308 308 310 312 311 310 312 313 312 313 316 317 316 317 318 319 316 315 317 318 320 321 323 324 326 326 327 327 329 331 333 334 336 340 343 346 350 354 355
285 284 281 278 276 289 299 297 296 299 288 289 296 298 301 306 306 306 307 307 308 310 310 310 310 310 310 310 309 309 312 312 312 312 313 314 315 314 315 316 316 316 316 317 319 320 322 324 325 326 327 328 329 331 331 334 338 341 344 348 350 353 355
279 279 278 279 287 293 298 295 289 293 295 297 298 300 299 304 306 306 306 306 308 309 309 308 308 309 309 309 309 308 309 312 313 314 313 314 315 316 316 317 316 316 315 318 319 320 321 323 324 326 327 327 328 329 329 333 335 339 343 348 353 356 356
286 283 286 293 297 296 296 297 295 296 298 299 299 298 298 298 301 304 302 303 305 306 307 308 309 308 309 308 309 307 309 311 311 311 312 313 314 315 316 316 317 315 315 317 317 318 320 322 324 325 326 326 327 326 329 332 334 337 341 346 351 355 357
294 295 295 297 295 294 295 297 298 297 297 298 299 297 296 298 299 300 300 302 304 305 306 305 306 307 308 309 308 307 308 309 310 313 313 313 313 313 316 316 315 314 316 317 316 316 319 322 324 325 325 325 324 326 329 331 333 336 339 341 344 348 353
286 283 294 293 293 294 295 295 298 298 299 298 299 298 298 298 299 300 301 301 303 304 305 305 305 306 309 309 308 308 307 307 308 310 312 313 313 311 314 315 315 314 316 316 315 315 317 321 323 323 323 324 325 327 328 330 332 333 334 336 338 342 347
284 285 291 293 295 295 296 296 295 295 297 298 299 300 300 300 302 302 302 303 302 305 304 305 305 306 308 308 307 307 307 307 308 309 311 312 311 312 315 315 316 314 315 315 314 314 316 320 322 322 322 323 325 326 327 329 330 330 331 332 334 337 342
288 291 292 294 294 295 296 298 298 298 298 298 299 300 301 302 302 303 304 304 304 304 305 305 306 305 306 307 307 308 308 307 307 308 310 311 310 313 315 315 317 314 316 316 314 314 316 319 320 320 320 322 324 325 326 328 328 328 329 330 332 335 342
282 284 288 292 287 288 293 295 297 298 299 300 300 302 302 303 303 303 303 304 305 306 306 306 306 305 306 306 307 308 308 307 307 308 309 309 309 313 315 315 314 315 317 315 313 314 316 319 320 319 319 320 322 324 325 326 326 326 328 329 331 336 344
282 289 292 293 293 293 295 297 299 300 300 301 301 302 302 303 304 304 304 303 304 304 305 307 306 305 306 307 307 307 308 308 309 309 309 308 310 313 315 314 314 316 315 316 314 314 316 320 319 319 319 320 321 323 324 325 325 325 326 328 332 338 346
291 293 293 294 294 293 296 299 300 300 302 302 303 303 304 304 304 304 304 305 304 304 305 306 307 307 306 307 307 306 307 308 308 309 309 309 311 315 316 314 315 315 315 314 313 314 317 319 319 319 319 319 320 322 323 323 324 325 326 328 331 337 344
290 295 295 296 297 298 299 300 301 302 304 305 304 304 304 304 305 307 306 306 307 306 305 305 306 308 307 307 308 307 306 307 310 311 317 320 319 317 315 315 316 315 315 314 314 316 318 318 318 319 318 319 320 321 322 323 324 325 327 329 331 336 343

ECMWFFLT2_sfc_thetae_099.txt.gz
Theta_e
295 295 297 298 298 288 292 293 289 292 296 294 291 296 294 293 288 286 290 292 294 295 300 310 314 315 312 314 322 325 326 328 329 329 331 332 334 335 335 334 334 335 335 335 335 335 336 337 336 334 334 337 339 340 341 340 341 343 344 345 344 345 345
295 297 297 298 298 297 293 287 292 298 298 296 291 286 285 283 283 284 290 291 290 291 292 309 312 313 315 316 315 318 325 326 327 328 330 332 333 335 336 336 336 336 336 336 336 336 336 337 337 335 335 337 339 341 341 341 341 342 344 345 345 345 345
294 297 297 294 296 299 294 292 299 292 286 289 289 289 284 283 283 283 286 292 294 298 299 307 309 310 313 316 318 318 314 323 326 328 330 332 334 335 335 336 335 335 335 336 336 336 337 337 339 337 336 337 339 341 342 342 341 343 344 346 346 346 346
293 293 293 285 290 297 299 299 294 297 292 292 287 290 287 285 282 284 283 287 292 301 301 305 310 312 313 315 316 317 319 317 325 328 329 330 332 334 335 336 336 336 336 336 337 337 337 337 338 338 337 337 338 340 342 342 343 344 345 346 347 345 345
291 287 290 288 289 288 291 291 289 291 290 295 294 292 290 288 283 281 281 285 294 301 304 304 312 314 314 314 314 316 320 318 321 328 329 330 332 333 335 336 336 336 336 337 337 338 338 339 339 339 337 337 338 340 341 343 342 343 344 346 346 346 346
286 288 294 294 294 292 290 289 287 288 287 286 284 284 291 290 286 283 284 283 292 300 303 302 314 315 315 315 315 315 318 322 318 325 329 330 331 333 335 335 337 337 337 337 337 338 338 338 339 339 338 338 338 338 340 342 342 343 344 345 346 346 346
286 289 293 296 296 294 292 292 289 291 289 288 284 278 283 288 289 294 290 285 292 306 302 303 315 316 315 315 315 315 316 319 323 325 327 331 332 333 334 335 337 337 337 337 337 337 337 338 338 339 339 338 338 339 339 341 342 342 344 346 347 347 347
287 292 294 295 295 293 290 291 292 290 288 288 287 285 287 287 288 285 285 286 293 302 303 307 315 316 316 316 316 315 316 317 320 324 325 328 329 332 334 336 336 337 337 337 337 336 337 337 337 339 339 339 339 340 340 340 341 342 343 345 347 347 347
280 283 287 289 292 292 289 288 291 291 291 291 290 291 291 288 289 287 285 281 287 298 302 314 314 314 314 314 315 316 314 315 318 320 324 326 327 330 332 333 334 335 336 336 336 337 337 337 337 339 340 340 340 340 341 341 341 343 343 345 346 347 347
274 275 275 278 282 285 289 292 291 291 290 289 288 283 285 280 288 287 284 284 291 297 301 314 313 312 312 315 315 316 316 315 316 317 320 322 324 326 327 332 335 335 336 339 339 337 337 337 338 338 339 340 341 341 342 343 342 342 343 345 345 346 347
276 278 282 288 292 287 285 288 290 290 291 291 290 288 284 281 285 284 286 290 290 292 296 311 312 310 310 312 313 313 314 315 316 317 318 319 320 322 324 327 329 331 333 335 338 340 340 339 338 339 339 340 341 342 343 344 344 344 344 345 345 345 346
284 285 286 287 291 286 287 287 288 291 290 290 289 286 284 288 285 281 288 292 289 291 299 310 312 310 310 312 312 313 314 314 315 315 317 321 317 319 321 323 325 327 329 331 332 335 341 342 341 340 340 341 341 343 343 345 346 346 346 345 345 345 346
287 287 287 289 288 288 288 288 288 289 290 290 287 289 290 291 285 283 289 291 290 292 304 312 314 311 310 312 313 313 314 315 315 315 314 314 315 316 317 319 321 323 326 328 330 333 334 335 340 342 342 341 342 343 345 346 347 347 348 347 346 346 346
287 287 288 289 287 287 287 288 288 289 290 290 289 291 293 293 289 290 291 291 293 297 309 312 312 314 312 312 314 313 312 313 314 314 314 313 314 314 315 317 318 320 322 325 327 330 332 334 335 338 341 343 343 343 344 346 348 349 349 348 348 347 347
285 287 290 288 287 287 285 286 288 289 290 290 294 294 296 300 294 296 296 293 293 305 310 311 313 313 313 312 310 310 311 311 312 312 312 313 314 314 315 316 317 318 321 323 325 327 329 333 335 336 338 341 345 344 345 347 348 350 351 350 349 349 348
281 285 286 287 287 287 285 284 286 287 289 288 291 291 301 300 297 298 295 293 298 306 310 310 311 311 310 309 309 310 310 310 311 311 311 313 313 313 314 316 317 317 319 321 323 325 327 330 334 336 337 340 343 346 346 347 349 351 352 351 350 350 351
278 284 287 286 285 282 280 284 286 289 291 292 294 295 305 303 302 298 294 297 304 305 309 307 308 309 309 309 310 309 310 310 310 310 311 311 313 314 314 315 317 316 317 320 322 324 326 327 330 333 336 337 340 342 343 345 351 351 351 352 352 351 352
278 283 285 286 280 275 277 287 291 292 292 293 295 299 301 302 304 302 305 304 305 305 305 306 306 307 308 311 312 314 312 309 309 310 311 311 312 314 314 314 316 317 318 319 321 324 325 327 329 330 334 336 339 344 347 346 346 349 351 352 352 352 353
278 281 284 280 274 276 286 291 293 296 297 296 295 301 302 302 302 303 304 305 305 305 306 306 308 309 312 314 313 314 315 313 311 310 311 310 312 313 314 314 315 316 318 318 320 323 325 327 328 329 330 333 336 339 342 346 346 345 346 348 351 352 353
280 279 277 271 274 283 291 292 297 300 298 296 295 295 302 302 301 302 301 303 306 306 306 307 308 311 312 314 315 315 316 316 314 312 311 311 312 312 314 314 315 316 317 319 320 322 327 326 327 328 328 331 333 336 340 341 345 346 345 345 345 348 352
279 277 276 279 284 285 287 290 293 294 291 293 291 286 292 301 301 301 301 303 306 307 308 307 307 309 312 309 311 316 316 316 316 314 314 313 314 314 315 316 316 317 319 320 321 325 325 326 326 327 328 330 331 334 336 338 340 343 346 344 344 346 349
282 280 277 277 275 276 280 291 296 299 299 298 299 292 290 301 300 302 302 302 305 306 308 307 307 307 308 302 305 313 316 316 315 317 316 316 316 315 315 317 316 317 319 321 323 323 324 325 326 328 328 329 330 332 334 335 336 338 341 344 347 348 347
281 280 277 275 272 277 285 290 295 297 298 298 300 292 286 300 298 300 302 303 305 305 306 307 306 302 298 299 304 312 314 317 316 316 316 317 316 316 316 316 316 316 317 319 322 322 322 323 325 327 329 329 330 331 333 333 335 335 337 340 343 345 348
282 279 277 275 280 279 289 294 295 297 298 299 294 281 283 296 297 299 302 304 305 305 307 308 305 301 298 299 304 310 314 316 319 318 315 315 316 317 317 317 318 319 318 319 318 319 320 321 324 325 328 329 330 331 333 334 333 334 335 337 340 342 345
285 285 278 279 282 290 294 294 296 297 300 295 281 278 288 295 297 301 303 305 306 307 306 306 303 305 305 306 308 311 312 314 314 317 318 316 317 317 316 316 321 318 316 316 317 317 318 321 324 325 326 327 328 330 330 330 330 331 333 336 339 342 345
279 281 281 280 281 288 294 295 296 298 294 282 279 290 295 296 298 300 302 304 305 305 304 304 305 306 308 311 310 309 309 312 313 313 315 316 316 317 318 319 319 317 315 315 317 317 317 319 322 325 325 324 326 326 327 327 328 330 332 334 337 341 345
282 280 280 277 275 285 295 295 293 297 286 285 292 294 296 298 297 297 299 300 300 301 300 302 303 304 305 305 307 308 308 309 312 313 313 314 315 314 314 315 318 318 314 313 316 316 316 318 320 323 323 322 323 325 324 325 328 329 331 333 336 340 344
279 278 277 277 283 289 296 293 287 291 293 295 295 294 293 296 296 296 296 297 299 299 299 299 300 302 303 304 306 306 307 308 310 313 314 315 316 316 316 316 318 318 314 315 316 316 316 317 319 322 322 320 322 323 322 325 327 329 330 332 334 337 339
284 281 283 288 293 294 294 295 293 294 296 298 297 296 295 294 295 297 296 297 299 300 300 300 300 300 302 303 305 304 306 308 309 310 311 312 315 315 314 315 319 318 315 314 316 316 315 316 318 320 322 320 320 320 322 325 327 327 328 330 330 332 334
290 293 294 295 294 293 294 296 296 296 297 297 298 296 295 296 297 298 297 298 299 300 301 300 300 301 302 303 304 305 306 307 308 312 312 313 314 313 314 316 318 318 315 316 316 315 314 315 317 320 320 320 318 319 323 325 326 326 326 327 328 329 331
284 280 290 291 292 293 294 294 296 298 298 297 297 296 296 297 298 299 300 300 301 302 302 301 301 301 303 303 304 305 305 306 307 308 309 310 312 312 312 314 318 317 316 316 316 315 313 314 316 319 320 320 320 321 322 323 325 325 325 325 327 328 329
283 284 288 291 293 293 294 294 293 294 295 297 298 298 299 300 301 301 301 302 302 303 302 303 302 303 304 303 303 304 304 305 306 307 308 309 310 312 312 313 317 317 315 317 316 315 314 315 316 318 319 319 320 320 322 323 324 324 324 326 326 327 328
286 288 289 290 292 292 294 296 296 296 296 297 298 299 299 301 301 302 303 304 303 304 303 304 303 303 303 304 304 304 305 305 305 306 308 309 310 310 310 312 318 315 315 317 317 316 315 316 316 318 319 319 320 319 321 322 323 323 324 326 327 327 329
281 283 286 289 285 285 289 293 295 295 298 298 298 299 299 301 302 303 303 303 304 304 304 304 304 303 304 305 305 304 305 305 306 307 307 308 309 310 310 313 315 315 318 318 316 316 316 317 317 319 319 319 319 319 320 321 322 322 324 325 327 328 330
282 287 288 290 291 290 292 294 295 297 298 298 298 298 299 301 303 304 303 303 303 304 305 306 305 305 305 305 305 305 305 306 307 308 307 308 309 310 311 313 313 314 315 318 317 316 316 318 319 319 318 318 318 319 320 320 321 322 322 325 326 327 330
289 290 291 291 291 290 293 295 296 297 299 299 299 300 301 302 303 304 304 304 304 304 305 306 307 307 307 307 306 305 305 306 307 307 308 309 309 311 313 314 314 315 316 316 315 316 316 318 318 317 317 317 317 319 319 320 321 321 322 324 324 325 326
289 292 293 294 293 294 295 296 297 299 301 302 300 300 301 302 303 304 304 304 305 304 304 305 306 308 307 307 306 305 305 306 308 309 313 316 314 315 314 314 314 316 315 314 314 315 316 317 317 317 315 316 317 318 318 320 320 320 321 323 323 324 325

ECMWFFLT2_sfc_thetae_102.txt.gz
Theta_e
293 293 295 295 295 287 291 291 289 291 293 292 290 296 294 290 285 287 288 291 298 302 300 305 313 314 314 316 316 317 317 320 322 327 331 332 333 333 333 333 333 334 334 334 334 335 335 336 335 334 335 336 338 339 339 339 340 340 341 343 343 344 344
293 295 294 295 295 295 290 286 289 295 296 293 290 286 283 281 282 284 290 292 291 291 290 301 311 310 311 312 314 316 317 318 319 321 324 331 333 334 335 335 335 335 335 335 334 335 336 336 336 335 335 336 338 339 340 339 340 339 340 342 343 344 344
293 295 293 292 295 297 292 291 297 292 288 289 287 286 283 282 283 284 290 293 292 291 291 298 308 308 309 311 313 314 315 316 317 319 322 325 331 334 335 335 335 335 335 335 335 335 336 336 338 336 336 336 337 339 340 340 340 340 341 342 344 345 345
291 292 292 284 288 294 294 295 291 293 291 289 285 290 286 285 281 282 285 289 288 296 294 296 308 309 310 311 311 312 315 316 317 318 319 322 326 332 334 335 335 335 337 336 335 335 335 336 337 337 336 336 336 338 340 340 341 341 342 342 344 344 344
289 285 288 285 286 285 287 288 287 288 288 291 291 289 288 286 281 280 282 284 290 295 301 305 310 311 311 311 311 312 314 316 317 318 318 320 323 326 333 336 336 336 336 336 336 337 336 337 338 338 336 335 336 338 339 340 340 340 341 342 343 344 345
284 287 291 292 290 290 288 286 285 286 285 284 283 285 288 288 283 281 282 285 292 299 308 312 312 312 312 313 312 312 313 315 317 317 318 319 320 324 326 333 337 337 337 337 337 337 337 336 336 337 336 336 336 337 338 340 340 340 340 342 343 344 345
285 288 291 293 293 292 291 290 287 289 288 286 281 279 283 286 287 292 287 287 290 301 312 313 313 313 313 313 313 312 313 314 316 317 318 318 320 320 323 327 334 337 337 338 337 337 336 336 336 337 337 336 335 336 338 339 340 340 341 342 344 345 345
286 289 290 292 293 291 288 290 290 289 287 287 286 283 287 285 285 282 282 287 290 300 311 314 313 314 314 314 313 312 313 314 315 316 317 317 317 320 321 323 327 333 336 342 337 336 337 336 336 337 337 337 336 336 338 339 340 341 341 342 343 345 345
280 282 285 287 290 291 287 286 289 289 290 289 289 288 289 285 286 286 281 283 288 297 302 315 313 313 312 312 313 313 311 313 314 315 316 316 318 318 319 320 322 326 328 331 334 338 338 337 337 337 337 337 336 336 338 338 340 341 342 343 343 344 345
276 277 276 277 281 284 287 289 289 290 289 288 286 284 285 278 287 287 283 282 289 295 304 313 312 311 310 311 311 313 313 313 313 314 315 316 316 317 318 318 320 321 323 326 329 332 336 337 338 338 339 338 337 337 338 339 340 341 342 343 344 344 345
275 278 280 286 292 285 283 286 287 288 289 290 288 286 282 281 284 285 285 288 289 294 306 307 309 309 308 308 310 310 310 312 313 315 316 316 315 316 317 318 318 320 321 323 325 328 331 335 338 338 338 338 338 338 338 339 340 342 343 343 344 344 345
284 283 286 286 290 285 286 285 286 288 288 289 287 285 286 288 283 280 288 291 288 299 305 306 307 308 308 308 309 309 310 310 312 312 315 318 314 315 316 317 317 317 319 321 323 325 327 329 334 337 340 339 339 339 338 339 340 341 342 343 343 344 345
286 285 287 287 287 287 286 287 286 286 287 288 286 288 291 288 284 283 289 290 295 302 305 307 307 308 307 308 309 309 310 310 311 312 312 312 313 313 314 315 316 316 317 319 321 323 325 327 328 330 335 338 341 342 341 341 340 341 343 343 343 343 344
286 286 286 287 285 286 285 286 286 286 286 286 288 290 292 295 290 289 292 293 300 302 305 308 308 310 309 309 311 310 309 309 310 309 310 311 312 312 313 314 315 316 317 318 320 322 323 325 326 328 329 332 336 341 341 341 342 342 343 342 343 343 343
284 286 289 286 285 286 284 284 286 287 287 289 290 291 299 301 296 298 297 297 299 304 307 309 310 310 309 309 308 309 309 309 309 309 309 310 311 313 313 313 314 315 317 318 319 320 322 324 326 327 327 329 332 337 340 343 343 344 343 343 343 343 343
281 283 286 286 286 285 283 284 286 287 288 289 290 292 301 299 297 298 298 297 297 303 307 310 309 308 308 307 308 308 309 309 309 309 308 309 311 313 313 314 315 314 315 317 318 319 321 323 325 326 327 328 330 331 335 339 345 346 344 344 343 343 344
278 281 285 285 282 281 281 282 285 288 288 291 294 300 302 301 302 299 297 298 303 305 306 305 307 308 307 308 308 308 309 310 310 309 309 309 311 311 314 316 316 314 315 316 318 319 321 323 324 325 327 327 328 331 334 338 344 348 346 345 345 345 345
277 281 283 284 277 274 277 285 289 290 291 293 294 296 298 300 303 301 303 303 305 305 305 304 304 306 307 309 311 313 311 310 310 311 311 311 311 312 314 314 315 316 316 317 319 320 322 323 325 326 328 327 329 332 335 339 341 345 348 347 347 346 347
279 281 281 280 274 276 285 290 292 293 292 295 295 299 299 299 300 301 301 302 303 305 306 306 307 308 311 313 312 313 314 313 311 311 311 311 312 312 313 314 315 316 316 317 318 320 321 323 324 325 325 327 329 330 334 336 338 341 347 349 348 348 348
279 278 277 270 273 282 288 291 294 298 296 295 294 297 298 298 299 300 299 302 304 305 306 307 309 308 310 313 314 314 315 315 313 312 312 312 313 313 313 315 316 316 317 317 318 320 323 322 323 324 325 327 327 329 333 335 337 340 343 347 350 351 350
278 278 275 277 282 284 286 290 291 293 289 291 290 285 288 297 298 299 299 301 303 305 306 307 308 309 310 310 312 316 315 315 316 314 314 314 314 314 316 316 317 319 319 318 319 322 321 321 323 323 325 327 327 329 332 333 335 337 338 339 342 346 352
280 277 276 276 275 276 279 289 295 298 298 297 296 292 287 297 295 298 298 299 302 303 304 305 307 308 308 302 304 309 312 315 315 317 316 316 316 316 316 317 318 319 320 319 321 322 320 320 321 323 325 327 327 328 330 331 332 333 333 334 337 340 342
281 280 276 274 272 277 283 289 294 296 297 297 297 289 284 296 294 297 299 299 302 303 303 303 305 302 299 300 304 308 309 311 315 315 316 316 315 316 316 316 316 318 320 320 321 321 320 318 319 321 324 326 326 327 329 329 329 329 330 332 334 335 339
282 279 276 276 279 279 287 291 294 296 297 297 292 280 282 294 295 297 297 297 300 301 301 301 301 301 297 299 303 307 307 309 311 314 315 315 315 315 316 317 317 320 322 319 317 318 318 318 321 321 323 324 325 325 327 328 328 327 328 330 332 335 338
284 285 277 279 281 289 293 292 295 295 298 291 281 277 288 294 295 296 296 296 299 299 297 299 295 300 302 302 304 305 306 306 308 311 314 315 316 316 316 316 320 318 319 318 317 318 318 319 320 321 323 322 323 323 325 325 324 326 328 330 332 335 338
279 280 279 279 280 286 293 295 295 297 292 281 279 288 293 293 294 296 296 296 297 297 297 297 297 299 301 303 304 304 304 305 307 308 309 312 315 316 318 319 318 318 318 317 317 319 320 319 320 320 322 321 322 322 323 322 323 326 328 329 331 333 335
280 279 280 277 275 285 294 294 293 296 286 285 290 292 294 297 295 295 296 296 297 297 296 298 298 299 300 301 302 303 304 305 305 305 307 309 312 313 314 315 317 317 318 316 315 317 320 320 318 319 321 321 320 321 321 321 323 326 327 329 330 330 331
277 277 278 277 283 289 295 293 287 290 294 294 294 294 292 295 295 295 295 296 297 298 297 297 298 299 300 301 302 302 303 304 304 306 307 309 311 312 314 316 316 318 318 318 316 317 319 319 319 319 320 319 320 320 320 322 323 325 326 327 327 328 329
282 280 282 286 292 293 294 293 291 293 295 297 297 296 295 294 294 296 295 296 297 298 298 299 299 299 301 301 302 302 303 303 304 304 306 307 309 310 312 313 317 317 317 318 317 317 318 319 319 319 320 319 320 319 321 322 323 323 324 325 326 326 328
288 290 291 293 293 293 293 296 296 294 296 297 298 296 294 295 296 297 296 297 298 299 300 299 299 300 301 301 302 303 303 304 304 307 306 307 308 309 311 313 315 316 317 318 317 317 318 319 318 319 320 320 318 320 321 322 322 323 324 325 325 327 328
285 280 290 291 291 292 293 293 295 297 298 296 297 296 296 296 297 298 299 299 299 300 301 300 300 301 302 302 302 303 303 303 304 305 305 306 307 308 309 311 314 315 316 316 317 318 318 318 318 318 319 320 320 321 322 322 322 322 321 323 326 326 327
283 284 287 290 292 292 293 293 293 294 295 296 297 298 298 299 299 300 300 301 301 302 301 302 301 301 302 302 302 302 303 304 304 305 305 306 307 308 310 311 314 314 315 315 316 318 318 318 318 318 319 319 321 321 320 321 321 321 321 322 323 325 326
286 287 289 289 291 291 293 294 294 294 295 295 296 298 298 299 299 300 301 302 302 302 302 303 302 302 302 303 303 303 304 304 305 305 306 306 307 308 309 310 314 313 314 317 317 318 318 319 318 318 319 320 320 320 319 320 320 319 320 321 322 324 327
282 284 286 288 286 284 288 291 295 295 295 296 297 297 298 298 299 300 300 301 303 303 304 303 303 302 302 303 304 304 305 305 306 306 306 307 307 307 309 311 312 312 316 318 317 318 318 319 318 319 320 320 319 319 319 319 319 318 319 319 320 322 326
283 287 289 290 290 289 290 292 294 295 296 297 296 296 297 299 300 301 301 301 302 302 303 304 303 303 303 304 305 305 305 306 308 308 308 307 307 307 309 309 310 312 313 317 318 318 319 319 319 320 320 319 317 318 319 318 318 318 318 319 320 320 322
289 289 289 291 291 291 292 293 295 295 296 297 297 298 299 300 300 301 302 302 302 302 302 303 304 304 304 304 304 304 305 306 307 308 308 308 307 309 310 309 310 312 314 316 317 318 318 318 319 319 317 316 316 317 317 317 317 318 318 318 318 319 320
291 292 292 292 293 293 294 294 295 296 298 300 298 299 299 300 302 303 303 303 303 302 301 301 302 304 303 303 304 304 304 306 308 309 311 312 311 310 310 310 311 312 314 316 316 316 316 318 318 317 315 314 315 316 316 316 317 317 318 318 317 318 319

ECMWFFLT2_sfc_thetae_105.txt.gz
Theta_e
298 298 300 299 300 295 298 299 297 298 300 300 299 298 297 297 298 295 301 301 303 309 309 315 317 317 317 319 320 321 322 324 325 323 323 325 328 331 334 338 338 340 341 343 343 345 345 344 344 343 346 348 348 348 348 349 351 352 352 354 354 355 356
299 300 299 299 299 299 299 297 298 301 302 301 299 294 296 295 292 295 300 298 300 301 298 313 314 313 314 316 317 319 322 323 323 323 323 323 324 327 333 338 341 341 341 342 342 344 345 345 344 344 348 347 350 349 348 348 350 350 351 352 352 354 355
297 301 299 298 301 301 298 297 300 297 294 294 298 298 290 290 291 294 296 298 300 302 302 310 310 311 312 314 316 317 317 319 321 322 323 324 325 327 329 332 337 341 341 341 342 342 344 345 347 346 346 346 347 348 348 347 348 348 349 349 352 353 354
296 298 298 292 294 300 299 300 299 298 299 300 298 298 298 299 293 293 293 297 294 304 306 310 310 312 313 314 315 316 316 317 318 321 322 323 324 326 328 330 334 337 341 341 341 340 341 343 344 344 344 344 344 345 348 347 348 350 350 349 352 352 353
296 292 294 291 293 293 296 297 295 297 297 298 300 298 296 295 295 296 294 291 295 303 312 312 312 313 314 314 314 316 316 317 318 320 320 322 324 325 327 329 331 335 340 342 341 342 341 342 344 344 343 343 343 344 345 346 347 347 347 348 350 352 352
291 291 295 294 294 295 294 294 292 293 294 295 294 292 296 295 296 293 295 290 296 303 315 313 313 315 314 314 314 315 316 316 318 318 320 322 322 324 327 328 330 332 335 341 343 342 342 341 341 342 343 343 343 343 344 346 346 346 346 347 350 351 353
292 293 296 298 297 296 295 296 293 295 294 295 296 291 292 295 294 297 299 293 293 306 315 315 313 314 314 314 315 314 315 316 317 319 320 321 323 324 325 327 329 330 332 335 338 343 344 342 342 342 342 342 342 342 343 345 345 346 346 347 349 352 352
294 295 297 297 298 296 295 295 296 295 293 293 293 294 297 295 294 296 296 293 294 306 316 316 315 315 315 315 314 314 314 316 317 318 318 319 321 323 325 326 327 329 330 332 334 336 337 344 344 342 342 343 342 342 342 344 344 346 346 347 348 351 351
290 293 295 294 296 296 293 292 294 295 296 295 294 297 299 294 291 292 296 290 293 307 316 316 314 314 313 313 313 314 313 314 315 317 318 318 320 322 322 324 325 327 327 327 330 332 335 337 339 346 344 343 342 342 342 343 344 345 347 348 348 349 349
283 283 284 287 290 291 293 294 294 294 294 294 295 293 295 290 293 294 293 291 299 308 313 312 313 312 313 313 313 314 314 314 314 316 317 317 318 318 321 322 323 324 325 326 327 329 332 334 336 339 343 345 343 342 343 344 344 345 345 347 348 349 349
289 290 290 290 294 292 289 290 292 292 294 295 295 296 295 291 293 293 294 297 299 304 307 309 311 311 310 311 312 312 312 314 315 316 316 317 317 317 318 320 321 323 325 325 326 328 329 332 334 336 338 339 345 345 344 344 345 345 346 347 349 348 349
291 292 291 292 293 290 290 290 290 292 293 294 297 294 291 296 295 290 295 301 301 302 306 308 309 310 311 311 312 312 313 313 314 314 316 318 316 317 317 318 319 320 322 324 325 326 328 330 332 334 336 337 340 343 347 345 344 345 346 347 348 349 349
291 291 292 292 292 291 291 291 290 291 293 295 294 295 296 295 294 292 298 302 301 303 306 308 309 310 310 311 312 313 314 314 315 315 314 314 314 315 316 316 317 318 319 322 323 324 327 329 330 332 333 336 338 341 344 348 346 346 348 347 348 348 349
291 291 292 292 291 290 291 292 293 293 294 295 297 301 303 300 299 301 302 302 301 304 307 309 310 312 312 312 314 314 313 313 314 313 313 313 313 314 315 316 317 317 318 319 321 323 325 326 329 330 331 333 335 338 340 343 347 350 348 350 349 347 348
289 291 292 292 291 290 290 292 294 295 296 297 298 300 303 304 302 302 302 301 301 306 309 310 312 314 314 313 312 312 313 313 313 312 312 313 312 313 315 317 317 317 318 318 319 322 323 325 327 328 331 332 334 336 339 342 345 349 352 351 350 349 349
287 290 290 291 291 290 290 291 293 294 294 295 297 296 302 302 300 301 301 300 299 305 310 312 312 313 312 310 311 312 312 313 313 313 312 313 313 313 314 316 318 317 317 317 318 319 322 323 325 327 328 331 333 334 338 342 344 348 351 352 349 351 352
286 290 290 290 289 289 287 288 291 295 297 301 302 303 305 304 304 299 298 300 305 307 310 308 309 311 311 311 310 311 312 313 313 313 312 313 314 314 315 316 317 318 317 318 318 319 321 321 323 324 326 328 330 333 336 341 344 347 350 351 352 352 353
287 289 289 290 287 281 283 294 296 296 295 297 298 299 301 304 306 303 305 306 308 308 308 307 308 309 310 312 313 315 313 312 313 313 314 314 314 315 316 316 317 319 320 319 319 321 321 322 322 324 326 326 329 332 336 340 340 344 346 351 355 353 353
286 289 289 286 280 282 292 295 298 299 298 299 301 301 302 304 305 306 305 305 306 307 308 308 310 311 313 314 314 314 315 315 313 313 314 315 315 315 315 317 318 319 320 321 320 320 320 321 322 322 324 325 327 330 333 335 336 338 341 344 348 355 355
290 287 286 278 281 290 293 296 299 302 301 304 302 299 300 301 302 304 303 304 306 307 307 308 310 312 313 315 316 314 313 312 311 311 313 314 315 315 316 317 318 319 321 322 322 321 322 321 320 321 322 326 326 327 330 331 333 334 335 338 340 343 348
284 287 286 285 290 289 292 294 296 299 296 299 298 292 297 299 302 303 303 304 305 306 306 306 307 311 313 312 313 313 311 310 310 310 311 314 316 317 318 318 318 320 322 324 325 324 323 321 320 320 323 325 326 327 327 328 330 330 330 332 335 338 339
290 286 284 285 285 282 288 297 300 300 301 301 301 296 295 300 301 303 303 302 303 304 303 304 304 308 310 306 308 312 309 309 309 310 311 313 314 315 318 319 319 320 321 324 325 324 323 323 322 322 323 325 327 326 326 326 327 328 328 328 330 333 335
288 287 284 284 281 285 294 297 299 301 301 301 302 294 289 299 300 300 301 300 301 302 301 302 303 303 301 302 307 309 307 308 309 308 310 311 312 313 315 317 318 319 321 323 324 323 323 322 323 323 323 325 326 326 326 325 326 325 326 327 327 328 330
289 288 285 283 288 287 294 298 299 300 302 301 298 284 286 297 300 300 300 299 300 301 302 302 301 300 297 299 304 306 306 307 309 309 310 310 311 312 313 316 318 320 322 323 323 322 320 323 324 322 322 323 326 326 326 326 325 324 324 326 328 330 331
290 288 287 288 290 295 299 299 301 301 302 299 288 283 294 299 300 300 300 300 300 302 301 302 299 303 304 304 305 307 307 307 308 310 311 311 311 311 312 313 319 319 319 319 320 321 323 324 324 322 322 323 324 325 325 325 323 323 325 327 329 330 330
288 289 286 287 291 297 300 301 301 303 297 287 287 296 299 301 300 301 301 300 302 302 302 302 302 303 305 306 306 307 307 307 308 309 310 311 311 313 314 316 316 317 317 319 320 320 323 324 324 322 322 323 324 325 325 324 324 325 326 327 328 329 329
289 289 287 285 281 295 300 300 298 300 292 295 297 300 301 301 301 300 301 301 302 302 302 303 304 304 304 305 306 306 307 308 308 309 309 310 310 311 312 313 314 315 315 317 318 320 321 323 325 324 323 323 324 325 324 324 325 326 326 326 326 327 329
286 286 284 285 294 298 300 300 295 299 300 301 302 301 299 301 301 301 301 302 303 303 303 302 303 304 304 305 306 307 307 308 309 309 310 311 311 312 313 313 313 315 315 317 318 321 322 324 325 325 323 323 324 324 325 325 326 326 326 325 326 327 328
291 290 292 297 299 300 301 301 299 301 302 303 303 302 301 300 301 303 302 302 303 304 303 303 303 303 304 305 306 305 306 307 308 308 309 310 311 311 312 312 315 315 315 316 318 321 323 324 325 325 324 323 324 324 326 327 326 325 325 326 326 327 327
298 299 299 300 300 299 300 300 301 300 301 303 303 302 301 302 302 303 302 303 303 304 305 303 303 303 304 305 305 306 307 307 308 310 310 310 312 312 313 313 314 315 316 317 318 319 322 324 324 324 323 324 324 325 325 326 325 325 325 326 327 327 327
293 289 298 297 299 300 300 300 301 301 302 303 303 302 302 302 303 303 304 304 304 304 305 304 303 303 305 305 306 307 307 307 308 308 309 310 311 311 312 314 315 315 316 315 316 318 319 322 324 323 323 324 325 325 324 323 324 324 325 326 327 328 326
293 293 298 299 301 302 300 300 299 299 301 302 303 303 303 303 304 304 304 305 304 305 304 305 304 304 305 304 305 305 306 306 307 308 309 310 310 312 313 314 315 315 315 315 316 318 319 322 324 323 322 323 324 325 323 323 323 323 324 325 326 325 325
297 298 298 298 298 298 299 300 301 302 302 302 302 303 303 303 303 304 305 306 305 305 305 306 305 304 305 305 306 305 306 306 307 308 309 310 311 312 312 313 314 314 314 315 316 318 318 322 324 324 323 323 324 323 322 323 323 322 322 323 323 325 325
291 292 296 299 292 293 298 300 301 301 303 302 302 303 303 303 303 304 303 304 306 306 306 306 305 304 304 305 306 305 305 306 307 307 308 309 310 311 313 313 314 314 315 316 316 317 318 322 323 323 322 323 323 322 321 321 321 321 321 321 322 323 325
292 299 301 301 300 300 300 301 302 303 303 303 302 302 302 303 304 305 304 303 303 304 306 307 306 305 304 304 305 305 305 305 306 307 307 307 308 310 312 312 313 313 314 316 316 317 319 322 323 323 323 322 322 321 321 320 319 319 320 320 320 321 323
301 301 303 303 302 299 300 301 302 303 304 303 303 303 304 304 305 305 304 304 303 303 305 306 307 306 305 305 305 304 305 306 306 307 307 308 309 311 312 312 313 314 314 315 316 317 319 322 324 324 322 321 320 319 319 319 319 318 319 319 318 319 319
300 304 303 304 304 303 304 304 304 305 305 305 304 304 304 305 305 306 305 305 305 305 304 304 306 307 306 305 305 305 304 305 306 308 310 311 311 311 311 313 313 313 314 315 317 318 320 322 323 323 321 320 318 317 318 317 317 317 317 318 318 318 319

ECMWFFLT2_sfc_thetae_108.txt.gz
Theta_e
304 304 306 305 305 298 304 305 301 304 309 307 304 304 305 304 302 299 306 308 311 317 318 319 321 321 322 324 325 326 327 329 332 331 332 333 334 336 337 339 340 346 345 349 349 350 349 349 350 350 352 353 354 355 357 359 361 363 363 364 363 364 364
304 306 305 305 306 306 306 300 305 309 311 308 305 298 301 300 296 299 303 303 304 306 304 318 318 318 320 321 322 324 326 327 328 329 331 332 332 334 337 339 340 344 348 349 349 349 350 349 350 351 353 353 355 356 357 358 359 360 362 362 361 362 364
303 306 305 304 306 307 304 303 309 303 299 298 304 303 294 295 294 299 300 306 305 305 308 313 313 315 316 319 322 322 322 324 325 327 330 332 333 333 334 337 339 343 345 346 349 349 350 351 352 351 351 351 353 355 356 356 357 358 359 359 361 362 363
302 304 304 298 302 306 307 308 306 308 306 303 300 302 304 302 295 298 300 304 301 309 310 312 312 315 317 318 319 320 321 322 323 324 326 329 332 332 332 334 338 340 344 346 347 348 348 348 349 351 350 350 350 353 355 354 356 358 360 359 360 360 361
301 298 301 299 300 301 303 303 302 303 305 307 306 306 304 300 298 299 298 297 302 309 314 313 313 315 317 318 319 320 321 322 323 323 322 325 329 332 333 333 335 339 342 346 347 348 348 348 350 351 349 350 351 351 351 353 354 354 355 356 357 360 361
298 297 300 299 299 300 301 302 302 303 302 300 298 297 305 303 300 297 298 297 304 311 316 315 315 317 317 319 320 320 322 322 322 321 322 324 325 330 333 333 334 337 340 342 345 348 350 347 348 348 349 350 350 350 350 352 352 352 353 355 357 359 361
297 298 300 302 302 301 301 303 301 303 303 304 300 294 299 303 303 306 304 300 302 313 317 317 316 317 318 319 320 319 320 322 322 320 321 324 326 326 328 331 333 335 339 339 341 344 346 348 350 349 349 347 348 349 349 350 350 352 353 354 356 359 359
300 301 302 302 302 301 301 302 303 302 301 301 301 302 306 301 302 300 303 300 301 312 317 317 317 319 319 320 319 319 320 321 323 322 321 323 324 326 327 329 330 334 336 336 337 340 341 343 348 349 352 349 348 348 348 349 349 351 352 353 354 357 359
295 297 300 299 301 302 300 299 301 301 302 302 302 304 307 302 302 302 301 296 300 311 317 316 317 317 317 317 318 319 318 320 321 322 322 322 323 324 325 326 328 331 333 334 334 336 337 340 343 347 350 350 349 349 349 348 349 350 351 354 353 355 357
287 288 289 292 295 297 299 299 299 300 300 300 302 299 302 297 303 305 302 301 307 312 315 315 315 316 316 318 318 319 319 319 319 321 321 323 322 323 324 325 325 327 330 333 334 334 335 337 339 344 346 349 349 352 350 350 349 350 350 352 352 353 355
294 295 297 298 300 298 296 295 297 298 300 302 303 304 302 298 303 303 306 306 305 307 310 311 312 314 314 315 317 317 317 319 320 321 321 321 322 323 323 324 324 325 326 328 331 332 332 333 337 340 344 346 348 352 352 352 350 350 352 352 353 352 354
297 297 295 297 298 296 295 295 295 297 300 302 303 301 299 307 303 298 307 309 305 305 308 311 312 313 314 315 317 317 318 318 318 319 320 321 320 322 323 324 324 323 323 325 326 330 331 331 333 336 341 346 348 350 351 352 354 349 350 352 352 353 354
296 297 296 297 296 296 295 295 295 296 299 302 301 301 302 305 302 299 306 309 306 307 309 311 311 313 314 314 315 317 319 319 320 320 319 318 318 320 320 322 324 325 324 323 323 325 327 328 330 334 335 340 345 349 351 353 353 355 353 352 352 352 354
295 295 296 296 295 294 296 296 296 297 299 302 303 302 303 306 306 307 308 308 306 308 309 312 312 314 315 315 317 319 319 317 319 318 318 317 318 318 319 321 321 324 324 324 323 324 324 325 327 329 333 336 338 345 348 349 352 354 356 355 353 352 352
293 294 296 296 294 295 295 295 296 297 299 302 305 304 305 307 306 307 306 307 305 310 314 313 315 316 315 316 315 317 318 318 318 318 317 318 318 318 320 321 321 323 324 324 324 324 323 323 324 325 329 333 337 338 345 348 350 352 354 357 355 352 353
292 294 294 293 295 294 294 295 296 296 297 298 300 303 305 305 304 305 305 304 304 309 313 313 314 314 313 312 313 315 316 317 318 318 317 319 318 318 319 320 322 322 323 323 324 325 324 324 323 324 327 331 334 336 340 344 347 351 353 354 354 355 355
292 294 293 293 292 293 291 293 296 298 300 303 305 307 307 307 307 304 302 304 309 311 312 311 312 313 313 313 313 314 315 318 318 317 317 318 319 319 320 320 321 321 323 324 325 325 325 325 323 323 326 328 331 333 337 341 344 347 350 352 355 355 356
293 293 293 293 292 286 288 299 302 301 300 301 299 301 305 307 308 306 309 310 311 311 310 309 310 311 313 314 315 316 317 317 316 317 318 318 320 321 321 321 321 322 323 324 326 326 327 326 324 324 326 328 332 335 336 339 340 342 344 350 353 354 359
292 294 293 290 285 287 297 302 303 303 303 304 304 305 305 307 308 308 308 308 309 310 312 311 312 314 314 316 316 316 316 316 315 315 316 317 318 319 321 322 323 323 323 324 326 327 326 326 325 324 325 328 332 335 335 335 336 338 339 342 347 350 353
296 292 291 283 286 296 300 300 302 304 303 306 304 301 303 305 305 307 305 307 309 310 310 311 313 314 315 316 318 317 315 314 314 313 314 315 316 317 318 321 322 324 324 324 324 326 328 326 324 325 326 328 330 333 335 335 334 335 336 337 337 342 347
290 291 290 289 295 294 296 296 300 300 301 301 300 296 300 305 306 307 306 306 307 308 308 310 311 314 314 314 316 316 313 313 313 313 313 314 315 316 318 318 320 324 325 325 325 327 328 326 325 326 327 328 330 332 334 335 335 334 335 335 335 335 337
295 292 289 290 289 286 293 299 305 307 307 307 307 302 301 306 307 308 307 306 306 306 307 308 309 309 309 307 312 313 312 312 312 313 313 314 315 315 316 318 319 322 323 324 325 325 326 328 328 329 328 327 329 331 331 332 334 333 334 335 335 334 334
293 291 288 288 285 290 300 302 304 306 306 305 305 297 294 305 308 307 308 306 306 307 306 307 308 306 303 304 310 310 311 312 312 312 313 314 314 315 315 315 316 318 320 323 324 325 324 325 328 331 329 328 327 330 331 331 332 332 332 334 335 334 333
294 292 289 287 293 292 300 303 303 304 306 302 302 289 290 304 307 307 307 306 306 306 307 307 306 304 301 304 308 310 310 311 313 313 313 314 314 315 316 317 318 319 320 321 322 322 322 325 327 329 329 327 328 328 330 332 332 331 332 332 335 337 337
293 291 292 293 295 301 303 303 305 305 305 302 292 286 299 305 307 307 306 307 306 307 306 307 304 307 309 309 310 311 311 311 312 314 315 315 315 315 316 317 320 318 318 317 318 320 323 326 325 326 327 327 327 328 328 330 331 331 333 334 334 336 336
292 293 291 290 295 302 305 305 306 306 301 290 291 301 309 308 307 307 306 305 307 307 307 307 308 309 309 310 310 311 311 312 313 314 315 316 316 317 318 319 318 318 317 318 318 318 322 324 325 325 327 327 327 328 327 327 329 330 333 334 334 334 336
294 294 291 288 285 300 306 305 304 305 296 300 303 307 307 306 307 306 307 307 307 308 307 308 309 309 309 309 310 311 312 312 312 313 314 315 315 316 317 317 318 318 317 317 316 318 320 323 325 326 327 327 327 327 327 329 329 331 331 333 335 333 335
290 290 288 288 297 303 307 304 298 303 305 306 308 306 306 307 307 307 307 308 309 309 308 307 308 308 309 309 311 311 311 312 312 313 314 315 315 315 316 317 318 318 318 319 318 320 320 323 326 328 327 327 327 326 327 331 330 331 331 331 332 333 335
296 294 297 302 304 306 307 307 306 308 309 309 309 307 306 306 307 308 306 307 308 309 308 308 307 307 308 308 309 309 309 310 311 311 312 313 314 314 315 315 318 318 318 319 319 320 321 323 325 328 329 328 328 327 329 331 331 330 330 331 331 331 333
304 305 304 307 305 305 306 307 308 307 307 309 309 307 307 307 308 308 307 308 308 309 309 306 306 306 307 307 308 308 309 310 311 312 312 313 314 314 315 316 317 317 318 319 319 320 322 323 323 326 328 329 328 328 330 332 331 330 330 330 330 330 331
296 291 303 303 303 305 305 305 306 307 308 309 309 308 307 308 308 308 309 308 308 308 308 307 306 306 307 307 308 308 309 309 310 310 311 312 313 313 313 315 316 316 318 317 318 319 319 322 323 325 327 328 329 330 331 330 330 330 329 330 330 329 330
297 297 303 305 306 307 307 307 305 304 306 308 308 309 309 309 309 308 308 309 308 308 307 307 307 306 307 307 307 307 307 308 309 309 310 311 312 314 315 316 316 317 317 317 317 319 319 321 323 323 324 326 328 328 328 328 328 329 328 328 326 328 329
301 304 305 306 305 306 307 306 306 307 307 307 307 307 307 308 307 308 309 310 308 308 307 308 307 306 307 307 307 306 307 308 309 309 309 311 312 313 314 314 316 315 316 316 318 318 319 321 322 323 323 325 328 329 327 327 327 327 327 327 328 327 328
296 297 300 305 297 298 302 304 306 307 308 308 308 307 306 306 307 308 307 307 308 307 307 308 307 306 306 307 307 307 307 308 309 309 309 310 311 312 313 314 315 316 317 317 318 318 318 321 322 323 324 326 328 326 326 326 326 325 326 327 326 326 327
296 302 305 306 305 304 306 307 308 308 308 308 306 306 306 307 308 308 306 305 306 306 307 308 307 306 306 307 307 307 307 307 308 309 309 309 309 310 312 313 314 315 316 317 318 318 319 321 322 323 324 326 327 327 327 327 325 324 325 325 325 324 325
304 306 306 307 305 302 305 307 308 308 309 308 306 307 308 307 308 307 307 307 305 305 307 307 308 308 307 307 307 306 307 308 309 309 310 311 312 312 313 312 313 315 315 316 317 317 319 320 321 323 323 324 326 326 326 325 326 325 324 323 322 323 324
303 307 308 308 308 307 308 308 308 309 309 309 307 307 308 308 308 307 306 306 307 306 305 306 307 308 307 306 307 307 306 307 309 310 311 312 311 312 312 313 313 313 314 315 316 318 319 321 322 323 323 325 325 324 325 325 324 323 323 322 321 322 324

ECMWFFLT2_sfc_thetae_111.txt.gz
Theta_e
308 308 310 309 310 299 306 307 303 307 313 310 305 307 307 306 303 300 309 308 314 318 320 321 323 322 323 325 326 326 328 331 333 333 335 338 340 341 342 344 345 349 346 349 348 350 348 349 349 350 353 354 355 356 359 363 365 366 365 366 365 366 365
308 310 310 310 311 310 307 302 306 313 314 312 307 300 304 301 297 301 306 306 307 309 306 320 318 318 320 322 324 325 327 329 329 331 334 336 338 339 340 343 346 350 350 348 348 350 349 349 350 351 353 354 355 357 360 361 363 364 364 365 363 365 365
307 310 309 307 310 312 307 306 311 305 300 301 306 303 297 297 296 300 304 307 307 309 310 314 314 315 317 320 323 324 324 326 327 329 332 335 338 338 339 339 342 346 347 347 350 352 353 352 353 355 354 354 354 356 358 357 359 362 362 361 361 364 365
306 307 306 299 303 309 311 311 308 311 308 304 302 304 307 304 297 299 300 305 304 312 312 314 314 317 318 320 321 322 323 325 326 328 329 331 334 337 337 337 338 342 346 346 349 350 349 350 352 354 354 353 353 354 356 358 359 361 362 360 362 363 363
305 300 304 302 304 301 304 305 305 306 306 310 308 308 305 302 300 300 299 299 305 312 316 315 315 317 318 320 320 322 323 325 326 328 328 330 332 335 337 337 338 341 346 348 349 351 347 349 349 351 351 352 350 354 354 356 358 359 360 359 360 364 362
299 302 307 304 305 306 305 304 303 306 303 302 300 300 307 305 302 298 299 297 308 314 319 317 318 319 319 321 321 321 323 324 326 328 328 329 330 333 335 337 338 339 343 345 347 349 350 346 348 349 348 349 350 350 355 355 354 356 355 354 359 362 364
301 303 305 308 308 308 306 307 305 307 307 306 302 296 302 304 305 307 308 303 304 316 318 319 318 319 319 320 321 321 323 324 326 327 327 328 329 330 331 335 337 338 339 341 344 346 348 351 350 352 351 352 348 350 350 351 350 350 355 355 357 363 363
303 306 307 307 307 306 305 306 307 305 304 306 305 304 307 303 304 303 303 301 303 315 320 319 319 319 320 321 321 321 322 324 325 326 325 327 327 328 329 331 334 338 338 338 340 343 344 347 351 352 353 354 351 352 354 350 350 356 353 354 356 359 361
298 299 302 303 306 305 303 304 306 306 307 306 307 306 307 302 304 304 302 297 303 313 319 319 318 318 318 319 320 321 321 322 324 326 326 326 327 328 328 328 329 333 337 337 337 338 340 343 346 349 351 351 349 354 357 352 352 352 352 354 353 356 359
290 289 291 293 296 300 303 304 303 305 304 305 304 301 305 297 305 307 304 302 309 313 316 316 317 317 318 319 320 321 322 323 323 325 326 326 325 326 328 328 328 328 331 335 336 337 338 339 341 346 349 349 351 354 353 350 355 356 357 355 355 355 357
296 298 300 303 305 303 300 300 301 302 304 306 305 305 302 299 304 303 308 308 307 309 312 314 315 316 316 316 319 319 320 322 322 324 324 326 325 325 325 326 327 329 329 330 332 333 333 336 340 343 344 345 352 354 353 353 355 353 357 361 358 356 359
300 300 299 301 302 301 301 299 300 301 303 305 304 301 300 309 304 298 309 312 308 309 311 312 314 315 316 317 318 319 320 321 321 322 323 325 324 325 325 326 326 327 329 330 330 330 330 331 335 339 340 341 346 351 352 352 353 353 355 354 354 357 354
300 300 300 300 300 300 300 300 299 300 302 304 303 304 306 308 303 301 309 312 309 310 312 313 314 316 316 316 317 319 320 321 322 323 322 321 322 324 324 325 326 326 327 330 330 330 330 329 330 334 336 338 342 347 351 354 355 355 357 357 357 355 352
299 299 299 300 299 298 299 299 300 300 301 303 305 305 307 307 307 310 311 311 310 311 312 314 315 317 317 317 320 320 320 319 322 322 321 321 321 322 323 324 325 326 327 329 330 330 330 329 329 331 334 335 337 339 344 348 351 355 355 356 358 357 354
298 298 299 299 298 298 297 299 300 300 301 303 305 306 307 308 307 311 310 309 307 312 315 315 318 318 317 318 316 318 319 319 319 321 320 321 321 322 323 325 325 327 327 328 329 329 330 330 329 330 332 335 335 336 339 343 348 354 355 354 356 356 357
296 299 297 298 298 298 298 298 299 299 299 300 304 304 307 306 305 309 310 308 306 311 314 315 317 317 316 315 316 317 318 318 319 319 320 321 322 322 323 323 325 326 326 327 327 328 328 329 330 330 331 333 335 336 336 339 342 347 350 355 351 353 354
295 299 298 297 297 296 294 296 299 300 301 303 305 307 309 309 309 307 306 308 313 313 314 313 313 314 314 314 314 315 316 318 318 318 318 321 322 322 323 324 325 324 325 326 328 328 328 328 328 330 330 331 334 337 337 338 340 341 346 351 354 353 353
296 298 297 297 295 288 290 302 304 303 301 302 304 305 307 309 310 308 309 313 314 314 313 313 312 313 314 315 316 318 318 317 317 318 319 319 320 322 323 324 324 326 326 326 327 329 331 329 328 331 332 331 334 338 340 341 338 339 341 346 350 351 352
295 298 297 292 287 290 302 306 307 307 307 307 305 309 309 310 312 312 312 312 313 313 314 314 315 317 317 318 316 317 317 318 317 318 317 318 320 320 321 323 325 326 326 326 327 328 328 329 330 330 330 330 333 337 338 338 339 341 341 343 346 346 347
299 296 294 285 288 300 303 304 305 307 306 307 308 306 308 310 311 312 311 311 312 314 313 314 315 316 316 317 318 317 317 317 317 316 316 316 317 318 319 320 322 324 325 325 326 327 329 330 328 330 330 330 330 333 335 335 337 338 338 340 341 341 341
293 295 294 292 300 299 300 299 303 302 300 304 305 299 304 309 310 311 311 311 312 311 312 312 313 315 316 315 316 316 315 316 316 316 316 316 317 318 320 318 319 323 324 324 327 329 329 329 327 329 331 329 330 330 332 333 335 335 336 337 338 339 339
298 294 292 293 293 290 296 303 307 306 307 309 309 306 302 309 310 311 310 309 309 309 310 311 312 311 311 308 312 316 316 315 315 316 316 317 318 317 318 320 320 322 322 322 323 325 328 329 329 330 331 330 329 330 330 330 331 334 334 334 336 338 337
296 294 291 291 289 293 303 303 306 309 310 309 309 302 298 308 309 311 311 309 309 309 309 310 311 308 304 307 312 313 314 314 315 315 316 316 316 317 318 318 320 320 321 322 322 323 324 325 328 330 331 332 329 330 330 329 330 332 331 332 335 334 335
296 295 291 290 296 295 303 306 306 305 308 306 302 290 292 308 309 309 310 309 309 309 311 311 309 307 305 307 310 312 313 314 316 316 316 316 316 317 317 319 320 320 323 322 322 321 320 323 326 328 329 330 330 331 331 330 331 332 332 332 335 337 338
295 295 294 296 297 305 307 306 307 306 307 302 293 288 301 309 310 310 311 310 310 311 310 309 306 309 311 312 313 313 314 314 314 315 316 317 317 317 317 319 321 320 321 321 320 320 322 324 323 326 328 327 329 330 330 330 331 332 332 334 334 335 336
294 294 292 293 297 305 307 308 308 308 301 291 291 305 312 311 309 310 310 310 311 310 310 309 311 312 312 313 312 313 313 314 315 315 316 317 317 318 320 320 320 320 319 321 321 321 323 323 324 325 326 327 328 330 329 329 331 332 333 333 334 334 334
297 296 293 291 287 302 309 307 305 306 297 302 309 310 311 311 309 309 309 311 310 310 310 311 312 311 310 311 312 313 314 313 314 314 315 317 316 317 318 319 320 319 319 319 320 322 323 324 324 324 325 326 328 329 329 331 332 333 332 333 333 333 334
293 293 291 290 300 305 310 307 301 304 306 311 312 310 307 310 309 310 309 311 312 312 311 310 310 310 310 311 312 313 313 313 314 314 316 317 317 317 317 318 318 319 319 320 320 322 322 326 327 326 326 326 327 328 330 333 333 334 334 333 333 332 333
297 295 299 304 308 309 309 309 310 312 313 314 313 312 309 309 310 311 310 311 313 313 312 310 309 308 310 311 311 311 311 312 312 313 314 315 316 316 316 316 319 318 318 318 319 321 322 324 326 328 327 326 326 327 331 333 333 332 332 332 332 331 331
307 307 308 310 308 308 308 310 312 312 312 313 313 311 309 310 312 312 310 312 312 313 313 309 309 309 310 309 309 310 311 311 312 314 314 315 315 315 316 317 317 317 317 318 318 319 321 323 324 326 327 327 326 327 330 332 332 331 331 331 330 331 330
299 294 307 306 306 308 308 308 310 311 312 312 312 311 311 312 312 311 312 311 312 311 313 311 310 309 309 309 310 311 311 311 311 312 312 313 314 314 314 316 316 316 317 316 317 317 318 321 322 323 324 326 327 327 328 329 331 331 331 330 329 330 330
300 299 305 306 308 309 309 309 308 307 310 312 312 313 313 313 313 312 312 312 310 310 310 312 310 309 310 309 309 309 309 309 310 311 311 312 313 314 315 315 316 316 316 316 316 317 317 319 321 322 323 324 326 327 327 327 329 330 329 328 327 328 329
302 305 307 308 309 308 308 308 309 310 309 310 310 312 312 311 310 311 311 311 311 311 311 311 309 308 309 310 310 309 309 309 310 310 311 312 312 313 313 314 315 315 316 316 316 317 318 320 320 321 322 323 325 327 327 328 329 328 327 327 328 328 328
298 300 303 308 300 300 305 307 309 310 310 310 310 311 310 310 310 311 311 310 311 310 311 310 310 309 309 309 310 309 309 310 310 311 311 312 312 312 314 314 315 316 316 315 316 317 318 320 320 322 322 324 325 325 327 328 328 327 327 326 326 327 328
298 305 306 309 309 308 308 309 310 311 311 310 310 309 309 310 310 311 310 309 310 308 310 311 310 309 308 309 310 309 309 310 311 311 311 311 312 312 313 314 314 315 315 316 316 316 318 320 320 321 322 323 325 325 327 328 327 327 326 324 323 324 326
309 309 311 310 309 307 308 310 311 310 311 310 309 310 310 310 310 310 310 310 308 308 308 309 310 310 309 309 308 309 309 310 311 310 311 312 312 313 314 314 314 314 314 315 316 316 318 319 320 321 321 322 324 325 327 327 327 327 325 324 321 321 323
308 313 313 312 310 310 311 311 311 311 311 311 310 309 309 310 309 310 309 309 309 308 308 308 309 310 309 308 309 308 308 309 310 311 312 312 312 313 313 314 314 314 314 315 316 317 317 318 321 321 321 322 324 324 326 326 326 325 326 325 324 324 323

ECMWFFLT2_sfc_thetae_114.txt.gz
Theta_e
309 311 314 313 312 300 307 308 304 307 313 309 305 305 305 305 302 300 311 308 313 318 320 321 322 323 324 325 325 327 330 332 334 335 337 339 342 342 343 344 347 350 350 348 347 351 350 348 348 348 355 354 354 357 358 361 363 360 361 364 363 361 362
309 313 314 314 312 310 307 303 306 313 314 312 306 298 302 300 296 301 308 306 307 309 304 320 320 319 321 322 323 325 328 331 331 333 337 338 339 341 343 346 349 348 349 350 349 350 350 348 348 349 354 353 357 357 358 360 363 361 360 361 361 361 362
308 311 310 308 310 312 306 305 311 303 300 299 305 302 294 296 295 300 306 308 308 310 308 316 315 316 318 320 322 323 324 326 328 330 332 338 339 340 341 343 345 347 348 350 351 349 346 347 349 351 352 349 351 352 353 360 360 361 360 360 361 363 362
307 307 306 298 302 308 310 311 307 310 305 303 300 302 304 303 298 298 302 308 302 313 312 316 315 317 319 320 321 321 323 325 327 328 329 332 337 338 337 341 343 345 346 348 351 349 349 350 350 351 352 352 350 350 354 356 357 361 361 359 361 360 361
306 299 302 300 302 301 303 304 303 305 305 309 307 307 304 301 299 299 299 298 305 312 317 316 316 318 320 320 320 322 323 325 326 327 329 331 332 338 337 340 342 343 346 348 351 353 352 351 352 353 351 351 350 350 351 355 357 356 357 356 354 360 361
299 301 306 305 305 305 304 304 303 305 303 301 298 298 307 305 301 298 300 298 307 314 319 318 317 319 320 321 321 321 323 324 326 327 328 329 331 332 336 341 341 340 341 343 347 352 350 350 350 349 349 351 350 352 353 353 352 352 353 354 355 357 360
300 304 307 309 309 308 307 306 304 307 306 305 302 294 300 304 304 308 307 303 305 317 319 319 319 319 320 321 321 322 323 324 325 327 328 330 331 332 334 337 338 340 341 340 341 343 349 351 350 349 350 349 350 350 354 355 356 357 358 359 353 354 359
305 306 308 308 309 307 305 306 307 307 304 305 303 303 304 302 309 306 304 302 304 316 320 319 319 320 320 322 322 322 322 324 325 326 327 327 329 331 333 336 337 339 339 342 341 341 341 347 351 352 353 352 351 352 351 351 351 352 352 355 358 354 354
298 300 303 303 306 306 304 303 306 307 307 307 306 304 307 301 302 306 302 297 304 314 320 319 319 319 318 319 321 323 322 323 324 325 326 326 327 329 331 331 333 334 334 335 337 339 339 342 344 350 352 353 352 353 355 353 351 350 354 356 356 357 357
290 289 291 294 297 300 304 306 305 306 305 304 303 300 305 296 304 306 303 302 310 315 317 317 318 318 317 319 320 321 322 323 324 325 325 326 325 326 327 329 330 331 332 333 333 335 336 336 338 341 345 350 352 352 352 353 354 357 356 356 354 354 355
295 298 300 303 305 302 299 302 303 303 305 306 305 304 301 299 305 306 308 308 308 310 312 313 315 316 315 316 317 318 319 321 323 325 325 325 325 325 326 327 329 330 330 330 331 333 333 335 336 338 339 340 348 354 352 353 355 356 358 358 358 358 356
302 301 301 303 304 301 302 301 301 303 303 304 303 300 299 309 304 299 311 311 308 309 312 313 314 315 316 316 318 318 319 320 320 322 325 328 325 325 325 326 326 327 328 329 329 330 332 334 336 338 339 341 342 344 350 354 353 355 356 356 354 354 356
302 302 301 302 302 301 302 302 302 301 302 302 301 303 304 305 302 302 311 312 309 310 313 314 315 316 316 316 317 319 319 320 321 323 322 322 324 325 325 325 326 326 326 328 329 328 330 331 335 339 341 341 344 345 346 349 354 352 355 355 356 354 354
301 301 301 302 301 300 301 300 301 301 302 302 303 303 304 305 308 311 311 313 311 313 314 315 316 318 318 318 319 319 319 319 321 320 320 320 322 323 323 325 325 327 327 328 328 329 330 330 333 336 336 339 342 342 344 345 346 355 356 356 355 354 352
298 300 301 301 300 300 298 300 301 300 301 301 303 304 305 307 310 312 312 310 309 314 317 317 319 319 319 318 318 318 319 319 319 320 320 321 321 322 323 324 324 325 327 328 328 329 330 330 330 334 335 337 341 339 343 344 342 345 350 355 354 353 354
296 300 299 300 300 299 298 299 299 299 299 298 301 302 305 305 308 310 310 307 307 313 317 317 317 317 317 316 316 317 318 318 319 319 319 321 321 322 322 323 324 324 325 326 327 327 327 329 332 333 336 337 338 338 339 340 340 343 343 348 351 352 353
294 299 300 299 299 297 294 296 298 300 301 301 302 305 307 307 313 308 305 307 313 314 316 314 314 316 316 315 315 316 317 318 317 318 318 319 321 321 323 323 323 323 323 325 327 327 327 327 329 330 330 332 335 337 339 340 341 341 341 342 343 345 348
295 298 299 299 295 288 290 301 303 302 300 300 299 302 306 309 313 310 313 313 315 314 314 313 313 314 314 316 318 319 318 318 318 317 318 318 319 320 321 322 323 323 324 325 326 328 330 328 328 330 331 330 333 337 339 342 340 341 340 340 341 341 343
294 298 298 293 288 290 302 305 306 305 304 303 302 307 308 311 312 315 313 313 313 314 315 315 316 316 316 318 317 317 318 319 317 317 318 317 318 319 320 321 322 322 322 323 326 327 326 327 328 330 329 329 332 333 335 334 337 339 337 337 339 339 342
298 295 294 286 289 301 303 305 307 309 308 307 307 306 309 311 311 314 312 313 314 315 315 316 317 317 317 317 318 317 317 317 317 316 316 316 317 317 318 320 321 322 320 322 323 325 328 328 325 328 329 329 329 329 330 330 334 335 335 335 335 337 338
292 294 294 293 301 299 301 301 304 305 304 305 305 299 305 312 313 314 313 313 314 315 315 316 317 317 316 314 314 316 316 316 317 317 316 316 317 317 319 319 320 322 323 323 325 328 327 326 325 326 329 330 330 329 328 327 332 332 332 332 334 337 336
298 293 292 293 293 289 296 304 307 307 306 306 309 307 302 311 313 315 313 312 312 315 314 315 316 316 312 308 310 315 315 315 315 316 317 317 317 317 317 320 320 320 322 322 323 322 325 328 325 328 328 330 330 330 329 326 329 331 330 330 333 334 333
296 293 290 290 289 293 302 304 306 307 308 309 309 303 299 308 311 314 314 312 312 312 312 312 313 312 306 307 310 314 316 315 315 315 315 316 316 317 317 319 317 318 321 322 322 322 322 322 326 330 334 332 328 329 330 328 329 330 330 331 331 331 331
296 294 291 290 295 296 302 305 306 309 310 309 304 292 293 307 310 312 313 311 309 310 312 312 310 308 305 307 310 315 316 315 316 316 315 316 316 316 317 318 317 321 323 322 321 320 321 323 324 326 327 328 329 328 330 330 329 329 331 332 332 334 334
295 296 294 295 298 304 306 306 307 307 308 303 293 287 299 309 311 311 312 310 309 311 310 310 307 311 312 312 313 315 314 314 316 316 317 317 317 317 317 317 321 320 320 320 319 319 323 326 324 324 324 324 325 327 330 330 331 331 334 336 336 336 335
294 295 292 293 299 306 308 307 307 307 302 291 291 305 312 311 310 311 310 310 311 311 311 309 311 312 314 314 314 314 314 314 315 315 316 317 317 318 319 320 320 319 319 320 320 321 322 323 325 325 326 326 326 327 327 328 330 333 335 336 336 335 334
296 296 293 291 287 303 309 307 305 305 297 303 309 311 311 311 310 309 310 311 310 311 310 312 313 312 311 312 312 313 314 313 313 314 316 316 316 316 317 318 319 318 318 318 318 319 321 322 324 325 326 326 326 326 326 328 330 333 333 334 336 334 334
293 292 291 290 302 306 310 307 301 306 310 312 313 311 308 311 311 310 310 311 311 312 312 311 311 311 311 311 312 313 313 312 313 315 315 316 316 316 316 317 317 317 317 317 317 319 320 322 323 324 325 324 326 325 326 330 330 332 332 332 334 333 333
298 297 299 303 308 309 310 311 310 312 314 315 314 312 310 309 309 312 310 311 312 313 313 311 310 308 308 310 311 310 311 312 313 313 313 314 314 315 315 315 317 316 315 316 316 318 319 321 322 324 324 323 323 324 327 330 330 329 331 331 332 331 331
307 308 309 310 309 310 309 312 313 312 313 313 313 312 310 311 311 312 311 312 313 313 313 309 309 308 310 310 309 310 311 311 312 313 313 314 314 314 315 315 315 315 315 316 316 316 318 320 321 322 322 322 322 324 327 329 330 329 330 332 331 330 329
300 295 306 307 307 308 310 310 312 312 312 312 312 311 312 312 312 312 313 313 314 314 313 311 310 309 309 308 310 311 311 311 311 312 312 313 313 313 313 314 315 315 315 314 315 315 315 318 319 320 321 322 324 326 327 327 328 330 330 330 330 331 330
299 300 306 309 310 310 311 309 308 308 310 310 312 311 314 314 314 313 313 313 312 313 311 310 308 309 311 310 310 310 310 310 311 311 312 312 312 313 314 314 315 314 314 314 314 315 316 317 318 319 319 320 322 323 324 324 326 328 328 328 326 327 326
303 306 307 308 309 309 309 309 309 310 310 310 311 313 314 313 312 312 312 311 311 311 311 313 311 310 310 310 311 309 309 310 311 311 311 312 312 312 313 314 315 314 314 314 315 315 316 317 318 318 319 320 322 324 324 325 327 327 327 327 328 326 326
298 299 302 307 300 300 305 308 309 310 312 311 311 311 311 310 310 311 310 309 311 311 312 312 311 309 310 310 310 309 309 310 310 310 311 311 312 312 313 314 315 315 315 315 314 315 315 317 317 318 318 320 321 322 324 325 326 326 327 326 326 325 325
298 304 309 311 310 309 310 310 311 311 311 311 310 309 309 310 310 311 310 309 309 309 310 311 311 310 309 309 309 309 309 310 311 311 311 310 311 312 313 313 313 314 314 315 315 315 316 317 318 320 321 321 321 322 325 325 324 326 326 326 325 323 324
307 309 309 311 310 307 309 310 311 312 313 310 310 310 311 310 310 310 310 310 309 309 309 310 310 310 309 309 309 309 309 310 310 310 310 312 312 312 313 313 314 313 314 314 314 314 315 316 316 318 319 321 322 321 324 325 326 326 326 325 323 322 323
306 311 311 311 312 311 312 312 312 313 313 313 310 310 310 310 310 311 310 308 309 308 306 307 308 310 309 309 309 309 308 309 309 310 311 312 311 312 312 313 313 313 313 313 314 315 315 315 315 317 318 321 324 325 324 323 323 324 325 325 324 325 325

ECMWFFLT2_sfc_thetae_117.txt.gz
Theta_e
307 308 311 310 310 296 302 305 298 300 308 305 300 302 302 303 299 299 309 307 311 317 320 322 323 324 325 327 328 330 331 333 334 334 336 337 340 341 343 343 343 346 345 346 349 348 347 348 347 345 348 347 347 350 350 351 353 353 355 358 357 358 356
306 309 310 310 311 310 304 299 301 307 309 308 303 295 299 296 291 298 307 303 305 306 302 319 319 320 322 324 326 328 328 329 330 331 333 335 337 340 343 346 346 348 346 345 347 350 350 350 349 351 351 350 352 353 351 351 353 351 353 356 358 357 357
305 310 307 305 310 312 303 302 309 299 296 295 304 299 291 291 292 298 303 306 306 307 305 313 313 317 319 320 322 323 324 327 329 331 331 335 337 340 341 343 344 346 348 350 348 348 348 352 352 350 354 353 353 355 354 354 353 353 353 356 357 358 357
304 305 302 295 300 307 309 307 303 306 301 301 297 300 299 297 295 298 298 300 297 311 310 316 315 316 317 319 320 320 322 325 328 331 332 334 336 336 338 341 342 343 344 347 349 347 345 346 347 350 351 350 347 353 357 355 356 355 356 355 357 356 356
302 295 298 296 298 298 297 297 296 300 304 304 300 302 297 295 297 296 294 293 301 310 316 316 318 318 319 320 319 321 322 324 326 327 327 328 331 336 336 339 338 337 338 341 351 354 352 350 352 350 349 348 347 348 355 356 357 357 357 356 357 358 356
294 296 302 303 303 302 299 297 296 297 297 295 292 291 301 299 299 294 295 293 302 313 319 319 321 320 320 321 321 321 322 324 325 326 327 328 329 335 339 338 336 336 337 339 343 352 353 351 350 349 349 349 348 347 351 354 358 358 354 353 353 356 358
296 300 304 306 306 305 303 301 298 302 300 300 296 286 294 305 305 308 303 298 301 317 323 319 320 320 321 321 322 321 322 323 324 326 328 329 330 331 332 335 336 335 336 337 338 341 348 352 354 351 350 350 352 349 351 354 353 355 357 355 353 354 354
302 304 305 306 306 305 301 301 302 300 297 300 300 298 302 302 305 301 300 296 302 318 320 322 321 320 321 322 322 322 322 323 323 324 328 328 328 329 330 331 332 332 333 335 335 336 337 339 340 343 345 345 346 347 346 346 348 351 356 356 354 352 352
291 295 298 299 302 302 299 297 300 302 303 304 301 301 304 300 305 304 299 293 301 313 319 320 318 320 320 320 322 322 321 322 322 323 324 326 328 328 328 328 329 330 331 331 332 334 335 338 339 340 344 346 347 350 351 350 351 351 352 351 353 353 351
285 286 286 288 291 294 298 301 301 302 304 302 301 295 298 291 302 305 301 301 307 312 315 315 317 318 320 321 321 322 322 322 322 323 323 324 326 326 326 326 327 327 329 331 333 334 335 337 338 338 339 342 346 346 349 353 352 350 353 353 354 353 354
292 294 296 303 304 298 294 298 300 301 303 302 302 300 299 295 303 302 304 304 304 308 310 312 313 315 316 317 319 319 320 321 322 322 323 323 324 325 325 325 326 327 327 328 332 334 335 337 338 339 340 341 341 343 347 349 351 353 355 353 353 351 354
300 299 300 299 301 297 297 297 298 301 300 300 299 296 297 306 304 295 306 306 305 306 309 311 312 312 313 314 316 319 320 320 321 321 323 326 324 325 325 325 325 325 326 327 328 330 335 338 338 340 341 342 343 343 343 345 348 348 351 353 353 353 353
301 302 300 300 300 299 298 298 298 299 302 300 298 302 303 305 300 299 306 307 306 307 310 311 312 313 313 314 315 317 320 321 322 321 322 322 322 323 324 325 326 325 326 326 327 328 331 334 335 338 339 339 341 342 344 344 344 347 349 351 351 351 351
298 300 300 300 299 298 299 298 299 299 299 298 301 302 304 310 307 309 309 308 308 310 311 312 313 315 315 315 316 317 318 318 318 319 319 320 321 321 321 323 324 324 325 328 327 328 329 331 334 336 338 339 340 341 342 344 344 347 350 350 350 350 350
296 298 300 300 299 298 296 297 298 298 298 297 298 301 312 313 310 310 309 307 307 314 315 314 315 315 316 316 315 315 316 317 318 317 318 319 319 320 320 321 322 324 324 325 328 327 327 329 333 337 337 337 338 340 342 343 344 345 347 346 347 348 348
293 297 298 298 298 298 297 296 297 298 298 296 298 299 311 310 307 308 307 304 305 311 314 314 314 314 314 313 314 316 316 317 318 317 317 318 318 318 319 320 321 322 322 323 324 324 325 325 326 330 333 335 337 337 339 341 344 344 343 343 343 343 344
292 296 298 297 297 296 293 293 295 298 300 300 298 300 310 313 311 306 303 303 309 311 314 311 312 314 313 312 312 313 315 316 316 316 316 317 318 318 318 318 319 319 321 322 324 324 324 324 324 326 328 329 331 336 336 336 337 337 338 340 340 341 343
292 296 297 298 294 286 286 301 301 300 297 298 296 299 310 313 313 309 311 310 312 312 312 311 311 312 312 313 315 316 314 313 314 314 315 316 317 317 317 317 317 317 318 320 322 324 323 325 327 327 328 328 328 334 336 335 334 334 334 335 337 340 341
290 295 296 291 285 287 302 303 304 305 303 301 303 306 309 312 313 312 310 311 311 313 313 314 314 313 314 314 314 315 315 315 314 313 314 315 317 317 317 317 317 317 318 320 321 321 322 324 326 327 327 327 327 327 331 331 332 332 333 333 334 335 339
294 290 291 282 287 299 302 302 303 307 308 308 308 307 311 313 312 312 310 311 312 313 313 313 314 314 314 315 316 316 316 316 313 313 312 313 315 315 316 316 317 317 318 320 322 321 323 321 321 326 326 328 327 326 327 330 329 330 330 330 331 333 332
288 290 289 290 299 298 300 300 304 302 303 304 303 298 304 312 313 312 311 311 313 314 313 315 314 314 313 310 309 314 313 314 315 314 313 314 314 316 316 317 317 320 319 320 323 323 320 320 323 325 327 328 328 327 326 328 329 329 329 328 329 330 330
294 289 287 290 289 287 294 304 308 308 307 310 310 305 301 313 314 315 312 310 311 313 313 313 312 313 309 305 306 311 312 313 313 314 314 314 314 315 315 315 316 320 320 320 321 320 319 320 323 325 326 326 326 326 327 327 328 328 328 328 329 330 329
294 291 286 285 285 291 301 302 309 308 306 309 309 302 296 307 313 314 313 311 311 312 312 312 312 309 304 303 306 309 311 312 313 312 312 313 314 314 313 313 315 319 321 322 321 321 320 320 321 323 323 324 325 325 327 327 328 327 327 328 329 329 329
293 292 287 285 293 293 302 303 305 306 307 307 301 289 292 307 312 313 313 311 312 313 314 312 310 307 303 303 307 311 312 313 314 313 312 313 313 313 314 316 318 320 321 318 318 318 320 320 322 323 324 324 327 326 325 328 328 328 329 330 331 331 331
292 295 290 293 296 303 307 305 305 305 309 303 290 284 294 309 311 313 313 311 312 313 312 311 305 310 309 309 311 313 313 312 312 313 314 314 314 313 315 319 323 316 316 317 316 317 318 320 321 323 324 324 324 325 325 325 326 329 330 331 332 331 331
289 290 288 290 296 304 304 304 305 305 303 287 288 298 310 309 310 311 311 309 311 311 310 308 307 308 311 313 312 311 311 310 311 313 314 314 314 315 321 322 320 315 315 315 315 316 317 319 321 321 322 324 324 324 323 323 323 327 331 330 331 330 330
292 293 290 286 282 299 311 302 301 306 297 298 306 307 309 309 307 308 308 309 309 310 308 310 309 309 310 310 310 310 310 311 312 312 312 312 312 313 313 313 316 316 313 313 314 315 318 319 320 320 321 321 322 321 321 321 324 326 327 330 331 331 330
288 287 286 285 297 303 310 304 297 306 307 309 312 307 303 308 308 307 308 309 309 309 308 307 307 307 308 309 309 309 310 311 311 312 312 312 312 312 313 314 314 317 312 314 314 316 318 319 319 320 319 319 321 321 321 322 325 326 326 326 328 331 331
296 291 294 299 306 306 309 309 308 309 311 312 312 309 307 306 307 310 308 308 308 308 307 306 306 306 308 308 309 308 309 309 310 310 310 311 311 312 312 312 316 314 312 312 314 315 316 317 318 319 319 318 320 320 320 324 326 326 326 327 327 329 328
308 308 307 307 307 307 308 310 310 309 310 312 311 310 307 309 309 310 308 308 308 308 307 305 305 307 307 307 307 308 309 309 310 311 310 310 311 311 311 311 313 313 313 313 313 314 314 315 316 318 317 318 317 319 321 324 321 323 325 325 326 326 327
296 291 306 308 307 307 308 308 309 309 310 309 310 309 309 309 311 311 312 310 309 309 309 307 306 306 307 307 308 308 308 308 308 308 309 310 310 310 310 312 314 313 314 313 313 313 314 315 315 316 316 317 317 319 320 321 321 323 323 326 326 325 323
297 300 305 308 308 308 308 307 306 305 306 309 311 311 310 310 311 312 311 311 309 309 307 307 306 307 308 307 307 308 308 307 308 309 309 309 310 310 311 313 313 312 312 311 313 314 314 314 315 316 317 317 317 318 319 321 321 322 324 325 324 322 322
300 307 305 307 307 309 307 310 308 307 307 308 309 310 310 309 308 308 309 310 308 309 307 309 308 307 307 308 307 307 307 308 309 309 309 309 308 309 310 312 312 311 313 313 313 314 313 314 315 316 316 318 319 319 319 319 321 322 323 325 325 323 322
296 297 301 306 300 297 305 309 310 308 310 310 309 309 308 308 308 307 306 307 310 310 311 309 308 306 307 307 307 307 307 306 307 308 308 308 308 310 311 311 313 313 314 314 313 313 312 313 314 315 315 317 320 322 322 322 321 320 323 323 322 321 322
295 303 308 309 308 308 308 308 311 310 310 310 308 308 307 308 308 308 307 305 306 308 309 309 308 307 308 307 307 307 306 308 309 308 307 308 308 309 309 310 311 313 313 314 313 313 312 314 313 314 314 316 320 320 322 322 322 322 322 322 322 322 324
306 309 309 312 309 306 307 309 311 309 310 309 308 309 309 308 308 308 308 306 305 306 307 308 309 309 307 307 307 305 307 307 308 308 307 309 308 310 309 310 312 312 313 314 313 312 312 313 312 313 314 317 317 318 319 320 321 322 322 322 321 321 322
303 309 310 311 310 311 311 311 310 313 312 311 308 307 308 307 308 308 307 307 308 307 306 307 307 308 307 308 307 307 305 305 308 309 312 312 309 310 311 311 310 310 310 311 311 311 313 313 312 313 314 316 316 316 317 317 318 319 321 321 320 321 322

ECMWFFLT2_sfc_thetae_120.txt.gz
Theta_e
306 305 308 308 306 295 298 302 298 299 302 302 296 299 299 302 301 296 306 305 310 317 316 319 322 321 323 325 323 326 330 334 334 334 335 337 340 339 339 337 339 343 342 343 346 345 340 333 334 343 345 347 346 346 348 348 347 352 350 351 351 353 352
306 306 306 306 307 304 303 298 298 303 306 303 296 291 290 290 293 296 305 302 303 304 301 318 319 319 320 322 322 324 326 329 330 330 333 334 337 340 341 340 342 342 343 343 347 350 349 337 335 340 345 348 348 348 348 349 348 350 352 351 351 352 352
303 305 304 303 304 308 299 298 304 299 294 295 296 294 289 290 293 297 302 304 303 304 304 313 314 317 320 322 324 326 326 327 328 331 332 334 336 337 339 341 343 342 339 340 342 347 348 350 350 345 343 347 349 349 350 351 349 350 354 354 353 353 353
301 299 297 293 296 300 304 302 298 302 297 295 294 293 293 299 293 296 298 302 298 309 309 316 317 319 321 322 323 323 325 326 327 327 329 333 333 335 335 336 338 338 341 346 347 348 346 346 350 348 348 346 347 349 350 351 351 351 354 355 354 353 353
301 294 294 292 294 294 298 302 293 297 298 299 298 297 297 297 295 297 296 294 300 310 315 317 318 320 320 320 320 321 322 324 325 327 330 333 334 334 334 335 336 337 339 345 349 349 347 348 349 349 347 346 346 350 350 352 351 350 352 355 356 355 355
293 292 296 299 299 296 293 293 293 294 295 294 292 288 299 304 299 293 296 291 300 311 319 320 320 322 322 322 321 321 322 323 324 326 328 329 331 334 332 335 336 335 336 338 339 345 348 347 349 349 348 347 345 345 348 349 350 351 352 352 355 355 356
293 296 299 303 303 302 299 298 295 297 294 294 291 287 290 302 302 305 301 296 297 314 319 320 322 324 324 324 322 320 321 323 324 325 327 328 329 330 331 331 332 335 335 336 337 338 341 344 346 348 348 348 347 347 347 350 350 349 349 347 346 345 348
298 298 300 302 303 303 300 297 297 297 294 295 294 293 298 300 301 298 296 295 301 316 320 321 321 323 323 324 323 321 321 322 323 324 324 325 326 327 328 330 332 333 334 335 335 336 337 340 343 345 345 345 344 344 348 346 346 351 351 350 348 346 346
288 291 295 295 299 297 296 295 296 299 300 305 303 303 303 300 302 301 297 293 302 313 319 321 322 322 323 323 323 321 319 321 323 323 323 324 325 325 326 327 329 332 332 332 333 334 335 338 340 341 343 344 346 347 349 348 347 348 347 348 348 349 350
281 282 283 286 289 290 294 297 296 299 302 300 299 299 300 292 301 302 298 298 306 313 316 317 320 321 319 321 320 321 321 321 321 322 323 323 324 324 325 326 327 329 332 333 334 334 335 336 338 339 341 344 345 345 346 348 348 350 350 350 348 347 351
285 287 290 295 303 294 291 294 296 298 300 302 302 300 298 295 299 299 301 304 305 308 311 313 315 319 318 318 319 319 319 320 321 321 322 323 323 323 324 325 326 327 329 332 335 336 336 337 337 339 340 340 342 343 345 347 349 350 351 351 351 351 352
296 296 297 296 300 294 294 294 295 297 298 300 301 300 298 303 301 292 302 307 305 306 310 312 314 317 317 318 318 318 318 319 320 321 323 325 322 322 323 324 325 325 327 330 333 335 336 336 337 338 340 341 341 342 343 346 348 348 349 350 352 351 350
295 296 297 297 296 295 295 295 295 295 295 297 302 304 306 304 299 297 303 307 306 308 311 313 315 316 316 317 318 319 319 320 321 320 320 320 320 320 321 322 324 324 325 327 330 333 335 337 336 337 338 340 341 342 344 345 348 350 350 349 349 350 350
296 296 297 297 295 295 294 295 295 295 297 298 301 307 307 305 302 306 306 305 307 310 311 314 315 317 318 318 319 319 319 319 319 318 318 319 319 319 320 320 322 324 325 326 327 329 332 335 335 337 337 338 340 341 342 344 345 348 350 349 348 348 349
294 297 299 297 295 295 292 294 295 295 297 307 308 308 308 308 306 307 306 305 304 312 313 313 315 317 318 318 317 316 316 317 317 316 316 317 317 318 319 320 320 322 322 322 322 324 326 328 331 335 337 338 340 340 341 342 343 345 345 344 344 344 344
291 296 296 296 296 295 293 293 294 294 294 298 305 306 309 306 303 305 305 302 303 309 313 313 313 314 315 313 313 314 315 316 316 315 315 316 316 317 317 318 318 320 321 321 322 323 323 325 328 330 333 337 337 337 338 339 342 344 343 342 342 342 343
290 295 296 295 294 290 288 291 294 299 297 295 301 309 312 310 308 304 302 302 308 310 312 310 311 312 312 312 313 313 314 315 315 314 314 314 314 315 316 316 317 318 320 321 322 323 324 324 326 328 332 332 331 333 333 335 338 339 341 342 341 341 342
289 293 293 294 287 282 285 293 299 301 298 300 307 307 308 310 310 307 309 308 310 310 310 309 309 311 311 312 313 315 314 313 313 314 313 313 313 314 315 316 315 317 319 319 320 322 325 326 327 327 330 330 331 333 333 332 332 332 334 336 339 340 341
287 290 290 286 281 283 295 300 304 305 306 309 310 309 310 309 309 309 308 309 309 310 310 310 311 312 313 314 313 314 315 315 314 313 312 312 312 312 312 313 315 316 317 318 319 320 323 327 327 327 327 328 329 329 329 328 329 329 330 330 331 333 338
288 284 284 279 281 292 300 300 308 312 313 313 310 307 309 310 310 310 308 309 310 310 310 311 312 312 312 313 313 313 314 316 315 313 312 312 312 312 312 313 314 315 317 317 318 320 325 325 325 326 326 327 327 327 328 327 328 328 328 328 329 330 330
284 285 283 284 292 295 295 298 301 301 301 306 307 300 303 309 313 310 309 309 310 310 310 311 311 311 309 307 307 313 313 314 315 314 313 313 313 313 314 315 315 316 318 318 320 321 320 321 322 322 324 326 326 325 326 326 326 327 327 327 328 329 330
290 286 281 282 284 284 288 298 303 309 310 311 311 308 303 310 311 314 311 309 309 309 310 310 310 310 305 302 303 309 311 313 314 315 315 314 314 314 314 316 317 317 318 319 321 320 320 320 321 322 324 324 324 325 325 326 326 326 326 326 328 329 329
288 285 282 281 282 285 291 296 301 309 313 312 311 305 299 307 311 311 310 310 312 310 309 309 310 306 300 300 303 307 309 311 312 311 311 311 313 315 315 315 315 316 318 319 319 319 319 319 320 322 323 324 324 324 326 326 326 325 325 325 326 327 328
291 288 285 282 287 289 297 300 302 308 310 310 304 292 294 305 311 312 311 310 310 311 313 313 310 305 300 300 303 309 310 311 311 311 311 313 314 314 315 315 315 316 317 316 316 316 316 317 320 322 323 323 326 324 323 322 323 326 325 326 326 326 327
290 293 287 288 290 298 303 301 301 300 306 299 289 284 296 308 311 313 312 311 311 311 310 310 306 307 308 307 309 310 311 310 310 312 314 314 314 313 314 316 320 313 313 314 314 315 316 317 319 321 322 321 320 323 320 318 320 322 324 327 327 326 325
286 285 286 286 290 298 302 299 305 305 301 288 284 292 301 309 310 312 313 312 311 312 307 304 304 307 310 311 310 310 310 310 310 312 312 312 313 316 319 320 316 312 313 313 314 315 316 318 319 318 318 320 320 320 317 317 319 322 323 324 325 326 324
287 287 285 285 283 295 305 303 298 303 291 287 295 303 307 311 310 311 312 312 309 308 306 307 308 309 308 309 309 309 310 309 309 309 310 310 310 310 310 312 316 313 311 312 313 313 315 316 317 317 318 319 319 318 315 317 321 323 325 323 324 326 326
285 283 282 283 290 298 306 300 293 301 302 303 305 304 303 307 308 308 307 308 308 308 306 306 307 307 307 308 308 308 308 308 309 309 309 310 310 310 312 313 313 315 311 312 312 313 314 315 315 315 315 316 319 318 314 318 321 322 323 322 323 325 328
291 289 290 295 297 301 305 305 304 304 306 306 306 306 305 305 305 307 306 305 306 307 307 307 306 306 307 307 308 307 307 307 307 307 308 308 308 309 309 311 314 311 310 310 311 312 313 314 314 315 314 314 317 315 315 319 320 319 321 322 324 323 322
303 302 301 305 303 303 303 305 305 305 306 307 308 307 305 304 305 305 305 305 305 305 307 306 305 306 306 306 306 307 307 307 307 309 307 308 308 309 309 309 311 310 311 311 312 312 312 314 314 316 315 314 315 315 317 318 318 318 321 322 324 323 322
291 289 299 303 304 305 304 304 307 308 308 306 308 307 306 306 306 306 306 305 305 306 306 305 305 305 306 306 306 306 306 306 306 306 306 306 307 307 308 311 311 310 311 311 313 312 312 312 313 314 314 315 316 318 319 319 318 317 320 322 323 322 319
291 293 300 303 306 306 307 306 304 305 307 307 308 308 308 308 307 307 306 306 305 306 305 305 305 305 306 305 304 305 305 305 305 305 305 305 306 307 308 310 311 310 310 310 311 311 311 311 312 313 314 314 316 318 320 320 320 319 320 321 321 318 319
296 301 302 302 302 301 303 306 304 307 307 307 306 307 307 307 306 306 305 306 305 306 305 306 305 304 305 305 305 305 305 305 305 305 305 305 305 306 307 309 311 309 311 311 311 312 311 311 311 312 313 315 317 317 318 318 320 321 323 324 322 319 320
290 293 296 301 295 295 299 305 307 305 307 306 305 305 305 305 305 305 305 306 307 307 306 305 305 304 304 305 305 305 305 304 304 305 305 305 306 306 307 310 311 313 313 311 311 311 309 310 311 312 314 315 315 316 316 316 317 319 321 322 320 319 321
288 295 302 304 301 299 301 305 307 307 307 306 304 304 303 304 305 306 306 305 305 305 306 306 305 304 304 304 304 304 304 304 305 305 305 304 304 304 307 308 309 309 310 313 312 311 309 311 310 312 315 315 315 315 314 314 314 315 317 320 319 319 322
299 304 304 306 304 302 306 308 307 307 307 306 305 305 304 304 305 306 306 305 304 304 305 306 306 305 304 304 304 303 304 304 304 304 305 305 304 306 309 309 310 310 310 310 310 310 308 309 309 311 313 313 313 313 313 312 312 313 313 315 315 316 319
299 304 304 305 305 305 308 310 309 308 308 309 305 304 304 304 304 305 305 305 305 305 304 305 305 305 304 304 304 304 303 304 305 306 308 309 308 308 308 309 309 309 309 308 308 307 307 308 309 312 312 312 313 312 312 311 311 312 312 313 312 313 317

ECMWFFLT2_sfc_thetae_123.txt.gz
Theta_e
302 302 305 305 303 294 297 300 296 297 300 299 295 301 302 304 301 297 303 301 307 314 314 318 320 322 322 325 326 328 329 330 330 330 332 334 335 336 336 338 338 335 336 333 330 333 336 338 338 340 342 343 343 343 345 344 345 346 344 348 347 348 347
302 303 304 305 304 301 300 295 297 302 304 301 296 293 292 292 292 295 303 299 301 302 300 316 318 318 320 322 324 326 327 329 329 329 332 334 337 339 338 339 340 341 340 341 340 333 334 336 338 340 342 343 344 344 345 344 346 346 345 347 348 348 347
300 300 302 301 304 302 298 297 300 299 295 295 294 297 290 290 293 296 299 301 301 300 300 310 313 316 318 320 322 323 324 327 327 329 332 335 336 335 335 336 339 340 339 340 340 343 338 335 339 340 343 344 344 344 346 346 346 348 346 347 349 350 349
297 297 297 293 295 301 301 300 297 299 296 292 293 293 292 299 294 296 297 301 295 304 305 312 314 318 320 321 322 323 325 325 326 327 330 331 332 332 333 335 336 339 342 344 342 344 342 342 341 341 344 345 344 344 346 346 346 349 348 347 349 349 350
296 294 293 293 293 293 296 293 293 296 296 300 297 296 299 296 295 295 296 296 298 303 311 314 316 319 321 322 322 323 325 326 328 329 330 331 331 332 334 334 334 336 337 342 346 342 343 346 349 344 344 345 345 345 346 348 345 347 349 348 348 349 350
287 290 293 297 295 295 294 291 292 291 293 292 289 288 296 301 298 293 297 294 297 306 319 318 319 321 321 322 323 323 325 326 328 330 332 333 332 333 334 335 334 335 336 338 342 343 343 345 345 344 345 346 346 347 349 350 349 349 350 351 350 350 350
292 295 298 300 299 298 295 295 295 293 291 291 288 285 290 300 300 303 299 295 295 314 319 320 321 321 322 322 323 322 323 325 326 328 329 330 331 331 332 333 334 335 336 337 339 340 342 344 345 345 345 346 346 347 348 348 348 349 351 349 350 352 352
296 297 296 299 300 300 296 295 294 294 293 292 291 290 295 297 299 296 294 294 300 316 320 319 320 321 322 323 322 321 323 324 324 325 326 327 329 330 331 333 333 333 334 335 336 337 340 343 343 343 343 344 346 347 348 347 347 348 348 347 348 348 348
289 290 292 294 297 296 293 294 293 297 299 301 298 302 300 298 299 298 296 292 301 314 320 318 320 320 320 320 322 322 321 322 323 324 325 326 328 328 330 331 332 333 333 333 334 337 339 341 343 342 342 343 344 345 346 347 346 348 348 347 347 348 348
284 283 281 284 289 290 293 295 294 299 303 303 301 297 297 289 298 299 297 298 306 315 318 317 318 319 319 321 320 322 321 320 320 322 323 325 326 326 328 330 331 331 331 333 334 335 337 340 341 342 342 344 344 344 344 346 347 346 347 348 346 346 349
287 289 290 292 301 291 290 295 293 293 299 302 302 298 295 293 297 298 298 303 306 309 314 314 315 316 316 317 319 319 319 320 320 321 322 323 324 325 326 328 330 331 331 332 334 336 337 339 339 340 341 342 343 342 344 346 347 347 347 347 345 344 349
296 296 296 297 300 292 291 293 295 294 297 302 302 298 294 299 300 291 299 308 307 309 312 314 314 315 315 317 318 319 319 319 320 321 322 324 323 324 326 328 329 329 331 332 333 334 336 338 340 341 342 343 344 344 344 345 347 347 347 347 346 346 347
295 296 296 295 293 293 293 293 296 294 296 303 301 300 301 304 298 296 302 308 307 309 312 314 315 315 315 316 316 318 320 320 319 319 319 320 321 323 324 325 327 328 329 330 332 334 335 337 338 339 340 341 343 344 347 348 348 348 350 350 349 348 347
296 296 297 296 293 291 291 292 292 296 299 301 304 303 304 302 300 302 307 308 308 311 313 315 316 317 317 317 318 319 318 318 318 317 317 319 320 321 321 323 324 326 327 328 330 333 335 336 336 337 337 340 342 343 345 347 347 349 350 349 349 349 349
294 296 297 295 294 292 291 292 293 304 306 306 306 306 307 308 306 308 308 306 306 310 315 316 316 317 317 317 317 317 317 317 316 315 316 316 317 318 319 319 320 321 322 324 326 329 333 335 336 336 336 338 339 340 341 343 345 347 347 345 345 346 346
290 295 295 294 295 292 291 291 293 292 299 302 304 303 306 304 303 305 305 304 304 309 316 316 315 315 315 315 315 314 314 315 316 314 314 315 316 317 318 319 320 321 322 324 326 329 330 332 333 333 332 333 335 335 338 339 342 344 343 343 343 343 344
289 294 294 294 294 289 286 288 292 294 295 301 306 307 310 309 308 304 302 304 309 313 316 313 313 314 314 314 313 312 313 314 314 313 312 313 315 316 318 319 319 320 322 324 325 326 327 328 329 330 331 331 331 332 333 336 338 339 341 340 339 339 341
289 295 293 296 289 283 286 293 298 298 296 305 304 304 306 309 310 307 309 308 311 313 313 313 312 313 312 313 314 315 314 312 312 311 311 311 313 315 316 316 316 319 321 323 325 325 325 327 328 328 329 328 330 332 331 332 333 334 334 335 338 340 341
286 291 293 289 282 285 295 300 301 303 300 308 305 304 306 306 307 308 307 308 310 312 314 314 313 313 313 315 314 314 314 313 311 310 310 311 313 314 315 317 319 320 321 322 323 324 325 327 326 325 325 327 327 327 327 327 328 329 330 330 330 331 333
287 286 287 282 284 293 299 299 305 313 310 309 308 304 305 306 307 309 307 308 310 311 312 312 313 313 313 314 314 314 314 314 311 310 310 312 314 315 316 317 317 318 319 319 320 321 325 324 324 325 324 325 326 325 327 326 327 327 328 328 329 330 329
283 285 285 287 295 293 295 299 305 300 302 305 305 298 300 306 308 308 307 307 309 310 311 312 312 312 312 309 308 313 313 312 312 312 311 313 314 315 316 317 317 318 319 319 321 322 322 322 323 323 324 325 325 325 325 325 325 325 325 326 327 329 331
286 282 281 284 285 283 288 297 303 304 307 310 309 305 298 305 309 310 308 307 309 310 310 310 310 311 308 303 304 310 312 312 311 313 314 315 315 316 316 317 317 317 317 318 320 320 320 321 322 324 325 324 324 324 325 325 325 325 325 324 325 326 326
284 282 280 281 283 287 294 296 300 303 308 311 310 303 296 304 309 312 310 308 309 309 309 308 309 307 302 301 304 308 311 311 312 312 313 315 315 315 315 315 315 316 317 317 318 317 317 318 320 321 322 322 321 319 321 321 321 322 323 325 325 324 325
288 284 280 281 285 288 297 299 300 301 302 305 304 292 293 303 309 311 311 309 309 309 309 309 308 305 300 301 304 309 310 310 312 312 312 312 312 313 314 314 315 316 317 316 314 314 314 315 318 320 320 321 323 319 318 319 319 320 320 321 323 323 323
290 290 282 284 286 295 299 299 302 302 303 299 291 287 298 307 309 309 310 310 309 310 310 308 302 305 306 307 308 309 311 311 311 312 312 312 313 313 314 315 319 313 314 314 313 314 314 315 316 318 319 318 317 319 318 316 318 319 320 321 322 323 322
284 282 283 283 285 291 300 303 303 303 298 289 283 291 298 310 309 310 310 310 311 312 310 308 308 310 310 311 310 310 311 310 311 311 311 312 313 315 318 318 316 312 312 312 312 313 313 314 316 316 318 318 317 315 314 314 316 318 321 321 322 323 324
285 283 283 282 281 292 302 301 298 300 293 289 291 299 305 310 310 310 310 311 312 312 309 311 311 310 310 311 311 310 310 310 309 310 310 310 310 310 311 312 315 313 311 311 311 312 313 314 314 314 316 317 316 315 313 314 316 318 321 320 321 322 324
282 280 281 281 288 296 302 298 293 295 299 299 299 303 304 308 310 310 309 309 311 309 308 308 308 308 308 308 309 308 308 308 308 308 308 309 309 309 311 312 312 314 311 311 311 312 313 314 313 314 315 317 318 317 314 316 317 318 318 319 321 322 323
290 287 287 292 295 298 301 302 300 301 303 304 303 304 304 308 308 309 308 306 307 308 308 307 307 306 308 307 308 307 306 307 307 307 307 308 308 309 310 311 314 312 311 310 311 311 312 313 313 313 314 316 317 315 315 319 318 316 317 320 322 321 319
297 298 297 301 301 301 302 303 304 303 304 305 304 304 302 302 304 307 307 306 307 307 308 307 307 307 307 307 307 307 307 306 307 308 307 307 308 309 310 310 312 311 311 310 310 310 310 312 313 315 314 314 314 314 317 318 318 316 317 320 323 321 319
290 289 296 299 301 303 303 303 304 306 305 305 304 303 302 303 304 305 306 306 307 308 308 307 306 306 307 306 306 307 307 307 306 306 306 306 306 307 308 310 312 310 310 309 310 310 310 310 312 314 313 314 315 315 316 316 318 318 320 322 322 319 317
291 292 296 300 302 303 303 303 301 303 304 305 305 305 305 307 309 309 309 310 310 312 309 308 307 306 307 306 305 306 306 305 305 305 305 305 306 308 309 310 310 309 308 308 309 309 309 309 311 313 313 312 313 313 313 314 316 319 322 322 318 317 318
293 296 297 299 301 300 301 304 305 305 304 304 303 303 304 305 306 307 307 309 308 309 309 309 308 307 306 306 305 304 304 304 304 304 304 305 306 307 308 309 311 308 309 309 309 310 309 309 311 311 311 311 311 311 311 312 314 317 319 320 319 317 318
285 290 294 299 294 293 298 302 304 304 305 304 303 303 303 303 304 306 305 305 308 308 308 308 307 305 304 304 304 304 303 303 303 304 304 305 306 307 308 310 309 310 311 309 309 309 307 308 311 310 310 310 310 310 310 311 311 313 316 317 314 315 318
288 294 298 299 300 298 299 303 305 305 306 305 303 303 302 303 304 305 304 304 304 305 306 306 306 305 304 304 304 304 303 303 304 305 305 305 306 307 308 307 307 308 309 311 310 309 307 310 310 310 310 309 309 309 309 309 310 310 310 313 313 313 317
296 298 300 302 300 299 302 305 305 306 306 306 305 305 304 304 304 305 305 305 304 304 307 308 308 306 306 305 305 303 303 303 304 304 303 305 307 308 308 308 309 309 308 308 308 308 307 309 308 308 309 308 308 308 308 308 309 309 309 310 309 311 312
298 301 302 301 302 302 304 306 308 307 309 308 306 305 307 307 306 305 304 304 305 304 303 304 306 306 305 305 304 303 302 303 304 304 307 310 309 308 308 308 308 308 308 307 306 306 307 307 307 308 307 308 308 307 307 308 308 309 309 309 309 310 311

ECMWFFLT2_sfc_thetae_126.txt.gz
Theta_e
298 300 302 301 302 291 295 297 292 294 300 302 297 302 303 302 298 294 300 299 303 311 313 319 320 322 323 326 328 329 329 330 330 329 332 334 335 336 336 336 333 327 329 332 334 335 336 337 337 339 340 343 344 344 345 345 345 346 345 347 347 348 349
299 300 302 302 302 299 297 293 296 301 302 302 299 292 293 291 290 293 301 300 300 301 299 315 318 318 321 323 325 327 328 329 328 329 331 334 335 335 336 337 338 338 334 331 334 335 337 337 337 338 341 343 344 345 345 344 345 344 345 346 347 348 348
296 297 301 300 301 302 300 299 303 299 294 294 296 299 290 289 289 291 296 300 300 300 300 310 315 317 319 322 324 325 326 327 328 329 333 335 336 335 336 336 338 338 338 337 333 334 337 338 340 339 341 342 343 345 346 345 345 345 345 346 348 349 349
296 295 295 293 293 299 299 301 298 297 297 292 294 296 297 297 291 292 294 299 295 303 303 311 315 318 320 322 324 325 327 328 330 331 332 333 333 335 335 336 337 340 342 345 343 334 334 336 338 339 341 342 342 343 346 346 346 347 347 346 348 347 348
295 293 293 292 292 292 294 291 295 294 295 299 297 295 299 296 293 291 292 292 298 301 308 313 318 320 322 323 323 324 326 328 329 331 331 331 332 333 334 335 336 338 340 345 343 342 338 338 340 341 341 342 342 343 345 346 345 346 346 346 347 348 349
286 290 292 295 293 294 293 292 292 293 292 293 292 289 295 300 295 291 293 291 294 303 318 318 321 323 324 325 324 325 326 328 329 330 332 332 332 333 333 334 336 337 340 342 342 343 344 341 340 339 341 343 343 343 345 347 347 347 347 346 347 348 350
292 293 296 298 296 295 293 293 294 292 292 293 289 285 291 299 299 302 296 292 296 311 320 321 322 323 324 325 326 325 326 327 327 328 329 331 332 333 333 334 335 337 338 341 342 342 343 343 342 340 343 343 344 345 346 348 347 348 350 349 349 349 350
293 296 294 297 298 295 294 294 291 293 293 291 292 290 296 298 298 296 292 292 296 314 322 322 322 323 324 325 325 324 325 325 326 326 327 329 330 331 332 334 335 337 338 340 340 340 342 342 343 343 344 345 346 347 348 349 348 350 351 352 352 351 350
286 287 289 292 295 295 292 293 292 296 300 300 297 301 300 299 299 297 295 290 296 313 321 321 322 322 321 321 323 323 322 324 325 325 327 328 330 330 331 332 334 336 338 338 338 339 340 341 342 344 345 346 346 347 348 348 348 350 350 351 352 352 352
282 283 281 284 287 289 291 293 291 297 302 301 300 298 295 289 298 297 293 291 303 315 318 318 320 319 319 320 321 322 322 323 323 324 325 326 327 328 330 331 333 334 335 337 337 338 339 340 341 342 344 345 346 347 347 348 347 348 349 350 351 351 352
285 287 288 291 300 290 289 293 292 292 299 302 299 296 293 292 295 298 295 299 306 310 314 315 317 317 317 317 318 318 319 321 322 324 325 326 327 329 330 331 332 333 333 334 335 337 340 341 341 342 343 343 345 345 346 347 347 346 347 347 346 348 350
294 295 295 295 297 291 290 290 291 293 297 300 299 295 291 296 299 291 295 305 307 309 313 315 315 317 317 317 317 317 318 319 321 323 324 327 327 328 329 330 331 331 332 333 335 337 338 340 342 343 343 343 343 344 344 346 346 346 346 346 345 343 344
296 296 296 295 292 291 291 291 292 295 294 299 298 296 298 303 297 295 298 306 307 311 314 316 316 317 317 317 317 318 319 320 320 322 323 324 326 327 327 328 330 331 332 333 334 336 338 339 340 341 342 343 344 342 342 343 345 346 348 347 346 346 346
295 295 295 295 293 291 290 292 294 298 301 300 300 301 302 302 298 298 303 307 307 312 314 316 317 319 318 318 319 319 318 318 319 321 323 324 325 326 327 327 328 330 331 332 333 335 336 336 337 338 340 342 343 342 342 343 345 346 348 349 348 347 347
293 295 296 295 294 291 291 291 294 295 296 303 304 304 305 306 304 305 307 306 307 314 317 316 318 318 318 318 317 316 317 317 319 319 321 322 321 321 321 321 324 327 330 331 332 333 334 334 334 334 335 337 340 343 345 346 346 347 348 346 347 348 347
290 294 295 295 294 291 289 291 294 294 295 299 301 301 305 301 302 305 305 304 306 313 316 316 316 316 316 315 315 314 315 316 317 316 317 318 318 319 321 323 325 328 329 330 330 330 330 330 331 331 332 334 336 336 338 341 343 345 345 345 344 345 347
286 291 296 295 292 287 287 291 293 294 295 296 301 305 309 308 308 305 302 304 312 314 316 314 314 315 314 314 314 313 314 315 315 315 315 316 318 319 322 324 325 326 326 327 327 327 327 327 329 331 332 331 331 332 332 334 337 337 339 340 340 341 343
285 290 294 294 289 282 285 294 297 297 296 301 303 302 304 307 306 304 307 309 314 315 314 314 313 313 313 314 315 316 314 313 313 314 315 316 317 319 321 323 323 324 324 324 325 326 326 326 327 328 330 330 331 333 333 333 332 332 331 332 334 336 339
284 288 292 290 284 285 293 297 302 305 300 305 304 302 303 305 307 308 310 312 313 314 315 315 315 315 315 315 314 314 314 314 314 313 314 314 316 318 320 321 322 322 322 323 324 325 325 327 327 326 326 327 328 330 331 331 332 330 330 330 330 331 332
285 283 284 279 283 292 296 297 300 308 307 307 304 304 305 305 306 309 310 313 313 314 314 315 315 314 314 314 314 313 313 315 314 313 313 315 317 319 320 320 320 321 321 322 322 323 326 325 326 326 326 327 326 327 328 327 328 328 328 328 329 330 331
283 282 282 286 292 294 294 296 297 297 296 299 301 296 299 305 306 308 311 311 313 313 313 313 313 313 313 310 309 312 312 313 315 315 316 317 318 318 319 319 319 321 323 323 324 325 324 324 325 325 326 326 325 325 326 326 327 326 326 326 326 328 329
282 282 282 282 285 284 290 298 302 303 302 303 305 303 299 304 307 309 311 310 311 311 312 311 312 313 309 305 306 310 311 313 313 316 316 317 317 318 318 319 319 320 321 322 324 322 322 322 323 323 322 322 322 322 322 323 324 325 325 325 326 326 326
285 281 279 279 282 285 294 297 301 302 303 301 306 301 295 302 307 309 311 310 311 311 311 310 312 310 305 304 306 309 311 313 315 315 315 316 316 316 317 317 316 317 318 319 320 320 320 319 321 323 322 321 320 320 320 320 321 321 322 324 325 325 325
287 280 281 281 283 287 296 299 302 304 305 303 302 289 290 300 308 310 311 310 310 311 312 312 311 309 304 304 306 310 312 314 315 315 314 314 314 315 316 316 317 318 320 318 317 317 317 318 320 320 320 321 322 318 318 319 318 319 321 322 324 326 325
290 290 281 282 285 293 299 300 302 303 304 299 292 286 294 305 308 310 312 311 312 312 312 313 309 304 308 309 309 311 313 313 313 314 315 314 315 314 315 316 320 314 314 314 314 314 315 318 319 319 318 317 318 319 318 316 317 318 320 323 325 326 325
284 282 284 283 284 290 297 302 302 303 301 291 287 296 301 304 308 309 312 311 311 312 311 306 305 307 310 311 311 311 312 312 312 312 312 313 313 316 319 319 315 313 312 313 313 313 314 316 318 318 318 318 317 317 317 316 317 318 321 322 324 325 325
284 280 283 280 280 290 300 300 299 303 296 294 297 300 304 308 310 310 310 311 310 309 306 308 308 308 309 310 310 311 311 311 311 311 311 312 312 313 312 313 315 314 312 312 312 313 314 315 317 319 319 318 318 317 316 317 318 319 321 322 324 324 325
284 281 281 281 288 295 300 299 293 297 302 303 303 302 303 309 310 310 309 310 310 309 308 307 308 309 309 310 310 310 310 311 311 312 312 312 311 311 312 313 313 314 312 312 312 313 314 315 316 318 319 319 319 317 315 318 319 320 320 322 323 323 325
288 286 285 289 293 297 300 301 299 301 304 304 304 303 304 308 309 310 310 310 309 309 309 309 309 308 309 310 310 310 309 310 310 310 310 311 312 312 312 313 314 313 311 311 312 312 313 315 315 315 317 318 318 315 315 319 320 319 321 325 323 321 321
295 297 297 299 299 300 302 303 303 302 303 304 304 302 305 304 304 309 310 309 309 311 310 309 309 309 309 309 309 309 309 308 308 310 309 310 311 311 312 312 312 311 311 312 312 312 312 314 314 315 314 314 314 314 316 318 320 321 323 324 323 321 322
289 288 295 298 299 300 301 303 304 305 304 303 303 303 303 304 306 305 307 308 308 309 309 310 308 308 309 309 308 308 307 307 307 307 308 309 310 310 310 312 312 310 311 311 312 312 311 312 312 312 312 312 313 314 315 317 320 323 323 322 322 321 321
290 292 295 298 301 301 302 302 302 302 303 303 303 303 306 309 309 310 309 310 309 309 307 308 308 308 308 307 306 306 306 306 307 307 308 308 309 310 311 311 311 310 310 311 311 311 311 310 311 311 311 311 311 312 313 315 319 322 322 321 319 320 321
293 293 294 300 299 300 300 303 304 304 303 303 302 302 304 306 309 310 312 312 310 309 308 309 308 307 307 307 307 306 306 307 307 308 308 309 309 309 309 310 311 309 311 311 311 312 310 310 310 310 310 310 311 311 312 313 317 319 319 320 320 320 320
284 290 294 297 294 294 299 301 303 304 305 303 303 304 303 302 303 307 310 312 314 313 312 310 309 306 306 308 308 307 307 306 307 307 308 309 309 309 309 310 309 311 312 311 311 311 309 310 310 309 309 309 310 311 312 312 314 317 318 316 316 317 318
288 292 295 297 298 298 300 301 303 305 305 304 303 303 304 304 303 303 305 308 309 309 310 311 308 307 306 306 307 305 304 305 306 308 308 308 308 308 309 308 309 309 310 312 312 311 310 311 310 310 309 309 309 310 311 312 312 313 315 315 313 314 316
294 296 298 299 299 298 301 303 304 305 305 304 304 305 306 306 306 305 304 305 307 306 308 309 309 307 306 306 306 305 305 305 306 307 308 309 309 309 309 309 309 310 311 311 310 310 309 310 309 309 309 308 308 309 311 311 312 313 313 313 311 311 312
296 301 300 300 301 302 302 303 305 305 307 307 305 305 307 306 306 305 303 303 304 306 307 306 307 307 306 306 306 306 305 307 308 307 310 311 310 309 309 309 310 310 310 310 309 308 308 308 308 309 307 307 308 308 309 311 312 313 314 313 310 310 310

ECMWFFLT2_sfc_thetae_129.txt.gz
Theta_e
305 305 307 305 306 296 300 302 302 306 314 313 306 307 308 308 305 304 312 310 313 319 320 325 327 328 330 329 330 332 333 334 335 334 335 336 338 340 333 332 335 339 341 342 342 344 344 344 345 346 349 351 352 353 354 355 356 357 357 360 360 361 362
304 305 307 307 307 308 302 298 304 309 312 313 307 300 305 304 299 302 308 306 310 308 307 324 325 326 326 330 330 332 335 335 333 334 336 338 340 343 338 334 336 339 341 342 342 343 344 344 345 346 351 351 353 354 354 354 355 355 356 357 358 360 360
303 304 306 305 306 308 305 303 310 302 299 299 307 306 297 298 298 300 305 308 310 312 311 317 321 322 324 327 330 332 332 333 333 335 339 342 342 343 341 336 335 337 339 341 342 342 344 344 347 347 349 350 352 353 353 353 354 354 354 355 357 359 360
302 304 305 299 302 305 306 308 305 307 305 303 303 303 307 304 300 299 302 306 305 315 317 319 322 324 324 326 328 330 332 333 334 335 338 340 340 341 342 340 336 335 337 339 341 342 342 343 345 346 347 348 348 350 352 352 353 355 356 355 357 357 358
300 300 303 302 303 301 302 304 302 304 305 307 310 308 306 302 302 301 301 300 307 315 317 321 325 325 326 327 327 330 331 334 336 338 339 339 340 341 342 343 343 340 339 339 342 343 344 345 346 345 345 346 347 349 350 352 353 352 353 354 355 356 357
299 300 302 300 302 305 305 304 302 304 303 302 299 298 307 307 303 298 300 299 311 315 321 322 324 326 327 329 329 329 331 332 334 335 337 338 339 340 341 343 343 344 345 342 340 340 343 346 346 344 345 346 346 348 352 354 354 353 351 352 354 356 357
299 301 303 303 302 301 302 305 305 306 306 308 301 295 302 308 307 308 308 303 309 317 323 325 326 327 328 329 330 329 331 332 333 335 336 338 339 339 339 342 343 345 348 347 344 342 341 343 344 344 346 346 347 348 352 354 354 355 355 355 355 357 356
302 303 303 303 302 301 302 302 302 302 303 305 305 304 309 306 308 305 305 302 309 317 326 326 327 329 329 330 330 329 329 330 332 334 336 336 337 338 339 340 341 343 345 348 349 348 347 344 344 343 345 347 348 351 352 353 354 356 355 358 359 359 358
297 299 302 302 304 304 301 300 301 301 305 304 308 312 313 308 308 308 304 298 308 316 324 326 326 327 327 328 330 330 328 329 331 332 334 336 337 337 338 339 340 342 344 347 348 348 346 347 348 347 348 348 348 353 355 353 354 357 356 360 359 358 359
289 289 290 293 296 298 300 300 300 303 307 310 308 303 308 299 309 308 305 306 312 318 321 322 324 324 326 327 328 330 330 329 329 331 332 333 334 335 337 339 340 342 344 347 349 348 347 349 349 350 351 353 354 355 355 357 357 358 360 360 359 359 359
295 296 298 300 301 300 297 299 303 304 304 307 308 313 306 299 308 307 310 312 311 312 316 318 321 322 322 322 324 325 326 327 329 330 331 332 334 335 336 338 340 342 344 345 345 346 348 348 349 351 353 353 355 354 354 356 358 359 360 360 359 358 358
299 299 298 299 299 297 300 301 303 306 306 305 308 304 302 315 307 302 311 315 311 312 316 319 319 321 321 322 322 323 325 326 327 329 330 332 333 334 335 336 338 339 340 340 342 344 345 345 347 348 351 352 352 352 352 353 356 358 359 360 360 359 359
298 299 298 299 299 298 299 300 301 303 307 307 305 306 307 313 304 300 312 316 314 316 318 321 321 321 321 322 323 324 325 327 328 329 329 330 331 332 333 334 335 336 336 338 341 342 344 345 346 348 348 348 349 352 353 354 355 355 357 358 357 359 359
299 299 299 299 298 296 299 300 302 304 306 309 308 308 308 310 311 309 314 317 316 318 319 321 321 323 324 324 326 326 325 326 327 328 329 329 330 331 332 333 334 335 336 338 340 342 343 343 345 346 347 347 347 349 350 351 351 352 354 353 354 354 353
299 299 301 301 299 299 299 301 304 305 305 308 310 309 310 311 313 313 315 315 314 320 323 323 323 324 325 325 324 324 326 326 327 327 328 330 330 330 330 331 332 334 335 335 336 336 336 339 341 342 343 345 348 348 350 349 348 350 351 349 351 350 350
297 299 299 300 298 300 300 300 304 304 303 304 307 309 311 310 310 313 314 312 313 319 323 323 323 323 322 322 323 324 325 327 327 328 328 330 330 329 329 331 332 333 332 332 331 332 333 335 336 336 336 336 338 342 346 344 345 346 348 349 349 349 350
295 298 299 300 300 298 296 298 302 304 305 305 307 310 314 313 314 312 310 312 320 320 322 319 320 321 322 323 323 324 325 328 328 328 328 328 328 328 330 331 332 331 330 330 330 330 332 333 333 334 333 332 333 335 337 344 346 345 345 346 347 348 350
295 297 298 300 297 290 291 303 306 304 304 304 305 308 312 313 315 314 314 315 320 321 320 319 319 319 320 322 325 327 327 326 327 327 327 327 329 330 331 331 330 329 329 328 328 329 330 331 332 333 334 333 334 335 335 338 340 340 340 340 341 341 345
293 297 299 295 289 291 301 304 307 309 307 308 311 312 310 312 314 315 315 317 319 321 322 322 321 321 322 323 322 323 325 327 326 326 326 328 330 329 329 329 329 328 329 328 328 327 328 329 329 330 331 332 333 333 333 332 334 334 335 337 337 338 340
296 295 295 286 291 300 302 303 305 309 312 309 310 310 312 313 314 317 317 319 320 321 321 321 321 321 321 321 321 322 324 326 326 325 326 329 329 328 328 327 327 328 329 330 330 328 329 328 328 328 328 329 329 328 331 331 331 331 331 333 335 338 339
291 293 294 294 301 299 300 300 302 303 302 302 305 303 309 313 315 319 318 319 319 320 320 320 319 320 320 318 318 320 322 322 325 326 328 330 329 328 328 328 328 330 331 331 331 330 328 327 327 327 328 328 328 327 327 328 329 330 330 330 332 335 336
296 293 291 292 292 290 296 301 306 308 307 306 306 307 308 313 314 320 320 318 318 318 318 317 318 319 316 313 315 318 320 322 323 327 328 328 327 327 327 329 329 330 330 330 329 327 327 326 326 327 327 327 326 326 327 328 328 328 329 329 331 333 335
295 293 290 290 288 293 299 302 305 307 308 307 306 306 302 310 314 320 321 319 319 318 316 316 318 317 312 312 316 318 320 321 324 324 325 325 326 327 327 327 327 327 328 328 328 328 326 325 326 328 328 327 325 325 326 328 328 328 328 328 331 333 335
295 293 290 289 294 294 301 303 306 307 309 306 306 296 296 305 309 317 321 320 319 318 318 318 318 316 312 312 317 319 320 322 324 324 323 323 324 325 326 327 328 328 329 327 325 325 324 325 327 329 328 327 327 326 326 327 327 327 328 330 332 335 337
295 293 292 294 295 301 304 304 307 308 309 306 300 293 301 306 307 312 320 321 321 320 318 318 316 319 323 322 321 323 323 322 322 322 324 324 324 324 325 325 327 326 326 325 323 323 325 326 324 325 326 326 326 327 326 325 325 327 330 333 334 335 336
292 293 290 291 296 299 304 307 308 309 307 298 297 304 308 308 308 311 317 321 322 321 320 319 321 319 323 323 321 321 322 322 323 322 322 321 322 324 325 325 324 323 322 323 323 323 325 326 327 327 327 325 325 325 324 323 324 327 331 333 334 334 333
293 294 291 289 286 300 306 306 308 308 303 302 305 306 308 309 310 312 317 321 322 321 320 320 319 319 318 319 319 321 321 319 317 318 318 320 321 322 322 323 323 322 321 321 321 322 324 326 328 328 327 326 325 324 323 324 326 329 331 332 332 331 331
293 291 289 288 300 303 307 306 300 304 305 307 308 307 307 310 310 314 318 320 322 322 320 318 317 318 318 317 319 319 320 319 319 319 320 321 321 321 322 322 322 322 321 321 321 323 324 326 328 329 328 326 326 325 324 327 329 331 331 332 331 330 330
298 296 298 304 306 307 308 308 307 308 309 310 309 309 309 309 311 315 316 318 319 320 319 318 318 316 317 317 319 318 318 319 318 319 319 320 320 320 319 319 322 322 321 321 321 322 323 325 326 328 329 327 326 325 327 331 332 332 332 332 331 329 328
304 305 305 307 308 307 308 310 310 308 309 310 310 311 311 313 313 314 316 315 316 317 318 317 319 317 318 318 319 320 319 318 319 320 319 319 320 320 320 320 321 321 321 321 321 320 321 322 324 325 327 328 325 325 328 331 333 333 333 332 331 329 328
298 294 304 306 305 307 308 309 311 311 310 310 310 311 312 314 315 315 317 316 315 315 318 318 318 317 318 318 318 319 319 318 318 318 318 318 319 318 319 321 321 321 320 319 319 319 319 321 322 322 323 324 325 327 329 330 332 333 333 332 331 329 328
298 300 303 307 308 308 309 309 308 308 309 311 312 312 313 314 316 317 315 315 315 315 315 316 316 315 315 314 313 314 315 316 318 318 318 318 319 320 321 321 322 322 321 319 319 319 319 319 321 321 321 322 324 326 328 329 330 331 331 330 328 329 328
302 304 306 307 308 307 308 309 310 310 310 310 312 312 312 313 312 314 317 318 315 315 314 315 315 313 312 311 312 311 312 313 314 315 315 317 317 318 319 320 321 320 320 319 319 318 317 319 319 320 320 320 323 325 326 329 330 328 327 328 327 327 326
297 299 302 305 302 302 306 309 310 310 311 311 312 312 311 311 312 313 314 316 318 317 316 315 314 313 313 314 314 312 314 313 314 315 315 316 316 317 318 320 321 321 320 319 318 317 317 318 318 318 319 321 322 323 325 327 328 326 326 325 325 324 324
297 303 306 307 307 307 308 309 311 312 312 312 311 311 311 311 311 313 314 315 315 316 317 317 315 315 315 313 314 312 311 312 313 314 314 313 314 315 317 318 318 318 319 319 318 317 317 318 317 317 318 319 321 323 324 325 326 326 325 323 322 321 322
306 306 308 308 307 306 309 311 312 312 313 312 311 312 312 311 312 312 313 313 314 314 315 316 319 318 314 313 311 310 311 311 313 314 314 315 315 315 316 317 318 318 318 318 317 317 317 317 316 316 315 317 320 320 322 323 324 324 323 321 319 318 319
306 309 309 309 309 310 311 312 312 312 313 313 312 311 313 311 312 313 313 313 312 312 313 313 315 316 316 313 312 312 311 312 313 314 314 314 314 313 314 316 317 317 317 318 318 317 316 316 316 315 315 316 318 319 320 320 320 320 320 319 318 318 319